<?xml version="1.0" encoding="UTF-8" standalone="no" ?>
<gpx xmlns="http://www.topografix.com/GPX/1/1" xmlns:xsi="http://www.w3.org/2001/XMLSchema-instance" xsi:schemaLocation="http://www.topografix.com/GPX/1/1 http://www.topografix.com/GPX/1/1/gpx.xsd" version="1.1" creator="VisuGPX - https://www.visugpx.com">
  <metadata>
    <name>83-DA-Fox Amphoux</name>
    <desc><![CDATA[83-DA-Fox Amphoux : le village, ND de Bon Secours, St Ulfar
2024-09-25]]></desc>
  </metadata>
  <trk>
    <name><![CDATA[2024-09-29-DA-Fox Amphoux]]></name>
    <extensions>
      <line xmlns="http://www.topografix.com/GPX/gpx_style/0/2">
        <width>4</width>
      </line>
    </extensions>
    <trkseg>
      <trkpt lat="43.58042" lon="6.10576">
        <ele>476.9</ele>
        <time>2024-09-29T08:10:46.000Z</time>
      </trkpt>
      <trkpt lat="43.58042" lon="6.10576">
        <ele>476.9</ele>
        <time>2024-09-29T08:10:46.000Z</time>
      </trkpt>
      <trkpt lat="43.58042" lon="6.10576">
        <ele>476.9</ele>
        <time>2024-09-29T08:10:47.000Z</time>
      </trkpt>
      <trkpt lat="43.58048" lon="6.10572">
        <ele>476.7</ele>
        <time>2024-09-29T08:11:10.000Z</time>
      </trkpt>
      <trkpt lat="43.58048" lon="6.10572">
        <ele>476.7</ele>
        <time>2024-09-29T08:11:11.000Z</time>
      </trkpt>
      <trkpt lat="43.58048" lon="6.10572">
        <ele>476.6</ele>
        <time>2024-09-29T08:11:12.000Z</time>
      </trkpt>
      <trkpt lat="43.58046" lon="6.10571">
        <ele>476.3</ele>
        <time>2024-09-29T08:11:30.000Z</time>
      </trkpt>
      <trkpt lat="43.58047" lon="6.10571">
        <ele>476.3</ele>
        <time>2024-09-29T08:11:31.000Z</time>
      </trkpt>
      <trkpt lat="43.58046" lon="6.10571">
        <ele>476.3</ele>
        <time>2024-09-29T08:11:32.000Z</time>
      </trkpt>
      <trkpt lat="43.58046" lon="6.10571">
        <ele>476.2</ele>
        <time>2024-09-29T08:11:33.000Z</time>
      </trkpt>
      <trkpt lat="43.58046" lon="6.10572">
        <ele>476.2</ele>
        <time>2024-09-29T08:11:34.000Z</time>
      </trkpt>
      <trkpt lat="43.58048" lon="6.10572">
        <ele>476.1</ele>
        <time>2024-09-29T08:11:40.000Z</time>
      </trkpt>
      <trkpt lat="43.58048" lon="6.10572">
        <ele>476.1</ele>
        <time>2024-09-29T08:11:41.000Z</time>
      </trkpt>
      <trkpt lat="43.58048" lon="6.10572">
        <ele>476.1</ele>
        <time>2024-09-29T08:11:42.000Z</time>
      </trkpt>
      <trkpt lat="43.58048" lon="6.10572">
        <ele>476.1</ele>
        <time>2024-09-29T08:11:43.000Z</time>
      </trkpt>
      <trkpt lat="43.58048" lon="6.10572">
        <ele>476.1</ele>
        <time>2024-09-29T08:11:44.000Z</time>
      </trkpt>
      <trkpt lat="43.58048" lon="6.10572">
        <ele>476.1</ele>
        <time>2024-09-29T08:11:45.000Z</time>
      </trkpt>
      <trkpt lat="43.58049" lon="6.10572">
        <ele>476.1</ele>
        <time>2024-09-29T08:11:48.000Z</time>
      </trkpt>
      <trkpt lat="43.58049" lon="6.10572">
        <ele>476.1</ele>
        <time>2024-09-29T08:11:49.000Z</time>
      </trkpt>
      <trkpt lat="43.58049" lon="6.10572">
        <ele>476.1</ele>
        <time>2024-09-29T08:11:50.000Z</time>
      </trkpt>
      <trkpt lat="43.58054" lon="6.10576">
        <ele>476.1</ele>
        <time>2024-09-29T08:12:01.000Z</time>
      </trkpt>
      <trkpt lat="43.58054" lon="6.10577">
        <ele>476.1</ele>
        <time>2024-09-29T08:12:02.000Z</time>
      </trkpt>
      <trkpt lat="43.58054" lon="6.10576">
        <ele>476.1</ele>
        <time>2024-09-29T08:12:03.000Z</time>
      </trkpt>
      <trkpt lat="43.58054" lon="6.10576">
        <ele>476.1</ele>
        <time>2024-09-29T08:12:04.000Z</time>
      </trkpt>
      <trkpt lat="43.58054" lon="6.10576">
        <ele>476.1</ele>
        <time>2024-09-29T08:12:05.000Z</time>
      </trkpt>
      <trkpt lat="43.58054" lon="6.10576">
        <ele>476.1</ele>
        <time>2024-09-29T08:12:06.000Z</time>
      </trkpt>
      <trkpt lat="43.58054" lon="6.10576">
        <ele>476.1</ele>
        <time>2024-09-29T08:12:07.000Z</time>
      </trkpt>
      <trkpt lat="43.58052" lon="6.10575">
        <ele>476.1</ele>
        <time>2024-09-29T08:12:10.000Z</time>
      </trkpt>
      <trkpt lat="43.5805" lon="6.10574">
        <ele>476.1</ele>
        <time>2024-09-29T08:12:11.000Z</time>
      </trkpt>
      <trkpt lat="43.58049" lon="6.10574">
        <ele>476.1</ele>
        <time>2024-09-29T08:12:12.000Z</time>
      </trkpt>
      <trkpt lat="43.58047" lon="6.10572">
        <ele>476</ele>
        <time>2024-09-29T08:12:21.000Z</time>
      </trkpt>
      <trkpt lat="43.58047" lon="6.10572">
        <ele>476</ele>
        <time>2024-09-29T08:12:22.000Z</time>
      </trkpt>
      <trkpt lat="43.58047" lon="6.10572">
        <ele>476</ele>
        <time>2024-09-29T08:12:28.000Z</time>
      </trkpt>
      <trkpt lat="43.58047" lon="6.10572">
        <ele>476</ele>
        <time>2024-09-29T08:12:29.000Z</time>
      </trkpt>
      <trkpt lat="43.58047" lon="6.10572">
        <ele>476</ele>
        <time>2024-09-29T08:12:33.000Z</time>
      </trkpt>
      <trkpt lat="43.58047" lon="6.10572">
        <ele>476</ele>
        <time>2024-09-29T08:12:34.000Z</time>
      </trkpt>
      <trkpt lat="43.58048" lon="6.10574">
        <ele>475.9</ele>
        <time>2024-09-29T08:13:00.000Z</time>
      </trkpt>
      <trkpt lat="43.58048" lon="6.10574">
        <ele>475.9</ele>
        <time>2024-09-29T08:13:01.000Z</time>
      </trkpt>
      <trkpt lat="43.58048" lon="6.10574">
        <ele>475.9</ele>
        <time>2024-09-29T08:13:02.000Z</time>
      </trkpt>
      <trkpt lat="43.58048" lon="6.10574">
        <ele>475.9</ele>
        <time>2024-09-29T08:13:03.000Z</time>
      </trkpt>
      <trkpt lat="43.58048" lon="6.10574">
        <ele>475.9</ele>
        <time>2024-09-29T08:13:04.000Z</time>
      </trkpt>
      <trkpt lat="43.58048" lon="6.10575">
        <ele>475.9</ele>
        <time>2024-09-29T08:13:05.000Z</time>
      </trkpt>
      <trkpt lat="43.58048" lon="6.10575">
        <ele>475.9</ele>
        <time>2024-09-29T08:13:06.000Z</time>
      </trkpt>
      <trkpt lat="43.58048" lon="6.10575">
        <ele>475.9</ele>
        <time>2024-09-29T08:13:07.000Z</time>
      </trkpt>
      <trkpt lat="43.58048" lon="6.10575">
        <ele>475.9</ele>
        <time>2024-09-29T08:13:10.000Z</time>
      </trkpt>
      <trkpt lat="43.58048" lon="6.10575">
        <ele>475.9</ele>
        <time>2024-09-29T08:13:11.000Z</time>
      </trkpt>
      <trkpt lat="43.58048" lon="6.10575">
        <ele>475.9</ele>
        <time>2024-09-29T08:13:12.000Z</time>
      </trkpt>
      <trkpt lat="43.58047" lon="6.10575">
        <ele>475.9</ele>
        <time>2024-09-29T08:13:13.000Z</time>
      </trkpt>
      <trkpt lat="43.58046" lon="6.10575">
        <ele>475.9</ele>
        <time>2024-09-29T08:13:14.000Z</time>
      </trkpt>
      <trkpt lat="43.58045" lon="6.10574">
        <ele>475.9</ele>
        <time>2024-09-29T08:13:23.000Z</time>
      </trkpt>
      <trkpt lat="43.58045" lon="6.10574">
        <ele>475.9</ele>
        <time>2024-09-29T08:13:24.000Z</time>
      </trkpt>
      <trkpt lat="43.58045" lon="6.10574">
        <ele>475.9</ele>
        <time>2024-09-29T08:13:25.000Z</time>
      </trkpt>
      <trkpt lat="43.58045" lon="6.10574">
        <ele>475.9</ele>
        <time>2024-09-29T08:13:26.000Z</time>
      </trkpt>
      <trkpt lat="43.58045" lon="6.10574">
        <ele>475.9</ele>
        <time>2024-09-29T08:13:27.000Z</time>
      </trkpt>
      <trkpt lat="43.58045" lon="6.10574">
        <ele>475.9</ele>
        <time>2024-09-29T08:13:28.000Z</time>
      </trkpt>
      <trkpt lat="43.58045" lon="6.10575">
        <ele>475.9</ele>
        <time>2024-09-29T08:13:29.000Z</time>
      </trkpt>
      <trkpt lat="43.58045" lon="6.10574">
        <ele>475.9</ele>
        <time>2024-09-29T08:13:33.000Z</time>
      </trkpt>
      <trkpt lat="43.58045" lon="6.10574">
        <ele>475.8</ele>
        <time>2024-09-29T08:13:34.000Z</time>
      </trkpt>
      <trkpt lat="43.58045" lon="6.10573">
        <ele>475.9</ele>
        <time>2024-09-29T08:13:40.000Z</time>
      </trkpt>
      <trkpt lat="43.58045" lon="6.10573">
        <ele>475.9</ele>
        <time>2024-09-29T08:13:41.000Z</time>
      </trkpt>
      <trkpt lat="43.58046" lon="6.10573">
        <ele>475.9</ele>
        <time>2024-09-29T08:13:42.000Z</time>
      </trkpt>
      <trkpt lat="43.58046" lon="6.10573">
        <ele>475.9</ele>
        <time>2024-09-29T08:13:43.000Z</time>
      </trkpt>
      <trkpt lat="43.58045" lon="6.10573">
        <ele>475.9</ele>
        <time>2024-09-29T08:13:44.000Z</time>
      </trkpt>
      <trkpt lat="43.58045" lon="6.10576">
        <ele>475.8</ele>
        <time>2024-09-29T08:14:03.000Z</time>
      </trkpt>
      <trkpt lat="43.58045" lon="6.10576">
        <ele>475.8</ele>
        <time>2024-09-29T08:14:04.000Z</time>
      </trkpt>
      <trkpt lat="43.58046" lon="6.10576">
        <ele>475.8</ele>
        <time>2024-09-29T08:14:10.000Z</time>
      </trkpt>
      <trkpt lat="43.58046" lon="6.10575">
        <ele>475.8</ele>
        <time>2024-09-29T08:14:11.000Z</time>
      </trkpt>
      <trkpt lat="43.58047" lon="6.10575">
        <ele>475.8</ele>
        <time>2024-09-29T08:14:12.000Z</time>
      </trkpt>
      <trkpt lat="43.58042" lon="6.10575">
        <ele>475.8</ele>
        <time>2024-09-29T08:14:26.000Z</time>
      </trkpt>
      <trkpt lat="43.58042" lon="6.10575">
        <ele>475.8</ele>
        <time>2024-09-29T08:14:27.000Z</time>
      </trkpt>
      <trkpt lat="43.58042" lon="6.10575">
        <ele>475.8</ele>
        <time>2024-09-29T08:14:28.000Z</time>
      </trkpt>
      <trkpt lat="43.58042" lon="6.10575">
        <ele>475.8</ele>
        <time>2024-09-29T08:14:29.000Z</time>
      </trkpt>
      <trkpt lat="43.58042" lon="6.10575">
        <ele>475.8</ele>
        <time>2024-09-29T08:14:30.000Z</time>
      </trkpt>
      <trkpt lat="43.58042" lon="6.10575">
        <ele>475.8</ele>
        <time>2024-09-29T08:14:34.000Z</time>
      </trkpt>
      <trkpt lat="43.58041" lon="6.10575">
        <ele>475.8</ele>
        <time>2024-09-29T08:14:35.000Z</time>
      </trkpt>
      <trkpt lat="43.58041" lon="6.10575">
        <ele>475.8</ele>
        <time>2024-09-29T08:14:36.000Z</time>
      </trkpt>
      <trkpt lat="43.58041" lon="6.10575">
        <ele>475.8</ele>
        <time>2024-09-29T08:14:37.000Z</time>
      </trkpt>
      <trkpt lat="43.58041" lon="6.10575">
        <ele>475.8</ele>
        <time>2024-09-29T08:14:38.000Z</time>
      </trkpt>
      <trkpt lat="43.58041" lon="6.10575">
        <ele>475.8</ele>
        <time>2024-09-29T08:14:39.000Z</time>
      </trkpt>
      <trkpt lat="43.58041" lon="6.10575">
        <ele>475.8</ele>
        <time>2024-09-29T08:14:40.000Z</time>
      </trkpt>
      <trkpt lat="43.58041" lon="6.10575">
        <ele>475.8</ele>
        <time>2024-09-29T08:14:50.000Z</time>
      </trkpt>
      <trkpt lat="43.58041" lon="6.10574">
        <ele>475.8</ele>
        <time>2024-09-29T08:14:51.000Z</time>
      </trkpt>
      <trkpt lat="43.58041" lon="6.10574">
        <ele>475.8</ele>
        <time>2024-09-29T08:14:52.000Z</time>
      </trkpt>
      <trkpt lat="43.58042" lon="6.10574">
        <ele>475.8</ele>
        <time>2024-09-29T08:14:53.000Z</time>
      </trkpt>
      <trkpt lat="43.58042" lon="6.10575">
        <ele>475.8</ele>
        <time>2024-09-29T08:14:54.000Z</time>
      </trkpt>
      <trkpt lat="43.58042" lon="6.10575">
        <ele>475.8</ele>
        <time>2024-09-29T08:14:55.000Z</time>
      </trkpt>
      <trkpt lat="43.58042" lon="6.10575">
        <ele>475.8</ele>
        <time>2024-09-29T08:15:38.000Z</time>
      </trkpt>
      <trkpt lat="43.58042" lon="6.10575">
        <ele>475.8</ele>
        <time>2024-09-29T08:15:39.000Z</time>
      </trkpt>
      <trkpt lat="43.58042" lon="6.10575">
        <ele>475.8</ele>
        <time>2024-09-29T08:15:40.000Z</time>
      </trkpt>
      <trkpt lat="43.58042" lon="6.10575">
        <ele>475.8</ele>
        <time>2024-09-29T08:15:41.000Z</time>
      </trkpt>
      <trkpt lat="43.58042" lon="6.10575">
        <ele>475.8</ele>
        <time>2024-09-29T08:15:42.000Z</time>
      </trkpt>
      <trkpt lat="43.58042" lon="6.10575">
        <ele>475.8</ele>
        <time>2024-09-29T08:15:53.000Z</time>
      </trkpt>
      <trkpt lat="43.58042" lon="6.10575">
        <ele>475.8</ele>
        <time>2024-09-29T08:15:54.000Z</time>
      </trkpt>
      <trkpt lat="43.58042" lon="6.10575">
        <ele>475.8</ele>
        <time>2024-09-29T08:15:55.000Z</time>
      </trkpt>
      <trkpt lat="43.58042" lon="6.10575">
        <ele>475.8</ele>
        <time>2024-09-29T08:15:56.000Z</time>
      </trkpt>
      <trkpt lat="43.58042" lon="6.10575">
        <ele>475.8</ele>
        <time>2024-09-29T08:15:57.000Z</time>
      </trkpt>
      <trkpt lat="43.58042" lon="6.10575">
        <ele>475.8</ele>
        <time>2024-09-29T08:16:05.000Z</time>
      </trkpt>
      <trkpt lat="43.58042" lon="6.10575">
        <ele>475.8</ele>
        <time>2024-09-29T08:16:06.000Z</time>
      </trkpt>
      <trkpt lat="43.58042" lon="6.10575">
        <ele>475.8</ele>
        <time>2024-09-29T08:16:07.000Z</time>
      </trkpt>
      <trkpt lat="43.58042" lon="6.10575">
        <ele>475.8</ele>
        <time>2024-09-29T08:16:08.000Z</time>
      </trkpt>
      <trkpt lat="43.58042" lon="6.10575">
        <ele>475.8</ele>
        <time>2024-09-29T08:16:09.000Z</time>
      </trkpt>
      <trkpt lat="43.58042" lon="6.10575">
        <ele>475.8</ele>
        <time>2024-09-29T08:16:10.000Z</time>
      </trkpt>
      <trkpt lat="43.58043" lon="6.10575">
        <ele>475.8</ele>
        <time>2024-09-29T08:16:35.000Z</time>
      </trkpt>
      <trkpt lat="43.58043" lon="6.10575">
        <ele>475.8</ele>
        <time>2024-09-29T08:16:36.000Z</time>
      </trkpt>
      <trkpt lat="43.58043" lon="6.10575">
        <ele>475.8</ele>
        <time>2024-09-29T08:16:37.000Z</time>
      </trkpt>
      <trkpt lat="43.58043" lon="6.10575">
        <ele>475.8</ele>
        <time>2024-09-29T08:16:40.000Z</time>
      </trkpt>
      <trkpt lat="43.58043" lon="6.10575">
        <ele>475.8</ele>
        <time>2024-09-29T08:16:41.000Z</time>
      </trkpt>
      <trkpt lat="43.58043" lon="6.10575">
        <ele>475.8</ele>
        <time>2024-09-29T08:16:42.000Z</time>
      </trkpt>
      <trkpt lat="43.58042" lon="6.10575">
        <ele>475.6</ele>
        <time>2024-09-29T08:17:31.000Z</time>
      </trkpt>
      <trkpt lat="43.58043" lon="6.10575">
        <ele>475.6</ele>
        <time>2024-09-29T08:17:32.000Z</time>
      </trkpt>
      <trkpt lat="43.58043" lon="6.10575">
        <ele>475.6</ele>
        <time>2024-09-29T08:17:36.000Z</time>
      </trkpt>
      <trkpt lat="43.58071" lon="6.10562">
        <ele>475.9</ele>
        <time>2024-09-29T08:18:34.000Z</time>
      </trkpt>
      <trkpt lat="43.58079" lon="6.10555">
        <ele>476.2</ele>
        <time>2024-09-29T08:18:47.000Z</time>
      </trkpt>
      <trkpt lat="43.58086" lon="6.10546">
        <ele>476.5</ele>
        <time>2024-09-29T08:18:56.000Z</time>
      </trkpt>
      <trkpt lat="43.58095" lon="6.10542">
        <ele>476.8</ele>
        <time>2024-09-29T08:19:06.000Z</time>
      </trkpt>
      <trkpt lat="43.58098" lon="6.10541">
        <ele>477</ele>
        <time>2024-09-29T08:19:15.000Z</time>
      </trkpt>
      <trkpt lat="43.58098" lon="6.10541">
        <ele>477.1</ele>
        <time>2024-09-29T08:19:16.000Z</time>
      </trkpt>
      <trkpt lat="43.58098" lon="6.10541">
        <ele>477.1</ele>
        <time>2024-09-29T08:19:17.000Z</time>
      </trkpt>
      <trkpt lat="43.58098" lon="6.1054">
        <ele>477.1</ele>
        <time>2024-09-29T08:19:18.000Z</time>
      </trkpt>
      <trkpt lat="43.58097" lon="6.1054">
        <ele>477.1</ele>
        <time>2024-09-29T08:19:19.000Z</time>
      </trkpt>
      <trkpt lat="43.58097" lon="6.1054">
        <ele>477.2</ele>
        <time>2024-09-29T08:19:23.000Z</time>
      </trkpt>
      <trkpt lat="43.58097" lon="6.1054">
        <ele>477.2</ele>
        <time>2024-09-29T08:19:24.000Z</time>
      </trkpt>
      <trkpt lat="43.58097" lon="6.1054">
        <ele>477.2</ele>
        <time>2024-09-29T08:19:25.000Z</time>
      </trkpt>
      <trkpt lat="43.58098" lon="6.10539">
        <ele>477.3</ele>
        <time>2024-09-29T08:19:35.000Z</time>
      </trkpt>
      <trkpt lat="43.58098" lon="6.10539">
        <ele>477.3</ele>
        <time>2024-09-29T08:19:36.000Z</time>
      </trkpt>
      <trkpt lat="43.58099" lon="6.10539">
        <ele>477.3</ele>
        <time>2024-09-29T08:19:37.000Z</time>
      </trkpt>
      <trkpt lat="43.58108" lon="6.10537">
        <ele>477.4</ele>
        <time>2024-09-29T08:19:46.000Z</time>
      </trkpt>
      <trkpt lat="43.58117" lon="6.10533">
        <ele>477.5</ele>
        <time>2024-09-29T08:19:57.000Z</time>
      </trkpt>
      <trkpt lat="43.58127" lon="6.10532">
        <ele>477.7</ele>
        <time>2024-09-29T08:20:06.000Z</time>
      </trkpt>
      <trkpt lat="43.58135" lon="6.10527">
        <ele>478.1</ele>
        <time>2024-09-29T08:20:17.000Z</time>
      </trkpt>
      <trkpt lat="43.58145" lon="6.10525">
        <ele>478.3</ele>
        <time>2024-09-29T08:20:26.000Z</time>
      </trkpt>
      <trkpt lat="43.58154" lon="6.10523">
        <ele>478.7</ele>
        <time>2024-09-29T08:20:36.000Z</time>
      </trkpt>
      <trkpt lat="43.58163" lon="6.10521">
        <ele>479</ele>
        <time>2024-09-29T08:20:45.000Z</time>
      </trkpt>
      <trkpt lat="43.58173" lon="6.10517">
        <ele>479.4</ele>
        <time>2024-09-29T08:20:54.000Z</time>
      </trkpt>
      <trkpt lat="43.58182" lon="6.10513">
        <ele>480</ele>
        <time>2024-09-29T08:21:04.000Z</time>
      </trkpt>
      <trkpt lat="43.58191" lon="6.1051">
        <ele>480.8</ele>
        <time>2024-09-29T08:21:14.000Z</time>
      </trkpt>
      <trkpt lat="43.582" lon="6.10508">
        <ele>481.4</ele>
        <time>2024-09-29T08:21:24.000Z</time>
      </trkpt>
      <trkpt lat="43.5821" lon="6.10505">
        <ele>481.9</ele>
        <time>2024-09-29T08:21:33.000Z</time>
      </trkpt>
      <trkpt lat="43.58219" lon="6.10505">
        <ele>482.3</ele>
        <time>2024-09-29T08:21:42.000Z</time>
      </trkpt>
      <trkpt lat="43.58228" lon="6.10505">
        <ele>482.6</ele>
        <time>2024-09-29T08:21:51.000Z</time>
      </trkpt>
      <trkpt lat="43.58234" lon="6.10502">
        <ele>482.8</ele>
        <time>2024-09-29T08:22:05.000Z</time>
      </trkpt>
      <trkpt lat="43.58234" lon="6.10501">
        <ele>482.8</ele>
        <time>2024-09-29T08:22:06.000Z</time>
      </trkpt>
      <trkpt lat="43.58234" lon="6.10501">
        <ele>482.8</ele>
        <time>2024-09-29T08:22:07.000Z</time>
      </trkpt>
      <trkpt lat="43.58234" lon="6.10501">
        <ele>482.9</ele>
        <time>2024-09-29T08:22:11.000Z</time>
      </trkpt>
      <trkpt lat="43.58234" lon="6.10501">
        <ele>482.9</ele>
        <time>2024-09-29T08:22:12.000Z</time>
      </trkpt>
      <trkpt lat="43.58234" lon="6.10501">
        <ele>482.9</ele>
        <time>2024-09-29T08:22:13.000Z</time>
      </trkpt>
      <trkpt lat="43.58234" lon="6.10501">
        <ele>482.9</ele>
        <time>2024-09-29T08:22:14.000Z</time>
      </trkpt>
      <trkpt lat="43.58235" lon="6.10501">
        <ele>482.9</ele>
        <time>2024-09-29T08:22:15.000Z</time>
      </trkpt>
      <trkpt lat="43.58236" lon="6.10501">
        <ele>482.9</ele>
        <time>2024-09-29T08:22:16.000Z</time>
      </trkpt>
      <trkpt lat="43.58237" lon="6.10501">
        <ele>482.9</ele>
        <time>2024-09-29T08:22:17.000Z</time>
      </trkpt>
      <trkpt lat="43.58247" lon="6.10501">
        <ele>482.9</ele>
        <time>2024-09-29T08:22:25.000Z</time>
      </trkpt>
      <trkpt lat="43.58256" lon="6.10499">
        <ele>483.1</ele>
        <time>2024-09-29T08:22:34.000Z</time>
      </trkpt>
      <trkpt lat="43.58266" lon="6.10496">
        <ele>483.2</ele>
        <time>2024-09-29T08:22:43.000Z</time>
      </trkpt>
      <trkpt lat="43.58274" lon="6.10489">
        <ele>483.5</ele>
        <time>2024-09-29T08:22:52.000Z</time>
      </trkpt>
      <trkpt lat="43.58283" lon="6.10484">
        <ele>483.8</ele>
        <time>2024-09-29T08:23:00.000Z</time>
      </trkpt>
      <trkpt lat="43.58292" lon="6.10477">
        <ele>484.5</ele>
        <time>2024-09-29T08:23:13.000Z</time>
      </trkpt>
      <trkpt lat="43.583" lon="6.10472">
        <ele>484.9</ele>
        <time>2024-09-29T08:23:22.000Z</time>
      </trkpt>
      <trkpt lat="43.58309" lon="6.10465">
        <ele>485.7</ele>
        <time>2024-09-29T08:23:32.000Z</time>
      </trkpt>
      <trkpt lat="43.58316" lon="6.10457">
        <ele>486.5</ele>
        <time>2024-09-29T08:23:41.000Z</time>
      </trkpt>
      <trkpt lat="43.58325" lon="6.10451">
        <ele>487.6</ele>
        <time>2024-09-29T08:23:52.000Z</time>
      </trkpt>
      <trkpt lat="43.58334" lon="6.1045">
        <ele>488.3</ele>
        <time>2024-09-29T08:24:04.000Z</time>
      </trkpt>
      <trkpt lat="43.58342" lon="6.10444">
        <ele>488.8</ele>
        <time>2024-09-29T08:24:20.000Z</time>
      </trkpt>
      <trkpt lat="43.58351" lon="6.1044">
        <ele>489.5</ele>
        <time>2024-09-29T08:24:36.000Z</time>
      </trkpt>
      <trkpt lat="43.5836" lon="6.10436">
        <ele>490.5</ele>
        <time>2024-09-29T08:24:48.000Z</time>
      </trkpt>
      <trkpt lat="43.58368" lon="6.1043">
        <ele>491.8</ele>
        <time>2024-09-29T08:25:01.000Z</time>
      </trkpt>
      <trkpt lat="43.58376" lon="6.10422">
        <ele>492.8</ele>
        <time>2024-09-29T08:25:15.000Z</time>
      </trkpt>
      <trkpt lat="43.58384" lon="6.10416">
        <ele>493.5</ele>
        <time>2024-09-29T08:25:28.000Z</time>
      </trkpt>
      <trkpt lat="43.58392" lon="6.1041">
        <ele>494.2</ele>
        <time>2024-09-29T08:25:41.000Z</time>
      </trkpt>
      <trkpt lat="43.584" lon="6.10403">
        <ele>494.8</ele>
        <time>2024-09-29T08:25:53.000Z</time>
      </trkpt>
      <trkpt lat="43.58408" lon="6.10396">
        <ele>496</ele>
        <time>2024-09-29T08:26:09.000Z</time>
      </trkpt>
      <trkpt lat="43.58415" lon="6.10386">
        <ele>497.3</ele>
        <time>2024-09-29T08:26:23.000Z</time>
      </trkpt>
      <trkpt lat="43.58423" lon="6.10381">
        <ele>498.8</ele>
        <time>2024-09-29T08:26:37.000Z</time>
      </trkpt>
      <trkpt lat="43.58432" lon="6.10376">
        <ele>500.4</ele>
        <time>2024-09-29T08:26:54.000Z</time>
      </trkpt>
      <trkpt lat="43.5844" lon="6.10366">
        <ele>501.5</ele>
        <time>2024-09-29T08:27:04.000Z</time>
      </trkpt>
      <trkpt lat="43.58444" lon="6.10362">
        <ele>502.5</ele>
        <time>2024-09-29T08:27:18.000Z</time>
      </trkpt>
      <trkpt lat="43.58444" lon="6.10362">
        <ele>502.6</ele>
        <time>2024-09-29T08:27:19.000Z</time>
      </trkpt>
      <trkpt lat="43.58444" lon="6.10362">
        <ele>502.6</ele>
        <time>2024-09-29T08:28:04.000Z</time>
      </trkpt>
      <trkpt lat="43.58444" lon="6.10362">
        <ele>502.6</ele>
        <time>2024-09-29T08:28:05.000Z</time>
      </trkpt>
      <trkpt lat="43.58444" lon="6.10362">
        <ele>502.7</ele>
        <time>2024-09-29T08:28:06.000Z</time>
      </trkpt>
      <trkpt lat="43.58444" lon="6.10362">
        <ele>502.8</ele>
        <time>2024-09-29T08:28:07.000Z</time>
      </trkpt>
      <trkpt lat="43.58443" lon="6.10361">
        <ele>502.8</ele>
        <time>2024-09-29T08:28:08.000Z</time>
      </trkpt>
      <trkpt lat="43.58443" lon="6.1036">
        <ele>502.8</ele>
        <time>2024-09-29T08:28:09.000Z</time>
      </trkpt>
      <trkpt lat="43.58452" lon="6.10354">
        <ele>503.1</ele>
        <time>2024-09-29T08:28:22.000Z</time>
      </trkpt>
      <trkpt lat="43.5846" lon="6.10348">
        <ele>503.4</ele>
        <time>2024-09-29T08:28:30.000Z</time>
      </trkpt>
      <trkpt lat="43.5847" lon="6.10343">
        <ele>503.7</ele>
        <time>2024-09-29T08:28:37.000Z</time>
      </trkpt>
      <trkpt lat="43.58479" lon="6.10342">
        <ele>504.2</ele>
        <time>2024-09-29T08:28:46.000Z</time>
      </trkpt>
      <trkpt lat="43.58488" lon="6.10343">
        <ele>505.1</ele>
        <time>2024-09-29T08:28:55.000Z</time>
      </trkpt>
      <trkpt lat="43.58498" lon="6.10346">
        <ele>505.8</ele>
        <time>2024-09-29T08:29:04.000Z</time>
      </trkpt>
      <trkpt lat="43.58506" lon="6.10352">
        <ele>506.6</ele>
        <time>2024-09-29T08:29:12.000Z</time>
      </trkpt>
      <trkpt lat="43.58515" lon="6.10351">
        <ele>507.9</ele>
        <time>2024-09-29T08:29:21.000Z</time>
      </trkpt>
      <trkpt lat="43.5852" lon="6.1034">
        <ele>508.7</ele>
        <time>2024-09-29T08:29:28.000Z</time>
      </trkpt>
      <trkpt lat="43.58512" lon="6.10346">
        <ele>509.6</ele>
        <time>2024-09-29T08:29:39.000Z</time>
      </trkpt>
      <trkpt lat="43.58503" lon="6.10346">
        <ele>509.8</ele>
        <time>2024-09-29T08:29:48.000Z</time>
      </trkpt>
      <trkpt lat="43.58503" lon="6.10346">
        <ele>509.8</ele>
        <time>2024-09-29T08:29:49.000Z</time>
      </trkpt>
      <trkpt lat="43.58504" lon="6.10345">
        <ele>509.8</ele>
        <time>2024-09-29T08:29:50.000Z</time>
      </trkpt>
      <trkpt lat="43.58505" lon="6.10344">
        <ele>509.8</ele>
        <time>2024-09-29T08:29:51.000Z</time>
      </trkpt>
      <trkpt lat="43.58505" lon="6.10344">
        <ele>509.8</ele>
        <time>2024-09-29T08:29:52.000Z</time>
      </trkpt>
      <trkpt lat="43.58514" lon="6.1034">
        <ele>510.1</ele>
        <time>2024-09-29T08:30:02.000Z</time>
      </trkpt>
      <trkpt lat="43.58515" lon="6.10339">
        <ele>510.1</ele>
        <time>2024-09-29T08:30:08.000Z</time>
      </trkpt>
      <trkpt lat="43.58515" lon="6.10339">
        <ele>510.1</ele>
        <time>2024-09-29T08:30:09.000Z</time>
      </trkpt>
      <trkpt lat="43.58514" lon="6.10339">
        <ele>510.1</ele>
        <time>2024-09-29T08:30:10.000Z</time>
      </trkpt>
      <trkpt lat="43.58515" lon="6.10338">
        <ele>510.1</ele>
        <time>2024-09-29T08:30:11.000Z</time>
      </trkpt>
      <trkpt lat="43.58515" lon="6.10337">
        <ele>510.1</ele>
        <time>2024-09-29T08:30:12.000Z</time>
      </trkpt>
      <trkpt lat="43.58516" lon="6.10333">
        <ele>510.2</ele>
        <time>2024-09-29T08:30:20.000Z</time>
      </trkpt>
      <trkpt lat="43.58516" lon="6.10333">
        <ele>510.3</ele>
        <time>2024-09-29T08:30:21.000Z</time>
      </trkpt>
      <trkpt lat="43.58516" lon="6.10333">
        <ele>510.3</ele>
        <time>2024-09-29T08:30:22.000Z</time>
      </trkpt>
      <trkpt lat="43.58516" lon="6.10333">
        <ele>510.3</ele>
        <time>2024-09-29T08:30:23.000Z</time>
      </trkpt>
      <trkpt lat="43.58516" lon="6.10334">
        <ele>510.3</ele>
        <time>2024-09-29T08:30:24.000Z</time>
      </trkpt>
      <trkpt lat="43.58516" lon="6.10334">
        <ele>510.3</ele>
        <time>2024-09-29T08:30:25.000Z</time>
      </trkpt>
      <trkpt lat="43.58517" lon="6.10334">
        <ele>510.5</ele>
        <time>2024-09-29T08:30:33.000Z</time>
      </trkpt>
      <trkpt lat="43.58517" lon="6.10333">
        <ele>510.5</ele>
        <time>2024-09-29T08:30:34.000Z</time>
      </trkpt>
      <trkpt lat="43.58516" lon="6.10333">
        <ele>510.6</ele>
        <time>2024-09-29T08:31:03.000Z</time>
      </trkpt>
      <trkpt lat="43.58516" lon="6.10333">
        <ele>510.6</ele>
        <time>2024-09-29T08:31:04.000Z</time>
      </trkpt>
      <trkpt lat="43.58516" lon="6.10333">
        <ele>510.6</ele>
        <time>2024-09-29T08:31:05.000Z</time>
      </trkpt>
      <trkpt lat="43.58517" lon="6.10333">
        <ele>510.6</ele>
        <time>2024-09-29T08:31:06.000Z</time>
      </trkpt>
      <trkpt lat="43.58517" lon="6.10332">
        <ele>510.6</ele>
        <time>2024-09-29T08:31:07.000Z</time>
      </trkpt>
      <trkpt lat="43.58517" lon="6.10332">
        <ele>510.6</ele>
        <time>2024-09-29T08:31:21.000Z</time>
      </trkpt>
      <trkpt lat="43.58517" lon="6.10332">
        <ele>510.6</ele>
        <time>2024-09-29T08:31:22.000Z</time>
      </trkpt>
      <trkpt lat="43.58517" lon="6.10332">
        <ele>510.6</ele>
        <time>2024-09-29T08:31:23.000Z</time>
      </trkpt>
      <trkpt lat="43.58517" lon="6.10332">
        <ele>510.6</ele>
        <time>2024-09-29T08:31:24.000Z</time>
      </trkpt>
      <trkpt lat="43.58517" lon="6.1033">
        <ele>510.5</ele>
        <time>2024-09-29T08:31:53.000Z</time>
      </trkpt>
      <trkpt lat="43.58517" lon="6.1033">
        <ele>510.5</ele>
        <time>2024-09-29T08:31:54.000Z</time>
      </trkpt>
      <trkpt lat="43.58517" lon="6.1033">
        <ele>510.5</ele>
        <time>2024-09-29T08:31:58.000Z</time>
      </trkpt>
      <trkpt lat="43.58517" lon="6.10329">
        <ele>510.5</ele>
        <time>2024-09-29T08:31:59.000Z</time>
      </trkpt>
      <trkpt lat="43.58517" lon="6.10328">
        <ele>510.5</ele>
        <time>2024-09-29T08:32:00.000Z</time>
      </trkpt>
      <trkpt lat="43.58517" lon="6.10328">
        <ele>510.5</ele>
        <time>2024-09-29T08:32:01.000Z</time>
      </trkpt>
      <trkpt lat="43.58517" lon="6.10327">
        <ele>510.5</ele>
        <time>2024-09-29T08:32:02.000Z</time>
      </trkpt>
      <trkpt lat="43.58513" lon="6.1032">
        <ele>510.2</ele>
        <time>2024-09-29T08:32:16.000Z</time>
      </trkpt>
      <trkpt lat="43.58513" lon="6.1032">
        <ele>510.2</ele>
        <time>2024-09-29T08:32:17.000Z</time>
      </trkpt>
      <trkpt lat="43.58513" lon="6.1032">
        <ele>510.2</ele>
        <time>2024-09-29T08:32:18.000Z</time>
      </trkpt>
      <trkpt lat="43.58512" lon="6.1032">
        <ele>510</ele>
        <time>2024-09-29T08:32:43.000Z</time>
      </trkpt>
      <trkpt lat="43.58512" lon="6.10319">
        <ele>510</ele>
        <time>2024-09-29T08:32:44.000Z</time>
      </trkpt>
      <trkpt lat="43.58512" lon="6.10317">
        <ele>509.9</ele>
        <time>2024-09-29T08:32:53.000Z</time>
      </trkpt>
      <trkpt lat="43.58511" lon="6.10317">
        <ele>509.9</ele>
        <time>2024-09-29T08:32:54.000Z</time>
      </trkpt>
      <trkpt lat="43.58512" lon="6.10317">
        <ele>509.8</ele>
        <time>2024-09-29T08:33:06.000Z</time>
      </trkpt>
      <trkpt lat="43.58512" lon="6.10316">
        <ele>509.8</ele>
        <time>2024-09-29T08:33:07.000Z</time>
      </trkpt>
      <trkpt lat="43.58511" lon="6.10313">
        <ele>509.8</ele>
        <time>2024-09-29T08:33:19.000Z</time>
      </trkpt>
      <trkpt lat="43.58511" lon="6.10313">
        <ele>509.8</ele>
        <time>2024-09-29T08:33:20.000Z</time>
      </trkpt>
      <trkpt lat="43.58511" lon="6.10313">
        <ele>509.8</ele>
        <time>2024-09-29T08:33:33.000Z</time>
      </trkpt>
      <trkpt lat="43.58511" lon="6.10313">
        <ele>509.8</ele>
        <time>2024-09-29T08:33:34.000Z</time>
      </trkpt>
      <trkpt lat="43.58511" lon="6.10313">
        <ele>509.8</ele>
        <time>2024-09-29T08:33:35.000Z</time>
      </trkpt>
      <trkpt lat="43.58511" lon="6.10313">
        <ele>509.8</ele>
        <time>2024-09-29T08:33:36.000Z</time>
      </trkpt>
      <trkpt lat="43.58511" lon="6.10313">
        <ele>509.8</ele>
        <time>2024-09-29T08:33:37.000Z</time>
      </trkpt>
      <trkpt lat="43.58511" lon="6.10313">
        <ele>509.9</ele>
        <time>2024-09-29T08:33:40.000Z</time>
      </trkpt>
      <trkpt lat="43.58511" lon="6.10313">
        <ele>509.9</ele>
        <time>2024-09-29T08:33:41.000Z</time>
      </trkpt>
      <trkpt lat="43.58511" lon="6.10313">
        <ele>509.9</ele>
        <time>2024-09-29T08:33:42.000Z</time>
      </trkpt>
      <trkpt lat="43.58511" lon="6.10313">
        <ele>509.9</ele>
        <time>2024-09-29T08:33:43.000Z</time>
      </trkpt>
      <trkpt lat="43.58511" lon="6.10313">
        <ele>509.9</ele>
        <time>2024-09-29T08:33:44.000Z</time>
      </trkpt>
      <trkpt lat="43.58511" lon="6.10313">
        <ele>509.9</ele>
        <time>2024-09-29T08:33:45.000Z</time>
      </trkpt>
      <trkpt lat="43.58511" lon="6.10313">
        <ele>509.9</ele>
        <time>2024-09-29T08:34:00.000Z</time>
      </trkpt>
      <trkpt lat="43.58512" lon="6.10313">
        <ele>509.9</ele>
        <time>2024-09-29T08:34:01.000Z</time>
      </trkpt>
      <trkpt lat="43.58512" lon="6.10314">
        <ele>509.9</ele>
        <time>2024-09-29T08:34:02.000Z</time>
      </trkpt>
      <trkpt lat="43.58517" lon="6.10324">
        <ele>510</ele>
        <time>2024-09-29T08:34:13.000Z</time>
      </trkpt>
      <trkpt lat="43.5852" lon="6.1033">
        <ele>510.1</ele>
        <time>2024-09-29T08:34:29.000Z</time>
      </trkpt>
      <trkpt lat="43.5852" lon="6.1033">
        <ele>510.1</ele>
        <time>2024-09-29T08:34:30.000Z</time>
      </trkpt>
      <trkpt lat="43.58519" lon="6.10331">
        <ele>510.1</ele>
        <time>2024-09-29T08:34:33.000Z</time>
      </trkpt>
      <trkpt lat="43.58519" lon="6.10331">
        <ele>510.1</ele>
        <time>2024-09-29T08:34:34.000Z</time>
      </trkpt>
      <trkpt lat="43.58518" lon="6.10332">
        <ele>510.2</ele>
        <time>2024-09-29T08:34:35.000Z</time>
      </trkpt>
      <trkpt lat="43.58522" lon="6.10339">
        <ele>510.2</ele>
        <time>2024-09-29T08:34:45.000Z</time>
      </trkpt>
      <trkpt lat="43.58522" lon="6.1034">
        <ele>510.2</ele>
        <time>2024-09-29T08:34:46.000Z</time>
      </trkpt>
      <trkpt lat="43.58522" lon="6.10341">
        <ele>510.2</ele>
        <time>2024-09-29T08:34:47.000Z</time>
      </trkpt>
      <trkpt lat="43.58521" lon="6.10342">
        <ele>510.2</ele>
        <time>2024-09-29T08:34:50.000Z</time>
      </trkpt>
      <trkpt lat="43.58521" lon="6.10343">
        <ele>510.2</ele>
        <time>2024-09-29T08:34:51.000Z</time>
      </trkpt>
      <trkpt lat="43.58521" lon="6.10344">
        <ele>510.2</ele>
        <time>2024-09-29T08:34:52.000Z</time>
      </trkpt>
      <trkpt lat="43.58521" lon="6.10354">
        <ele>510.1</ele>
        <time>2024-09-29T08:35:05.000Z</time>
      </trkpt>
      <trkpt lat="43.58521" lon="6.10354">
        <ele>510.1</ele>
        <time>2024-09-29T08:35:06.000Z</time>
      </trkpt>
      <trkpt lat="43.58521" lon="6.10354">
        <ele>510.1</ele>
        <time>2024-09-29T08:35:07.000Z</time>
      </trkpt>
      <trkpt lat="43.58524" lon="6.10355">
        <ele>510.1</ele>
        <time>2024-09-29T08:35:11.000Z</time>
      </trkpt>
      <trkpt lat="43.58525" lon="6.10355">
        <ele>510.1</ele>
        <time>2024-09-29T08:35:12.000Z</time>
      </trkpt>
      <trkpt lat="43.58526" lon="6.10355">
        <ele>510.1</ele>
        <time>2024-09-29T08:35:13.000Z</time>
      </trkpt>
      <trkpt lat="43.58535" lon="6.1035">
        <ele>510.1</ele>
        <time>2024-09-29T08:35:23.000Z</time>
      </trkpt>
      <trkpt lat="43.58544" lon="6.10345">
        <ele>510.3</ele>
        <time>2024-09-29T08:35:35.000Z</time>
      </trkpt>
      <trkpt lat="43.58552" lon="6.1034">
        <ele>510.8</ele>
        <time>2024-09-29T08:35:48.000Z</time>
      </trkpt>
      <trkpt lat="43.58562" lon="6.10337">
        <ele>511.9</ele>
        <time>2024-09-29T08:36:02.000Z</time>
      </trkpt>
      <trkpt lat="43.58571" lon="6.10334">
        <ele>513.3</ele>
        <time>2024-09-29T08:36:16.000Z</time>
      </trkpt>
      <trkpt lat="43.5858" lon="6.1033">
        <ele>514.2</ele>
        <time>2024-09-29T08:36:31.000Z</time>
      </trkpt>
      <trkpt lat="43.58589" lon="6.10326">
        <ele>515</ele>
        <time>2024-09-29T08:36:43.000Z</time>
      </trkpt>
      <trkpt lat="43.58598" lon="6.10323">
        <ele>516.2</ele>
        <time>2024-09-29T08:36:59.000Z</time>
      </trkpt>
      <trkpt lat="43.58607" lon="6.10318">
        <ele>517.6</ele>
        <time>2024-09-29T08:37:14.000Z</time>
      </trkpt>
      <trkpt lat="43.58616" lon="6.10313">
        <ele>518.6</ele>
        <time>2024-09-29T08:37:26.000Z</time>
      </trkpt>
      <trkpt lat="43.58624" lon="6.10309">
        <ele>519.7</ele>
        <time>2024-09-29T08:37:41.000Z</time>
      </trkpt>
      <trkpt lat="43.58633" lon="6.10306">
        <ele>520.8</ele>
        <time>2024-09-29T08:37:56.000Z</time>
      </trkpt>
      <trkpt lat="43.58641" lon="6.103">
        <ele>521.8</ele>
        <time>2024-09-29T08:38:06.000Z</time>
      </trkpt>
      <trkpt lat="43.5865" lon="6.10294">
        <ele>523.2</ele>
        <time>2024-09-29T08:38:19.000Z</time>
      </trkpt>
      <trkpt lat="43.58659" lon="6.10289">
        <ele>524.3</ele>
        <time>2024-09-29T08:38:32.000Z</time>
      </trkpt>
      <trkpt lat="43.58668" lon="6.10286">
        <ele>525</ele>
        <time>2024-09-29T08:38:46.000Z</time>
      </trkpt>
      <trkpt lat="43.58676" lon="6.1028">
        <ele>526.4</ele>
        <time>2024-09-29T08:39:00.000Z</time>
      </trkpt>
      <trkpt lat="43.58685" lon="6.10274">
        <ele>527.7</ele>
        <time>2024-09-29T08:39:14.000Z</time>
      </trkpt>
      <trkpt lat="43.58694" lon="6.10269">
        <ele>529.2</ele>
        <time>2024-09-29T08:39:31.000Z</time>
      </trkpt>
      <trkpt lat="43.58703" lon="6.10266">
        <ele>530.3</ele>
        <time>2024-09-29T08:39:48.000Z</time>
      </trkpt>
      <trkpt lat="43.58711" lon="6.1026">
        <ele>531.4</ele>
        <time>2024-09-29T08:40:04.000Z</time>
      </trkpt>
      <trkpt lat="43.58719" lon="6.10252">
        <ele>532.5</ele>
        <time>2024-09-29T08:40:18.000Z</time>
      </trkpt>
      <trkpt lat="43.58728" lon="6.10251">
        <ele>533.2</ele>
        <time>2024-09-29T08:40:29.000Z</time>
      </trkpt>
      <trkpt lat="43.58736" lon="6.10246">
        <ele>534</ele>
        <time>2024-09-29T08:40:43.000Z</time>
      </trkpt>
      <trkpt lat="43.58745" lon="6.10243">
        <ele>534.2</ele>
        <time>2024-09-29T08:40:56.000Z</time>
      </trkpt>
      <trkpt lat="43.58754" lon="6.10238">
        <ele>534.4</ele>
        <time>2024-09-29T08:41:10.000Z</time>
      </trkpt>
      <trkpt lat="43.58763" lon="6.10237">
        <ele>534.5</ele>
        <time>2024-09-29T08:41:23.000Z</time>
      </trkpt>
      <trkpt lat="43.58772" lon="6.10232">
        <ele>534.9</ele>
        <time>2024-09-29T08:41:37.000Z</time>
      </trkpt>
      <trkpt lat="43.58779" lon="6.10224">
        <ele>535.6</ele>
        <time>2024-09-29T08:41:49.000Z</time>
      </trkpt>
      <trkpt lat="43.58784" lon="6.10212">
        <ele>536.7</ele>
        <time>2024-09-29T08:42:03.000Z</time>
      </trkpt>
      <trkpt lat="43.58785" lon="6.10198">
        <ele>536.8</ele>
        <time>2024-09-29T08:42:16.000Z</time>
      </trkpt>
      <trkpt lat="43.58779" lon="6.10189">
        <ele>537.1</ele>
        <time>2024-09-29T08:42:24.000Z</time>
      </trkpt>
      <trkpt lat="43.58772" lon="6.1018">
        <ele>536.7</ele>
        <time>2024-09-29T08:42:35.000Z</time>
      </trkpt>
      <trkpt lat="43.58764" lon="6.10171">
        <ele>536</ele>
        <time>2024-09-29T08:42:47.000Z</time>
      </trkpt>
      <trkpt lat="43.58757" lon="6.10162">
        <ele>534.9</ele>
        <time>2024-09-29T08:42:57.000Z</time>
      </trkpt>
      <trkpt lat="43.58751" lon="6.10153">
        <ele>533.8</ele>
        <time>2024-09-29T08:43:09.000Z</time>
      </trkpt>
      <trkpt lat="43.58743" lon="6.10146">
        <ele>533.3</ele>
        <time>2024-09-29T08:43:18.000Z</time>
      </trkpt>
      <trkpt lat="43.58733" lon="6.10145">
        <ele>532.9</ele>
        <time>2024-09-29T08:43:27.000Z</time>
      </trkpt>
      <trkpt lat="43.58724" lon="6.10144">
        <ele>532.6</ele>
        <time>2024-09-29T08:43:35.000Z</time>
      </trkpt>
      <trkpt lat="43.58714" lon="6.10145">
        <ele>532.6</ele>
        <time>2024-09-29T08:43:46.000Z</time>
      </trkpt>
      <trkpt lat="43.58705" lon="6.10142">
        <ele>532.6</ele>
        <time>2024-09-29T08:43:53.000Z</time>
      </trkpt>
      <trkpt lat="43.58696" lon="6.10137">
        <ele>532.6</ele>
        <time>2024-09-29T08:44:03.000Z</time>
      </trkpt>
      <trkpt lat="43.58687" lon="6.10134">
        <ele>532.6</ele>
        <time>2024-09-29T08:44:15.000Z</time>
      </trkpt>
      <trkpt lat="43.58681" lon="6.10145">
        <ele>532.7</ele>
        <time>2024-09-29T08:44:28.000Z</time>
      </trkpt>
      <trkpt lat="43.58671" lon="6.10145">
        <ele>533</ele>
        <time>2024-09-29T08:44:40.000Z</time>
      </trkpt>
      <trkpt lat="43.58662" lon="6.10145">
        <ele>532.9</ele>
        <time>2024-09-29T08:44:49.000Z</time>
      </trkpt>
      <trkpt lat="43.5866" lon="6.10145">
        <ele>533</ele>
        <time>2024-09-29T08:44:58.000Z</time>
      </trkpt>
      <trkpt lat="43.5866" lon="6.10145">
        <ele>533</ele>
        <time>2024-09-29T08:44:59.000Z</time>
      </trkpt>
      <trkpt lat="43.5866" lon="6.10145">
        <ele>532.9</ele>
        <time>2024-09-29T08:45:14.000Z</time>
      </trkpt>
      <trkpt lat="43.5866" lon="6.10145">
        <ele>532.9</ele>
        <time>2024-09-29T08:45:15.000Z</time>
      </trkpt>
      <trkpt lat="43.58661" lon="6.10145">
        <ele>532.8</ele>
        <time>2024-09-29T08:45:16.000Z</time>
      </trkpt>
      <trkpt lat="43.58661" lon="6.10145">
        <ele>532.8</ele>
        <time>2024-09-29T08:45:17.000Z</time>
      </trkpt>
      <trkpt lat="43.58661" lon="6.10145">
        <ele>532.8</ele>
        <time>2024-09-29T08:45:18.000Z</time>
      </trkpt>
      <trkpt lat="43.58661" lon="6.10147">
        <ele>532.8</ele>
        <time>2024-09-29T08:45:21.000Z</time>
      </trkpt>
      <trkpt lat="43.58661" lon="6.10147">
        <ele>532.8</ele>
        <time>2024-09-29T08:45:22.000Z</time>
      </trkpt>
      <trkpt lat="43.58661" lon="6.10147">
        <ele>532.8</ele>
        <time>2024-09-29T08:45:23.000Z</time>
      </trkpt>
      <trkpt lat="43.58661" lon="6.10147">
        <ele>532.8</ele>
        <time>2024-09-29T08:45:24.000Z</time>
      </trkpt>
      <trkpt lat="43.58661" lon="6.10147">
        <ele>532.8</ele>
        <time>2024-09-29T08:45:25.000Z</time>
      </trkpt>
      <trkpt lat="43.58661" lon="6.10148">
        <ele>532.8</ele>
        <time>2024-09-29T08:45:31.000Z</time>
      </trkpt>
      <trkpt lat="43.58661" lon="6.10148">
        <ele>532.8</ele>
        <time>2024-09-29T08:45:32.000Z</time>
      </trkpt>
      <trkpt lat="43.58661" lon="6.10148">
        <ele>532.8</ele>
        <time>2024-09-29T08:45:33.000Z</time>
      </trkpt>
      <trkpt lat="43.58661" lon="6.10148">
        <ele>532.8</ele>
        <time>2024-09-29T08:45:34.000Z</time>
      </trkpt>
      <trkpt lat="43.58661" lon="6.10148">
        <ele>532.7</ele>
        <time>2024-09-29T08:45:56.000Z</time>
      </trkpt>
      <trkpt lat="43.58661" lon="6.10148">
        <ele>532.7</ele>
        <time>2024-09-29T08:45:57.000Z</time>
      </trkpt>
      <trkpt lat="43.58661" lon="6.10148">
        <ele>532.7</ele>
        <time>2024-09-29T08:45:58.000Z</time>
      </trkpt>
      <trkpt lat="43.58661" lon="6.10148">
        <ele>532.7</ele>
        <time>2024-09-29T08:45:59.000Z</time>
      </trkpt>
      <trkpt lat="43.58661" lon="6.10148">
        <ele>532.7</ele>
        <time>2024-09-29T08:46:35.000Z</time>
      </trkpt>
      <trkpt lat="43.58661" lon="6.10148">
        <ele>532.7</ele>
        <time>2024-09-29T08:46:36.000Z</time>
      </trkpt>
      <trkpt lat="43.58661" lon="6.1015">
        <ele>532.7</ele>
        <time>2024-09-29T08:46:37.000Z</time>
      </trkpt>
      <trkpt lat="43.58662" lon="6.10162">
        <ele>532.9</ele>
        <time>2024-09-29T08:46:50.000Z</time>
      </trkpt>
      <trkpt lat="43.58667" lon="6.10172">
        <ele>534.5</ele>
        <time>2024-09-29T08:47:04.000Z</time>
      </trkpt>
      <trkpt lat="43.58675" lon="6.1018">
        <ele>536.7</ele>
        <time>2024-09-29T08:47:26.000Z</time>
      </trkpt>
      <trkpt lat="43.58682" lon="6.10187">
        <ele>538</ele>
        <time>2024-09-29T08:47:40.000Z</time>
      </trkpt>
      <trkpt lat="43.58679" lon="6.10199">
        <ele>538.8</ele>
        <time>2024-09-29T08:47:51.000Z</time>
      </trkpt>
      <trkpt lat="43.58681" lon="6.10212">
        <ele>539.7</ele>
        <time>2024-09-29T08:48:04.000Z</time>
      </trkpt>
      <trkpt lat="43.58681" lon="6.10214">
        <ele>540.1</ele>
        <time>2024-09-29T08:48:14.000Z</time>
      </trkpt>
      <trkpt lat="43.58681" lon="6.10214">
        <ele>540.1</ele>
        <time>2024-09-29T08:48:15.000Z</time>
      </trkpt>
      <trkpt lat="43.58681" lon="6.10213">
        <ele>540.1</ele>
        <time>2024-09-29T08:48:18.000Z</time>
      </trkpt>
      <trkpt lat="43.58681" lon="6.10213">
        <ele>540.1</ele>
        <time>2024-09-29T08:48:19.000Z</time>
      </trkpt>
      <trkpt lat="43.58681" lon="6.10213">
        <ele>540.4</ele>
        <time>2024-09-29T08:48:28.000Z</time>
      </trkpt>
      <trkpt lat="43.58681" lon="6.10213">
        <ele>540.4</ele>
        <time>2024-09-29T08:48:29.000Z</time>
      </trkpt>
      <trkpt lat="43.58681" lon="6.10213">
        <ele>540.4</ele>
        <time>2024-09-29T08:48:35.000Z</time>
      </trkpt>
      <trkpt lat="43.58681" lon="6.10213">
        <ele>540.4</ele>
        <time>2024-09-29T08:48:36.000Z</time>
      </trkpt>
      <trkpt lat="43.58682" lon="6.10213">
        <ele>540.5</ele>
        <time>2024-09-29T08:48:37.000Z</time>
      </trkpt>
      <trkpt lat="43.58682" lon="6.10212">
        <ele>540.5</ele>
        <time>2024-09-29T08:48:38.000Z</time>
      </trkpt>
      <trkpt lat="43.58682" lon="6.10212">
        <ele>540.5</ele>
        <time>2024-09-29T08:48:39.000Z</time>
      </trkpt>
      <trkpt lat="43.58682" lon="6.10212">
        <ele>540.6</ele>
        <time>2024-09-29T08:48:43.000Z</time>
      </trkpt>
      <trkpt lat="43.58682" lon="6.10212">
        <ele>540.6</ele>
        <time>2024-09-29T08:48:44.000Z</time>
      </trkpt>
      <trkpt lat="43.58682" lon="6.10212">
        <ele>540.6</ele>
        <time>2024-09-29T08:48:45.000Z</time>
      </trkpt>
      <trkpt lat="43.58682" lon="6.10212">
        <ele>540.6</ele>
        <time>2024-09-29T08:48:46.000Z</time>
      </trkpt>
      <trkpt lat="43.58682" lon="6.10212">
        <ele>540.6</ele>
        <time>2024-09-29T08:48:47.000Z</time>
      </trkpt>
      <trkpt lat="43.58681" lon="6.1021">
        <ele>540.9</ele>
        <time>2024-09-29T08:49:06.000Z</time>
      </trkpt>
      <trkpt lat="43.58681" lon="6.1021">
        <ele>540.9</ele>
        <time>2024-09-29T08:49:07.000Z</time>
      </trkpt>
      <trkpt lat="43.58671" lon="6.1021">
        <ele>547.6</ele>
        <time>2024-09-29T08:50:09.000Z</time>
      </trkpt>
      <trkpt lat="43.58681" lon="6.102">
        <ele>548.2</ele>
        <time>2024-09-29T08:50:11.000Z</time>
      </trkpt>
      <trkpt lat="43.5869" lon="6.10199">
        <ele>548.8</ele>
        <time>2024-09-29T08:50:16.000Z</time>
      </trkpt>
      <trkpt lat="43.58692" lon="6.10197">
        <ele>549</ele>
        <time>2024-09-29T08:50:26.000Z</time>
      </trkpt>
      <trkpt lat="43.58691" lon="6.10197">
        <ele>549</ele>
        <time>2024-09-29T08:50:27.000Z</time>
      </trkpt>
      <trkpt lat="43.58691" lon="6.10197">
        <ele>549</ele>
        <time>2024-09-29T08:50:28.000Z</time>
      </trkpt>
      <trkpt lat="43.58691" lon="6.10197">
        <ele>549.1</ele>
        <time>2024-09-29T08:50:33.000Z</time>
      </trkpt>
      <trkpt lat="43.58691" lon="6.10198">
        <ele>549.1</ele>
        <time>2024-09-29T08:50:34.000Z</time>
      </trkpt>
      <trkpt lat="43.58692" lon="6.10197">
        <ele>549.1</ele>
        <time>2024-09-29T08:50:35.000Z</time>
      </trkpt>
      <trkpt lat="43.58692" lon="6.10197">
        <ele>549.1</ele>
        <time>2024-09-29T08:50:38.000Z</time>
      </trkpt>
      <trkpt lat="43.58692" lon="6.10197">
        <ele>549.1</ele>
        <time>2024-09-29T08:50:39.000Z</time>
      </trkpt>
      <trkpt lat="43.58692" lon="6.10197">
        <ele>549</ele>
        <time>2024-09-29T08:50:48.000Z</time>
      </trkpt>
      <trkpt lat="43.58692" lon="6.10197">
        <ele>549</ele>
        <time>2024-09-29T08:50:49.000Z</time>
      </trkpt>
      <trkpt lat="43.58691" lon="6.10197">
        <ele>549</ele>
        <time>2024-09-29T08:50:53.000Z</time>
      </trkpt>
      <trkpt lat="43.58691" lon="6.10197">
        <ele>549</ele>
        <time>2024-09-29T08:50:54.000Z</time>
      </trkpt>
      <trkpt lat="43.58691" lon="6.10197">
        <ele>549.2</ele>
        <time>2024-09-29T08:51:53.000Z</time>
      </trkpt>
      <trkpt lat="43.58691" lon="6.10197">
        <ele>549.2</ele>
        <time>2024-09-29T08:51:54.000Z</time>
      </trkpt>
      <trkpt lat="43.58691" lon="6.10197">
        <ele>549.2</ele>
        <time>2024-09-29T08:51:55.000Z</time>
      </trkpt>
      <trkpt lat="43.58691" lon="6.10197">
        <ele>549.2</ele>
        <time>2024-09-29T08:51:56.000Z</time>
      </trkpt>
      <trkpt lat="43.58691" lon="6.10197">
        <ele>549.2</ele>
        <time>2024-09-29T08:51:57.000Z</time>
      </trkpt>
      <trkpt lat="43.58692" lon="6.10197">
        <ele>549.1</ele>
        <time>2024-09-29T08:52:14.000Z</time>
      </trkpt>
      <trkpt lat="43.58692" lon="6.10197">
        <ele>549.1</ele>
        <time>2024-09-29T08:52:15.000Z</time>
      </trkpt>
      <trkpt lat="43.58693" lon="6.10197">
        <ele>549</ele>
        <time>2024-09-29T08:52:20.000Z</time>
      </trkpt>
      <trkpt lat="43.58693" lon="6.10197">
        <ele>549</ele>
        <time>2024-09-29T08:52:21.000Z</time>
      </trkpt>
      <trkpt lat="43.58693" lon="6.10197">
        <ele>549</ele>
        <time>2024-09-29T08:52:22.000Z</time>
      </trkpt>
      <trkpt lat="43.58693" lon="6.10197">
        <ele>549</ele>
        <time>2024-09-29T08:52:36.000Z</time>
      </trkpt>
      <trkpt lat="43.58693" lon="6.10197">
        <ele>548.9</ele>
        <time>2024-09-29T08:52:37.000Z</time>
      </trkpt>
      <trkpt lat="43.58693" lon="6.10197">
        <ele>548.9</ele>
        <time>2024-09-29T08:52:38.000Z</time>
      </trkpt>
      <trkpt lat="43.58693" lon="6.10197">
        <ele>548.9</ele>
        <time>2024-09-29T08:52:39.000Z</time>
      </trkpt>
      <trkpt lat="43.58693" lon="6.10197">
        <ele>548.9</ele>
        <time>2024-09-29T08:52:45.000Z</time>
      </trkpt>
      <trkpt lat="43.58693" lon="6.10197">
        <ele>548.9</ele>
        <time>2024-09-29T08:52:46.000Z</time>
      </trkpt>
      <trkpt lat="43.58693" lon="6.10197">
        <ele>548.9</ele>
        <time>2024-09-29T08:52:47.000Z</time>
      </trkpt>
      <trkpt lat="43.58693" lon="6.10197">
        <ele>548.9</ele>
        <time>2024-09-29T08:52:48.000Z</time>
      </trkpt>
      <trkpt lat="43.58693" lon="6.10197">
        <ele>548.9</ele>
        <time>2024-09-29T08:52:49.000Z</time>
      </trkpt>
      <trkpt lat="43.58694" lon="6.10196">
        <ele>548.7</ele>
        <time>2024-09-29T08:53:25.000Z</time>
      </trkpt>
      <trkpt lat="43.58694" lon="6.10196">
        <ele>548.7</ele>
        <time>2024-09-29T08:53:26.000Z</time>
      </trkpt>
      <trkpt lat="43.58694" lon="6.10196">
        <ele>548.7</ele>
        <time>2024-09-29T08:53:27.000Z</time>
      </trkpt>
      <trkpt lat="43.58694" lon="6.10196">
        <ele>548.7</ele>
        <time>2024-09-29T08:53:28.000Z</time>
      </trkpt>
      <trkpt lat="43.58694" lon="6.10196">
        <ele>548.7</ele>
        <time>2024-09-29T08:53:29.000Z</time>
      </trkpt>
      <trkpt lat="43.58694" lon="6.10196">
        <ele>548.7</ele>
        <time>2024-09-29T08:53:30.000Z</time>
      </trkpt>
      <trkpt lat="43.58694" lon="6.10196">
        <ele>548.7</ele>
        <time>2024-09-29T08:53:31.000Z</time>
      </trkpt>
      <trkpt lat="43.58694" lon="6.10196">
        <ele>548.7</ele>
        <time>2024-09-29T08:53:32.000Z</time>
      </trkpt>
      <trkpt lat="43.58694" lon="6.10196">
        <ele>548.7</ele>
        <time>2024-09-29T08:53:33.000Z</time>
      </trkpt>
      <trkpt lat="43.58694" lon="6.10197">
        <ele>548.7</ele>
        <time>2024-09-29T08:53:36.000Z</time>
      </trkpt>
      <trkpt lat="43.58694" lon="6.10197">
        <ele>548.7</ele>
        <time>2024-09-29T08:53:37.000Z</time>
      </trkpt>
      <trkpt lat="43.58694" lon="6.10197">
        <ele>548.7</ele>
        <time>2024-09-29T08:53:48.000Z</time>
      </trkpt>
      <trkpt lat="43.58694" lon="6.10197">
        <ele>548.7</ele>
        <time>2024-09-29T08:53:49.000Z</time>
      </trkpt>
      <trkpt lat="43.58694" lon="6.10197">
        <ele>548.7</ele>
        <time>2024-09-29T08:53:53.000Z</time>
      </trkpt>
      <trkpt lat="43.58694" lon="6.10197">
        <ele>548.7</ele>
        <time>2024-09-29T08:53:54.000Z</time>
      </trkpt>
      <trkpt lat="43.58694" lon="6.10198">
        <ele>548.7</ele>
        <time>2024-09-29T08:54:33.000Z</time>
      </trkpt>
      <trkpt lat="43.58694" lon="6.10198">
        <ele>548.7</ele>
        <time>2024-09-29T08:54:34.000Z</time>
      </trkpt>
      <trkpt lat="43.58694" lon="6.10198">
        <ele>548.7</ele>
        <time>2024-09-29T08:54:38.000Z</time>
      </trkpt>
      <trkpt lat="43.58694" lon="6.10198">
        <ele>548.7</ele>
        <time>2024-09-29T08:54:39.000Z</time>
      </trkpt>
      <trkpt lat="43.58694" lon="6.10197">
        <ele>548.7</ele>
        <time>2024-09-29T08:54:40.000Z</time>
      </trkpt>
      <trkpt lat="43.58694" lon="6.10197">
        <ele>548.7</ele>
        <time>2024-09-29T08:54:41.000Z</time>
      </trkpt>
      <trkpt lat="43.58694" lon="6.10197">
        <ele>548.7</ele>
        <time>2024-09-29T08:54:42.000Z</time>
      </trkpt>
      <trkpt lat="43.58694" lon="6.10197">
        <ele>548.7</ele>
        <time>2024-09-29T08:54:43.000Z</time>
      </trkpt>
      <trkpt lat="43.58694" lon="6.10196">
        <ele>548.7</ele>
        <time>2024-09-29T08:54:44.000Z</time>
      </trkpt>
      <trkpt lat="43.58694" lon="6.10197">
        <ele>548.7</ele>
        <time>2024-09-29T08:54:53.000Z</time>
      </trkpt>
      <trkpt lat="43.58694" lon="6.10197">
        <ele>548.7</ele>
        <time>2024-09-29T08:54:54.000Z</time>
      </trkpt>
      <trkpt lat="43.58694" lon="6.10197">
        <ele>548.7</ele>
        <time>2024-09-29T08:54:55.000Z</time>
      </trkpt>
      <trkpt lat="43.58694" lon="6.10197">
        <ele>548.7</ele>
        <time>2024-09-29T08:54:56.000Z</time>
      </trkpt>
      <trkpt lat="43.58694" lon="6.10197">
        <ele>548.7</ele>
        <time>2024-09-29T08:54:57.000Z</time>
      </trkpt>
      <trkpt lat="43.58694" lon="6.10197">
        <ele>548.7</ele>
        <time>2024-09-29T08:55:08.000Z</time>
      </trkpt>
      <trkpt lat="43.58694" lon="6.10197">
        <ele>548.7</ele>
        <time>2024-09-29T08:55:09.000Z</time>
      </trkpt>
      <trkpt lat="43.58693" lon="6.10197">
        <ele>548.7</ele>
        <time>2024-09-29T08:55:15.000Z</time>
      </trkpt>
      <trkpt lat="43.58693" lon="6.10198">
        <ele>548.7</ele>
        <time>2024-09-29T08:55:16.000Z</time>
      </trkpt>
      <trkpt lat="43.58693" lon="6.10198">
        <ele>548.7</ele>
        <time>2024-09-29T08:55:17.000Z</time>
      </trkpt>
      <trkpt lat="43.58694" lon="6.10196">
        <ele>548.7</ele>
        <time>2024-09-29T08:55:54.000Z</time>
      </trkpt>
      <trkpt lat="43.58694" lon="6.10196">
        <ele>548.7</ele>
        <time>2024-09-29T08:55:55.000Z</time>
      </trkpt>
      <trkpt lat="43.58694" lon="6.10196">
        <ele>548.7</ele>
        <time>2024-09-29T08:55:56.000Z</time>
      </trkpt>
      <trkpt lat="43.58694" lon="6.10196">
        <ele>548.7</ele>
        <time>2024-09-29T08:55:57.000Z</time>
      </trkpt>
      <trkpt lat="43.58694" lon="6.10196">
        <ele>548.6</ele>
        <time>2024-09-29T08:56:13.000Z</time>
      </trkpt>
      <trkpt lat="43.58694" lon="6.10196">
        <ele>548.6</ele>
        <time>2024-09-29T08:56:14.000Z</time>
      </trkpt>
      <trkpt lat="43.58694" lon="6.10196">
        <ele>548.6</ele>
        <time>2024-09-29T08:56:15.000Z</time>
      </trkpt>
      <trkpt lat="43.58694" lon="6.10196">
        <ele>548.6</ele>
        <time>2024-09-29T08:56:16.000Z</time>
      </trkpt>
      <trkpt lat="43.58694" lon="6.10196">
        <ele>548.6</ele>
        <time>2024-09-29T08:56:17.000Z</time>
      </trkpt>
      <trkpt lat="43.58694" lon="6.10196">
        <ele>548.6</ele>
        <time>2024-09-29T08:56:18.000Z</time>
      </trkpt>
      <trkpt lat="43.58694" lon="6.10196">
        <ele>548.6</ele>
        <time>2024-09-29T08:56:19.000Z</time>
      </trkpt>
      <trkpt lat="43.58694" lon="6.10196">
        <ele>548.6</ele>
        <time>2024-09-29T08:56:20.000Z</time>
      </trkpt>
      <trkpt lat="43.58694" lon="6.10196">
        <ele>548.6</ele>
        <time>2024-09-29T08:56:21.000Z</time>
      </trkpt>
      <trkpt lat="43.58694" lon="6.10196">
        <ele>548.6</ele>
        <time>2024-09-29T08:56:22.000Z</time>
      </trkpt>
      <trkpt lat="43.58694" lon="6.10196">
        <ele>548.6</ele>
        <time>2024-09-29T08:56:23.000Z</time>
      </trkpt>
      <trkpt lat="43.58694" lon="6.10196">
        <ele>548.6</ele>
        <time>2024-09-29T08:56:38.000Z</time>
      </trkpt>
      <trkpt lat="43.58694" lon="6.10196">
        <ele>548.6</ele>
        <time>2024-09-29T08:56:39.000Z</time>
      </trkpt>
      <trkpt lat="43.58694" lon="6.10196">
        <ele>548.6</ele>
        <time>2024-09-29T08:56:40.000Z</time>
      </trkpt>
      <trkpt lat="43.58694" lon="6.10196">
        <ele>548.6</ele>
        <time>2024-09-29T08:56:41.000Z</time>
      </trkpt>
      <trkpt lat="43.58694" lon="6.10196">
        <ele>548.6</ele>
        <time>2024-09-29T08:56:42.000Z</time>
      </trkpt>
      <trkpt lat="43.58694" lon="6.10196">
        <ele>548.5</ele>
        <time>2024-09-29T08:57:23.000Z</time>
      </trkpt>
      <trkpt lat="43.58694" lon="6.10196">
        <ele>548.5</ele>
        <time>2024-09-29T08:57:24.000Z</time>
      </trkpt>
      <trkpt lat="43.58694" lon="6.10196">
        <ele>548.5</ele>
        <time>2024-09-29T08:57:25.000Z</time>
      </trkpt>
      <trkpt lat="43.58694" lon="6.10196">
        <ele>548.5</ele>
        <time>2024-09-29T08:57:26.000Z</time>
      </trkpt>
      <trkpt lat="43.58694" lon="6.10196">
        <ele>548.5</ele>
        <time>2024-09-29T08:57:27.000Z</time>
      </trkpt>
      <trkpt lat="43.58694" lon="6.10198">
        <ele>548.2</ele>
        <time>2024-09-29T08:58:46.000Z</time>
      </trkpt>
      <trkpt lat="43.58694" lon="6.10198">
        <ele>548.2</ele>
        <time>2024-09-29T08:58:47.000Z</time>
      </trkpt>
      <trkpt lat="43.58694" lon="6.10198">
        <ele>548.2</ele>
        <time>2024-09-29T08:58:48.000Z</time>
      </trkpt>
      <trkpt lat="43.58694" lon="6.10198">
        <ele>548.2</ele>
        <time>2024-09-29T08:58:49.000Z</time>
      </trkpt>
      <trkpt lat="43.58694" lon="6.10198">
        <ele>548.2</ele>
        <time>2024-09-29T08:58:53.000Z</time>
      </trkpt>
      <trkpt lat="43.58694" lon="6.10198">
        <ele>548.2</ele>
        <time>2024-09-29T08:58:54.000Z</time>
      </trkpt>
      <trkpt lat="43.58694" lon="6.10198">
        <ele>548.2</ele>
        <time>2024-09-29T08:58:55.000Z</time>
      </trkpt>
      <trkpt lat="43.58693" lon="6.10198">
        <ele>548.2</ele>
        <time>2024-09-29T08:58:58.000Z</time>
      </trkpt>
      <trkpt lat="43.58693" lon="6.10198">
        <ele>548.2</ele>
        <time>2024-09-29T08:58:59.000Z</time>
      </trkpt>
      <trkpt lat="43.58693" lon="6.10198">
        <ele>548.3</ele>
        <time>2024-09-29T08:59:23.000Z</time>
      </trkpt>
      <trkpt lat="43.58693" lon="6.10198">
        <ele>548.3</ele>
        <time>2024-09-29T08:59:24.000Z</time>
      </trkpt>
      <trkpt lat="43.58693" lon="6.10197">
        <ele>548.3</ele>
        <time>2024-09-29T08:59:25.000Z</time>
      </trkpt>
      <trkpt lat="43.58693" lon="6.10197">
        <ele>548.3</ele>
        <time>2024-09-29T08:59:26.000Z</time>
      </trkpt>
      <trkpt lat="43.58693" lon="6.10197">
        <ele>548.3</ele>
        <time>2024-09-29T08:59:27.000Z</time>
      </trkpt>
      <trkpt lat="43.58693" lon="6.10197">
        <ele>548.4</ele>
        <time>2024-09-29T08:59:28.000Z</time>
      </trkpt>
      <trkpt lat="43.58693" lon="6.10197">
        <ele>548.4</ele>
        <time>2024-09-29T08:59:29.000Z</time>
      </trkpt>
      <trkpt lat="43.58693" lon="6.10197">
        <ele>548.4</ele>
        <time>2024-09-29T08:59:30.000Z</time>
      </trkpt>
      <trkpt lat="43.58693" lon="6.10197">
        <ele>548.4</ele>
        <time>2024-09-29T08:59:31.000Z</time>
      </trkpt>
      <trkpt lat="43.58693" lon="6.10197">
        <ele>548.4</ele>
        <time>2024-09-29T08:59:32.000Z</time>
      </trkpt>
      <trkpt lat="43.58692" lon="6.10197">
        <ele>548.4</ele>
        <time>2024-09-29T08:59:56.000Z</time>
      </trkpt>
      <trkpt lat="43.58692" lon="6.10197">
        <ele>548.4</ele>
        <time>2024-09-29T08:59:57.000Z</time>
      </trkpt>
      <trkpt lat="43.58692" lon="6.10197">
        <ele>548.3</ele>
        <time>2024-09-29T08:59:58.000Z</time>
      </trkpt>
      <trkpt lat="43.58692" lon="6.10197">
        <ele>548.4</ele>
        <time>2024-09-29T08:59:59.000Z</time>
      </trkpt>
      <trkpt lat="43.58692" lon="6.10197">
        <ele>548.4</ele>
        <time>2024-09-29T09:00:00.000Z</time>
      </trkpt>
      <trkpt lat="43.58692" lon="6.10197">
        <ele>548.4</ele>
        <time>2024-09-29T09:00:18.000Z</time>
      </trkpt>
      <trkpt lat="43.58692" lon="6.10196">
        <ele>548.4</ele>
        <time>2024-09-29T09:00:19.000Z</time>
      </trkpt>
      <trkpt lat="43.58692" lon="6.10196">
        <ele>548.4</ele>
        <time>2024-09-29T09:00:20.000Z</time>
      </trkpt>
      <trkpt lat="43.58692" lon="6.10196">
        <ele>548.4</ele>
        <time>2024-09-29T09:00:21.000Z</time>
      </trkpt>
      <trkpt lat="43.58692" lon="6.10196">
        <ele>548.4</ele>
        <time>2024-09-29T09:00:22.000Z</time>
      </trkpt>
      <trkpt lat="43.58692" lon="6.10196">
        <ele>548.4</ele>
        <time>2024-09-29T09:00:31.000Z</time>
      </trkpt>
      <trkpt lat="43.58692" lon="6.10196">
        <ele>548.5</ele>
        <time>2024-09-29T09:00:32.000Z</time>
      </trkpt>
      <trkpt lat="43.58692" lon="6.10196">
        <ele>548.5</ele>
        <time>2024-09-29T09:00:33.000Z</time>
      </trkpt>
      <trkpt lat="43.58692" lon="6.10196">
        <ele>548.5</ele>
        <time>2024-09-29T09:00:34.000Z</time>
      </trkpt>
      <trkpt lat="43.58692" lon="6.10196">
        <ele>548.5</ele>
        <time>2024-09-29T09:00:35.000Z</time>
      </trkpt>
      <trkpt lat="43.58692" lon="6.10198">
        <ele>549</ele>
        <time>2024-09-29T09:01:35.000Z</time>
      </trkpt>
      <trkpt lat="43.58692" lon="6.10199">
        <ele>549</ele>
        <time>2024-09-29T09:01:36.000Z</time>
      </trkpt>
      <trkpt lat="43.58692" lon="6.102">
        <ele>549</ele>
        <time>2024-09-29T09:01:37.000Z</time>
      </trkpt>
      <trkpt lat="43.58693" lon="6.10202">
        <ele>549.1</ele>
        <time>2024-09-29T09:01:44.000Z</time>
      </trkpt>
      <trkpt lat="43.58693" lon="6.10202">
        <ele>549.1</ele>
        <time>2024-09-29T09:01:45.000Z</time>
      </trkpt>
      <trkpt lat="43.58693" lon="6.10202">
        <ele>549.2</ele>
        <time>2024-09-29T09:01:54.000Z</time>
      </trkpt>
      <trkpt lat="43.58693" lon="6.10202">
        <ele>549.2</ele>
        <time>2024-09-29T09:01:55.000Z</time>
      </trkpt>
      <trkpt lat="43.58693" lon="6.10202">
        <ele>549.2</ele>
        <time>2024-09-29T09:01:56.000Z</time>
      </trkpt>
      <trkpt lat="43.58693" lon="6.10202">
        <ele>549.2</ele>
        <time>2024-09-29T09:01:57.000Z</time>
      </trkpt>
      <trkpt lat="43.58693" lon="6.10202">
        <ele>549.2</ele>
        <time>2024-09-29T09:01:58.000Z</time>
      </trkpt>
      <trkpt lat="43.58693" lon="6.10202">
        <ele>549.2</ele>
        <time>2024-09-29T09:01:59.000Z</time>
      </trkpt>
      <trkpt lat="43.58694" lon="6.10202">
        <ele>549.2</ele>
        <time>2024-09-29T09:02:00.000Z</time>
      </trkpt>
      <trkpt lat="43.58694" lon="6.10202">
        <ele>549.2</ele>
        <time>2024-09-29T09:02:01.000Z</time>
      </trkpt>
      <trkpt lat="43.58694" lon="6.10202">
        <ele>549.2</ele>
        <time>2024-09-29T09:02:02.000Z</time>
      </trkpt>
      <trkpt lat="43.58694" lon="6.10202">
        <ele>549.2</ele>
        <time>2024-09-29T09:02:03.000Z</time>
      </trkpt>
      <trkpt lat="43.58694" lon="6.102">
        <ele>549.3</ele>
        <time>2024-09-29T09:02:18.000Z</time>
      </trkpt>
      <trkpt lat="43.58694" lon="6.102">
        <ele>549.3</ele>
        <time>2024-09-29T09:02:19.000Z</time>
      </trkpt>
      <trkpt lat="43.58694" lon="6.102">
        <ele>549.4</ele>
        <time>2024-09-29T09:02:20.000Z</time>
      </trkpt>
      <trkpt lat="43.58694" lon="6.102">
        <ele>549.4</ele>
        <time>2024-09-29T09:02:24.000Z</time>
      </trkpt>
      <trkpt lat="43.58694" lon="6.102">
        <ele>549.4</ele>
        <time>2024-09-29T09:02:25.000Z</time>
      </trkpt>
      <trkpt lat="43.58694" lon="6.102">
        <ele>549.4</ele>
        <time>2024-09-29T09:02:31.000Z</time>
      </trkpt>
      <trkpt lat="43.58694" lon="6.102">
        <ele>549.4</ele>
        <time>2024-09-29T09:02:32.000Z</time>
      </trkpt>
      <trkpt lat="43.58694" lon="6.102">
        <ele>549.4</ele>
        <time>2024-09-29T09:02:33.000Z</time>
      </trkpt>
      <trkpt lat="43.58694" lon="6.102">
        <ele>549.4</ele>
        <time>2024-09-29T09:02:34.000Z</time>
      </trkpt>
      <trkpt lat="43.58694" lon="6.102">
        <ele>549.4</ele>
        <time>2024-09-29T09:02:35.000Z</time>
      </trkpt>
      <trkpt lat="43.58694" lon="6.10199">
        <ele>549.4</ele>
        <time>2024-09-29T09:02:40.000Z</time>
      </trkpt>
      <trkpt lat="43.58694" lon="6.10198">
        <ele>549.4</ele>
        <time>2024-09-29T09:02:41.000Z</time>
      </trkpt>
      <trkpt lat="43.58694" lon="6.10198">
        <ele>549.4</ele>
        <time>2024-09-29T09:02:42.000Z</time>
      </trkpt>
      <trkpt lat="43.58694" lon="6.10197">
        <ele>549.5</ele>
        <time>2024-09-29T09:02:46.000Z</time>
      </trkpt>
      <trkpt lat="43.58694" lon="6.10197">
        <ele>549.5</ele>
        <time>2024-09-29T09:02:47.000Z</time>
      </trkpt>
      <trkpt lat="43.58694" lon="6.10197">
        <ele>549.5</ele>
        <time>2024-09-29T09:02:48.000Z</time>
      </trkpt>
      <trkpt lat="43.58694" lon="6.10197">
        <ele>549.5</ele>
        <time>2024-09-29T09:02:49.000Z</time>
      </trkpt>
      <trkpt lat="43.58693" lon="6.10197">
        <ele>549.5</ele>
        <time>2024-09-29T09:02:50.000Z</time>
      </trkpt>
      <trkpt lat="43.58693" lon="6.10197">
        <ele>549.5</ele>
        <time>2024-09-29T09:02:54.000Z</time>
      </trkpt>
      <trkpt lat="43.58693" lon="6.10197">
        <ele>549.5</ele>
        <time>2024-09-29T09:02:55.000Z</time>
      </trkpt>
      <trkpt lat="43.58693" lon="6.10197">
        <ele>549.4</ele>
        <time>2024-09-29T09:02:58.000Z</time>
      </trkpt>
      <trkpt lat="43.58693" lon="6.10197">
        <ele>549.4</ele>
        <time>2024-09-29T09:02:59.000Z</time>
      </trkpt>
      <trkpt lat="43.58693" lon="6.10197">
        <ele>549.4</ele>
        <time>2024-09-29T09:03:00.000Z</time>
      </trkpt>
      <trkpt lat="43.58707" lon="6.10207">
        <ele>545.7</ele>
        <time>2024-09-29T09:03:43.000Z</time>
      </trkpt>
      <trkpt lat="43.58707" lon="6.10203">
        <ele>545.1</ele>
        <time>2024-09-29T09:03:44.000Z</time>
      </trkpt>
      <trkpt lat="43.58707" lon="6.10203">
        <ele>544.6</ele>
        <time>2024-09-29T09:03:45.000Z</time>
      </trkpt>
      <trkpt lat="43.58712" lon="6.10214">
        <ele>541</ele>
        <time>2024-09-29T09:04:26.000Z</time>
      </trkpt>
      <trkpt lat="43.58716" lon="6.10222">
        <ele>539.5</ele>
        <time>2024-09-29T09:04:48.000Z</time>
      </trkpt>
      <trkpt lat="43.58716" lon="6.10222">
        <ele>539.5</ele>
        <time>2024-09-29T09:04:49.000Z</time>
      </trkpt>
      <trkpt lat="43.58716" lon="6.10223">
        <ele>539.4</ele>
        <time>2024-09-29T09:04:50.000Z</time>
      </trkpt>
      <trkpt lat="43.58716" lon="6.10223">
        <ele>539.4</ele>
        <time>2024-09-29T09:04:51.000Z</time>
      </trkpt>
      <trkpt lat="43.58716" lon="6.10224">
        <ele>539.4</ele>
        <time>2024-09-29T09:04:52.000Z</time>
      </trkpt>
      <trkpt lat="43.58715" lon="6.10223">
        <ele>539.4</ele>
        <time>2024-09-29T09:04:53.000Z</time>
      </trkpt>
      <trkpt lat="43.58715" lon="6.10223">
        <ele>539.3</ele>
        <time>2024-09-29T09:04:54.000Z</time>
      </trkpt>
      <trkpt lat="43.58715" lon="6.10224">
        <ele>539.3</ele>
        <time>2024-09-29T09:04:55.000Z</time>
      </trkpt>
      <trkpt lat="43.58716" lon="6.10224">
        <ele>539.3</ele>
        <time>2024-09-29T09:04:56.000Z</time>
      </trkpt>
      <trkpt lat="43.58715" lon="6.10225">
        <ele>539.3</ele>
        <time>2024-09-29T09:04:57.000Z</time>
      </trkpt>
      <trkpt lat="43.58715" lon="6.10225">
        <ele>539.3</ele>
        <time>2024-09-29T09:04:58.000Z</time>
      </trkpt>
      <trkpt lat="43.58715" lon="6.10225">
        <ele>539.2</ele>
        <time>2024-09-29T09:04:59.000Z</time>
      </trkpt>
      <trkpt lat="43.58716" lon="6.10225">
        <ele>539.2</ele>
        <time>2024-09-29T09:05:03.000Z</time>
      </trkpt>
      <trkpt lat="43.58716" lon="6.10225">
        <ele>539.2</ele>
        <time>2024-09-29T09:05:04.000Z</time>
      </trkpt>
      <trkpt lat="43.58716" lon="6.10223">
        <ele>539.2</ele>
        <time>2024-09-29T09:05:08.000Z</time>
      </trkpt>
      <trkpt lat="43.58716" lon="6.10223">
        <ele>539.2</ele>
        <time>2024-09-29T09:05:09.000Z</time>
      </trkpt>
      <trkpt lat="43.58716" lon="6.10223">
        <ele>539.2</ele>
        <time>2024-09-29T09:05:10.000Z</time>
      </trkpt>
      <trkpt lat="43.58716" lon="6.10223">
        <ele>539.1</ele>
        <time>2024-09-29T09:05:11.000Z</time>
      </trkpt>
      <trkpt lat="43.58716" lon="6.10223">
        <ele>539.1</ele>
        <time>2024-09-29T09:05:12.000Z</time>
      </trkpt>
      <trkpt lat="43.58715" lon="6.10223">
        <ele>539.1</ele>
        <time>2024-09-29T09:05:13.000Z</time>
      </trkpt>
      <trkpt lat="43.58715" lon="6.10223">
        <ele>539.1</ele>
        <time>2024-09-29T09:05:16.000Z</time>
      </trkpt>
      <trkpt lat="43.58715" lon="6.10223">
        <ele>539.1</ele>
        <time>2024-09-29T09:05:17.000Z</time>
      </trkpt>
      <trkpt lat="43.58715" lon="6.10223">
        <ele>539.1</ele>
        <time>2024-09-29T09:05:36.000Z</time>
      </trkpt>
      <trkpt lat="43.58715" lon="6.10223">
        <ele>539</ele>
        <time>2024-09-29T09:05:37.000Z</time>
      </trkpt>
      <trkpt lat="43.58715" lon="6.10223">
        <ele>539</ele>
        <time>2024-09-29T09:05:38.000Z</time>
      </trkpt>
      <trkpt lat="43.58715" lon="6.10223">
        <ele>539</ele>
        <time>2024-09-29T09:05:39.000Z</time>
      </trkpt>
      <trkpt lat="43.58715" lon="6.10223">
        <ele>539</ele>
        <time>2024-09-29T09:05:40.000Z</time>
      </trkpt>
      <trkpt lat="43.58715" lon="6.10223">
        <ele>539.1</ele>
        <time>2024-09-29T09:06:00.000Z</time>
      </trkpt>
      <trkpt lat="43.58715" lon="6.10223">
        <ele>539.1</ele>
        <time>2024-09-29T09:06:01.000Z</time>
      </trkpt>
      <trkpt lat="43.58715" lon="6.10223">
        <ele>539.1</ele>
        <time>2024-09-29T09:06:02.000Z</time>
      </trkpt>
      <trkpt lat="43.58715" lon="6.10223">
        <ele>539.1</ele>
        <time>2024-09-29T09:06:03.000Z</time>
      </trkpt>
      <trkpt lat="43.58715" lon="6.10223">
        <ele>539.1</ele>
        <time>2024-09-29T09:06:04.000Z</time>
      </trkpt>
      <trkpt lat="43.58715" lon="6.10223">
        <ele>539.1</ele>
        <time>2024-09-29T09:06:05.000Z</time>
      </trkpt>
      <trkpt lat="43.58716" lon="6.1022">
        <ele>538.9</ele>
        <time>2024-09-29T09:07:25.000Z</time>
      </trkpt>
      <trkpt lat="43.58716" lon="6.1022">
        <ele>538.9</ele>
        <time>2024-09-29T09:07:26.000Z</time>
      </trkpt>
      <trkpt lat="43.58716" lon="6.1022">
        <ele>538.9</ele>
        <time>2024-09-29T09:07:27.000Z</time>
      </trkpt>
      <trkpt lat="43.58714" lon="6.10221">
        <ele>538.9</ele>
        <time>2024-09-29T09:07:43.000Z</time>
      </trkpt>
      <trkpt lat="43.58714" lon="6.10221">
        <ele>538.9</ele>
        <time>2024-09-29T09:07:44.000Z</time>
      </trkpt>
      <trkpt lat="43.58714" lon="6.10221">
        <ele>538.9</ele>
        <time>2024-09-29T09:07:50.000Z</time>
      </trkpt>
      <trkpt lat="43.58714" lon="6.10221">
        <ele>538.9</ele>
        <time>2024-09-29T09:07:51.000Z</time>
      </trkpt>
      <trkpt lat="43.58714" lon="6.10221">
        <ele>538.9</ele>
        <time>2024-09-29T09:07:52.000Z</time>
      </trkpt>
      <trkpt lat="43.58714" lon="6.10222">
        <ele>538.9</ele>
        <time>2024-09-29T09:07:53.000Z</time>
      </trkpt>
      <trkpt lat="43.58714" lon="6.10222">
        <ele>538.9</ele>
        <time>2024-09-29T09:07:54.000Z</time>
      </trkpt>
      <trkpt lat="43.58714" lon="6.10222">
        <ele>538.9</ele>
        <time>2024-09-29T09:07:55.000Z</time>
      </trkpt>
      <trkpt lat="43.58713" lon="6.10222">
        <ele>538.9</ele>
        <time>2024-09-29T09:07:56.000Z</time>
      </trkpt>
      <trkpt lat="43.58713" lon="6.10223">
        <ele>538.9</ele>
        <time>2024-09-29T09:07:57.000Z</time>
      </trkpt>
      <trkpt lat="43.58712" lon="6.10223">
        <ele>538.9</ele>
        <time>2024-09-29T09:07:58.000Z</time>
      </trkpt>
      <trkpt lat="43.58703" lon="6.10221">
        <ele>538.9</ele>
        <time>2024-09-29T09:08:09.000Z</time>
      </trkpt>
      <trkpt lat="43.58699" lon="6.10219">
        <ele>539</ele>
        <time>2024-09-29T09:08:20.000Z</time>
      </trkpt>
      <trkpt lat="43.58699" lon="6.10219">
        <ele>539</ele>
        <time>2024-09-29T09:08:21.000Z</time>
      </trkpt>
      <trkpt lat="43.58699" lon="6.10219">
        <ele>539.1</ele>
        <time>2024-09-29T09:08:22.000Z</time>
      </trkpt>
      <trkpt lat="43.58699" lon="6.10219">
        <ele>539.1</ele>
        <time>2024-09-29T09:08:23.000Z</time>
      </trkpt>
      <trkpt lat="43.58699" lon="6.10219">
        <ele>539.1</ele>
        <time>2024-09-29T09:08:24.000Z</time>
      </trkpt>
      <trkpt lat="43.58699" lon="6.1022">
        <ele>539.1</ele>
        <time>2024-09-29T09:08:25.000Z</time>
      </trkpt>
      <trkpt lat="43.5869" lon="6.1022">
        <ele>539.2</ele>
        <time>2024-09-29T09:08:38.000Z</time>
      </trkpt>
      <trkpt lat="43.58681" lon="6.10217">
        <ele>539.3</ele>
        <time>2024-09-29T09:08:55.000Z</time>
      </trkpt>
      <trkpt lat="43.58671" lon="6.10215">
        <ele>539.2</ele>
        <time>2024-09-29T09:09:15.000Z</time>
      </trkpt>
      <trkpt lat="43.58662" lon="6.10214">
        <ele>539</ele>
        <time>2024-09-29T09:09:27.000Z</time>
      </trkpt>
      <trkpt lat="43.58658" lon="6.10202">
        <ele>538.5</ele>
        <time>2024-09-29T09:09:40.000Z</time>
      </trkpt>
      <trkpt lat="43.58654" lon="6.102">
        <ele>537.8</ele>
        <time>2024-09-29T09:09:56.000Z</time>
      </trkpt>
      <trkpt lat="43.58654" lon="6.102">
        <ele>537.8</ele>
        <time>2024-09-29T09:09:57.000Z</time>
      </trkpt>
      <trkpt lat="43.58654" lon="6.102">
        <ele>537.7</ele>
        <time>2024-09-29T09:09:58.000Z</time>
      </trkpt>
      <trkpt lat="43.58654" lon="6.102">
        <ele>537.5</ele>
        <time>2024-09-29T09:10:20.000Z</time>
      </trkpt>
      <trkpt lat="43.58654" lon="6.10199">
        <ele>537.5</ele>
        <time>2024-09-29T09:10:21.000Z</time>
      </trkpt>
      <trkpt lat="43.58654" lon="6.10199">
        <ele>537.4</ele>
        <time>2024-09-29T09:10:22.000Z</time>
      </trkpt>
      <trkpt lat="43.58653" lon="6.10198">
        <ele>537.4</ele>
        <time>2024-09-29T09:10:26.000Z</time>
      </trkpt>
      <trkpt lat="43.58653" lon="6.10197">
        <ele>537.4</ele>
        <time>2024-09-29T09:10:27.000Z</time>
      </trkpt>
      <trkpt lat="43.58653" lon="6.10197">
        <ele>537.4</ele>
        <time>2024-09-29T09:10:28.000Z</time>
      </trkpt>
      <trkpt lat="43.58652" lon="6.10199">
        <ele>537.4</ele>
        <time>2024-09-29T09:10:31.000Z</time>
      </trkpt>
      <trkpt lat="43.58652" lon="6.102">
        <ele>537.5</ele>
        <time>2024-09-29T09:10:32.000Z</time>
      </trkpt>
      <trkpt lat="43.58652" lon="6.102">
        <ele>537.5</ele>
        <time>2024-09-29T09:10:33.000Z</time>
      </trkpt>
      <trkpt lat="43.58654" lon="6.10199">
        <ele>537.5</ele>
        <time>2024-09-29T09:10:38.000Z</time>
      </trkpt>
      <trkpt lat="43.58654" lon="6.10199">
        <ele>537.5</ele>
        <time>2024-09-29T09:10:39.000Z</time>
      </trkpt>
      <trkpt lat="43.58654" lon="6.10199">
        <ele>537.5</ele>
        <time>2024-09-29T09:10:40.000Z</time>
      </trkpt>
      <trkpt lat="43.58654" lon="6.10198">
        <ele>537.5</ele>
        <time>2024-09-29T09:10:58.000Z</time>
      </trkpt>
      <trkpt lat="43.58654" lon="6.10198">
        <ele>537.5</ele>
        <time>2024-09-29T09:10:59.000Z</time>
      </trkpt>
      <trkpt lat="43.58653" lon="6.10199">
        <ele>537.4</ele>
        <time>2024-09-29T09:11:03.000Z</time>
      </trkpt>
      <trkpt lat="43.58653" lon="6.10198">
        <ele>537.4</ele>
        <time>2024-09-29T09:11:04.000Z</time>
      </trkpt>
      <trkpt lat="43.58653" lon="6.10199">
        <ele>537.4</ele>
        <time>2024-09-29T09:11:05.000Z</time>
      </trkpt>
      <trkpt lat="43.58653" lon="6.10199">
        <ele>537.4</ele>
        <time>2024-09-29T09:11:06.000Z</time>
      </trkpt>
      <trkpt lat="43.58653" lon="6.10198">
        <ele>537.5</ele>
        <time>2024-09-29T09:11:07.000Z</time>
      </trkpt>
      <trkpt lat="43.58653" lon="6.10198">
        <ele>537.5</ele>
        <time>2024-09-29T09:11:08.000Z</time>
      </trkpt>
      <trkpt lat="43.58653" lon="6.10198">
        <ele>537.5</ele>
        <time>2024-09-29T09:11:09.000Z</time>
      </trkpt>
      <trkpt lat="43.58653" lon="6.10198">
        <ele>537.5</ele>
        <time>2024-09-29T09:11:10.000Z</time>
      </trkpt>
      <trkpt lat="43.58652" lon="6.10197">
        <ele>537.4</ele>
        <time>2024-09-29T09:11:18.000Z</time>
      </trkpt>
      <trkpt lat="43.58652" lon="6.10197">
        <ele>537.4</ele>
        <time>2024-09-29T09:11:19.000Z</time>
      </trkpt>
      <trkpt lat="43.58652" lon="6.10197">
        <ele>537.4</ele>
        <time>2024-09-29T09:11:20.000Z</time>
      </trkpt>
      <trkpt lat="43.58652" lon="6.10197">
        <ele>537.4</ele>
        <time>2024-09-29T09:11:21.000Z</time>
      </trkpt>
      <trkpt lat="43.58652" lon="6.10197">
        <ele>537.4</ele>
        <time>2024-09-29T09:11:22.000Z</time>
      </trkpt>
      <trkpt lat="43.58652" lon="6.10196">
        <ele>537.4</ele>
        <time>2024-09-29T09:11:23.000Z</time>
      </trkpt>
      <trkpt lat="43.58652" lon="6.10195">
        <ele>537.4</ele>
        <time>2024-09-29T09:11:24.000Z</time>
      </trkpt>
      <trkpt lat="43.58653" lon="6.10195">
        <ele>537.5</ele>
        <time>2024-09-29T09:11:30.000Z</time>
      </trkpt>
      <trkpt lat="43.58653" lon="6.10196">
        <ele>537.5</ele>
        <time>2024-09-29T09:11:31.000Z</time>
      </trkpt>
      <trkpt lat="43.58653" lon="6.10196">
        <ele>537.5</ele>
        <time>2024-09-29T09:11:32.000Z</time>
      </trkpt>
      <trkpt lat="43.58653" lon="6.10196">
        <ele>537.5</ele>
        <time>2024-09-29T09:11:33.000Z</time>
      </trkpt>
      <trkpt lat="43.58652" lon="6.10196">
        <ele>537.5</ele>
        <time>2024-09-29T09:11:34.000Z</time>
      </trkpt>
      <trkpt lat="43.58652" lon="6.10196">
        <ele>537.5</ele>
        <time>2024-09-29T09:11:35.000Z</time>
      </trkpt>
      <trkpt lat="43.58652" lon="6.10196">
        <ele>537.5</ele>
        <time>2024-09-29T09:11:36.000Z</time>
      </trkpt>
      <trkpt lat="43.58652" lon="6.10196">
        <ele>537.5</ele>
        <time>2024-09-29T09:11:37.000Z</time>
      </trkpt>
      <trkpt lat="43.58653" lon="6.10198">
        <ele>537.5</ele>
        <time>2024-09-29T09:11:41.000Z</time>
      </trkpt>
      <trkpt lat="43.58654" lon="6.10198">
        <ele>537.5</ele>
        <time>2024-09-29T09:11:42.000Z</time>
      </trkpt>
      <trkpt lat="43.58655" lon="6.10201">
        <ele>537.6</ele>
        <time>2024-09-29T09:11:48.000Z</time>
      </trkpt>
      <trkpt lat="43.58655" lon="6.10201">
        <ele>537.6</ele>
        <time>2024-09-29T09:11:49.000Z</time>
      </trkpt>
      <trkpt lat="43.58655" lon="6.10201">
        <ele>537.6</ele>
        <time>2024-09-29T09:11:50.000Z</time>
      </trkpt>
      <trkpt lat="43.58655" lon="6.10202">
        <ele>537.6</ele>
        <time>2024-09-29T09:11:51.000Z</time>
      </trkpt>
      <trkpt lat="43.58655" lon="6.10201">
        <ele>537.6</ele>
        <time>2024-09-29T09:11:52.000Z</time>
      </trkpt>
      <trkpt lat="43.58646" lon="6.1019">
        <ele>537.9</ele>
        <time>2024-09-29T09:12:01.000Z</time>
      </trkpt>
      <trkpt lat="43.58646" lon="6.10195">
        <ele>538.3</ele>
        <time>2024-09-29T09:12:15.000Z</time>
      </trkpt>
      <trkpt lat="43.58652" lon="6.10206">
        <ele>538.4</ele>
        <time>2024-09-29T09:12:18.000Z</time>
      </trkpt>
      <trkpt lat="43.58653" lon="6.10207">
        <ele>538.4</ele>
        <time>2024-09-29T09:12:19.000Z</time>
      </trkpt>
      <trkpt lat="43.58654" lon="6.10209">
        <ele>538.5</ele>
        <time>2024-09-29T09:12:20.000Z</time>
      </trkpt>
      <trkpt lat="43.58655" lon="6.10211">
        <ele>538.5</ele>
        <time>2024-09-29T09:12:21.000Z</time>
      </trkpt>
      <trkpt lat="43.58657" lon="6.10212">
        <ele>538.6</ele>
        <time>2024-09-29T09:12:22.000Z</time>
      </trkpt>
      <trkpt lat="43.58658" lon="6.10214">
        <ele>538.6</ele>
        <time>2024-09-29T09:12:23.000Z</time>
      </trkpt>
      <trkpt lat="43.58659" lon="6.10216">
        <ele>538.6</ele>
        <time>2024-09-29T09:12:24.000Z</time>
      </trkpt>
      <trkpt lat="43.5866" lon="6.10218">
        <ele>538.7</ele>
        <time>2024-09-29T09:12:25.000Z</time>
      </trkpt>
      <trkpt lat="43.58661" lon="6.10219">
        <ele>538.7</ele>
        <time>2024-09-29T09:12:26.000Z</time>
      </trkpt>
      <trkpt lat="43.58663" lon="6.10219">
        <ele>538.7</ele>
        <time>2024-09-29T09:12:27.000Z</time>
      </trkpt>
      <trkpt lat="43.58666" lon="6.10217">
        <ele>538.8</ele>
        <time>2024-09-29T09:12:30.000Z</time>
      </trkpt>
      <trkpt lat="43.58668" lon="6.10214">
        <ele>538.8</ele>
        <time>2024-09-29T09:12:31.000Z</time>
      </trkpt>
      <trkpt lat="43.5867" lon="6.10211">
        <ele>538.8</ele>
        <time>2024-09-29T09:12:32.000Z</time>
      </trkpt>
      <trkpt lat="43.58678" lon="6.10197">
        <ele>538.8</ele>
        <time>2024-09-29T09:12:35.000Z</time>
      </trkpt>
      <trkpt lat="43.58673" lon="6.10213">
        <ele>538.8</ele>
        <time>2024-09-29T09:13:15.000Z</time>
      </trkpt>
      <trkpt lat="43.58675" lon="6.10214">
        <ele>538.8</ele>
        <time>2024-09-29T09:13:17.000Z</time>
      </trkpt>
      <trkpt lat="43.58677" lon="6.10215">
        <ele>538.8</ele>
        <time>2024-09-29T09:13:18.000Z</time>
      </trkpt>
      <trkpt lat="43.58677" lon="6.10214">
        <ele>538.8</ele>
        <time>2024-09-29T09:13:19.000Z</time>
      </trkpt>
      <trkpt lat="43.58678" lon="6.10213">
        <ele>538.8</ele>
        <time>2024-09-29T09:13:20.000Z</time>
      </trkpt>
      <trkpt lat="43.58678" lon="6.10211">
        <ele>538.8</ele>
        <time>2024-09-29T09:13:21.000Z</time>
      </trkpt>
      <trkpt lat="43.58679" lon="6.1021">
        <ele>538.8</ele>
        <time>2024-09-29T09:13:22.000Z</time>
      </trkpt>
      <trkpt lat="43.58678" lon="6.10209">
        <ele>538.8</ele>
        <time>2024-09-29T09:13:23.000Z</time>
      </trkpt>
      <trkpt lat="43.58675" lon="6.10207">
        <ele>538.8</ele>
        <time>2024-09-29T09:13:28.000Z</time>
      </trkpt>
      <trkpt lat="43.58675" lon="6.10207">
        <ele>538.8</ele>
        <time>2024-09-29T09:13:29.000Z</time>
      </trkpt>
      <trkpt lat="43.58675" lon="6.10208">
        <ele>538.8</ele>
        <time>2024-09-29T09:13:30.000Z</time>
      </trkpt>
      <trkpt lat="43.58674" lon="6.10207">
        <ele>538.8</ele>
        <time>2024-09-29T09:13:31.000Z</time>
      </trkpt>
      <trkpt lat="43.58674" lon="6.10206">
        <ele>538.8</ele>
        <time>2024-09-29T09:13:32.000Z</time>
      </trkpt>
      <trkpt lat="43.58673" lon="6.10205">
        <ele>538.8</ele>
        <time>2024-09-29T09:13:33.000Z</time>
      </trkpt>
      <trkpt lat="43.58674" lon="6.10205">
        <ele>538.8</ele>
        <time>2024-09-29T09:13:34.000Z</time>
      </trkpt>
      <trkpt lat="43.58673" lon="6.10205">
        <ele>538.8</ele>
        <time>2024-09-29T09:13:35.000Z</time>
      </trkpt>
      <trkpt lat="43.58673" lon="6.10205">
        <ele>538.8</ele>
        <time>2024-09-29T09:13:36.000Z</time>
      </trkpt>
      <trkpt lat="43.58673" lon="6.10206">
        <ele>538.8</ele>
        <time>2024-09-29T09:13:37.000Z</time>
      </trkpt>
      <trkpt lat="43.58675" lon="6.10197">
        <ele>538.8</ele>
        <time>2024-09-29T09:13:45.000Z</time>
      </trkpt>
      <trkpt lat="43.58675" lon="6.10195">
        <ele>538.8</ele>
        <time>2024-09-29T09:13:46.000Z</time>
      </trkpt>
      <trkpt lat="43.58676" lon="6.10194">
        <ele>538.8</ele>
        <time>2024-09-29T09:13:47.000Z</time>
      </trkpt>
      <trkpt lat="43.58676" lon="6.10193">
        <ele>538.8</ele>
        <time>2024-09-29T09:13:48.000Z</time>
      </trkpt>
      <trkpt lat="43.58676" lon="6.10192">
        <ele>538.8</ele>
        <time>2024-09-29T09:13:49.000Z</time>
      </trkpt>
      <trkpt lat="43.58675" lon="6.10192">
        <ele>538.8</ele>
        <time>2024-09-29T09:13:50.000Z</time>
      </trkpt>
      <trkpt lat="43.58674" lon="6.10192">
        <ele>538.8</ele>
        <time>2024-09-29T09:13:51.000Z</time>
      </trkpt>
      <trkpt lat="43.58673" lon="6.10191">
        <ele>538.8</ele>
        <time>2024-09-29T09:13:52.000Z</time>
      </trkpt>
      <trkpt lat="43.58667" lon="6.10202">
        <ele>538.7</ele>
        <time>2024-09-29T09:14:04.000Z</time>
      </trkpt>
      <trkpt lat="43.58667" lon="6.10203">
        <ele>538.7</ele>
        <time>2024-09-29T09:14:06.000Z</time>
      </trkpt>
      <trkpt lat="43.58667" lon="6.10202">
        <ele>538.7</ele>
        <time>2024-09-29T09:14:07.000Z</time>
      </trkpt>
      <trkpt lat="43.58667" lon="6.10203">
        <ele>538.6</ele>
        <time>2024-09-29T09:14:08.000Z</time>
      </trkpt>
      <trkpt lat="43.58675" lon="6.10196">
        <ele>538.7</ele>
        <time>2024-09-29T09:14:26.000Z</time>
      </trkpt>
      <trkpt lat="43.58679" lon="6.10193">
        <ele>538.8</ele>
        <time>2024-09-29T09:14:27.000Z</time>
      </trkpt>
      <trkpt lat="43.58682" lon="6.1019">
        <ele>538.9</ele>
        <time>2024-09-29T09:14:28.000Z</time>
      </trkpt>
      <trkpt lat="43.58683" lon="6.10188">
        <ele>539.1</ele>
        <time>2024-09-29T09:14:29.000Z</time>
      </trkpt>
      <trkpt lat="43.58677" lon="6.10186">
        <ele>540.2</ele>
        <time>2024-09-29T09:14:35.000Z</time>
      </trkpt>
      <trkpt lat="43.58675" lon="6.10186">
        <ele>540.4</ele>
        <time>2024-09-29T09:14:36.000Z</time>
      </trkpt>
      <trkpt lat="43.58673" lon="6.10187">
        <ele>540.5</ele>
        <time>2024-09-29T09:14:37.000Z</time>
      </trkpt>
      <trkpt lat="43.58663" lon="6.1019">
        <ele>541</ele>
        <time>2024-09-29T09:14:42.000Z</time>
      </trkpt>
      <trkpt lat="43.58651" lon="6.10189">
        <ele>540.9</ele>
        <time>2024-09-29T09:14:45.000Z</time>
      </trkpt>
      <trkpt lat="43.58645" lon="6.10198">
        <ele>540.6</ele>
        <time>2024-09-29T09:15:20.000Z</time>
      </trkpt>
      <trkpt lat="43.58652" lon="6.10191">
        <ele>540.3</ele>
        <time>2024-09-29T09:15:21.000Z</time>
      </trkpt>
      <trkpt lat="43.58652" lon="6.10191">
        <ele>540</ele>
        <time>2024-09-29T09:15:22.000Z</time>
      </trkpt>
      <trkpt lat="43.58655" lon="6.10196">
        <ele>538.3</ele>
        <time>2024-09-29T09:15:30.000Z</time>
      </trkpt>
      <trkpt lat="43.58655" lon="6.10196">
        <ele>538.2</ele>
        <time>2024-09-29T09:15:31.000Z</time>
      </trkpt>
      <trkpt lat="43.58655" lon="6.10197">
        <ele>538.1</ele>
        <time>2024-09-29T09:15:32.000Z</time>
      </trkpt>
      <trkpt lat="43.58653" lon="6.102">
        <ele>538</ele>
        <time>2024-09-29T09:15:36.000Z</time>
      </trkpt>
      <trkpt lat="43.58653" lon="6.10201">
        <ele>538</ele>
        <time>2024-09-29T09:15:37.000Z</time>
      </trkpt>
      <trkpt lat="43.58652" lon="6.102">
        <ele>538</ele>
        <time>2024-09-29T09:15:38.000Z</time>
      </trkpt>
      <trkpt lat="43.58651" lon="6.102">
        <ele>538</ele>
        <time>2024-09-29T09:15:39.000Z</time>
      </trkpt>
      <trkpt lat="43.58651" lon="6.102">
        <ele>538</ele>
        <time>2024-09-29T09:15:40.000Z</time>
      </trkpt>
      <trkpt lat="43.58649" lon="6.10203">
        <ele>537.8</ele>
        <time>2024-09-29T09:15:48.000Z</time>
      </trkpt>
      <trkpt lat="43.58648" lon="6.10203">
        <ele>537.8</ele>
        <time>2024-09-29T09:15:49.000Z</time>
      </trkpt>
      <trkpt lat="43.58644" lon="6.10192">
        <ele>536.5</ele>
        <time>2024-09-29T09:16:09.000Z</time>
      </trkpt>
      <trkpt lat="43.58637" lon="6.10193">
        <ele>535</ele>
        <time>2024-09-29T09:16:33.000Z</time>
      </trkpt>
      <trkpt lat="43.58637" lon="6.10193">
        <ele>534.9</ele>
        <time>2024-09-29T09:16:34.000Z</time>
      </trkpt>
      <trkpt lat="43.58636" lon="6.10193">
        <ele>534.9</ele>
        <time>2024-09-29T09:16:40.000Z</time>
      </trkpt>
      <trkpt lat="43.58636" lon="6.10192">
        <ele>534.8</ele>
        <time>2024-09-29T09:16:41.000Z</time>
      </trkpt>
      <trkpt lat="43.58635" lon="6.10191">
        <ele>534.8</ele>
        <time>2024-09-29T09:16:42.000Z</time>
      </trkpt>
      <trkpt lat="43.58633" lon="6.10191">
        <ele>534.8</ele>
        <time>2024-09-29T09:16:51.000Z</time>
      </trkpt>
      <trkpt lat="43.58632" lon="6.10191">
        <ele>534.8</ele>
        <time>2024-09-29T09:16:52.000Z</time>
      </trkpt>
      <trkpt lat="43.58632" lon="6.10191">
        <ele>534.8</ele>
        <time>2024-09-29T09:16:53.000Z</time>
      </trkpt>
      <trkpt lat="43.58632" lon="6.10191">
        <ele>534.8</ele>
        <time>2024-09-29T09:16:54.000Z</time>
      </trkpt>
      <trkpt lat="43.58632" lon="6.1019">
        <ele>534.7</ele>
        <time>2024-09-29T09:16:58.000Z</time>
      </trkpt>
      <trkpt lat="43.58632" lon="6.1019">
        <ele>534.7</ele>
        <time>2024-09-29T09:16:59.000Z</time>
      </trkpt>
      <trkpt lat="43.58632" lon="6.1019">
        <ele>534.7</ele>
        <time>2024-09-29T09:17:00.000Z</time>
      </trkpt>
      <trkpt lat="43.58632" lon="6.1019">
        <ele>534.7</ele>
        <time>2024-09-29T09:17:01.000Z</time>
      </trkpt>
      <trkpt lat="43.58632" lon="6.1019">
        <ele>534.7</ele>
        <time>2024-09-29T09:17:02.000Z</time>
      </trkpt>
      <trkpt lat="43.58632" lon="6.1019">
        <ele>534.7</ele>
        <time>2024-09-29T09:17:03.000Z</time>
      </trkpt>
      <trkpt lat="43.58632" lon="6.1019">
        <ele>534.7</ele>
        <time>2024-09-29T09:17:04.000Z</time>
      </trkpt>
      <trkpt lat="43.58632" lon="6.1019">
        <ele>534.7</ele>
        <time>2024-09-29T09:17:05.000Z</time>
      </trkpt>
      <trkpt lat="43.58633" lon="6.1019">
        <ele>534.6</ele>
        <time>2024-09-29T09:17:13.000Z</time>
      </trkpt>
      <trkpt lat="43.58633" lon="6.1019">
        <ele>534.6</ele>
        <time>2024-09-29T09:17:14.000Z</time>
      </trkpt>
      <trkpt lat="43.58633" lon="6.1019">
        <ele>534.6</ele>
        <time>2024-09-29T09:17:15.000Z</time>
      </trkpt>
      <trkpt lat="43.58633" lon="6.1019">
        <ele>534.5</ele>
        <time>2024-09-29T09:17:18.000Z</time>
      </trkpt>
      <trkpt lat="43.58633" lon="6.1019">
        <ele>534.5</ele>
        <time>2024-09-29T09:17:19.000Z</time>
      </trkpt>
      <trkpt lat="43.58633" lon="6.10189">
        <ele>534.1</ele>
        <time>2024-09-29T09:17:46.000Z</time>
      </trkpt>
      <trkpt lat="43.58633" lon="6.10189">
        <ele>534.1</ele>
        <time>2024-09-29T09:17:47.000Z</time>
      </trkpt>
      <trkpt lat="43.58633" lon="6.10189">
        <ele>534.1</ele>
        <time>2024-09-29T09:17:48.000Z</time>
      </trkpt>
      <trkpt lat="43.58633" lon="6.10189">
        <ele>534.1</ele>
        <time>2024-09-29T09:17:49.000Z</time>
      </trkpt>
      <trkpt lat="43.58633" lon="6.10189">
        <ele>534</ele>
        <time>2024-09-29T09:17:53.000Z</time>
      </trkpt>
      <trkpt lat="43.58633" lon="6.10189">
        <ele>534</ele>
        <time>2024-09-29T09:17:54.000Z</time>
      </trkpt>
      <trkpt lat="43.58633" lon="6.10189">
        <ele>534</ele>
        <time>2024-09-29T09:17:55.000Z</time>
      </trkpt>
      <trkpt lat="43.58633" lon="6.10189">
        <ele>533.9</ele>
        <time>2024-09-29T09:17:56.000Z</time>
      </trkpt>
      <trkpt lat="43.58633" lon="6.10189">
        <ele>533.9</ele>
        <time>2024-09-29T09:17:57.000Z</time>
      </trkpt>
      <trkpt lat="43.58634" lon="6.1019">
        <ele>533.8</ele>
        <time>2024-09-29T09:18:06.000Z</time>
      </trkpt>
      <trkpt lat="43.58634" lon="6.1019">
        <ele>533.8</ele>
        <time>2024-09-29T09:18:07.000Z</time>
      </trkpt>
      <trkpt lat="43.58634" lon="6.1019">
        <ele>533.8</ele>
        <time>2024-09-29T09:18:08.000Z</time>
      </trkpt>
      <trkpt lat="43.58635" lon="6.10189">
        <ele>533.8</ele>
        <time>2024-09-29T09:18:09.000Z</time>
      </trkpt>
      <trkpt lat="43.58635" lon="6.1019">
        <ele>533.8</ele>
        <time>2024-09-29T09:18:10.000Z</time>
      </trkpt>
      <trkpt lat="43.58635" lon="6.1019">
        <ele>533.8</ele>
        <time>2024-09-29T09:18:11.000Z</time>
      </trkpt>
      <trkpt lat="43.58635" lon="6.1019">
        <ele>533.8</ele>
        <time>2024-09-29T09:18:12.000Z</time>
      </trkpt>
      <trkpt lat="43.58635" lon="6.1019">
        <ele>533.8</ele>
        <time>2024-09-29T09:18:13.000Z</time>
      </trkpt>
      <trkpt lat="43.58635" lon="6.1019">
        <ele>533.8</ele>
        <time>2024-09-29T09:18:14.000Z</time>
      </trkpt>
      <trkpt lat="43.58635" lon="6.1019">
        <ele>533.8</ele>
        <time>2024-09-29T09:18:15.000Z</time>
      </trkpt>
      <trkpt lat="43.58635" lon="6.1019">
        <ele>533.7</ele>
        <time>2024-09-29T09:18:34.000Z</time>
      </trkpt>
      <trkpt lat="43.58635" lon="6.1019">
        <ele>533.7</ele>
        <time>2024-09-29T09:18:35.000Z</time>
      </trkpt>
      <trkpt lat="43.58635" lon="6.1019">
        <ele>533.7</ele>
        <time>2024-09-29T09:18:38.000Z</time>
      </trkpt>
      <trkpt lat="43.58635" lon="6.1019">
        <ele>533.7</ele>
        <time>2024-09-29T09:18:39.000Z</time>
      </trkpt>
      <trkpt lat="43.58635" lon="6.10189">
        <ele>533.7</ele>
        <time>2024-09-29T09:19:00.000Z</time>
      </trkpt>
      <trkpt lat="43.58634" lon="6.10189">
        <ele>533.7</ele>
        <time>2024-09-29T09:19:01.000Z</time>
      </trkpt>
      <trkpt lat="43.58634" lon="6.10188">
        <ele>533.7</ele>
        <time>2024-09-29T09:19:02.000Z</time>
      </trkpt>
      <trkpt lat="43.58627" lon="6.10191">
        <ele>533.7</ele>
        <time>2024-09-29T09:19:18.000Z</time>
      </trkpt>
      <trkpt lat="43.58627" lon="6.10191">
        <ele>533.7</ele>
        <time>2024-09-29T09:19:19.000Z</time>
      </trkpt>
      <trkpt lat="43.58627" lon="6.10191">
        <ele>533.7</ele>
        <time>2024-09-29T09:19:20.000Z</time>
      </trkpt>
      <trkpt lat="43.58626" lon="6.10189">
        <ele>533.7</ele>
        <time>2024-09-29T09:19:46.000Z</time>
      </trkpt>
      <trkpt lat="43.58626" lon="6.10188">
        <ele>533.7</ele>
        <time>2024-09-29T09:19:47.000Z</time>
      </trkpt>
      <trkpt lat="43.58618" lon="6.10179">
        <ele>533.6</ele>
        <time>2024-09-29T09:19:56.000Z</time>
      </trkpt>
      <trkpt lat="43.5861" lon="6.10175">
        <ele>533.5</ele>
        <time>2024-09-29T09:20:10.000Z</time>
      </trkpt>
      <trkpt lat="43.58611" lon="6.10172">
        <ele>533.3</ele>
        <time>2024-09-29T09:20:43.000Z</time>
      </trkpt>
      <trkpt lat="43.58611" lon="6.10172">
        <ele>533.3</ele>
        <time>2024-09-29T09:20:44.000Z</time>
      </trkpt>
      <trkpt lat="43.58611" lon="6.10172">
        <ele>533.3</ele>
        <time>2024-09-29T09:20:45.000Z</time>
      </trkpt>
      <trkpt lat="43.58611" lon="6.10172">
        <ele>533.2</ele>
        <time>2024-09-29T09:20:46.000Z</time>
      </trkpt>
      <trkpt lat="43.58611" lon="6.10172">
        <ele>533.2</ele>
        <time>2024-09-29T09:20:47.000Z</time>
      </trkpt>
      <trkpt lat="43.58611" lon="6.10172">
        <ele>533.2</ele>
        <time>2024-09-29T09:20:48.000Z</time>
      </trkpt>
      <trkpt lat="43.58611" lon="6.10172">
        <ele>533.2</ele>
        <time>2024-09-29T09:20:49.000Z</time>
      </trkpt>
      <trkpt lat="43.5861" lon="6.1017">
        <ele>533.1</ele>
        <time>2024-09-29T09:20:58.000Z</time>
      </trkpt>
      <trkpt lat="43.58609" lon="6.1017">
        <ele>533.1</ele>
        <time>2024-09-29T09:20:59.000Z</time>
      </trkpt>
      <trkpt lat="43.58603" lon="6.10169">
        <ele>532.8</ele>
        <time>2024-09-29T09:21:11.000Z</time>
      </trkpt>
      <trkpt lat="43.58603" lon="6.10169">
        <ele>532.7</ele>
        <time>2024-09-29T09:21:12.000Z</time>
      </trkpt>
      <trkpt lat="43.58603" lon="6.10169">
        <ele>532.5</ele>
        <time>2024-09-29T09:21:20.000Z</time>
      </trkpt>
      <trkpt lat="43.58603" lon="6.10169">
        <ele>532.5</ele>
        <time>2024-09-29T09:21:21.000Z</time>
      </trkpt>
      <trkpt lat="43.58603" lon="6.10169">
        <ele>532.5</ele>
        <time>2024-09-29T09:21:22.000Z</time>
      </trkpt>
      <trkpt lat="43.58603" lon="6.10169">
        <ele>532.4</ele>
        <time>2024-09-29T09:21:23.000Z</time>
      </trkpt>
      <trkpt lat="43.58603" lon="6.10169">
        <ele>532.4</ele>
        <time>2024-09-29T09:21:24.000Z</time>
      </trkpt>
      <trkpt lat="43.58602" lon="6.10169">
        <ele>532.4</ele>
        <time>2024-09-29T09:21:25.000Z</time>
      </trkpt>
      <trkpt lat="43.58602" lon="6.10168">
        <ele>532.2</ele>
        <time>2024-09-29T09:21:35.000Z</time>
      </trkpt>
      <trkpt lat="43.58602" lon="6.10168">
        <ele>532.2</ele>
        <time>2024-09-29T09:21:36.000Z</time>
      </trkpt>
      <trkpt lat="43.58601" lon="6.10168">
        <ele>532.2</ele>
        <time>2024-09-29T09:21:37.000Z</time>
      </trkpt>
      <trkpt lat="43.58599" lon="6.10163">
        <ele>531.8</ele>
        <time>2024-09-29T09:21:49.000Z</time>
      </trkpt>
      <trkpt lat="43.58598" lon="6.10162">
        <ele>531.8</ele>
        <time>2024-09-29T09:21:50.000Z</time>
      </trkpt>
      <trkpt lat="43.58598" lon="6.10162">
        <ele>531.8</ele>
        <time>2024-09-29T09:21:51.000Z</time>
      </trkpt>
      <trkpt lat="43.58598" lon="6.10161">
        <ele>531.7</ele>
        <time>2024-09-29T09:21:52.000Z</time>
      </trkpt>
      <trkpt lat="43.58595" lon="6.10149">
        <ele>530.8</ele>
        <time>2024-09-29T09:22:07.000Z</time>
      </trkpt>
      <trkpt lat="43.58594" lon="6.10144">
        <ele>530.5</ele>
        <time>2024-09-29T09:22:15.000Z</time>
      </trkpt>
      <trkpt lat="43.58594" lon="6.10144">
        <ele>530.4</ele>
        <time>2024-09-29T09:22:16.000Z</time>
      </trkpt>
      <trkpt lat="43.58594" lon="6.10144">
        <ele>530.4</ele>
        <time>2024-09-29T09:22:17.000Z</time>
      </trkpt>
      <trkpt lat="43.58594" lon="6.10145">
        <ele>530</ele>
        <time>2024-09-29T09:22:28.000Z</time>
      </trkpt>
      <trkpt lat="43.58594" lon="6.10145">
        <ele>530</ele>
        <time>2024-09-29T09:22:29.000Z</time>
      </trkpt>
      <trkpt lat="43.58594" lon="6.10145">
        <ele>529.9</ele>
        <time>2024-09-29T09:22:33.000Z</time>
      </trkpt>
      <trkpt lat="43.58594" lon="6.10145">
        <ele>529.9</ele>
        <time>2024-09-29T09:22:34.000Z</time>
      </trkpt>
      <trkpt lat="43.58594" lon="6.10145">
        <ele>529.9</ele>
        <time>2024-09-29T09:22:40.000Z</time>
      </trkpt>
      <trkpt lat="43.58594" lon="6.10145">
        <ele>529.9</ele>
        <time>2024-09-29T09:22:41.000Z</time>
      </trkpt>
      <trkpt lat="43.58594" lon="6.10145">
        <ele>529.9</ele>
        <time>2024-09-29T09:22:42.000Z</time>
      </trkpt>
      <trkpt lat="43.58594" lon="6.10145">
        <ele>529.9</ele>
        <time>2024-09-29T09:22:43.000Z</time>
      </trkpt>
      <trkpt lat="43.58594" lon="6.10145">
        <ele>529.8</ele>
        <time>2024-09-29T09:22:44.000Z</time>
      </trkpt>
      <trkpt lat="43.58594" lon="6.10145">
        <ele>529.8</ele>
        <time>2024-09-29T09:22:45.000Z</time>
      </trkpt>
      <trkpt lat="43.58593" lon="6.10145">
        <ele>529.8</ele>
        <time>2024-09-29T09:22:49.000Z</time>
      </trkpt>
      <trkpt lat="43.58594" lon="6.10145">
        <ele>529.8</ele>
        <time>2024-09-29T09:22:50.000Z</time>
      </trkpt>
      <trkpt lat="43.58604" lon="6.10143">
        <ele>529.7</ele>
        <time>2024-09-29T09:23:04.000Z</time>
      </trkpt>
      <trkpt lat="43.58613" lon="6.10147">
        <ele>529.6</ele>
        <time>2024-09-29T09:23:16.000Z</time>
      </trkpt>
      <trkpt lat="43.58614" lon="6.10134">
        <ele>527.8</ele>
        <time>2024-09-29T09:23:42.000Z</time>
      </trkpt>
      <trkpt lat="43.5862" lon="6.10125">
        <ele>524.7</ele>
        <time>2024-09-29T09:24:05.000Z</time>
      </trkpt>
      <trkpt lat="43.58628" lon="6.10117">
        <ele>523.5</ele>
        <time>2024-09-29T09:24:21.000Z</time>
      </trkpt>
      <trkpt lat="43.58635" lon="6.10109">
        <ele>522.1</ele>
        <time>2024-09-29T09:24:37.000Z</time>
      </trkpt>
      <trkpt lat="43.58644" lon="6.10105">
        <ele>521</ele>
        <time>2024-09-29T09:24:51.000Z</time>
      </trkpt>
      <trkpt lat="43.58652" lon="6.101">
        <ele>520.5</ele>
        <time>2024-09-29T09:25:03.000Z</time>
      </trkpt>
      <trkpt lat="43.58661" lon="6.10095">
        <ele>520</ele>
        <time>2024-09-29T09:25:18.000Z</time>
      </trkpt>
      <trkpt lat="43.5867" lon="6.10094">
        <ele>519.5</ele>
        <time>2024-09-29T09:25:29.000Z</time>
      </trkpt>
      <trkpt lat="43.5868" lon="6.10091">
        <ele>518.3</ele>
        <time>2024-09-29T09:25:43.000Z</time>
      </trkpt>
      <trkpt lat="43.58688" lon="6.10085">
        <ele>517.6</ele>
        <time>2024-09-29T09:25:54.000Z</time>
      </trkpt>
      <trkpt lat="43.58698" lon="6.10083">
        <ele>516.6</ele>
        <time>2024-09-29T09:26:05.000Z</time>
      </trkpt>
      <trkpt lat="43.58707" lon="6.10083">
        <ele>515.4</ele>
        <time>2024-09-29T09:26:20.000Z</time>
      </trkpt>
      <trkpt lat="43.58715" lon="6.10078">
        <ele>514.1</ele>
        <time>2024-09-29T09:26:34.000Z</time>
      </trkpt>
      <trkpt lat="43.58724" lon="6.10074">
        <ele>511.9</ele>
        <time>2024-09-29T09:26:53.000Z</time>
      </trkpt>
      <trkpt lat="43.58734" lon="6.10075">
        <ele>510.4</ele>
        <time>2024-09-29T09:27:10.000Z</time>
      </trkpt>
      <trkpt lat="43.58743" lon="6.10078">
        <ele>507.5</ele>
        <time>2024-09-29T09:27:34.000Z</time>
      </trkpt>
      <trkpt lat="43.58746" lon="6.10072">
        <ele>506.7</ele>
        <time>2024-09-29T09:27:43.000Z</time>
      </trkpt>
      <trkpt lat="43.58746" lon="6.10072">
        <ele>506.7</ele>
        <time>2024-09-29T09:27:44.000Z</time>
      </trkpt>
      <trkpt lat="43.58746" lon="6.10072">
        <ele>506.7</ele>
        <time>2024-09-29T09:27:45.000Z</time>
      </trkpt>
      <trkpt lat="43.58746" lon="6.10071">
        <ele>506.6</ele>
        <time>2024-09-29T09:27:46.000Z</time>
      </trkpt>
      <trkpt lat="43.58745" lon="6.10071">
        <ele>506.6</ele>
        <time>2024-09-29T09:27:47.000Z</time>
      </trkpt>
      <trkpt lat="43.58745" lon="6.10058">
        <ele>505.7</ele>
        <time>2024-09-29T09:28:02.000Z</time>
      </trkpt>
      <trkpt lat="43.58753" lon="6.10064">
        <ele>502.1</ele>
        <time>2024-09-29T09:28:38.000Z</time>
      </trkpt>
      <trkpt lat="43.58763" lon="6.10061">
        <ele>500.7</ele>
        <time>2024-09-29T09:29:00.000Z</time>
      </trkpt>
      <trkpt lat="43.58755" lon="6.10054">
        <ele>499.8</ele>
        <time>2024-09-29T09:29:14.000Z</time>
      </trkpt>
      <trkpt lat="43.5875" lon="6.10043">
        <ele>499.1</ele>
        <time>2024-09-29T09:29:29.000Z</time>
      </trkpt>
      <trkpt lat="43.58758" lon="6.1005">
        <ele>495.5</ele>
        <time>2024-09-29T09:30:13.000Z</time>
      </trkpt>
      <trkpt lat="43.58765" lon="6.10058">
        <ele>493.8</ele>
        <time>2024-09-29T09:30:34.000Z</time>
      </trkpt>
      <trkpt lat="43.58774" lon="6.1006">
        <ele>492.6</ele>
        <time>2024-09-29T09:30:49.000Z</time>
      </trkpt>
      <trkpt lat="43.58778" lon="6.10048">
        <ele>491.5</ele>
        <time>2024-09-29T09:31:00.000Z</time>
      </trkpt>
      <trkpt lat="43.58771" lon="6.10041">
        <ele>489.7</ele>
        <time>2024-09-29T09:31:21.000Z</time>
      </trkpt>
      <trkpt lat="43.58771" lon="6.10031">
        <ele>487.3</ele>
        <time>2024-09-29T09:31:53.000Z</time>
      </trkpt>
      <trkpt lat="43.58771" lon="6.10031">
        <ele>487.3</ele>
        <time>2024-09-29T09:31:54.000Z</time>
      </trkpt>
      <trkpt lat="43.58771" lon="6.10031">
        <ele>487.2</ele>
        <time>2024-09-29T09:31:55.000Z</time>
      </trkpt>
      <trkpt lat="43.58773" lon="6.10033">
        <ele>487</ele>
        <time>2024-09-29T09:32:03.000Z</time>
      </trkpt>
      <trkpt lat="43.58774" lon="6.10034">
        <ele>487</ele>
        <time>2024-09-29T09:32:04.000Z</time>
      </trkpt>
      <trkpt lat="43.58773" lon="6.10039">
        <ele>486</ele>
        <time>2024-09-29T09:32:20.000Z</time>
      </trkpt>
      <trkpt lat="43.58773" lon="6.10039">
        <ele>486</ele>
        <time>2024-09-29T09:32:21.000Z</time>
      </trkpt>
      <trkpt lat="43.58773" lon="6.10039">
        <ele>485.9</ele>
        <time>2024-09-29T09:32:22.000Z</time>
      </trkpt>
      <trkpt lat="43.58774" lon="6.10039">
        <ele>485.8</ele>
        <time>2024-09-29T09:32:23.000Z</time>
      </trkpt>
      <trkpt lat="43.58774" lon="6.10039">
        <ele>485.7</ele>
        <time>2024-09-29T09:32:24.000Z</time>
      </trkpt>
      <trkpt lat="43.58774" lon="6.10039">
        <ele>485.7</ele>
        <time>2024-09-29T09:32:25.000Z</time>
      </trkpt>
      <trkpt lat="43.5878" lon="6.1005">
        <ele>484.6</ele>
        <time>2024-09-29T09:32:43.000Z</time>
      </trkpt>
      <trkpt lat="43.58784" lon="6.10048">
        <ele>484.1</ele>
        <time>2024-09-29T09:32:53.000Z</time>
      </trkpt>
      <trkpt lat="43.58784" lon="6.10048">
        <ele>484.1</ele>
        <time>2024-09-29T09:32:54.000Z</time>
      </trkpt>
      <trkpt lat="43.58784" lon="6.10047">
        <ele>484.1</ele>
        <time>2024-09-29T09:32:55.000Z</time>
      </trkpt>
      <trkpt lat="43.58785" lon="6.10046">
        <ele>483.9</ele>
        <time>2024-09-29T09:33:01.000Z</time>
      </trkpt>
      <trkpt lat="43.58784" lon="6.10046">
        <ele>483.8</ele>
        <time>2024-09-29T09:33:02.000Z</time>
      </trkpt>
      <trkpt lat="43.58784" lon="6.10047">
        <ele>483.8</ele>
        <time>2024-09-29T09:33:03.000Z</time>
      </trkpt>
      <trkpt lat="43.58792" lon="6.10054">
        <ele>482.7</ele>
        <time>2024-09-29T09:33:20.000Z</time>
      </trkpt>
      <trkpt lat="43.58801" lon="6.1006">
        <ele>481.7</ele>
        <time>2024-09-29T09:33:36.000Z</time>
      </trkpt>
      <trkpt lat="43.58809" lon="6.10065">
        <ele>481.2</ele>
        <time>2024-09-29T09:33:52.000Z</time>
      </trkpt>
      <trkpt lat="43.58819" lon="6.10068">
        <ele>480.5</ele>
        <time>2024-09-29T09:34:08.000Z</time>
      </trkpt>
      <trkpt lat="43.58824" lon="6.10078">
        <ele>479.2</ele>
        <time>2024-09-29T09:34:27.000Z</time>
      </trkpt>
      <trkpt lat="43.58832" lon="6.10085">
        <ele>477.8</ele>
        <time>2024-09-29T09:34:42.000Z</time>
      </trkpt>
      <trkpt lat="43.58834" lon="6.10085">
        <ele>477.4</ele>
        <time>2024-09-29T09:34:51.000Z</time>
      </trkpt>
      <trkpt lat="43.58834" lon="6.10085">
        <ele>477.4</ele>
        <time>2024-09-29T09:34:52.000Z</time>
      </trkpt>
      <trkpt lat="43.58835" lon="6.10084">
        <ele>477.2</ele>
        <time>2024-09-29T09:35:00.000Z</time>
      </trkpt>
      <trkpt lat="43.58835" lon="6.10084">
        <ele>477.2</ele>
        <time>2024-09-29T09:35:01.000Z</time>
      </trkpt>
      <trkpt lat="43.58836" lon="6.10083">
        <ele>477.2</ele>
        <time>2024-09-29T09:35:02.000Z</time>
      </trkpt>
      <trkpt lat="43.58836" lon="6.10083">
        <ele>477.2</ele>
        <time>2024-09-29T09:35:03.000Z</time>
      </trkpt>
      <trkpt lat="43.58836" lon="6.10083">
        <ele>477.1</ele>
        <time>2024-09-29T09:35:04.000Z</time>
      </trkpt>
      <trkpt lat="43.58839" lon="6.10083">
        <ele>476.9</ele>
        <time>2024-09-29T09:35:14.000Z</time>
      </trkpt>
      <trkpt lat="43.58839" lon="6.10085">
        <ele>476.9</ele>
        <time>2024-09-29T09:35:15.000Z</time>
      </trkpt>
      <trkpt lat="43.58845" lon="6.1009">
        <ele>476.9</ele>
        <time>2024-09-29T09:35:23.000Z</time>
      </trkpt>
      <trkpt lat="43.58845" lon="6.1009">
        <ele>477</ele>
        <time>2024-09-29T09:35:24.000Z</time>
      </trkpt>
      <trkpt lat="43.58846" lon="6.10092">
        <ele>477</ele>
        <time>2024-09-29T09:35:30.000Z</time>
      </trkpt>
      <trkpt lat="43.58847" lon="6.10093">
        <ele>477</ele>
        <time>2024-09-29T09:35:31.000Z</time>
      </trkpt>
      <trkpt lat="43.58847" lon="6.10094">
        <ele>477</ele>
        <time>2024-09-29T09:35:32.000Z</time>
      </trkpt>
      <trkpt lat="43.58847" lon="6.10108">
        <ele>477.5</ele>
        <time>2024-09-29T09:35:45.000Z</time>
      </trkpt>
      <trkpt lat="43.5885" lon="6.1012">
        <ele>477.4</ele>
        <time>2024-09-29T09:35:56.000Z</time>
      </trkpt>
      <trkpt lat="43.58854" lon="6.10132">
        <ele>477.3</ele>
        <time>2024-09-29T09:36:08.000Z</time>
      </trkpt>
      <trkpt lat="43.5886" lon="6.10141">
        <ele>477</ele>
        <time>2024-09-29T09:36:19.000Z</time>
      </trkpt>
      <trkpt lat="43.58863" lon="6.10153">
        <ele>476.1</ele>
        <time>2024-09-29T09:36:33.000Z</time>
      </trkpt>
      <trkpt lat="43.58869" lon="6.10163">
        <ele>474.1</ele>
        <time>2024-09-29T09:36:49.000Z</time>
      </trkpt>
      <trkpt lat="43.58872" lon="6.10167">
        <ele>472.9</ele>
        <time>2024-09-29T09:37:01.000Z</time>
      </trkpt>
      <trkpt lat="43.58872" lon="6.10167">
        <ele>472.9</ele>
        <time>2024-09-29T09:37:02.000Z</time>
      </trkpt>
      <trkpt lat="43.58872" lon="6.10167">
        <ele>472.9</ele>
        <time>2024-09-29T09:37:03.000Z</time>
      </trkpt>
      <trkpt lat="43.58876" lon="6.10167">
        <ele>472.6</ele>
        <time>2024-09-29T09:37:18.000Z</time>
      </trkpt>
      <trkpt lat="43.58877" lon="6.10166">
        <ele>472.6</ele>
        <time>2024-09-29T09:37:19.000Z</time>
      </trkpt>
      <trkpt lat="43.58876" lon="6.10164">
        <ele>472.5</ele>
        <time>2024-09-29T09:37:23.000Z</time>
      </trkpt>
      <trkpt lat="43.58876" lon="6.10164">
        <ele>472.5</ele>
        <time>2024-09-29T09:37:24.000Z</time>
      </trkpt>
      <trkpt lat="43.58876" lon="6.10164">
        <ele>472.5</ele>
        <time>2024-09-29T09:37:25.000Z</time>
      </trkpt>
      <trkpt lat="43.58876" lon="6.10163">
        <ele>472.4</ele>
        <time>2024-09-29T09:37:33.000Z</time>
      </trkpt>
      <trkpt lat="43.58876" lon="6.10163">
        <ele>472.4</ele>
        <time>2024-09-29T09:37:34.000Z</time>
      </trkpt>
      <trkpt lat="43.58876" lon="6.10163">
        <ele>472.3</ele>
        <time>2024-09-29T09:37:35.000Z</time>
      </trkpt>
      <trkpt lat="43.58876" lon="6.10163">
        <ele>472.3</ele>
        <time>2024-09-29T09:37:36.000Z</time>
      </trkpt>
      <trkpt lat="43.58876" lon="6.10163">
        <ele>472.3</ele>
        <time>2024-09-29T09:37:37.000Z</time>
      </trkpt>
      <trkpt lat="43.58875" lon="6.10162">
        <ele>472.2</ele>
        <time>2024-09-29T09:37:43.000Z</time>
      </trkpt>
      <trkpt lat="43.58875" lon="6.10162">
        <ele>472.2</ele>
        <time>2024-09-29T09:37:44.000Z</time>
      </trkpt>
      <trkpt lat="43.58866" lon="6.10167">
        <ele>472.3</ele>
        <time>2024-09-29T09:37:59.000Z</time>
      </trkpt>
      <trkpt lat="43.58866" lon="6.10168">
        <ele>472.2</ele>
        <time>2024-09-29T09:38:10.000Z</time>
      </trkpt>
      <trkpt lat="43.58866" lon="6.10168">
        <ele>472.2</ele>
        <time>2024-09-29T09:38:11.000Z</time>
      </trkpt>
      <trkpt lat="43.58866" lon="6.10169">
        <ele>472.2</ele>
        <time>2024-09-29T09:38:12.000Z</time>
      </trkpt>
      <trkpt lat="43.58866" lon="6.10169">
        <ele>472.2</ele>
        <time>2024-09-29T09:38:13.000Z</time>
      </trkpt>
      <trkpt lat="43.58866" lon="6.10169">
        <ele>472.3</ele>
        <time>2024-09-29T09:38:14.000Z</time>
      </trkpt>
      <trkpt lat="43.58866" lon="6.10169">
        <ele>472.3</ele>
        <time>2024-09-29T09:38:15.000Z</time>
      </trkpt>
      <trkpt lat="43.58867" lon="6.10168">
        <ele>472.3</ele>
        <time>2024-09-29T09:38:19.000Z</time>
      </trkpt>
      <trkpt lat="43.58867" lon="6.10168">
        <ele>472.3</ele>
        <time>2024-09-29T09:38:20.000Z</time>
      </trkpt>
      <trkpt lat="43.58867" lon="6.10169">
        <ele>472.3</ele>
        <time>2024-09-29T09:38:21.000Z</time>
      </trkpt>
      <trkpt lat="43.58867" lon="6.10168">
        <ele>472.3</ele>
        <time>2024-09-29T09:38:22.000Z</time>
      </trkpt>
      <trkpt lat="43.58867" lon="6.10168">
        <ele>472.3</ele>
        <time>2024-09-29T09:38:23.000Z</time>
      </trkpt>
      <trkpt lat="43.58867" lon="6.10168">
        <ele>472.3</ele>
        <time>2024-09-29T09:38:24.000Z</time>
      </trkpt>
      <trkpt lat="43.58867" lon="6.10168">
        <ele>472.3</ele>
        <time>2024-09-29T09:38:25.000Z</time>
      </trkpt>
      <trkpt lat="43.58869" lon="6.10162">
        <ele>472.3</ele>
        <time>2024-09-29T09:38:38.000Z</time>
      </trkpt>
      <trkpt lat="43.5887" lon="6.10162">
        <ele>472.3</ele>
        <time>2024-09-29T09:38:39.000Z</time>
      </trkpt>
      <trkpt lat="43.5887" lon="6.10162">
        <ele>472.3</ele>
        <time>2024-09-29T09:38:40.000Z</time>
      </trkpt>
      <trkpt lat="43.58869" lon="6.10162">
        <ele>472.3</ele>
        <time>2024-09-29T09:38:46.000Z</time>
      </trkpt>
      <trkpt lat="43.5887" lon="6.10164">
        <ele>472.3</ele>
        <time>2024-09-29T09:38:47.000Z</time>
      </trkpt>
      <trkpt lat="43.58871" lon="6.10162">
        <ele>472.3</ele>
        <time>2024-09-29T09:38:50.000Z</time>
      </trkpt>
      <trkpt lat="43.58871" lon="6.10162">
        <ele>472.3</ele>
        <time>2024-09-29T09:38:51.000Z</time>
      </trkpt>
      <trkpt lat="43.58871" lon="6.10161">
        <ele>472.3</ele>
        <time>2024-09-29T09:38:52.000Z</time>
      </trkpt>
      <trkpt lat="43.58867" lon="6.10161">
        <ele>472.2</ele>
        <time>2024-09-29T09:39:04.000Z</time>
      </trkpt>
      <trkpt lat="43.58866" lon="6.10161">
        <ele>472.2</ele>
        <time>2024-09-29T09:39:05.000Z</time>
      </trkpt>
      <trkpt lat="43.58866" lon="6.10163">
        <ele>472.2</ele>
        <time>2024-09-29T09:39:14.000Z</time>
      </trkpt>
      <trkpt lat="43.58866" lon="6.10163">
        <ele>472.2</ele>
        <time>2024-09-29T09:39:15.000Z</time>
      </trkpt>
      <trkpt lat="43.58868" lon="6.10165">
        <ele>472.2</ele>
        <time>2024-09-29T09:39:18.000Z</time>
      </trkpt>
      <trkpt lat="43.58868" lon="6.10164">
        <ele>472.2</ele>
        <time>2024-09-29T09:39:19.000Z</time>
      </trkpt>
      <trkpt lat="43.58868" lon="6.10163">
        <ele>472.2</ele>
        <time>2024-09-29T09:39:20.000Z</time>
      </trkpt>
      <trkpt lat="43.58868" lon="6.10162">
        <ele>472.2</ele>
        <time>2024-09-29T09:39:21.000Z</time>
      </trkpt>
      <trkpt lat="43.58867" lon="6.1016">
        <ele>472.2</ele>
        <time>2024-09-29T09:39:22.000Z</time>
      </trkpt>
      <trkpt lat="43.58866" lon="6.10161">
        <ele>472.2</ele>
        <time>2024-09-29T09:39:26.000Z</time>
      </trkpt>
      <trkpt lat="43.58866" lon="6.10162">
        <ele>472.2</ele>
        <time>2024-09-29T09:39:27.000Z</time>
      </trkpt>
      <trkpt lat="43.58866" lon="6.10163">
        <ele>472.2</ele>
        <time>2024-09-29T09:39:28.000Z</time>
      </trkpt>
      <trkpt lat="43.58866" lon="6.10163">
        <ele>472.2</ele>
        <time>2024-09-29T09:39:29.000Z</time>
      </trkpt>
      <trkpt lat="43.58867" lon="6.10162">
        <ele>472.2</ele>
        <time>2024-09-29T09:39:30.000Z</time>
      </trkpt>
      <trkpt lat="43.58867" lon="6.10162">
        <ele>472.2</ele>
        <time>2024-09-29T09:39:31.000Z</time>
      </trkpt>
      <trkpt lat="43.58867" lon="6.10162">
        <ele>472.2</ele>
        <time>2024-09-29T09:39:32.000Z</time>
      </trkpt>
      <trkpt lat="43.58868" lon="6.10162">
        <ele>472.2</ele>
        <time>2024-09-29T09:39:33.000Z</time>
      </trkpt>
      <trkpt lat="43.58868" lon="6.10163">
        <ele>472.2</ele>
        <time>2024-09-29T09:39:34.000Z</time>
      </trkpt>
      <trkpt lat="43.58876" lon="6.10168">
        <ele>472.3</ele>
        <time>2024-09-29T09:39:48.000Z</time>
      </trkpt>
      <trkpt lat="43.58876" lon="6.10169">
        <ele>472.3</ele>
        <time>2024-09-29T09:39:49.000Z</time>
      </trkpt>
      <trkpt lat="43.58877" lon="6.10169">
        <ele>472.3</ele>
        <time>2024-09-29T09:39:50.000Z</time>
      </trkpt>
      <trkpt lat="43.58878" lon="6.10168">
        <ele>472.3</ele>
        <time>2024-09-29T09:39:51.000Z</time>
      </trkpt>
      <trkpt lat="43.58878" lon="6.10168">
        <ele>472.3</ele>
        <time>2024-09-29T09:39:52.000Z</time>
      </trkpt>
      <trkpt lat="43.58887" lon="6.10169">
        <ele>472.2</ele>
        <time>2024-09-29T09:40:11.000Z</time>
      </trkpt>
      <trkpt lat="43.58888" lon="6.10167">
        <ele>472.2</ele>
        <time>2024-09-29T09:40:15.000Z</time>
      </trkpt>
      <trkpt lat="43.58888" lon="6.10167">
        <ele>472.2</ele>
        <time>2024-09-29T09:40:16.000Z</time>
      </trkpt>
      <trkpt lat="43.58888" lon="6.10167">
        <ele>472.2</ele>
        <time>2024-09-29T09:40:17.000Z</time>
      </trkpt>
      <trkpt lat="43.58887" lon="6.10166">
        <ele>472.1</ele>
        <time>2024-09-29T09:40:35.000Z</time>
      </trkpt>
      <trkpt lat="43.58886" lon="6.10166">
        <ele>472.1</ele>
        <time>2024-09-29T09:40:36.000Z</time>
      </trkpt>
      <trkpt lat="43.58886" lon="6.10166">
        <ele>472.1</ele>
        <time>2024-09-29T09:40:37.000Z</time>
      </trkpt>
      <trkpt lat="43.58886" lon="6.10166">
        <ele>472.1</ele>
        <time>2024-09-29T09:40:38.000Z</time>
      </trkpt>
      <trkpt lat="43.58886" lon="6.10166">
        <ele>472.1</ele>
        <time>2024-09-29T09:40:39.000Z</time>
      </trkpt>
      <trkpt lat="43.58883" lon="6.10161">
        <ele>472</ele>
        <time>2024-09-29T09:41:33.000Z</time>
      </trkpt>
      <trkpt lat="43.58883" lon="6.10161">
        <ele>472</ele>
        <time>2024-09-29T09:41:34.000Z</time>
      </trkpt>
      <trkpt lat="43.58883" lon="6.10161">
        <ele>471.9</ele>
        <time>2024-09-29T09:41:35.000Z</time>
      </trkpt>
      <trkpt lat="43.58883" lon="6.10161">
        <ele>471.9</ele>
        <time>2024-09-29T09:41:36.000Z</time>
      </trkpt>
      <trkpt lat="43.58882" lon="6.10161">
        <ele>471.9</ele>
        <time>2024-09-29T09:41:37.000Z</time>
      </trkpt>
      <trkpt lat="43.58882" lon="6.1016">
        <ele>471.9</ele>
        <time>2024-09-29T09:41:50.000Z</time>
      </trkpt>
      <trkpt lat="43.58882" lon="6.1016">
        <ele>471.9</ele>
        <time>2024-09-29T09:41:51.000Z</time>
      </trkpt>
      <trkpt lat="43.58882" lon="6.1016">
        <ele>471.9</ele>
        <time>2024-09-29T09:41:52.000Z</time>
      </trkpt>
      <trkpt lat="43.58882" lon="6.1016">
        <ele>471.9</ele>
        <time>2024-09-29T09:41:53.000Z</time>
      </trkpt>
      <trkpt lat="43.58882" lon="6.1016">
        <ele>471.8</ele>
        <time>2024-09-29T09:41:54.000Z</time>
      </trkpt>
      <trkpt lat="43.58882" lon="6.1016">
        <ele>471.8</ele>
        <time>2024-09-29T09:41:55.000Z</time>
      </trkpt>
      <trkpt lat="43.58882" lon="6.10161">
        <ele>471.8</ele>
        <time>2024-09-29T09:41:59.000Z</time>
      </trkpt>
      <trkpt lat="43.58881" lon="6.10162">
        <ele>471.8</ele>
        <time>2024-09-29T09:42:00.000Z</time>
      </trkpt>
      <trkpt lat="43.58882" lon="6.10175">
        <ele>471.6</ele>
        <time>2024-09-29T09:42:09.000Z</time>
      </trkpt>
      <trkpt lat="43.58884" lon="6.10187">
        <ele>469.9</ele>
        <time>2024-09-29T09:42:21.000Z</time>
      </trkpt>
      <trkpt lat="43.58887" lon="6.10199">
        <ele>466.9</ele>
        <time>2024-09-29T09:42:38.000Z</time>
      </trkpt>
      <trkpt lat="43.58897" lon="6.10201">
        <ele>465.8</ele>
        <time>2024-09-29T09:42:46.000Z</time>
      </trkpt>
      <trkpt lat="43.589" lon="6.10197">
        <ele>463.4</ele>
        <time>2024-09-29T09:43:06.000Z</time>
      </trkpt>
      <trkpt lat="43.589" lon="6.10197">
        <ele>463.3</ele>
        <time>2024-09-29T09:43:07.000Z</time>
      </trkpt>
      <trkpt lat="43.589" lon="6.10197">
        <ele>463.2</ele>
        <time>2024-09-29T09:43:08.000Z</time>
      </trkpt>
      <trkpt lat="43.58899" lon="6.10197">
        <ele>463.1</ele>
        <time>2024-09-29T09:43:11.000Z</time>
      </trkpt>
      <trkpt lat="43.58899" lon="6.10197">
        <ele>463</ele>
        <time>2024-09-29T09:43:12.000Z</time>
      </trkpt>
      <trkpt lat="43.58908" lon="6.10201">
        <ele>461.4</ele>
        <time>2024-09-29T09:43:37.000Z</time>
      </trkpt>
      <trkpt lat="43.58904" lon="6.10205">
        <ele>460.8</ele>
        <time>2024-09-29T09:43:56.000Z</time>
      </trkpt>
      <trkpt lat="43.58904" lon="6.10205">
        <ele>460.8</ele>
        <time>2024-09-29T09:43:57.000Z</time>
      </trkpt>
      <trkpt lat="43.58904" lon="6.10205">
        <ele>460.8</ele>
        <time>2024-09-29T09:43:58.000Z</time>
      </trkpt>
      <trkpt lat="43.58904" lon="6.10205">
        <ele>460.8</ele>
        <time>2024-09-29T09:44:01.000Z</time>
      </trkpt>
      <trkpt lat="43.58905" lon="6.10205">
        <ele>460.7</ele>
        <time>2024-09-29T09:44:02.000Z</time>
      </trkpt>
      <trkpt lat="43.58905" lon="6.10205">
        <ele>460.7</ele>
        <time>2024-09-29T09:44:03.000Z</time>
      </trkpt>
      <trkpt lat="43.58913" lon="6.10211">
        <ele>460.3</ele>
        <time>2024-09-29T09:44:16.000Z</time>
      </trkpt>
      <trkpt lat="43.58913" lon="6.10211">
        <ele>460.1</ele>
        <time>2024-09-29T09:44:18.000Z</time>
      </trkpt>
      <trkpt lat="43.58913" lon="6.10211">
        <ele>460.1</ele>
        <time>2024-09-29T09:44:19.000Z</time>
      </trkpt>
      <trkpt lat="43.58913" lon="6.10211">
        <ele>460</ele>
        <time>2024-09-29T09:44:20.000Z</time>
      </trkpt>
      <trkpt lat="43.58914" lon="6.10211">
        <ele>459.8</ele>
        <time>2024-09-29T09:44:24.000Z</time>
      </trkpt>
      <trkpt lat="43.58914" lon="6.10211">
        <ele>459.8</ele>
        <time>2024-09-29T09:44:25.000Z</time>
      </trkpt>
      <trkpt lat="43.58914" lon="6.10211">
        <ele>459.3</ele>
        <time>2024-09-29T09:44:33.000Z</time>
      </trkpt>
      <trkpt lat="43.58914" lon="6.10211">
        <ele>459.2</ele>
        <time>2024-09-29T09:44:34.000Z</time>
      </trkpt>
      <trkpt lat="43.58914" lon="6.1021">
        <ele>458.9</ele>
        <time>2024-09-29T09:45:06.000Z</time>
      </trkpt>
      <trkpt lat="43.58914" lon="6.10209">
        <ele>458.9</ele>
        <time>2024-09-29T09:45:07.000Z</time>
      </trkpt>
      <trkpt lat="43.58914" lon="6.10209">
        <ele>458.9</ele>
        <time>2024-09-29T09:45:08.000Z</time>
      </trkpt>
      <trkpt lat="43.58914" lon="6.10209">
        <ele>458.9</ele>
        <time>2024-09-29T09:45:09.000Z</time>
      </trkpt>
      <trkpt lat="43.58914" lon="6.10209">
        <ele>458.9</ele>
        <time>2024-09-29T09:45:10.000Z</time>
      </trkpt>
      <trkpt lat="43.58914" lon="6.10209">
        <ele>458.9</ele>
        <time>2024-09-29T09:45:11.000Z</time>
      </trkpt>
      <trkpt lat="43.58914" lon="6.10209">
        <ele>458.9</ele>
        <time>2024-09-29T09:45:12.000Z</time>
      </trkpt>
      <trkpt lat="43.58914" lon="6.10209">
        <ele>458.9</ele>
        <time>2024-09-29T09:45:13.000Z</time>
      </trkpt>
      <trkpt lat="43.58914" lon="6.10209">
        <ele>458.9</ele>
        <time>2024-09-29T09:45:14.000Z</time>
      </trkpt>
      <trkpt lat="43.58914" lon="6.10209">
        <ele>458.9</ele>
        <time>2024-09-29T09:45:15.000Z</time>
      </trkpt>
      <trkpt lat="43.58914" lon="6.10209">
        <ele>458.9</ele>
        <time>2024-09-29T09:45:19.000Z</time>
      </trkpt>
      <trkpt lat="43.58914" lon="6.10209">
        <ele>458.9</ele>
        <time>2024-09-29T09:45:20.000Z</time>
      </trkpt>
      <trkpt lat="43.58914" lon="6.10209">
        <ele>458.9</ele>
        <time>2024-09-29T09:45:21.000Z</time>
      </trkpt>
      <trkpt lat="43.58914" lon="6.10209">
        <ele>458.9</ele>
        <time>2024-09-29T09:45:22.000Z</time>
      </trkpt>
      <trkpt lat="43.58915" lon="6.10208">
        <ele>458.7</ele>
        <time>2024-09-29T09:46:18.000Z</time>
      </trkpt>
      <trkpt lat="43.58915" lon="6.10207">
        <ele>458.7</ele>
        <time>2024-09-29T09:46:19.000Z</time>
      </trkpt>
      <trkpt lat="43.58922" lon="6.10215">
        <ele>458</ele>
        <time>2024-09-29T09:46:36.000Z</time>
      </trkpt>
      <trkpt lat="43.5893" lon="6.10223">
        <ele>455.7</ele>
        <time>2024-09-29T09:46:54.000Z</time>
      </trkpt>
      <trkpt lat="43.58939" lon="6.10227">
        <ele>453.8</ele>
        <time>2024-09-29T09:47:14.000Z</time>
      </trkpt>
      <trkpt lat="43.58948" lon="6.10231">
        <ele>452.2</ele>
        <time>2024-09-29T09:47:28.000Z</time>
      </trkpt>
      <trkpt lat="43.58958" lon="6.1023">
        <ele>450.4</ele>
        <time>2024-09-29T09:47:51.000Z</time>
      </trkpt>
      <trkpt lat="43.58958" lon="6.1023">
        <ele>450.3</ele>
        <time>2024-09-29T09:47:53.000Z</time>
      </trkpt>
      <trkpt lat="43.58958" lon="6.1023">
        <ele>450.3</ele>
        <time>2024-09-29T09:47:54.000Z</time>
      </trkpt>
      <trkpt lat="43.58958" lon="6.1023">
        <ele>450.3</ele>
        <time>2024-09-29T09:47:55.000Z</time>
      </trkpt>
      <trkpt lat="43.58958" lon="6.1023">
        <ele>450.2</ele>
        <time>2024-09-29T09:48:00.000Z</time>
      </trkpt>
      <trkpt lat="43.58957" lon="6.1023">
        <ele>450.2</ele>
        <time>2024-09-29T09:48:01.000Z</time>
      </trkpt>
      <trkpt lat="43.58957" lon="6.1023">
        <ele>450.2</ele>
        <time>2024-09-29T09:48:02.000Z</time>
      </trkpt>
      <trkpt lat="43.58957" lon="6.1023">
        <ele>450.2</ele>
        <time>2024-09-29T09:48:05.000Z</time>
      </trkpt>
      <trkpt lat="43.58957" lon="6.1023">
        <ele>450.2</ele>
        <time>2024-09-29T09:48:06.000Z</time>
      </trkpt>
      <trkpt lat="43.58957" lon="6.1023">
        <ele>450.2</ele>
        <time>2024-09-29T09:48:07.000Z</time>
      </trkpt>
      <trkpt lat="43.58957" lon="6.1023">
        <ele>450.1</ele>
        <time>2024-09-29T09:48:26.000Z</time>
      </trkpt>
      <trkpt lat="43.58957" lon="6.1023">
        <ele>450.1</ele>
        <time>2024-09-29T09:48:27.000Z</time>
      </trkpt>
      <trkpt lat="43.58957" lon="6.1023">
        <ele>450.1</ele>
        <time>2024-09-29T09:48:28.000Z</time>
      </trkpt>
      <trkpt lat="43.58957" lon="6.1023">
        <ele>450.1</ele>
        <time>2024-09-29T09:48:29.000Z</time>
      </trkpt>
      <trkpt lat="43.58957" lon="6.1023">
        <ele>450</ele>
        <time>2024-09-29T09:48:33.000Z</time>
      </trkpt>
      <trkpt lat="43.58957" lon="6.1023">
        <ele>450</ele>
        <time>2024-09-29T09:48:34.000Z</time>
      </trkpt>
      <trkpt lat="43.58957" lon="6.10231">
        <ele>450</ele>
        <time>2024-09-29T09:48:35.000Z</time>
      </trkpt>
      <trkpt lat="43.5895" lon="6.1024">
        <ele>450.1</ele>
        <time>2024-09-29T09:48:51.000Z</time>
      </trkpt>
      <trkpt lat="43.58942" lon="6.10244">
        <ele>450.5</ele>
        <time>2024-09-29T09:49:06.000Z</time>
      </trkpt>
      <trkpt lat="43.5894" lon="6.10256">
        <ele>450.9</ele>
        <time>2024-09-29T09:49:17.000Z</time>
      </trkpt>
      <trkpt lat="43.58941" lon="6.1027">
        <ele>451</ele>
        <time>2024-09-29T09:49:29.000Z</time>
      </trkpt>
      <trkpt lat="43.5894" lon="6.10283">
        <ele>451</ele>
        <time>2024-09-29T09:49:47.000Z</time>
      </trkpt>
      <trkpt lat="43.58941" lon="6.10296">
        <ele>450.9</ele>
        <time>2024-09-29T09:50:07.000Z</time>
      </trkpt>
      <trkpt lat="43.5894" lon="6.10309">
        <ele>451.1</ele>
        <time>2024-09-29T09:50:25.000Z</time>
      </trkpt>
      <trkpt lat="43.58939" lon="6.10321">
        <ele>451.3</ele>
        <time>2024-09-29T09:50:37.000Z</time>
      </trkpt>
      <trkpt lat="43.58936" lon="6.10334">
        <ele>451.6</ele>
        <time>2024-09-29T09:50:52.000Z</time>
      </trkpt>
      <trkpt lat="43.58936" lon="6.10347">
        <ele>452</ele>
        <time>2024-09-29T09:51:04.000Z</time>
      </trkpt>
      <trkpt lat="43.58937" lon="6.1036">
        <ele>452.4</ele>
        <time>2024-09-29T09:51:14.000Z</time>
      </trkpt>
      <trkpt lat="43.58941" lon="6.10372">
        <ele>452.6</ele>
        <time>2024-09-29T09:51:28.000Z</time>
      </trkpt>
      <trkpt lat="43.5895" lon="6.10376">
        <ele>452.4</ele>
        <time>2024-09-29T09:51:48.000Z</time>
      </trkpt>
      <trkpt lat="43.58955" lon="6.10386">
        <ele>451.7</ele>
        <time>2024-09-29T09:51:59.000Z</time>
      </trkpt>
      <trkpt lat="43.58957" lon="6.10399">
        <ele>450.7</ele>
        <time>2024-09-29T09:52:12.000Z</time>
      </trkpt>
      <trkpt lat="43.58965" lon="6.10407">
        <ele>449.7</ele>
        <time>2024-09-29T09:52:23.000Z</time>
      </trkpt>
      <trkpt lat="43.58972" lon="6.10416">
        <ele>448.1</ele>
        <time>2024-09-29T09:52:36.000Z</time>
      </trkpt>
      <trkpt lat="43.58978" lon="6.10426">
        <ele>446.9</ele>
        <time>2024-09-29T09:52:49.000Z</time>
      </trkpt>
      <trkpt lat="43.58984" lon="6.10436">
        <ele>445.4</ele>
        <time>2024-09-29T09:53:04.000Z</time>
      </trkpt>
      <trkpt lat="43.58987" lon="6.10448">
        <ele>444.5</ele>
        <time>2024-09-29T09:53:15.000Z</time>
      </trkpt>
      <trkpt lat="43.58991" lon="6.10461">
        <ele>443.9</ele>
        <time>2024-09-29T09:53:29.000Z</time>
      </trkpt>
      <trkpt lat="43.58997" lon="6.10471">
        <ele>442.8</ele>
        <time>2024-09-29T09:53:43.000Z</time>
      </trkpt>
      <trkpt lat="43.59001" lon="6.10482">
        <ele>442.2</ele>
        <time>2024-09-29T09:53:55.000Z</time>
      </trkpt>
      <trkpt lat="43.59003" lon="6.10494">
        <ele>441</ele>
        <time>2024-09-29T09:54:10.000Z</time>
      </trkpt>
      <trkpt lat="43.59004" lon="6.10508">
        <ele>439.9</ele>
        <time>2024-09-29T09:54:25.000Z</time>
      </trkpt>
      <trkpt lat="43.59005" lon="6.10521">
        <ele>439.1</ele>
        <time>2024-09-29T09:54:33.000Z</time>
      </trkpt>
      <trkpt lat="43.59006" lon="6.10534">
        <ele>438.3</ele>
        <time>2024-09-29T09:54:47.000Z</time>
      </trkpt>
      <trkpt lat="43.59003" lon="6.10546">
        <ele>437.8</ele>
        <time>2024-09-29T09:55:00.000Z</time>
      </trkpt>
      <trkpt lat="43.59002" lon="6.10559">
        <ele>437.2</ele>
        <time>2024-09-29T09:55:10.000Z</time>
      </trkpt>
      <trkpt lat="43.59002" lon="6.10572">
        <ele>435.8</ele>
        <time>2024-09-29T09:55:27.000Z</time>
      </trkpt>
      <trkpt lat="43.59002" lon="6.10572">
        <ele>435.7</ele>
        <time>2024-09-29T09:55:31.000Z</time>
      </trkpt>
      <trkpt lat="43.59002" lon="6.10572">
        <ele>435.6</ele>
        <time>2024-09-29T09:55:32.000Z</time>
      </trkpt>
      <trkpt lat="43.59002" lon="6.10572">
        <ele>435.6</ele>
        <time>2024-09-29T09:55:33.000Z</time>
      </trkpt>
      <trkpt lat="43.59004" lon="6.10571">
        <ele>435.4</ele>
        <time>2024-09-29T09:55:46.000Z</time>
      </trkpt>
      <trkpt lat="43.59004" lon="6.10572">
        <ele>435.4</ele>
        <time>2024-09-29T09:55:47.000Z</time>
      </trkpt>
      <trkpt lat="43.59004" lon="6.10571">
        <ele>435.4</ele>
        <time>2024-09-29T09:55:48.000Z</time>
      </trkpt>
      <trkpt lat="43.59004" lon="6.10571">
        <ele>435.4</ele>
        <time>2024-09-29T09:55:49.000Z</time>
      </trkpt>
      <trkpt lat="43.59005" lon="6.10571">
        <ele>435.3</ele>
        <time>2024-09-29T09:55:53.000Z</time>
      </trkpt>
      <trkpt lat="43.59004" lon="6.10571">
        <ele>435.3</ele>
        <time>2024-09-29T09:55:54.000Z</time>
      </trkpt>
      <trkpt lat="43.59004" lon="6.1057">
        <ele>435.3</ele>
        <time>2024-09-29T09:55:55.000Z</time>
      </trkpt>
      <trkpt lat="43.58997" lon="6.10578">
        <ele>435</ele>
        <time>2024-09-29T09:56:09.000Z</time>
      </trkpt>
      <trkpt lat="43.58998" lon="6.10577">
        <ele>434.9</ele>
        <time>2024-09-29T09:56:18.000Z</time>
      </trkpt>
      <trkpt lat="43.58998" lon="6.10577">
        <ele>434.9</ele>
        <time>2024-09-29T09:56:19.000Z</time>
      </trkpt>
      <trkpt lat="43.58998" lon="6.10576">
        <ele>434.6</ele>
        <time>2024-09-29T09:56:40.000Z</time>
      </trkpt>
      <trkpt lat="43.58998" lon="6.10576">
        <ele>434.6</ele>
        <time>2024-09-29T09:56:41.000Z</time>
      </trkpt>
      <trkpt lat="43.58998" lon="6.10576">
        <ele>434.6</ele>
        <time>2024-09-29T09:56:42.000Z</time>
      </trkpt>
      <trkpt lat="43.58998" lon="6.10576">
        <ele>434.6</ele>
        <time>2024-09-29T09:56:45.000Z</time>
      </trkpt>
      <trkpt lat="43.58998" lon="6.10576">
        <ele>434.6</ele>
        <time>2024-09-29T09:56:46.000Z</time>
      </trkpt>
      <trkpt lat="43.58998" lon="6.10576">
        <ele>434.6</ele>
        <time>2024-09-29T09:56:47.000Z</time>
      </trkpt>
      <trkpt lat="43.58998" lon="6.10576">
        <ele>434.7</ele>
        <time>2024-09-29T09:56:48.000Z</time>
      </trkpt>
      <trkpt lat="43.58998" lon="6.10577">
        <ele>434.8</ele>
        <time>2024-09-29T09:56:49.000Z</time>
      </trkpt>
      <trkpt lat="43.5899" lon="6.10571">
        <ele>435</ele>
        <time>2024-09-29T09:57:03.000Z</time>
      </trkpt>
      <trkpt lat="43.58981" lon="6.10566">
        <ele>435.7</ele>
        <time>2024-09-29T09:57:15.000Z</time>
      </trkpt>
      <trkpt lat="43.58972" lon="6.10561">
        <ele>437.1</ele>
        <time>2024-09-29T09:57:28.000Z</time>
      </trkpt>
      <trkpt lat="43.58963" lon="6.10558">
        <ele>438.3</ele>
        <time>2024-09-29T09:57:40.000Z</time>
      </trkpt>
      <trkpt lat="43.58954" lon="6.10557">
        <ele>439.1</ele>
        <time>2024-09-29T09:57:52.000Z</time>
      </trkpt>
      <trkpt lat="43.58945" lon="6.10557">
        <ele>440</ele>
        <time>2024-09-29T09:58:04.000Z</time>
      </trkpt>
      <trkpt lat="43.58935" lon="6.10558">
        <ele>441.1</ele>
        <time>2024-09-29T09:58:15.000Z</time>
      </trkpt>
      <trkpt lat="43.58926" lon="6.10558">
        <ele>442.1</ele>
        <time>2024-09-29T09:58:26.000Z</time>
      </trkpt>
      <trkpt lat="43.58921" lon="6.10556">
        <ele>442.9</ele>
        <time>2024-09-29T09:58:43.000Z</time>
      </trkpt>
      <trkpt lat="43.58921" lon="6.10556">
        <ele>442.9</ele>
        <time>2024-09-29T09:58:44.000Z</time>
      </trkpt>
      <trkpt lat="43.5892" lon="6.10556">
        <ele>442.9</ele>
        <time>2024-09-29T09:58:45.000Z</time>
      </trkpt>
      <trkpt lat="43.5892" lon="6.10556">
        <ele>442.9</ele>
        <time>2024-09-29T09:58:46.000Z</time>
      </trkpt>
      <trkpt lat="43.5892" lon="6.10557">
        <ele>442.9</ele>
        <time>2024-09-29T09:58:47.000Z</time>
      </trkpt>
      <trkpt lat="43.58911" lon="6.10562">
        <ele>443</ele>
        <time>2024-09-29T09:59:01.000Z</time>
      </trkpt>
      <trkpt lat="43.58902" lon="6.10566">
        <ele>442.8</ele>
        <time>2024-09-29T09:59:11.000Z</time>
      </trkpt>
      <trkpt lat="43.58893" lon="6.10568">
        <ele>442.6</ele>
        <time>2024-09-29T09:59:21.000Z</time>
      </trkpt>
      <trkpt lat="43.58885" lon="6.10574">
        <ele>442.6</ele>
        <time>2024-09-29T09:59:30.000Z</time>
      </trkpt>
      <trkpt lat="43.58876" lon="6.10576">
        <ele>442.6</ele>
        <time>2024-09-29T09:59:41.000Z</time>
      </trkpt>
      <trkpt lat="43.58867" lon="6.10573">
        <ele>442.7</ele>
        <time>2024-09-29T09:59:52.000Z</time>
      </trkpt>
      <trkpt lat="43.58857" lon="6.10575">
        <ele>443.1</ele>
        <time>2024-09-29T10:00:05.000Z</time>
      </trkpt>
      <trkpt lat="43.58847" lon="6.10575">
        <ele>443.3</ele>
        <time>2024-09-29T10:00:15.000Z</time>
      </trkpt>
      <trkpt lat="43.58838" lon="6.10575">
        <ele>443.3</ele>
        <time>2024-09-29T10:00:27.000Z</time>
      </trkpt>
      <trkpt lat="43.58829" lon="6.10576">
        <ele>443.3</ele>
        <time>2024-09-29T10:00:38.000Z</time>
      </trkpt>
      <trkpt lat="43.58819" lon="6.1058">
        <ele>443.4</ele>
        <time>2024-09-29T10:00:49.000Z</time>
      </trkpt>
      <trkpt lat="43.58811" lon="6.10587">
        <ele>443.6</ele>
        <time>2024-09-29T10:01:01.000Z</time>
      </trkpt>
      <trkpt lat="43.58803" lon="6.10592">
        <ele>444</ele>
        <time>2024-09-29T10:01:13.000Z</time>
      </trkpt>
      <trkpt lat="43.58796" lon="6.10601">
        <ele>444.4</ele>
        <time>2024-09-29T10:01:24.000Z</time>
      </trkpt>
      <trkpt lat="43.58789" lon="6.1061">
        <ele>445.2</ele>
        <time>2024-09-29T10:01:36.000Z</time>
      </trkpt>
      <trkpt lat="43.5878" lon="6.10615">
        <ele>445.9</ele>
        <time>2024-09-29T10:01:47.000Z</time>
      </trkpt>
      <trkpt lat="43.58771" lon="6.10617">
        <ele>447.1</ele>
        <time>2024-09-29T10:02:00.000Z</time>
      </trkpt>
      <trkpt lat="43.58762" lon="6.10624">
        <ele>447.8</ele>
        <time>2024-09-29T10:02:12.000Z</time>
      </trkpt>
      <trkpt lat="43.58757" lon="6.10634">
        <ele>448.4</ele>
        <time>2024-09-29T10:02:23.000Z</time>
      </trkpt>
      <trkpt lat="43.5875" lon="6.10643">
        <ele>449.2</ele>
        <time>2024-09-29T10:02:35.000Z</time>
      </trkpt>
      <trkpt lat="43.58744" lon="6.10652">
        <ele>450.2</ele>
        <time>2024-09-29T10:02:47.000Z</time>
      </trkpt>
      <trkpt lat="43.58735" lon="6.10657">
        <ele>451.8</ele>
        <time>2024-09-29T10:03:01.000Z</time>
      </trkpt>
      <trkpt lat="43.58726" lon="6.1066">
        <ele>454.9</ele>
        <time>2024-09-29T10:03:22.000Z</time>
      </trkpt>
      <trkpt lat="43.58717" lon="6.10661">
        <ele>456.4</ele>
        <time>2024-09-29T10:03:38.000Z</time>
      </trkpt>
      <trkpt lat="43.58707" lon="6.10664">
        <ele>458.3</ele>
        <time>2024-09-29T10:03:55.000Z</time>
      </trkpt>
      <trkpt lat="43.587" lon="6.10671">
        <ele>460.8</ele>
        <time>2024-09-29T10:04:16.000Z</time>
      </trkpt>
      <trkpt lat="43.58691" lon="6.10676">
        <ele>462.1</ele>
        <time>2024-09-29T10:04:33.000Z</time>
      </trkpt>
      <trkpt lat="43.5869" lon="6.10676">
        <ele>462.5</ele>
        <time>2024-09-29T10:04:38.000Z</time>
      </trkpt>
      <trkpt lat="43.5869" lon="6.10676">
        <ele>462.6</ele>
        <time>2024-09-29T10:04:39.000Z</time>
      </trkpt>
      <trkpt lat="43.5869" lon="6.10676">
        <ele>462.6</ele>
        <time>2024-09-29T10:04:40.000Z</time>
      </trkpt>
      <trkpt lat="43.5869" lon="6.10676">
        <ele>462.9</ele>
        <time>2024-09-29T10:04:50.000Z</time>
      </trkpt>
      <trkpt lat="43.5869" lon="6.10676">
        <ele>462.9</ele>
        <time>2024-09-29T10:04:51.000Z</time>
      </trkpt>
      <trkpt lat="43.5869" lon="6.10676">
        <ele>462.9</ele>
        <time>2024-09-29T10:04:52.000Z</time>
      </trkpt>
      <trkpt lat="43.58691" lon="6.1068">
        <ele>462.9</ele>
        <time>2024-09-29T10:04:59.000Z</time>
      </trkpt>
      <trkpt lat="43.58691" lon="6.1068">
        <ele>462.9</ele>
        <time>2024-09-29T10:05:00.000Z</time>
      </trkpt>
      <trkpt lat="43.5869" lon="6.10684">
        <ele>462.7</ele>
        <time>2024-09-29T10:05:48.000Z</time>
      </trkpt>
      <trkpt lat="43.5869" lon="6.10684">
        <ele>462.7</ele>
        <time>2024-09-29T10:05:49.000Z</time>
      </trkpt>
      <trkpt lat="43.58691" lon="6.10683">
        <ele>462.7</ele>
        <time>2024-09-29T10:05:50.000Z</time>
      </trkpt>
      <trkpt lat="43.58691" lon="6.10683">
        <ele>462.7</ele>
        <time>2024-09-29T10:05:51.000Z</time>
      </trkpt>
      <trkpt lat="43.58691" lon="6.10683">
        <ele>462.7</ele>
        <time>2024-09-29T10:05:52.000Z</time>
      </trkpt>
      <trkpt lat="43.58691" lon="6.10682">
        <ele>462.6</ele>
        <time>2024-09-29T10:05:55.000Z</time>
      </trkpt>
      <trkpt lat="43.58691" lon="6.10682">
        <ele>462.6</ele>
        <time>2024-09-29T10:05:56.000Z</time>
      </trkpt>
      <trkpt lat="43.58691" lon="6.10682">
        <ele>462.6</ele>
        <time>2024-09-29T10:05:57.000Z</time>
      </trkpt>
      <trkpt lat="43.58691" lon="6.10682">
        <ele>462.6</ele>
        <time>2024-09-29T10:06:00.000Z</time>
      </trkpt>
      <trkpt lat="43.5869" lon="6.10682">
        <ele>462.6</ele>
        <time>2024-09-29T10:06:01.000Z</time>
      </trkpt>
      <trkpt lat="43.5869" lon="6.10682">
        <ele>462.6</ele>
        <time>2024-09-29T10:06:02.000Z</time>
      </trkpt>
      <trkpt lat="43.58691" lon="6.1068">
        <ele>462.5</ele>
        <time>2024-09-29T10:06:05.000Z</time>
      </trkpt>
      <trkpt lat="43.5869" lon="6.10679">
        <ele>462.5</ele>
        <time>2024-09-29T10:06:06.000Z</time>
      </trkpt>
      <trkpt lat="43.5869" lon="6.10678">
        <ele>462.5</ele>
        <time>2024-09-29T10:06:07.000Z</time>
      </trkpt>
      <trkpt lat="43.5869" lon="6.10678">
        <ele>462.5</ele>
        <time>2024-09-29T10:06:08.000Z</time>
      </trkpt>
      <trkpt lat="43.58691" lon="6.10678">
        <ele>462.5</ele>
        <time>2024-09-29T10:06:09.000Z</time>
      </trkpt>
      <trkpt lat="43.58692" lon="6.1068">
        <ele>462.4</ele>
        <time>2024-09-29T10:06:18.000Z</time>
      </trkpt>
      <trkpt lat="43.58692" lon="6.10681">
        <ele>462.4</ele>
        <time>2024-09-29T10:06:19.000Z</time>
      </trkpt>
      <trkpt lat="43.58692" lon="6.10681">
        <ele>462.4</ele>
        <time>2024-09-29T10:06:23.000Z</time>
      </trkpt>
      <trkpt lat="43.58692" lon="6.10681">
        <ele>462.4</ele>
        <time>2024-09-29T10:06:24.000Z</time>
      </trkpt>
      <trkpt lat="43.58692" lon="6.10681">
        <ele>462.4</ele>
        <time>2024-09-29T10:06:25.000Z</time>
      </trkpt>
      <trkpt lat="43.58697" lon="6.1068">
        <ele>462.3</ele>
        <time>2024-09-29T10:06:53.000Z</time>
      </trkpt>
      <trkpt lat="43.58697" lon="6.1068">
        <ele>462.3</ele>
        <time>2024-09-29T10:06:54.000Z</time>
      </trkpt>
      <trkpt lat="43.58697" lon="6.10679">
        <ele>462.3</ele>
        <time>2024-09-29T10:06:55.000Z</time>
      </trkpt>
      <trkpt lat="43.58697" lon="6.10679">
        <ele>462.3</ele>
        <time>2024-09-29T10:06:56.000Z</time>
      </trkpt>
      <trkpt lat="43.58697" lon="6.10679">
        <ele>462.2</ele>
        <time>2024-09-29T10:06:57.000Z</time>
      </trkpt>
      <trkpt lat="43.58697" lon="6.10678">
        <ele>462.2</ele>
        <time>2024-09-29T10:06:58.000Z</time>
      </trkpt>
      <trkpt lat="43.58697" lon="6.10677">
        <ele>462.2</ele>
        <time>2024-09-29T10:06:59.000Z</time>
      </trkpt>
      <trkpt lat="43.58697" lon="6.10676">
        <ele>462.2</ele>
        <time>2024-09-29T10:07:00.000Z</time>
      </trkpt>
      <trkpt lat="43.5869" lon="6.10673">
        <ele>462.2</ele>
        <time>2024-09-29T10:07:14.000Z</time>
      </trkpt>
      <trkpt lat="43.5869" lon="6.10673">
        <ele>462.2</ele>
        <time>2024-09-29T10:07:15.000Z</time>
      </trkpt>
      <trkpt lat="43.5869" lon="6.10673">
        <ele>462.3</ele>
        <time>2024-09-29T10:07:41.000Z</time>
      </trkpt>
      <trkpt lat="43.5869" lon="6.10673">
        <ele>462.3</ele>
        <time>2024-09-29T10:07:42.000Z</time>
      </trkpt>
      <trkpt lat="43.58689" lon="6.10673">
        <ele>462.3</ele>
        <time>2024-09-29T10:07:43.000Z</time>
      </trkpt>
      <trkpt lat="43.5868" lon="6.10672">
        <ele>462.6</ele>
        <time>2024-09-29T10:07:59.000Z</time>
      </trkpt>
      <trkpt lat="43.58672" lon="6.10679">
        <ele>464.1</ele>
        <time>2024-09-29T10:08:14.000Z</time>
      </trkpt>
      <trkpt lat="43.58664" lon="6.10684">
        <ele>465.2</ele>
        <time>2024-09-29T10:08:28.000Z</time>
      </trkpt>
      <trkpt lat="43.58654" lon="6.10684">
        <ele>465.9</ele>
        <time>2024-09-29T10:08:41.000Z</time>
      </trkpt>
      <trkpt lat="43.58646" lon="6.1069">
        <ele>467</ele>
        <time>2024-09-29T10:08:57.000Z</time>
      </trkpt>
      <trkpt lat="43.58637" lon="6.10691">
        <ele>468.7</ele>
        <time>2024-09-29T10:09:14.000Z</time>
      </trkpt>
      <trkpt lat="43.58634" lon="6.10687">
        <ele>470.6</ele>
        <time>2024-09-29T10:09:21.000Z</time>
      </trkpt>
      <trkpt lat="43.58634" lon="6.10687">
        <ele>470.6</ele>
        <time>2024-09-29T10:09:22.000Z</time>
      </trkpt>
      <trkpt lat="43.58634" lon="6.10687">
        <ele>470.7</ele>
        <time>2024-09-29T10:09:23.000Z</time>
      </trkpt>
      <trkpt lat="43.58634" lon="6.10687">
        <ele>470.7</ele>
        <time>2024-09-29T10:09:26.000Z</time>
      </trkpt>
      <trkpt lat="43.58635" lon="6.10688">
        <ele>470.8</ele>
        <time>2024-09-29T10:09:27.000Z</time>
      </trkpt>
      <trkpt lat="43.58635" lon="6.10688">
        <ele>470.8</ele>
        <time>2024-09-29T10:09:28.000Z</time>
      </trkpt>
      <trkpt lat="43.58639" lon="6.10677">
        <ele>471.9</ele>
        <time>2024-09-29T10:09:53.000Z</time>
      </trkpt>
      <trkpt lat="43.58637" lon="6.10689">
        <ele>472.5</ele>
        <time>2024-09-29T10:10:29.000Z</time>
      </trkpt>
      <trkpt lat="43.58628" lon="6.10694">
        <ele>470.3</ele>
        <time>2024-09-29T10:10:46.000Z</time>
      </trkpt>
      <trkpt lat="43.58624" lon="6.10706">
        <ele>470.3</ele>
        <time>2024-09-29T10:10:57.000Z</time>
      </trkpt>
      <trkpt lat="43.58618" lon="6.10716">
        <ele>470.3</ele>
        <time>2024-09-29T10:11:08.000Z</time>
      </trkpt>
      <trkpt lat="43.58609" lon="6.10721">
        <ele>470.6</ele>
        <time>2024-09-29T10:11:22.000Z</time>
      </trkpt>
      <trkpt lat="43.58603" lon="6.1073">
        <ele>472.4</ele>
        <time>2024-09-29T10:11:40.000Z</time>
      </trkpt>
      <trkpt lat="43.58598" lon="6.1074">
        <ele>473.7</ele>
        <time>2024-09-29T10:11:56.000Z</time>
      </trkpt>
      <trkpt lat="43.5859" lon="6.10747">
        <ele>474.6</ele>
        <time>2024-09-29T10:12:14.000Z</time>
      </trkpt>
      <trkpt lat="43.58581" lon="6.10752">
        <ele>475.5</ele>
        <time>2024-09-29T10:12:30.000Z</time>
      </trkpt>
      <trkpt lat="43.58577" lon="6.10763">
        <ele>476.5</ele>
        <time>2024-09-29T10:12:43.000Z</time>
      </trkpt>
      <trkpt lat="43.58576" lon="6.10764">
        <ele>476.9</ele>
        <time>2024-09-29T10:12:49.000Z</time>
      </trkpt>
      <trkpt lat="43.58577" lon="6.10764">
        <ele>476.9</ele>
        <time>2024-09-29T10:12:50.000Z</time>
      </trkpt>
      <trkpt lat="43.58577" lon="6.10764">
        <ele>477</ele>
        <time>2024-09-29T10:12:51.000Z</time>
      </trkpt>
      <trkpt lat="43.58578" lon="6.10764">
        <ele>477</ele>
        <time>2024-09-29T10:12:52.000Z</time>
      </trkpt>
      <trkpt lat="43.58574" lon="6.10775">
        <ele>477.2</ele>
        <time>2024-09-29T10:13:03.000Z</time>
      </trkpt>
      <trkpt lat="43.5857" lon="6.10787">
        <ele>477.8</ele>
        <time>2024-09-29T10:13:21.000Z</time>
      </trkpt>
      <trkpt lat="43.58564" lon="6.10797">
        <ele>480.4</ele>
        <time>2024-09-29T10:13:45.000Z</time>
      </trkpt>
      <trkpt lat="43.58562" lon="6.10809">
        <ele>482.4</ele>
        <time>2024-09-29T10:14:04.000Z</time>
      </trkpt>
      <trkpt lat="43.58557" lon="6.1082">
        <ele>484.1</ele>
        <time>2024-09-29T10:14:25.000Z</time>
      </trkpt>
      <trkpt lat="43.58553" lon="6.10831">
        <ele>485.8</ele>
        <time>2024-09-29T10:14:44.000Z</time>
      </trkpt>
      <trkpt lat="43.58552" lon="6.10844">
        <ele>487.3</ele>
        <time>2024-09-29T10:15:00.000Z</time>
      </trkpt>
      <trkpt lat="43.58553" lon="6.10857">
        <ele>488.4</ele>
        <time>2024-09-29T10:15:12.000Z</time>
      </trkpt>
      <trkpt lat="43.58545" lon="6.10863">
        <ele>489.7</ele>
        <time>2024-09-29T10:15:31.000Z</time>
      </trkpt>
      <trkpt lat="43.58539" lon="6.10873">
        <ele>490.7</ele>
        <time>2024-09-29T10:15:47.000Z</time>
      </trkpt>
      <trkpt lat="43.58535" lon="6.10884">
        <ele>490.9</ele>
        <time>2024-09-29T10:15:58.000Z</time>
      </trkpt>
      <trkpt lat="43.58527" lon="6.10893">
        <ele>491.1</ele>
        <time>2024-09-29T10:16:10.000Z</time>
      </trkpt>
      <trkpt lat="43.58519" lon="6.10899">
        <ele>491.1</ele>
        <time>2024-09-29T10:16:33.000Z</time>
      </trkpt>
      <trkpt lat="43.58519" lon="6.109">
        <ele>491.2</ele>
        <time>2024-09-29T10:16:34.000Z</time>
      </trkpt>
      <trkpt lat="43.58519" lon="6.109">
        <ele>491.2</ele>
        <time>2024-09-29T10:16:35.000Z</time>
      </trkpt>
      <trkpt lat="43.58521" lon="6.10897">
        <ele>491.2</ele>
        <time>2024-09-29T10:17:00.000Z</time>
      </trkpt>
      <trkpt lat="43.58521" lon="6.10897">
        <ele>491.2</ele>
        <time>2024-09-29T10:17:01.000Z</time>
      </trkpt>
      <trkpt lat="43.58521" lon="6.10897">
        <ele>491.2</ele>
        <time>2024-09-29T10:17:02.000Z</time>
      </trkpt>
      <trkpt lat="43.58521" lon="6.10897">
        <ele>491.2</ele>
        <time>2024-09-29T10:17:03.000Z</time>
      </trkpt>
      <trkpt lat="43.58521" lon="6.10897">
        <ele>491.2</ele>
        <time>2024-09-29T10:17:04.000Z</time>
      </trkpt>
      <trkpt lat="43.58521" lon="6.10897">
        <ele>491.1</ele>
        <time>2024-09-29T10:17:05.000Z</time>
      </trkpt>
      <trkpt lat="43.58521" lon="6.10906">
        <ele>491.1</ele>
        <time>2024-09-29T10:18:18.000Z</time>
      </trkpt>
      <trkpt lat="43.58521" lon="6.10906">
        <ele>491.1</ele>
        <time>2024-09-29T10:18:19.000Z</time>
      </trkpt>
      <trkpt lat="43.58521" lon="6.10906">
        <ele>491.1</ele>
        <time>2024-09-29T10:18:20.000Z</time>
      </trkpt>
      <trkpt lat="43.58521" lon="6.10906">
        <ele>491.1</ele>
        <time>2024-09-29T10:18:21.000Z</time>
      </trkpt>
      <trkpt lat="43.58521" lon="6.10906">
        <ele>491.1</ele>
        <time>2024-09-29T10:18:22.000Z</time>
      </trkpt>
      <trkpt lat="43.58521" lon="6.10906">
        <ele>490.8</ele>
        <time>2024-09-29T10:19:31.000Z</time>
      </trkpt>
      <trkpt lat="43.58521" lon="6.10905">
        <ele>490.8</ele>
        <time>2024-09-29T10:19:32.000Z</time>
      </trkpt>
      <trkpt lat="43.58521" lon="6.10905">
        <ele>490.8</ele>
        <time>2024-09-29T10:19:33.000Z</time>
      </trkpt>
      <trkpt lat="43.58521" lon="6.10904">
        <ele>490.8</ele>
        <time>2024-09-29T10:19:36.000Z</time>
      </trkpt>
      <trkpt lat="43.58521" lon="6.10904">
        <ele>490.8</ele>
        <time>2024-09-29T10:19:37.000Z</time>
      </trkpt>
      <trkpt lat="43.5852" lon="6.10904">
        <ele>490.8</ele>
        <time>2024-09-29T10:19:44.000Z</time>
      </trkpt>
      <trkpt lat="43.58519" lon="6.10904">
        <ele>490.8</ele>
        <time>2024-09-29T10:19:45.000Z</time>
      </trkpt>
      <trkpt lat="43.5851" lon="6.10903">
        <ele>490.8</ele>
        <time>2024-09-29T10:19:58.000Z</time>
      </trkpt>
      <trkpt lat="43.58506" lon="6.10904">
        <ele>490.9</ele>
        <time>2024-09-29T10:20:11.000Z</time>
      </trkpt>
      <trkpt lat="43.58507" lon="6.10904">
        <ele>490.9</ele>
        <time>2024-09-29T10:20:12.000Z</time>
      </trkpt>
      <trkpt lat="43.58506" lon="6.10905">
        <ele>490.9</ele>
        <time>2024-09-29T10:20:16.000Z</time>
      </trkpt>
      <trkpt lat="43.58505" lon="6.10906">
        <ele>490.9</ele>
        <time>2024-09-29T10:20:17.000Z</time>
      </trkpt>
      <trkpt lat="43.58505" lon="6.10906">
        <ele>490.9</ele>
        <time>2024-09-29T10:20:18.000Z</time>
      </trkpt>
      <trkpt lat="43.58498" lon="6.10915">
        <ele>490.9</ele>
        <time>2024-09-29T10:20:32.000Z</time>
      </trkpt>
      <trkpt lat="43.5849" lon="6.10921">
        <ele>490.8</ele>
        <time>2024-09-29T10:20:46.000Z</time>
      </trkpt>
      <trkpt lat="43.58482" lon="6.10927">
        <ele>490.6</ele>
        <time>2024-09-29T10:20:59.000Z</time>
      </trkpt>
      <trkpt lat="43.58474" lon="6.10933">
        <ele>490.3</ele>
        <time>2024-09-29T10:21:14.000Z</time>
      </trkpt>
      <trkpt lat="43.58466" lon="6.10939">
        <ele>490</ele>
        <time>2024-09-29T10:21:27.000Z</time>
      </trkpt>
      <trkpt lat="43.58458" lon="6.10947">
        <ele>489.7</ele>
        <time>2024-09-29T10:21:38.000Z</time>
      </trkpt>
      <trkpt lat="43.58449" lon="6.1095">
        <ele>489.5</ele>
        <time>2024-09-29T10:21:50.000Z</time>
      </trkpt>
      <trkpt lat="43.5844" lon="6.10954">
        <ele>489.2</ele>
        <time>2024-09-29T10:22:04.000Z</time>
      </trkpt>
      <trkpt lat="43.58431" lon="6.10959">
        <ele>489</ele>
        <time>2024-09-29T10:22:15.000Z</time>
      </trkpt>
      <trkpt lat="43.58422" lon="6.10958">
        <ele>488.9</ele>
        <time>2024-09-29T10:22:26.000Z</time>
      </trkpt>
      <trkpt lat="43.58413" lon="6.10961">
        <ele>488.8</ele>
        <time>2024-09-29T10:22:38.000Z</time>
      </trkpt>
      <trkpt lat="43.58405" lon="6.10962">
        <ele>488.8</ele>
        <time>2024-09-29T10:23:01.000Z</time>
      </trkpt>
      <trkpt lat="43.58405" lon="6.10962">
        <ele>488.8</ele>
        <time>2024-09-29T10:23:02.000Z</time>
      </trkpt>
      <trkpt lat="43.58404" lon="6.10963">
        <ele>488.8</ele>
        <time>2024-09-29T10:23:03.000Z</time>
      </trkpt>
      <trkpt lat="43.58403" lon="6.10963">
        <ele>488.8</ele>
        <time>2024-09-29T10:23:04.000Z</time>
      </trkpt>
      <trkpt lat="43.58403" lon="6.10963">
        <ele>488.8</ele>
        <time>2024-09-29T10:23:05.000Z</time>
      </trkpt>
      <trkpt lat="43.58403" lon="6.10963">
        <ele>488.8</ele>
        <time>2024-09-29T10:23:09.000Z</time>
      </trkpt>
      <trkpt lat="43.58403" lon="6.10963">
        <ele>488.8</ele>
        <time>2024-09-29T10:23:10.000Z</time>
      </trkpt>
      <trkpt lat="43.58403" lon="6.10963">
        <ele>488.8</ele>
        <time>2024-09-29T10:23:11.000Z</time>
      </trkpt>
      <trkpt lat="43.58403" lon="6.10963">
        <ele>488.8</ele>
        <time>2024-09-29T10:23:12.000Z</time>
      </trkpt>
      <trkpt lat="43.58403" lon="6.10963">
        <ele>488.7</ele>
        <time>2024-09-29T10:23:18.000Z</time>
      </trkpt>
      <trkpt lat="43.58403" lon="6.10963">
        <ele>488.7</ele>
        <time>2024-09-29T10:23:19.000Z</time>
      </trkpt>
      <trkpt lat="43.58403" lon="6.10963">
        <ele>488.7</ele>
        <time>2024-09-29T10:23:20.000Z</time>
      </trkpt>
      <trkpt lat="43.58403" lon="6.10963">
        <ele>488.7</ele>
        <time>2024-09-29T10:23:21.000Z</time>
      </trkpt>
      <trkpt lat="43.58404" lon="6.10963">
        <ele>488.7</ele>
        <time>2024-09-29T10:23:22.000Z</time>
      </trkpt>
      <trkpt lat="43.58404" lon="6.10962">
        <ele>488.7</ele>
        <time>2024-09-29T10:23:23.000Z</time>
      </trkpt>
      <trkpt lat="43.58403" lon="6.10962">
        <ele>488.7</ele>
        <time>2024-09-29T10:23:24.000Z</time>
      </trkpt>
      <trkpt lat="43.58403" lon="6.10962">
        <ele>488.7</ele>
        <time>2024-09-29T10:23:25.000Z</time>
      </trkpt>
      <trkpt lat="43.58402" lon="6.10962">
        <ele>488.7</ele>
        <time>2024-09-29T10:23:26.000Z</time>
      </trkpt>
      <trkpt lat="43.58402" lon="6.10963">
        <ele>488.8</ele>
        <time>2024-09-29T10:23:34.000Z</time>
      </trkpt>
      <trkpt lat="43.58402" lon="6.10963">
        <ele>488.8</ele>
        <time>2024-09-29T10:23:35.000Z</time>
      </trkpt>
      <trkpt lat="43.58402" lon="6.10963">
        <ele>488.8</ele>
        <time>2024-09-29T10:23:36.000Z</time>
      </trkpt>
      <trkpt lat="43.58402" lon="6.10963">
        <ele>488.8</ele>
        <time>2024-09-29T10:23:37.000Z</time>
      </trkpt>
      <trkpt lat="43.58402" lon="6.10963">
        <ele>488.8</ele>
        <time>2024-09-29T10:23:38.000Z</time>
      </trkpt>
      <trkpt lat="43.58402" lon="6.10963">
        <ele>488.8</ele>
        <time>2024-09-29T10:23:44.000Z</time>
      </trkpt>
      <trkpt lat="43.58402" lon="6.10963">
        <ele>488.8</ele>
        <time>2024-09-29T10:23:45.000Z</time>
      </trkpt>
      <trkpt lat="43.58402" lon="6.10963">
        <ele>488.8</ele>
        <time>2024-09-29T10:23:48.000Z</time>
      </trkpt>
      <trkpt lat="43.58403" lon="6.10964">
        <ele>488.8</ele>
        <time>2024-09-29T10:23:49.000Z</time>
      </trkpt>
      <trkpt lat="43.58403" lon="6.10964">
        <ele>488.8</ele>
        <time>2024-09-29T10:23:50.000Z</time>
      </trkpt>
      <trkpt lat="43.58403" lon="6.10964">
        <ele>488.9</ele>
        <time>2024-09-29T10:23:54.000Z</time>
      </trkpt>
      <trkpt lat="43.58403" lon="6.10964">
        <ele>488.9</ele>
        <time>2024-09-29T10:23:55.000Z</time>
      </trkpt>
      <trkpt lat="43.58403" lon="6.10964">
        <ele>488.9</ele>
        <time>2024-09-29T10:23:58.000Z</time>
      </trkpt>
      <trkpt lat="43.58403" lon="6.10964">
        <ele>488.9</ele>
        <time>2024-09-29T10:23:59.000Z</time>
      </trkpt>
      <trkpt lat="43.58403" lon="6.10964">
        <ele>488.9</ele>
        <time>2024-09-29T10:24:00.000Z</time>
      </trkpt>
      <trkpt lat="43.58403" lon="6.10964">
        <ele>488.9</ele>
        <time>2024-09-29T10:24:01.000Z</time>
      </trkpt>
      <trkpt lat="43.58403" lon="6.10964">
        <ele>488.9</ele>
        <time>2024-09-29T10:24:02.000Z</time>
      </trkpt>
      <trkpt lat="43.58403" lon="6.10964">
        <ele>488.9</ele>
        <time>2024-09-29T10:24:03.000Z</time>
      </trkpt>
      <trkpt lat="43.58403" lon="6.10964">
        <ele>488.8</ele>
        <time>2024-09-29T10:24:15.000Z</time>
      </trkpt>
      <trkpt lat="43.58403" lon="6.10963">
        <ele>488.8</ele>
        <time>2024-09-29T10:24:16.000Z</time>
      </trkpt>
      <trkpt lat="43.58403" lon="6.10962">
        <ele>488.8</ele>
        <time>2024-09-29T10:24:17.000Z</time>
      </trkpt>
      <trkpt lat="43.58403" lon="6.10961">
        <ele>488.8</ele>
        <time>2024-09-29T10:24:18.000Z</time>
      </trkpt>
      <trkpt lat="43.58402" lon="6.10961">
        <ele>488.8</ele>
        <time>2024-09-29T10:24:19.000Z</time>
      </trkpt>
      <trkpt lat="43.58401" lon="6.1096">
        <ele>488.8</ele>
        <time>2024-09-29T10:24:20.000Z</time>
      </trkpt>
      <trkpt lat="43.58392" lon="6.10954">
        <ele>488.6</ele>
        <time>2024-09-29T10:24:30.000Z</time>
      </trkpt>
      <trkpt lat="43.58383" lon="6.10951">
        <ele>488.4</ele>
        <time>2024-09-29T10:24:39.000Z</time>
      </trkpt>
      <trkpt lat="43.58374" lon="6.10946">
        <ele>488.2</ele>
        <time>2024-09-29T10:24:48.000Z</time>
      </trkpt>
      <trkpt lat="43.58364" lon="6.10943">
        <ele>487.9</ele>
        <time>2024-09-29T10:25:00.000Z</time>
      </trkpt>
      <trkpt lat="43.58355" lon="6.10939">
        <ele>487.7</ele>
        <time>2024-09-29T10:25:10.000Z</time>
      </trkpt>
      <trkpt lat="43.58347" lon="6.10934">
        <ele>487.6</ele>
        <time>2024-09-29T10:25:19.000Z</time>
      </trkpt>
      <trkpt lat="43.58338" lon="6.1093">
        <ele>487.4</ele>
        <time>2024-09-29T10:25:29.000Z</time>
      </trkpt>
      <trkpt lat="43.58329" lon="6.10925">
        <ele>487.1</ele>
        <time>2024-09-29T10:25:38.000Z</time>
      </trkpt>
      <trkpt lat="43.58319" lon="6.10922">
        <ele>486.9</ele>
        <time>2024-09-29T10:25:47.000Z</time>
      </trkpt>
      <trkpt lat="43.58311" lon="6.10916">
        <ele>486.7</ele>
        <time>2024-09-29T10:25:58.000Z</time>
      </trkpt>
      <trkpt lat="43.58302" lon="6.10913">
        <ele>486.6</ele>
        <time>2024-09-29T10:26:06.000Z</time>
      </trkpt>
      <trkpt lat="43.58293" lon="6.10908">
        <ele>486.6</ele>
        <time>2024-09-29T10:26:15.000Z</time>
      </trkpt>
      <trkpt lat="43.58286" lon="6.10902">
        <ele>486.4</ele>
        <time>2024-09-29T10:26:26.000Z</time>
      </trkpt>
      <trkpt lat="43.58277" lon="6.10897">
        <ele>486.1</ele>
        <time>2024-09-29T10:26:35.000Z</time>
      </trkpt>
      <trkpt lat="43.58269" lon="6.10889">
        <ele>485.6</ele>
        <time>2024-09-29T10:26:45.000Z</time>
      </trkpt>
      <trkpt lat="43.58259" lon="6.10886">
        <ele>484.9</ele>
        <time>2024-09-29T10:26:55.000Z</time>
      </trkpt>
      <trkpt lat="43.58251" lon="6.1088">
        <ele>484.3</ele>
        <time>2024-09-29T10:27:04.000Z</time>
      </trkpt>
      <trkpt lat="43.58242" lon="6.10875">
        <ele>483.8</ele>
        <time>2024-09-29T10:27:15.000Z</time>
      </trkpt>
      <trkpt lat="43.58234" lon="6.10868">
        <ele>483.4</ele>
        <time>2024-09-29T10:27:24.000Z</time>
      </trkpt>
      <trkpt lat="43.58226" lon="6.10862">
        <ele>483.3</ele>
        <time>2024-09-29T10:27:33.000Z</time>
      </trkpt>
      <trkpt lat="43.58218" lon="6.10854">
        <ele>483.2</ele>
        <time>2024-09-29T10:27:43.000Z</time>
      </trkpt>
      <trkpt lat="43.5821" lon="6.10847">
        <ele>483.1</ele>
        <time>2024-09-29T10:27:53.000Z</time>
      </trkpt>
      <trkpt lat="43.58202" lon="6.10838">
        <ele>483</ele>
        <time>2024-09-29T10:28:03.000Z</time>
      </trkpt>
      <trkpt lat="43.58196" lon="6.10828">
        <ele>482.8</ele>
        <time>2024-09-29T10:28:13.000Z</time>
      </trkpt>
      <trkpt lat="43.58192" lon="6.10817">
        <ele>482.5</ele>
        <time>2024-09-29T10:28:23.000Z</time>
      </trkpt>
      <trkpt lat="43.5819" lon="6.10804">
        <ele>482.3</ele>
        <time>2024-09-29T10:28:33.000Z</time>
      </trkpt>
      <trkpt lat="43.58188" lon="6.1079">
        <ele>482.2</ele>
        <time>2024-09-29T10:28:43.000Z</time>
      </trkpt>
      <trkpt lat="43.58188" lon="6.10777">
        <ele>482.2</ele>
        <time>2024-09-29T10:28:52.000Z</time>
      </trkpt>
      <trkpt lat="43.58185" lon="6.10764">
        <ele>482.1</ele>
        <time>2024-09-29T10:29:03.000Z</time>
      </trkpt>
      <trkpt lat="43.58182" lon="6.10751">
        <ele>482.1</ele>
        <time>2024-09-29T10:29:11.000Z</time>
      </trkpt>
      <trkpt lat="43.58179" lon="6.10738">
        <ele>482</ele>
        <time>2024-09-29T10:29:20.000Z</time>
      </trkpt>
      <trkpt lat="43.58173" lon="6.10729">
        <ele>481.9</ele>
        <time>2024-09-29T10:29:28.000Z</time>
      </trkpt>
      <trkpt lat="43.5817" lon="6.10717">
        <ele>481.8</ele>
        <time>2024-09-29T10:29:39.000Z</time>
      </trkpt>
      <trkpt lat="43.58165" lon="6.10706">
        <ele>481.7</ele>
        <time>2024-09-29T10:29:49.000Z</time>
      </trkpt>
      <trkpt lat="43.58158" lon="6.10695">
        <ele>481.6</ele>
        <time>2024-09-29T10:29:57.000Z</time>
      </trkpt>
      <trkpt lat="43.58154" lon="6.10684">
        <ele>481.4</ele>
        <time>2024-09-29T10:30:07.000Z</time>
      </trkpt>
      <trkpt lat="43.58149" lon="6.10672">
        <ele>480.9</ele>
        <time>2024-09-29T10:30:19.000Z</time>
      </trkpt>
      <trkpt lat="43.58143" lon="6.10661">
        <ele>480.2</ele>
        <time>2024-09-29T10:30:28.000Z</time>
      </trkpt>
      <trkpt lat="43.58137" lon="6.10652">
        <ele>479.5</ele>
        <time>2024-09-29T10:30:37.000Z</time>
      </trkpt>
      <trkpt lat="43.58132" lon="6.1064">
        <ele>478.5</ele>
        <time>2024-09-29T10:30:45.000Z</time>
      </trkpt>
      <trkpt lat="43.58125" lon="6.10631">
        <ele>477.5</ele>
        <time>2024-09-29T10:30:54.000Z</time>
      </trkpt>
      <trkpt lat="43.58119" lon="6.1062">
        <ele>476.5</ele>
        <time>2024-09-29T10:31:04.000Z</time>
      </trkpt>
      <trkpt lat="43.58114" lon="6.10609">
        <ele>475.7</ele>
        <time>2024-09-29T10:31:12.000Z</time>
      </trkpt>
      <trkpt lat="43.58107" lon="6.10601">
        <ele>475.1</ele>
        <time>2024-09-29T10:31:21.000Z</time>
      </trkpt>
      <trkpt lat="43.58101" lon="6.10591">
        <ele>474.4</ele>
        <time>2024-09-29T10:31:30.000Z</time>
      </trkpt>
      <trkpt lat="43.58094" lon="6.10582">
        <ele>474</ele>
        <time>2024-09-29T10:31:39.000Z</time>
      </trkpt>
      <trkpt lat="43.58088" lon="6.10573">
        <ele>473.4</ele>
        <time>2024-09-29T10:31:48.000Z</time>
      </trkpt>
      <trkpt lat="43.58083" lon="6.1057">
        <ele>472.7</ele>
        <time>2024-09-29T10:32:00.000Z</time>
      </trkpt>
      <trkpt lat="43.58083" lon="6.1057">
        <ele>472.6</ele>
        <time>2024-09-29T10:32:01.000Z</time>
      </trkpt>
      <trkpt lat="43.58083" lon="6.1057">
        <ele>472.6</ele>
        <time>2024-09-29T10:32:02.000Z</time>
      </trkpt>
      <trkpt lat="43.58084" lon="6.10571">
        <ele>472.2</ele>
        <time>2024-09-29T10:32:09.000Z</time>
      </trkpt>
      <trkpt lat="43.58084" lon="6.10571">
        <ele>472.2</ele>
        <time>2024-09-29T10:32:10.000Z</time>
      </trkpt>
      <trkpt lat="43.58078" lon="6.10561">
        <ele>472.1</ele>
        <time>2024-09-29T10:32:24.000Z</time>
      </trkpt>
      <trkpt lat="43.58069" lon="6.1056">
        <ele>472</ele>
        <time>2024-09-29T10:32:32.000Z</time>
      </trkpt>
      <trkpt lat="43.5806" lon="6.10563">
        <ele>471.9</ele>
        <time>2024-09-29T10:32:40.000Z</time>
      </trkpt>
      <trkpt lat="43.5805" lon="6.10566">
        <ele>471.2</ele>
        <time>2024-09-29T10:32:49.000Z</time>
      </trkpt>
      <trkpt lat="43.58045" lon="6.10574">
        <ele>470.2</ele>
        <time>2024-09-29T10:33:16.000Z</time>
      </trkpt>
      <trkpt lat="43.58045" lon="6.10574">
        <ele>470.2</ele>
        <time>2024-09-29T10:33:17.000Z</time>
      </trkpt>
      <trkpt lat="43.58045" lon="6.10574">
        <ele>470.2</ele>
        <time>2024-09-29T10:33:18.000Z</time>
      </trkpt>
      <trkpt lat="43.58045" lon="6.10574">
        <ele>470.2</ele>
        <time>2024-09-29T10:33:19.000Z</time>
      </trkpt>
      <trkpt lat="43.58046" lon="6.10574">
        <ele>470.2</ele>
        <time>2024-09-29T10:33:20.000Z</time>
      </trkpt>
      <trkpt lat="43.58046" lon="6.10573">
        <ele>470.2</ele>
        <time>2024-09-29T10:33:23.000Z</time>
      </trkpt>
      <trkpt lat="43.58046" lon="6.10573">
        <ele>470.2</ele>
        <time>2024-09-29T10:33:24.000Z</time>
      </trkpt>
      <trkpt lat="43.58046" lon="6.10574">
        <ele>470</ele>
        <time>2024-09-29T10:33:35.000Z</time>
      </trkpt>
      <trkpt lat="43.58046" lon="6.10574">
        <ele>470</ele>
        <time>2024-09-29T10:33:36.000Z</time>
      </trkpt>
      <trkpt lat="43.58046" lon="6.10574">
        <ele>470</ele>
        <time>2024-09-29T10:33:37.000Z</time>
      </trkpt>
      <trkpt lat="43.58046" lon="6.10574">
        <ele>470</ele>
        <time>2024-09-29T10:33:38.000Z</time>
      </trkpt>
      <trkpt lat="43.58046" lon="6.10574">
        <ele>470</ele>
        <time>2024-09-29T10:33:39.000Z</time>
      </trkpt>
      <trkpt lat="43.58046" lon="6.10574">
        <ele>470</ele>
        <time>2024-09-29T10:33:40.000Z</time>
      </trkpt>
      <trkpt lat="43.58046" lon="6.10574">
        <ele>470</ele>
        <time>2024-09-29T10:33:41.000Z</time>
      </trkpt>
      <trkpt lat="43.58046" lon="6.10574">
        <ele>470</ele>
        <time>2024-09-29T10:33:42.000Z</time>
      </trkpt>
      <trkpt lat="43.58046" lon="6.10574">
        <ele>469.9</ele>
        <time>2024-09-29T10:33:43.000Z</time>
      </trkpt>
      <trkpt lat="43.58046" lon="6.10573">
        <ele>469.9</ele>
        <time>2024-09-29T10:33:48.000Z</time>
      </trkpt>
      <trkpt lat="43.58046" lon="6.10573">
        <ele>469.9</ele>
        <time>2024-09-29T10:33:49.000Z</time>
      </trkpt>
      <trkpt lat="43.58046" lon="6.10573">
        <ele>469.8</ele>
        <time>2024-09-29T10:33:50.000Z</time>
      </trkpt>
      <trkpt lat="43.58046" lon="6.10573">
        <ele>469.6</ele>
        <time>2024-09-29T10:33:58.000Z</time>
      </trkpt>
      <trkpt lat="43.58046" lon="6.10573">
        <ele>469.6</ele>
        <time>2024-09-29T10:33:59.000Z</time>
      </trkpt>
      <trkpt lat="43.58046" lon="6.10573">
        <ele>469.6</ele>
        <time>2024-09-29T10:34:00.000Z</time>
      </trkpt>
      <trkpt lat="43.58046" lon="6.10573">
        <ele>469.6</ele>
        <time>2024-09-29T10:34:01.000Z</time>
      </trkpt>
      <trkpt lat="43.58046" lon="6.10573">
        <ele>469.6</ele>
        <time>2024-09-29T10:34:02.000Z</time>
      </trkpt>
      <trkpt lat="43.58045" lon="6.10572">
        <ele>469.5</ele>
        <time>2024-09-29T10:34:29.000Z</time>
      </trkpt>
      <trkpt lat="43.58045" lon="6.10572">
        <ele>469.5</ele>
        <time>2024-09-29T10:34:30.000Z</time>
      </trkpt>
      <trkpt lat="43.58046" lon="6.10572">
        <ele>469.5</ele>
        <time>2024-09-29T10:34:33.000Z</time>
      </trkpt>
      <trkpt lat="43.58046" lon="6.10572">
        <ele>469.5</ele>
        <time>2024-09-29T10:34:34.000Z</time>
      </trkpt>
      <trkpt lat="43.58046" lon="6.10572">
        <ele>469.5</ele>
        <time>2024-09-29T10:34:38.000Z</time>
      </trkpt>
      <trkpt lat="43.58046" lon="6.10572">
        <ele>469.5</ele>
        <time>2024-09-29T10:34:39.000Z</time>
      </trkpt>
      <trkpt lat="43.58046" lon="6.10572">
        <ele>469.5</ele>
        <time>2024-09-29T10:34:40.000Z</time>
      </trkpt>
      <trkpt lat="43.58046" lon="6.10572">
        <ele>469.5</ele>
        <time>2024-09-29T10:34:41.000Z</time>
      </trkpt>
      <trkpt lat="43.58046" lon="6.10572">
        <ele>469.5</ele>
        <time>2024-09-29T10:34:42.000Z</time>
      </trkpt>
      <trkpt lat="43.58045" lon="6.10573">
        <ele>469.5</ele>
        <time>2024-09-29T10:34:46.000Z</time>
      </trkpt>
      <trkpt lat="43.58045" lon="6.10573">
        <ele>469.5</ele>
        <time>2024-09-29T10:34:47.000Z</time>
      </trkpt>
      <trkpt lat="43.58043" lon="6.10573">
        <ele>469.5</ele>
        <time>2024-09-29T10:34:54.000Z</time>
      </trkpt>
      <trkpt lat="43.58043" lon="6.10573">
        <ele>469.5</ele>
        <time>2024-09-29T10:34:55.000Z</time>
      </trkpt>
      <trkpt lat="43.58043" lon="6.10573">
        <ele>469.6</ele>
        <time>2024-09-29T10:35:11.000Z</time>
      </trkpt>
      <trkpt lat="43.58043" lon="6.10573">
        <ele>469.6</ele>
        <time>2024-09-29T10:35:12.000Z</time>
      </trkpt>
      <trkpt lat="43.58043" lon="6.10573">
        <ele>469.6</ele>
        <time>2024-09-29T10:35:15.000Z</time>
      </trkpt>
      <trkpt lat="43.58043" lon="6.10573">
        <ele>469.6</ele>
        <time>2024-09-29T10:35:16.000Z</time>
      </trkpt>
      <trkpt lat="43.58043" lon="6.10573">
        <ele>469.6</ele>
        <time>2024-09-29T10:35:17.000Z</time>
      </trkpt>
      <trkpt lat="43.58044" lon="6.10573">
        <ele>469.7</ele>
        <time>2024-09-29T10:35:29.000Z</time>
      </trkpt>
      <trkpt lat="43.58044" lon="6.10573">
        <ele>469.7</ele>
        <time>2024-09-29T10:35:30.000Z</time>
      </trkpt>
      <trkpt lat="43.58044" lon="6.10573">
        <ele>469.7</ele>
        <time>2024-09-29T10:35:31.000Z</time>
      </trkpt>
      <trkpt lat="43.58044" lon="6.10574">
        <ele>469.7</ele>
        <time>2024-09-29T10:35:32.000Z</time>
      </trkpt>
      <trkpt lat="43.58044" lon="6.10574">
        <ele>469.7</ele>
        <time>2024-09-29T10:35:33.000Z</time>
      </trkpt>
      <trkpt lat="43.58044" lon="6.10574">
        <ele>469.7</ele>
        <time>2024-09-29T10:35:34.000Z</time>
      </trkpt>
      <trkpt lat="43.58044" lon="6.10574">
        <ele>469.7</ele>
        <time>2024-09-29T10:35:35.000Z</time>
      </trkpt>
      <trkpt lat="43.58044" lon="6.10574">
        <ele>469.7</ele>
        <time>2024-09-29T10:35:36.000Z</time>
      </trkpt>
      <trkpt lat="43.58044" lon="6.10574">
        <ele>469.7</ele>
        <time>2024-09-29T10:35:37.000Z</time>
      </trkpt>
      <trkpt lat="43.58045" lon="6.10574">
        <ele>469.7</ele>
        <time>2024-09-29T10:35:43.000Z</time>
      </trkpt>
      <trkpt lat="43.58045" lon="6.10574">
        <ele>469.7</ele>
        <time>2024-09-29T10:35:44.000Z</time>
      </trkpt>
      <trkpt lat="43.58045" lon="6.10574">
        <ele>469.7</ele>
        <time>2024-09-29T10:35:48.000Z</time>
      </trkpt>
      <trkpt lat="43.58045" lon="6.10574">
        <ele>469.7</ele>
        <time>2024-09-29T10:35:49.000Z</time>
      </trkpt>
      <trkpt lat="43.58045" lon="6.10574">
        <ele>469.7</ele>
        <time>2024-09-29T10:35:50.000Z</time>
      </trkpt>
      <trkpt lat="43.58045" lon="6.10575">
        <ele>469.7</ele>
        <time>2024-09-29T10:35:51.000Z</time>
      </trkpt>
      <trkpt lat="43.58045" lon="6.10575">
        <ele>469.7</ele>
        <time>2024-09-29T10:35:52.000Z</time>
      </trkpt>
      <trkpt lat="43.58045" lon="6.10574">
        <ele>469.7</ele>
        <time>2024-09-29T10:35:58.000Z</time>
      </trkpt>
      <trkpt lat="43.58045" lon="6.10574">
        <ele>469.7</ele>
        <time>2024-09-29T10:35:59.000Z</time>
      </trkpt>
      <trkpt lat="43.58045" lon="6.10572">
        <ele>469.7</ele>
        <time>2024-09-29T10:36:08.000Z</time>
      </trkpt>
      <trkpt lat="43.58045" lon="6.10572">
        <ele>469.7</ele>
        <time>2024-09-29T10:36:09.000Z</time>
      </trkpt>
      <trkpt lat="43.58045" lon="6.10572">
        <ele>469.7</ele>
        <time>2024-09-29T10:36:13.000Z</time>
      </trkpt>
      <trkpt lat="43.58045" lon="6.10572">
        <ele>469.7</ele>
        <time>2024-09-29T10:36:14.000Z</time>
      </trkpt>
      <trkpt lat="43.58045" lon="6.10571">
        <ele>469.7</ele>
        <time>2024-09-29T10:36:15.000Z</time>
      </trkpt>
      <trkpt lat="43.58045" lon="6.10571">
        <ele>469.8</ele>
        <time>2024-09-29T10:36:16.000Z</time>
      </trkpt>
      <trkpt lat="43.58045" lon="6.10571">
        <ele>469.8</ele>
        <time>2024-09-29T10:36:17.000Z</time>
      </trkpt>
      <trkpt lat="43.58044" lon="6.10571">
        <ele>469.8</ele>
        <time>2024-09-29T10:36:23.000Z</time>
      </trkpt>
      <trkpt lat="43.58044" lon="6.10571">
        <ele>469.8</ele>
        <time>2024-09-29T10:36:24.000Z</time>
      </trkpt>
      <trkpt lat="43.58044" lon="6.10571">
        <ele>469.8</ele>
        <time>2024-09-29T10:36:25.000Z</time>
      </trkpt>
      <trkpt lat="43.58044" lon="6.10571">
        <ele>469.8</ele>
        <time>2024-09-29T10:36:26.000Z</time>
      </trkpt>
      <trkpt lat="43.58044" lon="6.10571">
        <ele>469.8</ele>
        <time>2024-09-29T10:36:27.000Z</time>
      </trkpt>
      <trkpt lat="43.58044" lon="6.10571">
        <ele>469.9</ele>
        <time>2024-09-29T10:36:28.000Z</time>
      </trkpt>
      <trkpt lat="43.58044" lon="6.10571">
        <ele>469.9</ele>
        <time>2024-09-29T10:36:29.000Z</time>
      </trkpt>
      <trkpt lat="43.58044" lon="6.10572">
        <ele>469.8</ele>
        <time>2024-09-29T10:36:30.000Z</time>
      </trkpt>
      <trkpt lat="43.58044" lon="6.10572">
        <ele>469.9</ele>
        <time>2024-09-29T10:36:31.000Z</time>
      </trkpt>
      <trkpt lat="43.58044" lon="6.10572">
        <ele>469.9</ele>
        <time>2024-09-29T10:36:32.000Z</time>
      </trkpt>
      <trkpt lat="43.58044" lon="6.10573">
        <ele>469.9</ele>
        <time>2024-09-29T10:36:38.000Z</time>
      </trkpt>
      <trkpt lat="43.58044" lon="6.10573">
        <ele>469.9</ele>
        <time>2024-09-29T10:36:39.000Z</time>
      </trkpt>
      <trkpt lat="43.58044" lon="6.10573">
        <ele>470</ele>
        <time>2024-09-29T10:36:40.000Z</time>
      </trkpt>
      <trkpt lat="43.58045" lon="6.10574">
        <ele>469.9</ele>
        <time>2024-09-29T10:36:53.000Z</time>
      </trkpt>
      <trkpt lat="43.58045" lon="6.10573">
        <ele>469.9</ele>
        <time>2024-09-29T10:36:54.000Z</time>
      </trkpt>
      <trkpt lat="43.58046" lon="6.10572">
        <ele>469.9</ele>
        <time>2024-09-29T10:36:55.000Z</time>
      </trkpt>
      <trkpt lat="43.58054" lon="6.10567">
        <ele>470</ele>
        <time>2024-09-29T10:37:07.000Z</time>
      </trkpt>
      <trkpt lat="43.58062" lon="6.1056">
        <ele>470.1</ele>
        <time>2024-09-29T10:37:18.000Z</time>
      </trkpt>
      <trkpt lat="43.58069" lon="6.10552">
        <ele>470.6</ele>
        <time>2024-09-29T10:37:37.000Z</time>
      </trkpt>
      <trkpt lat="43.58072" lon="6.1054">
        <ele>471.1</ele>
        <time>2024-09-29T10:37:49.000Z</time>
      </trkpt>
      <trkpt lat="43.58067" lon="6.10529">
        <ele>471.5</ele>
        <time>2024-09-29T10:38:01.000Z</time>
      </trkpt>
      <trkpt lat="43.5807" lon="6.10516">
        <ele>471.6</ele>
        <time>2024-09-29T10:38:12.000Z</time>
      </trkpt>
      <trkpt lat="43.58078" lon="6.10509">
        <ele>471.8</ele>
        <time>2024-09-29T10:38:23.000Z</time>
      </trkpt>
      <trkpt lat="43.58085" lon="6.105">
        <ele>472.6</ele>
        <time>2024-09-29T10:38:37.000Z</time>
      </trkpt>
      <trkpt lat="43.58086" lon="6.10487">
        <ele>473</ele>
        <time>2024-09-29T10:38:47.000Z</time>
      </trkpt>
      <trkpt lat="43.58078" lon="6.10479">
        <ele>473.2</ele>
        <time>2024-09-29T10:38:56.000Z</time>
      </trkpt>
      <trkpt lat="43.58071" lon="6.1047">
        <ele>473.3</ele>
        <time>2024-09-29T10:39:09.000Z</time>
      </trkpt>
      <trkpt lat="43.58065" lon="6.1046">
        <ele>473.5</ele>
        <time>2024-09-29T10:39:19.000Z</time>
      </trkpt>
      <trkpt lat="43.5806" lon="6.10451">
        <ele>473.7</ele>
        <time>2024-09-29T10:39:36.000Z</time>
      </trkpt>
      <trkpt lat="43.5806" lon="6.10451">
        <ele>473.7</ele>
        <time>2024-09-29T10:39:37.000Z</time>
      </trkpt>
      <trkpt lat="43.58059" lon="6.10451">
        <ele>473.7</ele>
        <time>2024-09-29T10:39:38.000Z</time>
      </trkpt>
      <trkpt lat="43.58059" lon="6.1045">
        <ele>473.7</ele>
        <time>2024-09-29T10:39:39.000Z</time>
      </trkpt>
      <trkpt lat="43.58058" lon="6.10437">
        <ele>473.8</ele>
        <time>2024-09-29T10:39:55.000Z</time>
      </trkpt>
      <trkpt lat="43.58059" lon="6.10436">
        <ele>473.9</ele>
        <time>2024-09-29T10:40:11.000Z</time>
      </trkpt>
      <trkpt lat="43.58059" lon="6.10436">
        <ele>473.9</ele>
        <time>2024-09-29T10:40:12.000Z</time>
      </trkpt>
      <trkpt lat="43.58059" lon="6.10436">
        <ele>473.9</ele>
        <time>2024-09-29T10:40:18.000Z</time>
      </trkpt>
      <trkpt lat="43.58059" lon="6.10436">
        <ele>473.9</ele>
        <time>2024-09-29T10:40:19.000Z</time>
      </trkpt>
      <trkpt lat="43.5806" lon="6.10441">
        <ele>473.9</ele>
        <time>2024-09-29T10:40:28.000Z</time>
      </trkpt>
      <trkpt lat="43.5806" lon="6.10441">
        <ele>473.9</ele>
        <time>2024-09-29T10:40:29.000Z</time>
      </trkpt>
      <trkpt lat="43.5806" lon="6.10441">
        <ele>474</ele>
        <time>2024-09-29T10:40:41.000Z</time>
      </trkpt>
      <trkpt lat="43.5806" lon="6.10441">
        <ele>474</ele>
        <time>2024-09-29T10:40:42.000Z</time>
      </trkpt>
      <trkpt lat="43.5806" lon="6.10442">
        <ele>474</ele>
        <time>2024-09-29T10:40:43.000Z</time>
      </trkpt>
      <trkpt lat="43.5806" lon="6.10443">
        <ele>474.1</ele>
        <time>2024-09-29T10:40:50.000Z</time>
      </trkpt>
      <trkpt lat="43.5806" lon="6.10443">
        <ele>474.1</ele>
        <time>2024-09-29T10:40:51.000Z</time>
      </trkpt>
      <trkpt lat="43.5806" lon="6.10443">
        <ele>474.1</ele>
        <time>2024-09-29T10:40:52.000Z</time>
      </trkpt>
      <trkpt lat="43.5806" lon="6.10442">
        <ele>474.1</ele>
        <time>2024-09-29T10:40:59.000Z</time>
      </trkpt>
      <trkpt lat="43.5806" lon="6.10442">
        <ele>474.1</ele>
        <time>2024-09-29T10:41:00.000Z</time>
      </trkpt>
      <trkpt lat="43.5806" lon="6.10442">
        <ele>474.1</ele>
        <time>2024-09-29T10:41:01.000Z</time>
      </trkpt>
      <trkpt lat="43.5806" lon="6.10442">
        <ele>474.1</ele>
        <time>2024-09-29T10:41:02.000Z</time>
      </trkpt>
      <trkpt lat="43.5806" lon="6.10442">
        <ele>474.1</ele>
        <time>2024-09-29T10:41:03.000Z</time>
      </trkpt>
      <trkpt lat="43.5806" lon="6.10442">
        <ele>474.1</ele>
        <time>2024-09-29T10:41:11.000Z</time>
      </trkpt>
      <trkpt lat="43.5806" lon="6.10442">
        <ele>474.1</ele>
        <time>2024-09-29T10:41:12.000Z</time>
      </trkpt>
      <trkpt lat="43.5806" lon="6.10442">
        <ele>474.1</ele>
        <time>2024-09-29T10:41:13.000Z</time>
      </trkpt>
      <trkpt lat="43.5806" lon="6.10442">
        <ele>474.1</ele>
        <time>2024-09-29T10:41:14.000Z</time>
      </trkpt>
      <trkpt lat="43.5806" lon="6.10442">
        <ele>474.1</ele>
        <time>2024-09-29T10:41:15.000Z</time>
      </trkpt>
      <trkpt lat="43.5806" lon="6.10442">
        <ele>474.2</ele>
        <time>2024-09-29T10:41:18.000Z</time>
      </trkpt>
      <trkpt lat="43.5806" lon="6.10442">
        <ele>474.2</ele>
        <time>2024-09-29T10:41:19.000Z</time>
      </trkpt>
      <trkpt lat="43.5806" lon="6.10442">
        <ele>474.2</ele>
        <time>2024-09-29T10:41:20.000Z</time>
      </trkpt>
      <trkpt lat="43.5806" lon="6.10442">
        <ele>474.2</ele>
        <time>2024-09-29T10:41:28.000Z</time>
      </trkpt>
      <trkpt lat="43.5806" lon="6.10442">
        <ele>474.2</ele>
        <time>2024-09-29T10:41:29.000Z</time>
      </trkpt>
      <trkpt lat="43.5806" lon="6.10442">
        <ele>474.2</ele>
        <time>2024-09-29T10:41:30.000Z</time>
      </trkpt>
      <trkpt lat="43.5806" lon="6.10441">
        <ele>474.2</ele>
        <time>2024-09-29T10:41:31.000Z</time>
      </trkpt>
      <trkpt lat="43.58061" lon="6.10441">
        <ele>474.2</ele>
        <time>2024-09-29T10:41:32.000Z</time>
      </trkpt>
      <trkpt lat="43.58058" lon="6.10437">
        <ele>474.3</ele>
        <time>2024-09-29T10:41:55.000Z</time>
      </trkpt>
      <trkpt lat="43.58058" lon="6.10437">
        <ele>474.3</ele>
        <time>2024-09-29T10:41:56.000Z</time>
      </trkpt>
      <trkpt lat="43.58058" lon="6.10437">
        <ele>474.3</ele>
        <time>2024-09-29T10:41:57.000Z</time>
      </trkpt>
      <trkpt lat="43.58058" lon="6.10437">
        <ele>474.3</ele>
        <time>2024-09-29T10:41:58.000Z</time>
      </trkpt>
      <trkpt lat="43.58058" lon="6.10437">
        <ele>474.3</ele>
        <time>2024-09-29T10:41:59.000Z</time>
      </trkpt>
      <trkpt lat="43.58058" lon="6.10437">
        <ele>474.3</ele>
        <time>2024-09-29T10:42:00.000Z</time>
      </trkpt>
      <trkpt lat="43.58058" lon="6.10437">
        <ele>474.3</ele>
        <time>2024-09-29T10:42:01.000Z</time>
      </trkpt>
      <trkpt lat="43.58058" lon="6.10437">
        <ele>474.3</ele>
        <time>2024-09-29T10:42:02.000Z</time>
      </trkpt>
      <trkpt lat="43.58058" lon="6.10437">
        <ele>474.3</ele>
        <time>2024-09-29T10:42:03.000Z</time>
      </trkpt>
      <trkpt lat="43.58057" lon="6.10436">
        <ele>474.4</ele>
        <time>2024-09-29T10:42:04.000Z</time>
      </trkpt>
      <trkpt lat="43.58057" lon="6.10436">
        <ele>474.4</ele>
        <time>2024-09-29T10:42:05.000Z</time>
      </trkpt>
      <trkpt lat="43.58058" lon="6.10436">
        <ele>474.4</ele>
        <time>2024-09-29T10:42:13.000Z</time>
      </trkpt>
      <trkpt lat="43.58058" lon="6.10436">
        <ele>474.4</ele>
        <time>2024-09-29T10:42:14.000Z</time>
      </trkpt>
      <trkpt lat="43.58058" lon="6.10436">
        <ele>474.5</ele>
        <time>2024-09-29T10:42:25.000Z</time>
      </trkpt>
      <trkpt lat="43.58058" lon="6.10436">
        <ele>474.5</ele>
        <time>2024-09-29T10:42:26.000Z</time>
      </trkpt>
      <trkpt lat="43.58058" lon="6.10436">
        <ele>474.5</ele>
        <time>2024-09-29T10:42:27.000Z</time>
      </trkpt>
      <trkpt lat="43.58058" lon="6.10436">
        <ele>474.5</ele>
        <time>2024-09-29T10:42:28.000Z</time>
      </trkpt>
      <trkpt lat="43.58058" lon="6.10436">
        <ele>474.5</ele>
        <time>2024-09-29T10:42:29.000Z</time>
      </trkpt>
      <trkpt lat="43.58058" lon="6.10436">
        <ele>474.5</ele>
        <time>2024-09-29T10:42:33.000Z</time>
      </trkpt>
      <trkpt lat="43.58058" lon="6.10436">
        <ele>474.5</ele>
        <time>2024-09-29T10:42:34.000Z</time>
      </trkpt>
      <trkpt lat="43.58058" lon="6.10436">
        <ele>474.5</ele>
        <time>2024-09-29T10:42:38.000Z</time>
      </trkpt>
      <trkpt lat="43.58058" lon="6.10436">
        <ele>474.5</ele>
        <time>2024-09-29T10:42:39.000Z</time>
      </trkpt>
      <trkpt lat="43.58058" lon="6.10436">
        <ele>474.5</ele>
        <time>2024-09-29T10:42:40.000Z</time>
      </trkpt>
      <trkpt lat="43.58058" lon="6.10436">
        <ele>474.5</ele>
        <time>2024-09-29T10:42:41.000Z</time>
      </trkpt>
      <trkpt lat="43.58058" lon="6.10436">
        <ele>474.5</ele>
        <time>2024-09-29T10:42:42.000Z</time>
      </trkpt>
      <trkpt lat="43.58058" lon="6.10436">
        <ele>474.5</ele>
        <time>2024-09-29T10:42:43.000Z</time>
      </trkpt>
      <trkpt lat="43.58058" lon="6.10436">
        <ele>474.5</ele>
        <time>2024-09-29T10:42:44.000Z</time>
      </trkpt>
      <trkpt lat="43.58058" lon="6.10435">
        <ele>474.5</ele>
        <time>2024-09-29T10:42:45.000Z</time>
      </trkpt>
      <trkpt lat="43.58059" lon="6.10435">
        <ele>474.5</ele>
        <time>2024-09-29T10:42:46.000Z</time>
      </trkpt>
      <trkpt lat="43.58058" lon="6.10435">
        <ele>474.5</ele>
        <time>2024-09-29T10:42:47.000Z</time>
      </trkpt>
      <trkpt lat="43.58058" lon="6.10435">
        <ele>474.4</ele>
        <time>2024-09-29T10:43:01.000Z</time>
      </trkpt>
      <trkpt lat="43.58058" lon="6.10435">
        <ele>474.4</ele>
        <time>2024-09-29T10:43:02.000Z</time>
      </trkpt>
      <trkpt lat="43.58058" lon="6.10435">
        <ele>474.4</ele>
        <time>2024-09-29T10:43:03.000Z</time>
      </trkpt>
      <trkpt lat="43.58057" lon="6.10435">
        <ele>474.4</ele>
        <time>2024-09-29T10:43:04.000Z</time>
      </trkpt>
      <trkpt lat="43.58057" lon="6.10436">
        <ele>474.4</ele>
        <time>2024-09-29T10:43:05.000Z</time>
      </trkpt>
      <trkpt lat="43.58057" lon="6.10437">
        <ele>474.4</ele>
        <time>2024-09-29T10:43:11.000Z</time>
      </trkpt>
      <trkpt lat="43.58057" lon="6.10437">
        <ele>474.4</ele>
        <time>2024-09-29T10:43:12.000Z</time>
      </trkpt>
      <trkpt lat="43.58057" lon="6.10437">
        <ele>474.4</ele>
        <time>2024-09-29T10:43:13.000Z</time>
      </trkpt>
      <trkpt lat="43.58057" lon="6.10437">
        <ele>474.3</ele>
        <time>2024-09-29T10:43:26.000Z</time>
      </trkpt>
      <trkpt lat="43.58057" lon="6.10437">
        <ele>474.3</ele>
        <time>2024-09-29T10:43:27.000Z</time>
      </trkpt>
      <trkpt lat="43.58057" lon="6.10437">
        <ele>474.3</ele>
        <time>2024-09-29T10:43:28.000Z</time>
      </trkpt>
      <trkpt lat="43.58057" lon="6.10437">
        <ele>474.3</ele>
        <time>2024-09-29T10:43:29.000Z</time>
      </trkpt>
      <trkpt lat="43.58057" lon="6.10437">
        <ele>474.3</ele>
        <time>2024-09-29T10:43:30.000Z</time>
      </trkpt>
      <trkpt lat="43.58057" lon="6.10437">
        <ele>474.2</ele>
        <time>2024-09-29T10:43:41.000Z</time>
      </trkpt>
      <trkpt lat="43.58057" lon="6.10437">
        <ele>474.2</ele>
        <time>2024-09-29T10:43:42.000Z</time>
      </trkpt>
      <trkpt lat="43.58057" lon="6.10437">
        <ele>474.2</ele>
        <time>2024-09-29T10:43:43.000Z</time>
      </trkpt>
      <trkpt lat="43.58057" lon="6.10437">
        <ele>474.2</ele>
        <time>2024-09-29T10:43:44.000Z</time>
      </trkpt>
      <trkpt lat="43.58057" lon="6.10437">
        <ele>474.2</ele>
        <time>2024-09-29T10:43:45.000Z</time>
      </trkpt>
      <trkpt lat="43.58057" lon="6.10437">
        <ele>474.1</ele>
        <time>2024-09-29T10:43:46.000Z</time>
      </trkpt>
      <trkpt lat="43.58057" lon="6.10437">
        <ele>474.1</ele>
        <time>2024-09-29T10:43:47.000Z</time>
      </trkpt>
      <trkpt lat="43.58058" lon="6.10438">
        <ele>474.1</ele>
        <time>2024-09-29T10:43:56.000Z</time>
      </trkpt>
      <trkpt lat="43.58058" lon="6.10438">
        <ele>474.1</ele>
        <time>2024-09-29T10:43:57.000Z</time>
      </trkpt>
      <trkpt lat="43.58058" lon="6.10438">
        <ele>473.9</ele>
        <time>2024-09-29T10:44:01.000Z</time>
      </trkpt>
      <trkpt lat="43.58058" lon="6.10438">
        <ele>473.9</ele>
        <time>2024-09-29T10:44:02.000Z</time>
      </trkpt>
      <trkpt lat="43.58058" lon="6.10438">
        <ele>473.7</ele>
        <time>2024-09-29T10:44:03.000Z</time>
      </trkpt>
      <trkpt lat="43.58065" lon="6.1044">
        <ele>465.1</ele>
        <time>2024-09-29T10:44:06.000Z</time>
      </trkpt>
      <trkpt lat="43.58068" lon="6.1044">
        <ele>474.7</ele>
        <time>2024-09-29T10:44:07.000Z</time>
      </trkpt>
      <trkpt lat="43.58065" lon="6.10438">
        <ele>481.6</ele>
        <time>2024-09-29T10:44:10.000Z</time>
      </trkpt>
      <trkpt lat="43.58064" lon="6.10437">
        <ele>479.5</ele>
        <time>2024-09-29T10:44:11.000Z</time>
      </trkpt>
      <trkpt lat="43.58063" lon="6.10435">
        <ele>477.7</ele>
        <time>2024-09-29T10:44:12.000Z</time>
      </trkpt>
      <trkpt lat="43.58061" lon="6.10434">
        <ele>474.6</ele>
        <time>2024-09-29T10:44:19.000Z</time>
      </trkpt>
      <trkpt lat="43.58061" lon="6.10434">
        <ele>474.5</ele>
        <time>2024-09-29T10:44:20.000Z</time>
      </trkpt>
      <trkpt lat="43.58061" lon="6.10434">
        <ele>473.9</ele>
        <time>2024-09-29T10:44:30.000Z</time>
      </trkpt>
      <trkpt lat="43.58061" lon="6.10434">
        <ele>473.9</ele>
        <time>2024-09-29T10:44:31.000Z</time>
      </trkpt>
      <trkpt lat="43.58061" lon="6.10434">
        <ele>474</ele>
        <time>2024-09-29T10:44:32.000Z</time>
      </trkpt>
      <trkpt lat="43.58061" lon="6.10434">
        <ele>474</ele>
        <time>2024-09-29T10:44:33.000Z</time>
      </trkpt>
      <trkpt lat="43.58061" lon="6.10434">
        <ele>474</ele>
        <time>2024-09-29T10:44:34.000Z</time>
      </trkpt>
      <trkpt lat="43.58061" lon="6.10434">
        <ele>474</ele>
        <time>2024-09-29T10:44:43.000Z</time>
      </trkpt>
      <trkpt lat="43.58061" lon="6.10434">
        <ele>473.9</ele>
        <time>2024-09-29T10:44:44.000Z</time>
      </trkpt>
      <trkpt lat="43.58061" lon="6.10434">
        <ele>473.9</ele>
        <time>2024-09-29T10:44:45.000Z</time>
      </trkpt>
      <trkpt lat="43.58061" lon="6.10434">
        <ele>473.9</ele>
        <time>2024-09-29T10:44:46.000Z</time>
      </trkpt>
      <trkpt lat="43.58061" lon="6.10434">
        <ele>473.9</ele>
        <time>2024-09-29T10:44:47.000Z</time>
      </trkpt>
      <trkpt lat="43.58061" lon="6.10435">
        <ele>473.8</ele>
        <time>2024-09-29T10:44:58.000Z</time>
      </trkpt>
      <trkpt lat="43.58061" lon="6.10435">
        <ele>473.8</ele>
        <time>2024-09-29T10:44:59.000Z</time>
      </trkpt>
      <trkpt lat="43.58061" lon="6.10435">
        <ele>473.8</ele>
        <time>2024-09-29T10:45:00.000Z</time>
      </trkpt>
      <trkpt lat="43.5806" lon="6.10435">
        <ele>473.8</ele>
        <time>2024-09-29T10:45:01.000Z</time>
      </trkpt>
      <trkpt lat="43.5806" lon="6.10435">
        <ele>473.8</ele>
        <time>2024-09-29T10:45:02.000Z</time>
      </trkpt>
      <trkpt lat="43.5806" lon="6.10435">
        <ele>473.8</ele>
        <time>2024-09-29T10:45:03.000Z</time>
      </trkpt>
      <trkpt lat="43.5806" lon="6.10435">
        <ele>473.8</ele>
        <time>2024-09-29T10:45:04.000Z</time>
      </trkpt>
      <trkpt lat="43.5806" lon="6.10435">
        <ele>473.8</ele>
        <time>2024-09-29T10:45:05.000Z</time>
      </trkpt>
      <trkpt lat="43.5806" lon="6.10435">
        <ele>473.8</ele>
        <time>2024-09-29T10:45:06.000Z</time>
      </trkpt>
      <trkpt lat="43.5806" lon="6.10435">
        <ele>473.8</ele>
        <time>2024-09-29T10:45:07.000Z</time>
      </trkpt>
      <trkpt lat="43.58061" lon="6.10435">
        <ele>473.7</ele>
        <time>2024-09-29T10:45:11.000Z</time>
      </trkpt>
      <trkpt lat="43.58061" lon="6.10436">
        <ele>473.7</ele>
        <time>2024-09-29T10:45:12.000Z</time>
      </trkpt>
      <trkpt lat="43.58061" lon="6.10436">
        <ele>473.7</ele>
        <time>2024-09-29T10:45:13.000Z</time>
      </trkpt>
      <trkpt lat="43.58058" lon="6.10435">
        <ele>473.7</ele>
        <time>2024-09-29T10:45:23.000Z</time>
      </trkpt>
      <trkpt lat="43.58058" lon="6.10435">
        <ele>473.7</ele>
        <time>2024-09-29T10:45:24.000Z</time>
      </trkpt>
      <trkpt lat="43.58058" lon="6.10435">
        <ele>473.7</ele>
        <time>2024-09-29T10:45:25.000Z</time>
      </trkpt>
      <trkpt lat="43.58055" lon="6.10436">
        <ele>473.6</ele>
        <time>2024-09-29T10:46:00.000Z</time>
      </trkpt>
      <trkpt lat="43.58055" lon="6.10436">
        <ele>473.5</ele>
        <time>2024-09-29T10:46:01.000Z</time>
      </trkpt>
      <trkpt lat="43.58055" lon="6.10436">
        <ele>473.5</ele>
        <time>2024-09-29T10:46:02.000Z</time>
      </trkpt>
      <trkpt lat="43.58055" lon="6.10436">
        <ele>473.5</ele>
        <time>2024-09-29T10:46:03.000Z</time>
      </trkpt>
      <trkpt lat="43.58055" lon="6.10436">
        <ele>473.5</ele>
        <time>2024-09-29T10:46:04.000Z</time>
      </trkpt>
      <trkpt lat="43.58055" lon="6.10436">
        <ele>473.4</ele>
        <time>2024-09-29T10:46:13.000Z</time>
      </trkpt>
      <trkpt lat="43.58054" lon="6.10436">
        <ele>473.4</ele>
        <time>2024-09-29T10:46:14.000Z</time>
      </trkpt>
      <trkpt lat="43.58054" lon="6.10436">
        <ele>473.4</ele>
        <time>2024-09-29T10:46:15.000Z</time>
      </trkpt>
      <trkpt lat="43.58054" lon="6.10436">
        <ele>473.4</ele>
        <time>2024-09-29T10:46:16.000Z</time>
      </trkpt>
      <trkpt lat="43.58054" lon="6.10436">
        <ele>473.4</ele>
        <time>2024-09-29T10:46:17.000Z</time>
      </trkpt>
      <trkpt lat="43.58054" lon="6.10436">
        <ele>473.4</ele>
        <time>2024-09-29T10:46:21.000Z</time>
      </trkpt>
      <trkpt lat="43.58054" lon="6.10436">
        <ele>473.4</ele>
        <time>2024-09-29T10:46:22.000Z</time>
      </trkpt>
      <trkpt lat="43.58054" lon="6.10436">
        <ele>473.4</ele>
        <time>2024-09-29T10:46:23.000Z</time>
      </trkpt>
      <trkpt lat="43.58054" lon="6.10436">
        <ele>473.5</ele>
        <time>2024-09-29T10:46:24.000Z</time>
      </trkpt>
      <trkpt lat="43.58054" lon="6.10436">
        <ele>473.5</ele>
        <time>2024-09-29T10:46:25.000Z</time>
      </trkpt>
      <trkpt lat="43.58054" lon="6.10436">
        <ele>473.5</ele>
        <time>2024-09-29T10:46:29.000Z</time>
      </trkpt>
      <trkpt lat="43.58054" lon="6.10436">
        <ele>473.5</ele>
        <time>2024-09-29T10:46:30.000Z</time>
      </trkpt>
      <trkpt lat="43.58054" lon="6.10436">
        <ele>473.5</ele>
        <time>2024-09-29T10:46:33.000Z</time>
      </trkpt>
      <trkpt lat="43.58055" lon="6.10436">
        <ele>473.5</ele>
        <time>2024-09-29T10:46:34.000Z</time>
      </trkpt>
      <trkpt lat="43.58055" lon="6.10436">
        <ele>473.5</ele>
        <time>2024-09-29T10:46:35.000Z</time>
      </trkpt>
      <trkpt lat="43.58054" lon="6.10437">
        <ele>473.6</ele>
        <time>2024-09-29T10:46:41.000Z</time>
      </trkpt>
      <trkpt lat="43.58054" lon="6.10438">
        <ele>473.6</ele>
        <time>2024-09-29T10:46:42.000Z</time>
      </trkpt>
      <trkpt lat="43.58054" lon="6.10438">
        <ele>473.5</ele>
        <time>2024-09-29T10:46:43.000Z</time>
      </trkpt>
      <trkpt lat="43.58055" lon="6.1044">
        <ele>473.5</ele>
        <time>2024-09-29T10:46:50.000Z</time>
      </trkpt>
      <trkpt lat="43.58055" lon="6.1044">
        <ele>473.5</ele>
        <time>2024-09-29T10:46:51.000Z</time>
      </trkpt>
      <trkpt lat="43.58055" lon="6.1044">
        <ele>473.5</ele>
        <time>2024-09-29T10:46:52.000Z</time>
      </trkpt>
      <trkpt lat="43.58056" lon="6.1044">
        <ele>473.4</ele>
        <time>2024-09-29T10:47:06.000Z</time>
      </trkpt>
      <trkpt lat="43.58056" lon="6.1044">
        <ele>473.4</ele>
        <time>2024-09-29T10:47:07.000Z</time>
      </trkpt>
      <trkpt lat="43.58056" lon="6.1044">
        <ele>473.4</ele>
        <time>2024-09-29T10:47:08.000Z</time>
      </trkpt>
      <trkpt lat="43.58056" lon="6.1044">
        <ele>473.4</ele>
        <time>2024-09-29T10:47:09.000Z</time>
      </trkpt>
      <trkpt lat="43.58055" lon="6.1044">
        <ele>473.4</ele>
        <time>2024-09-29T10:47:28.000Z</time>
      </trkpt>
      <trkpt lat="43.58055" lon="6.1044">
        <ele>473.4</ele>
        <time>2024-09-29T10:47:29.000Z</time>
      </trkpt>
      <trkpt lat="43.58055" lon="6.1044">
        <ele>473.4</ele>
        <time>2024-09-29T10:47:30.000Z</time>
      </trkpt>
      <trkpt lat="43.58055" lon="6.1044">
        <ele>473.4</ele>
        <time>2024-09-29T10:47:33.000Z</time>
      </trkpt>
      <trkpt lat="43.58055" lon="6.1044">
        <ele>473.4</ele>
        <time>2024-09-29T10:47:34.000Z</time>
      </trkpt>
      <trkpt lat="43.58055" lon="6.1044">
        <ele>473.4</ele>
        <time>2024-09-29T10:47:35.000Z</time>
      </trkpt>
      <trkpt lat="43.58055" lon="6.1044">
        <ele>473.3</ele>
        <time>2024-09-29T10:47:36.000Z</time>
      </trkpt>
      <trkpt lat="43.58055" lon="6.1044">
        <ele>473.3</ele>
        <time>2024-09-29T10:47:37.000Z</time>
      </trkpt>
      <trkpt lat="43.58055" lon="6.1044">
        <ele>473.4</ele>
        <time>2024-09-29T10:47:38.000Z</time>
      </trkpt>
      <trkpt lat="43.58056" lon="6.10438">
        <ele>473.3</ele>
        <time>2024-09-29T10:48:05.000Z</time>
      </trkpt>
      <trkpt lat="43.58056" lon="6.10438">
        <ele>473.3</ele>
        <time>2024-09-29T10:48:06.000Z</time>
      </trkpt>
      <trkpt lat="43.58056" lon="6.10438">
        <ele>473.3</ele>
        <time>2024-09-29T10:48:07.000Z</time>
      </trkpt>
      <trkpt lat="43.58055" lon="6.10439">
        <ele>473.3</ele>
        <time>2024-09-29T10:48:11.000Z</time>
      </trkpt>
      <trkpt lat="43.58055" lon="6.10439">
        <ele>473.3</ele>
        <time>2024-09-29T10:48:12.000Z</time>
      </trkpt>
      <trkpt lat="43.58055" lon="6.10439">
        <ele>473.2</ele>
        <time>2024-09-29T10:48:13.000Z</time>
      </trkpt>
      <trkpt lat="43.58055" lon="6.10439">
        <ele>473.2</ele>
        <time>2024-09-29T10:48:14.000Z</time>
      </trkpt>
      <trkpt lat="43.58055" lon="6.10439">
        <ele>473.2</ele>
        <time>2024-09-29T10:48:15.000Z</time>
      </trkpt>
      <trkpt lat="43.58055" lon="6.10439">
        <ele>473.2</ele>
        <time>2024-09-29T10:48:20.000Z</time>
      </trkpt>
      <trkpt lat="43.58055" lon="6.1044">
        <ele>473.2</ele>
        <time>2024-09-29T10:48:21.000Z</time>
      </trkpt>
      <trkpt lat="43.58056" lon="6.1044">
        <ele>473.2</ele>
        <time>2024-09-29T10:48:22.000Z</time>
      </trkpt>
      <trkpt lat="43.58056" lon="6.1044">
        <ele>473.2</ele>
        <time>2024-09-29T10:48:28.000Z</time>
      </trkpt>
      <trkpt lat="43.58056" lon="6.1044">
        <ele>473.2</ele>
        <time>2024-09-29T10:48:29.000Z</time>
      </trkpt>
      <trkpt lat="43.58056" lon="6.10439">
        <ele>473.2</ele>
        <time>2024-09-29T10:48:48.000Z</time>
      </trkpt>
      <trkpt lat="43.58056" lon="6.10439">
        <ele>473.2</ele>
        <time>2024-09-29T10:48:49.000Z</time>
      </trkpt>
      <trkpt lat="43.58056" lon="6.10439">
        <ele>473.2</ele>
        <time>2024-09-29T10:48:50.000Z</time>
      </trkpt>
      <trkpt lat="43.58056" lon="6.10439">
        <ele>473.3</ele>
        <time>2024-09-29T10:48:54.000Z</time>
      </trkpt>
      <trkpt lat="43.58056" lon="6.10439">
        <ele>473.3</ele>
        <time>2024-09-29T10:48:55.000Z</time>
      </trkpt>
      <trkpt lat="43.58056" lon="6.10438">
        <ele>473.4</ele>
        <time>2024-09-29T10:49:53.000Z</time>
      </trkpt>
      <trkpt lat="43.58056" lon="6.10438">
        <ele>473.4</ele>
        <time>2024-09-29T10:49:54.000Z</time>
      </trkpt>
      <trkpt lat="43.58056" lon="6.10438">
        <ele>473.4</ele>
        <time>2024-09-29T10:49:55.000Z</time>
      </trkpt>
      <trkpt lat="43.58056" lon="6.10438">
        <ele>473.4</ele>
        <time>2024-09-29T10:49:56.000Z</time>
      </trkpt>
      <trkpt lat="43.58056" lon="6.10438">
        <ele>473.4</ele>
        <time>2024-09-29T10:49:57.000Z</time>
      </trkpt>
      <trkpt lat="43.58057" lon="6.10437">
        <ele>473.5</ele>
        <time>2024-09-29T10:50:28.000Z</time>
      </trkpt>
      <trkpt lat="43.58057" lon="6.10437">
        <ele>473.5</ele>
        <time>2024-09-29T10:50:29.000Z</time>
      </trkpt>
      <trkpt lat="43.58057" lon="6.10437">
        <ele>473.5</ele>
        <time>2024-09-29T10:50:30.000Z</time>
      </trkpt>
      <trkpt lat="43.58057" lon="6.10437">
        <ele>473.5</ele>
        <time>2024-09-29T10:50:31.000Z</time>
      </trkpt>
      <trkpt lat="43.58057" lon="6.10437">
        <ele>473.5</ele>
        <time>2024-09-29T10:50:32.000Z</time>
      </trkpt>
      <trkpt lat="43.58058" lon="6.10436">
        <ele>473.5</ele>
        <time>2024-09-29T10:50:35.000Z</time>
      </trkpt>
      <trkpt lat="43.58058" lon="6.10436">
        <ele>473.5</ele>
        <time>2024-09-29T10:50:36.000Z</time>
      </trkpt>
      <trkpt lat="43.58058" lon="6.10436">
        <ele>473.5</ele>
        <time>2024-09-29T10:50:37.000Z</time>
      </trkpt>
      <trkpt lat="43.58058" lon="6.10436">
        <ele>473.5</ele>
        <time>2024-09-29T10:50:38.000Z</time>
      </trkpt>
      <trkpt lat="43.58058" lon="6.10436">
        <ele>473.5</ele>
        <time>2024-09-29T10:50:39.000Z</time>
      </trkpt>
      <trkpt lat="43.58058" lon="6.10435">
        <ele>473.3</ele>
        <time>2024-09-29T10:51:09.000Z</time>
      </trkpt>
      <trkpt lat="43.58058" lon="6.10435">
        <ele>473.3</ele>
        <time>2024-09-29T10:51:10.000Z</time>
      </trkpt>
      <trkpt lat="43.58058" lon="6.10436">
        <ele>473.3</ele>
        <time>2024-09-29T10:51:13.000Z</time>
      </trkpt>
      <trkpt lat="43.58058" lon="6.10436">
        <ele>473.3</ele>
        <time>2024-09-29T10:51:14.000Z</time>
      </trkpt>
      <trkpt lat="43.58058" lon="6.10436">
        <ele>473.2</ele>
        <time>2024-09-29T10:51:50.000Z</time>
      </trkpt>
      <trkpt lat="43.58058" lon="6.10436">
        <ele>473.2</ele>
        <time>2024-09-29T10:51:51.000Z</time>
      </trkpt>
      <trkpt lat="43.58058" lon="6.10436">
        <ele>473.2</ele>
        <time>2024-09-29T10:51:52.000Z</time>
      </trkpt>
      <trkpt lat="43.58058" lon="6.10436">
        <ele>473.2</ele>
        <time>2024-09-29T10:51:53.000Z</time>
      </trkpt>
      <trkpt lat="43.58058" lon="6.10436">
        <ele>473.2</ele>
        <time>2024-09-29T10:51:54.000Z</time>
      </trkpt>
      <trkpt lat="43.58058" lon="6.10436">
        <ele>473.2</ele>
        <time>2024-09-29T10:51:55.000Z</time>
      </trkpt>
      <trkpt lat="43.58058" lon="6.10436">
        <ele>473.3</ele>
        <time>2024-09-29T10:52:40.000Z</time>
      </trkpt>
      <trkpt lat="43.58058" lon="6.10436">
        <ele>473.3</ele>
        <time>2024-09-29T10:52:41.000Z</time>
      </trkpt>
      <trkpt lat="43.58058" lon="6.10436">
        <ele>473.3</ele>
        <time>2024-09-29T10:52:42.000Z</time>
      </trkpt>
      <trkpt lat="43.58058" lon="6.10436">
        <ele>473.3</ele>
        <time>2024-09-29T10:52:43.000Z</time>
      </trkpt>
      <trkpt lat="43.58058" lon="6.10436">
        <ele>473.3</ele>
        <time>2024-09-29T10:52:44.000Z</time>
      </trkpt>
      <trkpt lat="43.58058" lon="6.10436">
        <ele>473.5</ele>
        <time>2024-09-29T10:53:28.000Z</time>
      </trkpt>
      <trkpt lat="43.58058" lon="6.10436">
        <ele>473.5</ele>
        <time>2024-09-29T10:53:29.000Z</time>
      </trkpt>
      <trkpt lat="43.58058" lon="6.10436">
        <ele>473.5</ele>
        <time>2024-09-29T10:53:30.000Z</time>
      </trkpt>
      <trkpt lat="43.58058" lon="6.10436">
        <ele>473.5</ele>
        <time>2024-09-29T10:53:31.000Z</time>
      </trkpt>
      <trkpt lat="43.58058" lon="6.10436">
        <ele>473.5</ele>
        <time>2024-09-29T10:53:32.000Z</time>
      </trkpt>
      <trkpt lat="43.58058" lon="6.10436">
        <ele>473.5</ele>
        <time>2024-09-29T10:53:36.000Z</time>
      </trkpt>
      <trkpt lat="43.58058" lon="6.10436">
        <ele>473.5</ele>
        <time>2024-09-29T10:53:37.000Z</time>
      </trkpt>
      <trkpt lat="43.58058" lon="6.10436">
        <ele>473.5</ele>
        <time>2024-09-29T10:53:38.000Z</time>
      </trkpt>
      <trkpt lat="43.58058" lon="6.10436">
        <ele>473.5</ele>
        <time>2024-09-29T10:53:39.000Z</time>
      </trkpt>
      <trkpt lat="43.58058" lon="6.10435">
        <ele>473.5</ele>
        <time>2024-09-29T10:53:40.000Z</time>
      </trkpt>
      <trkpt lat="43.58059" lon="6.10435">
        <ele>473.5</ele>
        <time>2024-09-29T10:53:48.000Z</time>
      </trkpt>
      <trkpt lat="43.58059" lon="6.10435">
        <ele>473.5</ele>
        <time>2024-09-29T10:53:49.000Z</time>
      </trkpt>
      <trkpt lat="43.58059" lon="6.10435">
        <ele>473.5</ele>
        <time>2024-09-29T10:53:50.000Z</time>
      </trkpt>
      <trkpt lat="43.58059" lon="6.10435">
        <ele>473.5</ele>
        <time>2024-09-29T10:53:51.000Z</time>
      </trkpt>
      <trkpt lat="43.58059" lon="6.10435">
        <ele>473.5</ele>
        <time>2024-09-29T10:53:52.000Z</time>
      </trkpt>
      <trkpt lat="43.58059" lon="6.10435">
        <ele>473.4</ele>
        <time>2024-09-29T10:53:58.000Z</time>
      </trkpt>
      <trkpt lat="43.58059" lon="6.10435">
        <ele>473.4</ele>
        <time>2024-09-29T10:53:59.000Z</time>
      </trkpt>
      <trkpt lat="43.58059" lon="6.10435">
        <ele>473.5</ele>
        <time>2024-09-29T10:54:06.000Z</time>
      </trkpt>
      <trkpt lat="43.58059" lon="6.10435">
        <ele>473.4</ele>
        <time>2024-09-29T10:54:07.000Z</time>
      </trkpt>
      <trkpt lat="43.58059" lon="6.10435">
        <ele>473.4</ele>
        <time>2024-09-29T10:54:08.000Z</time>
      </trkpt>
      <trkpt lat="43.58059" lon="6.10435">
        <ele>473.3</ele>
        <time>2024-09-29T10:54:16.000Z</time>
      </trkpt>
      <trkpt lat="43.58059" lon="6.10435">
        <ele>473.3</ele>
        <time>2024-09-29T10:54:17.000Z</time>
      </trkpt>
      <trkpt lat="43.58059" lon="6.10435">
        <ele>473.4</ele>
        <time>2024-09-29T10:54:18.000Z</time>
      </trkpt>
      <trkpt lat="43.58059" lon="6.10435">
        <ele>473.4</ele>
        <time>2024-09-29T10:54:19.000Z</time>
      </trkpt>
      <trkpt lat="43.58059" lon="6.10435">
        <ele>473.3</ele>
        <time>2024-09-29T10:54:23.000Z</time>
      </trkpt>
      <trkpt lat="43.58059" lon="6.10435">
        <ele>473.4</ele>
        <time>2024-09-29T10:54:24.000Z</time>
      </trkpt>
      <trkpt lat="43.58059" lon="6.10436">
        <ele>473.4</ele>
        <time>2024-09-29T10:54:33.000Z</time>
      </trkpt>
      <trkpt lat="43.58059" lon="6.10436">
        <ele>473.4</ele>
        <time>2024-09-29T10:54:34.000Z</time>
      </trkpt>
      <trkpt lat="43.58059" lon="6.10436">
        <ele>473.4</ele>
        <time>2024-09-29T10:54:38.000Z</time>
      </trkpt>
      <trkpt lat="43.58059" lon="6.10436">
        <ele>473.4</ele>
        <time>2024-09-29T10:54:39.000Z</time>
      </trkpt>
      <trkpt lat="43.58059" lon="6.10436">
        <ele>473.4</ele>
        <time>2024-09-29T10:54:40.000Z</time>
      </trkpt>
      <trkpt lat="43.58059" lon="6.10436">
        <ele>473.4</ele>
        <time>2024-09-29T10:54:41.000Z</time>
      </trkpt>
      <trkpt lat="43.58059" lon="6.10436">
        <ele>473.4</ele>
        <time>2024-09-29T10:54:42.000Z</time>
      </trkpt>
      <trkpt lat="43.5806" lon="6.10435">
        <ele>473.4</ele>
        <time>2024-09-29T10:54:51.000Z</time>
      </trkpt>
      <trkpt lat="43.5806" lon="6.10435">
        <ele>473.4</ele>
        <time>2024-09-29T10:54:52.000Z</time>
      </trkpt>
      <trkpt lat="43.58059" lon="6.10435">
        <ele>473.4</ele>
        <time>2024-09-29T10:54:53.000Z</time>
      </trkpt>
      <trkpt lat="43.58059" lon="6.10436">
        <ele>473.4</ele>
        <time>2024-09-29T10:55:03.000Z</time>
      </trkpt>
      <trkpt lat="43.58059" lon="6.10436">
        <ele>473.4</ele>
        <time>2024-09-29T10:55:04.000Z</time>
      </trkpt>
      <trkpt lat="43.58059" lon="6.10436">
        <ele>473.4</ele>
        <time>2024-09-29T10:55:05.000Z</time>
      </trkpt>
      <trkpt lat="43.58059" lon="6.10436">
        <ele>473.4</ele>
        <time>2024-09-29T10:55:09.000Z</time>
      </trkpt>
      <trkpt lat="43.58059" lon="6.10436">
        <ele>473.4</ele>
        <time>2024-09-29T10:55:10.000Z</time>
      </trkpt>
      <trkpt lat="43.58059" lon="6.10436">
        <ele>473.4</ele>
        <time>2024-09-29T10:55:11.000Z</time>
      </trkpt>
      <trkpt lat="43.58059" lon="6.10436">
        <ele>473.4</ele>
        <time>2024-09-29T10:55:12.000Z</time>
      </trkpt>
      <trkpt lat="43.58059" lon="6.10436">
        <ele>473.4</ele>
        <time>2024-09-29T10:55:35.000Z</time>
      </trkpt>
      <trkpt lat="43.58059" lon="6.10436">
        <ele>473.4</ele>
        <time>2024-09-29T10:55:36.000Z</time>
      </trkpt>
      <trkpt lat="43.58059" lon="6.10436">
        <ele>473.4</ele>
        <time>2024-09-29T10:55:37.000Z</time>
      </trkpt>
      <trkpt lat="43.58059" lon="6.10436">
        <ele>473.5</ele>
        <time>2024-09-29T10:55:38.000Z</time>
      </trkpt>
      <trkpt lat="43.58059" lon="6.10436">
        <ele>473.5</ele>
        <time>2024-09-29T10:55:39.000Z</time>
      </trkpt>
      <trkpt lat="43.58059" lon="6.10436">
        <ele>473.5</ele>
        <time>2024-09-29T10:55:48.000Z</time>
      </trkpt>
      <trkpt lat="43.58059" lon="6.10436">
        <ele>473.5</ele>
        <time>2024-09-29T10:55:49.000Z</time>
      </trkpt>
      <trkpt lat="43.58059" lon="6.10436">
        <ele>473.5</ele>
        <time>2024-09-29T10:55:50.000Z</time>
      </trkpt>
      <trkpt lat="43.58059" lon="6.10436">
        <ele>473.5</ele>
        <time>2024-09-29T10:55:51.000Z</time>
      </trkpt>
      <trkpt lat="43.58059" lon="6.10436">
        <ele>473.5</ele>
        <time>2024-09-29T10:55:52.000Z</time>
      </trkpt>
      <trkpt lat="43.58059" lon="6.10436">
        <ele>473.4</ele>
        <time>2024-09-29T10:55:56.000Z</time>
      </trkpt>
      <trkpt lat="43.58059" lon="6.10436">
        <ele>473.4</ele>
        <time>2024-09-29T10:55:57.000Z</time>
      </trkpt>
      <trkpt lat="43.58059" lon="6.10436">
        <ele>473.4</ele>
        <time>2024-09-29T10:55:58.000Z</time>
      </trkpt>
      <trkpt lat="43.58059" lon="6.10436">
        <ele>473.4</ele>
        <time>2024-09-29T10:55:59.000Z</time>
      </trkpt>
      <trkpt lat="43.58059" lon="6.10437">
        <ele>472.6</ele>
        <time>2024-09-29T10:56:36.000Z</time>
      </trkpt>
      <trkpt lat="43.58059" lon="6.10437">
        <ele>472.6</ele>
        <time>2024-09-29T10:56:37.000Z</time>
      </trkpt>
      <trkpt lat="43.58059" lon="6.10437">
        <ele>472.6</ele>
        <time>2024-09-29T10:56:40.000Z</time>
      </trkpt>
      <trkpt lat="43.58059" lon="6.10437">
        <ele>472.7</ele>
        <time>2024-09-29T10:56:41.000Z</time>
      </trkpt>
      <trkpt lat="43.58059" lon="6.10437">
        <ele>472.7</ele>
        <time>2024-09-29T10:56:42.000Z</time>
      </trkpt>
      <trkpt lat="43.5806" lon="6.10439">
        <ele>472.8</ele>
        <time>2024-09-29T10:59:04.000Z</time>
      </trkpt>
      <trkpt lat="43.5806" lon="6.10439">
        <ele>472.8</ele>
        <time>2024-09-29T10:59:05.000Z</time>
      </trkpt>
      <trkpt lat="43.5806" lon="6.10439">
        <ele>472.8</ele>
        <time>2024-09-29T10:59:06.000Z</time>
      </trkpt>
      <trkpt lat="43.5806" lon="6.10439">
        <ele>472.8</ele>
        <time>2024-09-29T10:59:07.000Z</time>
      </trkpt>
      <trkpt lat="43.58059" lon="6.10439">
        <ele>472.9</ele>
        <time>2024-09-29T11:00:43.000Z</time>
      </trkpt>
      <trkpt lat="43.58059" lon="6.10439">
        <ele>472.9</ele>
        <time>2024-09-29T11:00:44.000Z</time>
      </trkpt>
      <trkpt lat="43.58059" lon="6.10439">
        <ele>472.9</ele>
        <time>2024-09-29T11:00:45.000Z</time>
      </trkpt>
      <trkpt lat="43.58059" lon="6.10439">
        <ele>472.9</ele>
        <time>2024-09-29T11:00:48.000Z</time>
      </trkpt>
      <trkpt lat="43.58059" lon="6.10439">
        <ele>472.9</ele>
        <time>2024-09-29T11:00:49.000Z</time>
      </trkpt>
      <trkpt lat="43.58059" lon="6.10439">
        <ele>473</ele>
        <time>2024-09-29T11:00:58.000Z</time>
      </trkpt>
      <trkpt lat="43.58059" lon="6.10439">
        <ele>473</ele>
        <time>2024-09-29T11:00:59.000Z</time>
      </trkpt>
      <trkpt lat="43.58059" lon="6.10439">
        <ele>473</ele>
        <time>2024-09-29T11:01:00.000Z</time>
      </trkpt>
      <trkpt lat="43.58059" lon="6.10439">
        <ele>473</ele>
        <time>2024-09-29T11:01:01.000Z</time>
      </trkpt>
      <trkpt lat="43.58059" lon="6.10439">
        <ele>473</ele>
        <time>2024-09-29T11:01:02.000Z</time>
      </trkpt>
      <trkpt lat="43.58059" lon="6.10439">
        <ele>473</ele>
        <time>2024-09-29T11:01:03.000Z</time>
      </trkpt>
      <trkpt lat="43.58059" lon="6.10439">
        <ele>473</ele>
        <time>2024-09-29T11:01:13.000Z</time>
      </trkpt>
      <trkpt lat="43.58059" lon="6.10439">
        <ele>473</ele>
        <time>2024-09-29T11:01:14.000Z</time>
      </trkpt>
      <trkpt lat="43.58059" lon="6.10439">
        <ele>473</ele>
        <time>2024-09-29T11:01:15.000Z</time>
      </trkpt>
      <trkpt lat="43.58059" lon="6.10439">
        <ele>473</ele>
        <time>2024-09-29T11:01:16.000Z</time>
      </trkpt>
      <trkpt lat="43.58059" lon="6.10439">
        <ele>473</ele>
        <time>2024-09-29T11:01:17.000Z</time>
      </trkpt>
      <trkpt lat="43.58059" lon="6.10439">
        <ele>473</ele>
        <time>2024-09-29T11:01:23.000Z</time>
      </trkpt>
      <trkpt lat="43.58059" lon="6.10439">
        <ele>473</ele>
        <time>2024-09-29T11:01:24.000Z</time>
      </trkpt>
      <trkpt lat="43.58059" lon="6.10439">
        <ele>473</ele>
        <time>2024-09-29T11:01:25.000Z</time>
      </trkpt>
      <trkpt lat="43.58059" lon="6.10439">
        <ele>473</ele>
        <time>2024-09-29T11:01:26.000Z</time>
      </trkpt>
      <trkpt lat="43.58059" lon="6.10439">
        <ele>473</ele>
        <time>2024-09-29T11:01:27.000Z</time>
      </trkpt>
      <trkpt lat="43.58059" lon="6.10439">
        <ele>473</ele>
        <time>2024-09-29T11:01:43.000Z</time>
      </trkpt>
      <trkpt lat="43.58059" lon="6.10439">
        <ele>473</ele>
        <time>2024-09-29T11:01:44.000Z</time>
      </trkpt>
      <trkpt lat="43.58058" lon="6.10438">
        <ele>473.1</ele>
        <time>2024-09-29T11:02:05.000Z</time>
      </trkpt>
      <trkpt lat="43.58058" lon="6.10438">
        <ele>473.1</ele>
        <time>2024-09-29T11:02:06.000Z</time>
      </trkpt>
      <trkpt lat="43.58058" lon="6.10438">
        <ele>473.1</ele>
        <time>2024-09-29T11:02:07.000Z</time>
      </trkpt>
      <trkpt lat="43.58058" lon="6.10438">
        <ele>473.1</ele>
        <time>2024-09-29T11:02:08.000Z</time>
      </trkpt>
      <trkpt lat="43.58058" lon="6.10438">
        <ele>473.1</ele>
        <time>2024-09-29T11:02:09.000Z</time>
      </trkpt>
      <trkpt lat="43.58058" lon="6.10438">
        <ele>473.1</ele>
        <time>2024-09-29T11:02:10.000Z</time>
      </trkpt>
      <trkpt lat="43.58058" lon="6.10438">
        <ele>473.1</ele>
        <time>2024-09-29T11:02:11.000Z</time>
      </trkpt>
      <trkpt lat="43.58058" lon="6.10438">
        <ele>473.1</ele>
        <time>2024-09-29T11:02:12.000Z</time>
      </trkpt>
      <trkpt lat="43.58057" lon="6.10438">
        <ele>473.1</ele>
        <time>2024-09-29T11:02:29.000Z</time>
      </trkpt>
      <trkpt lat="43.58057" lon="6.10438">
        <ele>473.1</ele>
        <time>2024-09-29T11:02:30.000Z</time>
      </trkpt>
      <trkpt lat="43.58057" lon="6.10438">
        <ele>473.1</ele>
        <time>2024-09-29T11:02:31.000Z</time>
      </trkpt>
      <trkpt lat="43.58057" lon="6.10438">
        <ele>473.1</ele>
        <time>2024-09-29T11:02:32.000Z</time>
      </trkpt>
      <trkpt lat="43.58057" lon="6.10438">
        <ele>473.1</ele>
        <time>2024-09-29T11:02:33.000Z</time>
      </trkpt>
      <trkpt lat="43.58057" lon="6.10439">
        <ele>473.2</ele>
        <time>2024-09-29T11:02:38.000Z</time>
      </trkpt>
      <trkpt lat="43.58057" lon="6.10439">
        <ele>473.2</ele>
        <time>2024-09-29T11:02:39.000Z</time>
      </trkpt>
      <trkpt lat="43.58057" lon="6.10439">
        <ele>473.2</ele>
        <time>2024-09-29T11:02:40.000Z</time>
      </trkpt>
      <trkpt lat="43.58057" lon="6.10439">
        <ele>473.2</ele>
        <time>2024-09-29T11:02:41.000Z</time>
      </trkpt>
      <trkpt lat="43.58057" lon="6.10439">
        <ele>473.2</ele>
        <time>2024-09-29T11:02:42.000Z</time>
      </trkpt>
      <trkpt lat="43.58057" lon="6.10439">
        <ele>473.2</ele>
        <time>2024-09-29T11:02:50.000Z</time>
      </trkpt>
      <trkpt lat="43.58057" lon="6.10439">
        <ele>473.2</ele>
        <time>2024-09-29T11:02:51.000Z</time>
      </trkpt>
      <trkpt lat="43.58057" lon="6.10439">
        <ele>473.2</ele>
        <time>2024-09-29T11:02:52.000Z</time>
      </trkpt>
      <trkpt lat="43.58057" lon="6.10439">
        <ele>473.2</ele>
        <time>2024-09-29T11:02:53.000Z</time>
      </trkpt>
      <trkpt lat="43.58057" lon="6.10439">
        <ele>473.2</ele>
        <time>2024-09-29T11:02:54.000Z</time>
      </trkpt>
      <trkpt lat="43.58057" lon="6.10439">
        <ele>473.2</ele>
        <time>2024-09-29T11:02:55.000Z</time>
      </trkpt>
      <trkpt lat="43.58057" lon="6.10439">
        <ele>473.2</ele>
        <time>2024-09-29T11:03:00.000Z</time>
      </trkpt>
      <trkpt lat="43.58057" lon="6.10439">
        <ele>473.2</ele>
        <time>2024-09-29T11:03:01.000Z</time>
      </trkpt>
      <trkpt lat="43.58057" lon="6.10439">
        <ele>473.2</ele>
        <time>2024-09-29T11:03:02.000Z</time>
      </trkpt>
      <trkpt lat="43.58057" lon="6.10439">
        <ele>473.2</ele>
        <time>2024-09-29T11:03:03.000Z</time>
      </trkpt>
      <trkpt lat="43.58057" lon="6.10439">
        <ele>473.2</ele>
        <time>2024-09-29T11:03:04.000Z</time>
      </trkpt>
      <trkpt lat="43.58057" lon="6.10439">
        <ele>473.2</ele>
        <time>2024-09-29T11:03:14.000Z</time>
      </trkpt>
      <trkpt lat="43.58057" lon="6.10439">
        <ele>473.3</ele>
        <time>2024-09-29T11:03:15.000Z</time>
      </trkpt>
      <trkpt lat="43.58059" lon="6.10437">
        <ele>473.3</ele>
        <time>2024-09-29T11:03:23.000Z</time>
      </trkpt>
      <trkpt lat="43.58059" lon="6.10437">
        <ele>473.3</ele>
        <time>2024-09-29T11:03:24.000Z</time>
      </trkpt>
      <trkpt lat="43.58058" lon="6.10437">
        <ele>473.3</ele>
        <time>2024-09-29T11:03:25.000Z</time>
      </trkpt>
      <trkpt lat="43.58058" lon="6.10437">
        <ele>473.3</ele>
        <time>2024-09-29T11:03:26.000Z</time>
      </trkpt>
      <trkpt lat="43.58057" lon="6.10437">
        <ele>473.3</ele>
        <time>2024-09-29T11:03:27.000Z</time>
      </trkpt>
      <trkpt lat="43.58057" lon="6.10437">
        <ele>473.3</ele>
        <time>2024-09-29T11:03:28.000Z</time>
      </trkpt>
      <trkpt lat="43.58051" lon="6.10437">
        <ele>473.1</ele>
        <time>2024-09-29T11:03:41.000Z</time>
      </trkpt>
      <trkpt lat="43.58051" lon="6.10438">
        <ele>473.1</ele>
        <time>2024-09-29T11:03:42.000Z</time>
      </trkpt>
      <trkpt lat="43.58051" lon="6.10437">
        <ele>473</ele>
        <time>2024-09-29T11:03:43.000Z</time>
      </trkpt>
      <trkpt lat="43.58052" lon="6.10437">
        <ele>473</ele>
        <time>2024-09-29T11:03:44.000Z</time>
      </trkpt>
      <trkpt lat="43.58052" lon="6.10437">
        <ele>473</ele>
        <time>2024-09-29T11:03:48.000Z</time>
      </trkpt>
      <trkpt lat="43.58052" lon="6.10437">
        <ele>473</ele>
        <time>2024-09-29T11:03:49.000Z</time>
      </trkpt>
      <trkpt lat="43.58052" lon="6.10437">
        <ele>473</ele>
        <time>2024-09-29T11:03:50.000Z</time>
      </trkpt>
      <trkpt lat="43.58053" lon="6.10438">
        <ele>472.9</ele>
        <time>2024-09-29T11:03:54.000Z</time>
      </trkpt>
      <trkpt lat="43.58054" lon="6.10438">
        <ele>472.9</ele>
        <time>2024-09-29T11:03:55.000Z</time>
      </trkpt>
      <trkpt lat="43.58055" lon="6.10438">
        <ele>472.9</ele>
        <time>2024-09-29T11:04:00.000Z</time>
      </trkpt>
      <trkpt lat="43.58055" lon="6.10438">
        <ele>472.9</ele>
        <time>2024-09-29T11:04:01.000Z</time>
      </trkpt>
      <trkpt lat="43.58055" lon="6.10438">
        <ele>472.9</ele>
        <time>2024-09-29T11:04:02.000Z</time>
      </trkpt>
      <trkpt lat="43.58055" lon="6.10438">
        <ele>473</ele>
        <time>2024-09-29T11:04:21.000Z</time>
      </trkpt>
      <trkpt lat="43.58055" lon="6.10438">
        <ele>473</ele>
        <time>2024-09-29T11:04:22.000Z</time>
      </trkpt>
      <trkpt lat="43.58055" lon="6.10438">
        <ele>473</ele>
        <time>2024-09-29T11:04:26.000Z</time>
      </trkpt>
      <trkpt lat="43.58055" lon="6.10438">
        <ele>473</ele>
        <time>2024-09-29T11:04:27.000Z</time>
      </trkpt>
      <trkpt lat="43.58055" lon="6.10438">
        <ele>473</ele>
        <time>2024-09-29T11:04:31.000Z</time>
      </trkpt>
      <trkpt lat="43.58055" lon="6.10438">
        <ele>473</ele>
        <time>2024-09-29T11:04:32.000Z</time>
      </trkpt>
      <trkpt lat="43.58055" lon="6.10438">
        <ele>473</ele>
        <time>2024-09-29T11:04:35.000Z</time>
      </trkpt>
      <trkpt lat="43.58055" lon="6.10438">
        <ele>473</ele>
        <time>2024-09-29T11:04:36.000Z</time>
      </trkpt>
      <trkpt lat="43.58055" lon="6.10438">
        <ele>473</ele>
        <time>2024-09-29T11:04:37.000Z</time>
      </trkpt>
      <trkpt lat="43.58055" lon="6.10438">
        <ele>473</ele>
        <time>2024-09-29T11:04:43.000Z</time>
      </trkpt>
      <trkpt lat="43.58055" lon="6.10438">
        <ele>473</ele>
        <time>2024-09-29T11:04:44.000Z</time>
      </trkpt>
      <trkpt lat="43.58055" lon="6.10438">
        <ele>473</ele>
        <time>2024-09-29T11:04:45.000Z</time>
      </trkpt>
      <trkpt lat="43.58055" lon="6.10438">
        <ele>473</ele>
        <time>2024-09-29T11:04:46.000Z</time>
      </trkpt>
      <trkpt lat="43.58055" lon="6.10438">
        <ele>473</ele>
        <time>2024-09-29T11:04:47.000Z</time>
      </trkpt>
      <trkpt lat="43.58055" lon="6.10438">
        <ele>472.9</ele>
        <time>2024-09-29T11:05:01.000Z</time>
      </trkpt>
      <trkpt lat="43.58055" lon="6.10438">
        <ele>472.9</ele>
        <time>2024-09-29T11:05:02.000Z</time>
      </trkpt>
      <trkpt lat="43.58055" lon="6.10438">
        <ele>472.9</ele>
        <time>2024-09-29T11:05:03.000Z</time>
      </trkpt>
      <trkpt lat="43.58055" lon="6.10438">
        <ele>472.9</ele>
        <time>2024-09-29T11:05:04.000Z</time>
      </trkpt>
      <trkpt lat="43.58055" lon="6.10438">
        <ele>472.9</ele>
        <time>2024-09-29T11:05:05.000Z</time>
      </trkpt>
      <trkpt lat="43.58056" lon="6.10438">
        <ele>472.9</ele>
        <time>2024-09-29T11:05:06.000Z</time>
      </trkpt>
      <trkpt lat="43.58056" lon="6.10438">
        <ele>472.9</ele>
        <time>2024-09-29T11:05:07.000Z</time>
      </trkpt>
      <trkpt lat="43.58056" lon="6.10438">
        <ele>472.9</ele>
        <time>2024-09-29T11:05:15.000Z</time>
      </trkpt>
      <trkpt lat="43.58056" lon="6.10438">
        <ele>472.9</ele>
        <time>2024-09-29T11:05:16.000Z</time>
      </trkpt>
      <trkpt lat="43.58056" lon="6.10438">
        <ele>472.9</ele>
        <time>2024-09-29T11:05:17.000Z</time>
      </trkpt>
      <trkpt lat="43.58056" lon="6.10438">
        <ele>472.9</ele>
        <time>2024-09-29T11:05:26.000Z</time>
      </trkpt>
      <trkpt lat="43.58056" lon="6.10438">
        <ele>472.9</ele>
        <time>2024-09-29T11:05:27.000Z</time>
      </trkpt>
      <trkpt lat="43.58058" lon="6.10444">
        <ele>472.7</ele>
        <time>2024-09-29T11:05:36.000Z</time>
      </trkpt>
      <trkpt lat="43.58058" lon="6.10444">
        <ele>472.7</ele>
        <time>2024-09-29T11:05:37.000Z</time>
      </trkpt>
      <trkpt lat="43.58058" lon="6.10444">
        <ele>472.7</ele>
        <time>2024-09-29T11:05:38.000Z</time>
      </trkpt>
      <trkpt lat="43.58058" lon="6.10443">
        <ele>472.6</ele>
        <time>2024-09-29T11:05:41.000Z</time>
      </trkpt>
      <trkpt lat="43.58058" lon="6.10443">
        <ele>472.6</ele>
        <time>2024-09-29T11:05:42.000Z</time>
      </trkpt>
      <trkpt lat="43.58059" lon="6.10443">
        <ele>472.4</ele>
        <time>2024-09-29T11:05:48.000Z</time>
      </trkpt>
      <trkpt lat="43.58059" lon="6.10443">
        <ele>472.4</ele>
        <time>2024-09-29T11:05:49.000Z</time>
      </trkpt>
      <trkpt lat="43.58059" lon="6.10443">
        <ele>472.4</ele>
        <time>2024-09-29T11:05:50.000Z</time>
      </trkpt>
      <trkpt lat="43.58059" lon="6.10442">
        <ele>472.5</ele>
        <time>2024-09-29T11:05:53.000Z</time>
      </trkpt>
      <trkpt lat="43.58059" lon="6.1044">
        <ele>472.5</ele>
        <time>2024-09-29T11:05:54.000Z</time>
      </trkpt>
      <trkpt lat="43.58059" lon="6.10437">
        <ele>472.5</ele>
        <time>2024-09-29T11:06:00.000Z</time>
      </trkpt>
      <trkpt lat="43.58059" lon="6.10437">
        <ele>472.5</ele>
        <time>2024-09-29T11:06:01.000Z</time>
      </trkpt>
      <trkpt lat="43.58059" lon="6.10437">
        <ele>472.5</ele>
        <time>2024-09-29T11:06:02.000Z</time>
      </trkpt>
      <trkpt lat="43.58059" lon="6.10437">
        <ele>472.5</ele>
        <time>2024-09-29T11:06:03.000Z</time>
      </trkpt>
      <trkpt lat="43.58059" lon="6.10437">
        <ele>472.6</ele>
        <time>2024-09-29T11:06:04.000Z</time>
      </trkpt>
      <trkpt lat="43.58059" lon="6.10437">
        <ele>472.6</ele>
        <time>2024-09-29T11:06:05.000Z</time>
      </trkpt>
      <trkpt lat="43.58059" lon="6.10432">
        <ele>472.7</ele>
        <time>2024-09-29T11:06:23.000Z</time>
      </trkpt>
      <trkpt lat="43.58059" lon="6.10432">
        <ele>472.7</ele>
        <time>2024-09-29T11:06:24.000Z</time>
      </trkpt>
      <trkpt lat="43.58059" lon="6.10432">
        <ele>472.7</ele>
        <time>2024-09-29T11:06:28.000Z</time>
      </trkpt>
      <trkpt lat="43.58059" lon="6.10432">
        <ele>472.7</ele>
        <time>2024-09-29T11:06:29.000Z</time>
      </trkpt>
      <trkpt lat="43.58059" lon="6.10432">
        <ele>472.8</ele>
        <time>2024-09-29T11:06:30.000Z</time>
      </trkpt>
      <trkpt lat="43.58059" lon="6.10432">
        <ele>472.8</ele>
        <time>2024-09-29T11:06:31.000Z</time>
      </trkpt>
      <trkpt lat="43.58059" lon="6.10432">
        <ele>472.8</ele>
        <time>2024-09-29T11:06:32.000Z</time>
      </trkpt>
      <trkpt lat="43.58059" lon="6.10432">
        <ele>472.8</ele>
        <time>2024-09-29T11:06:33.000Z</time>
      </trkpt>
      <trkpt lat="43.5806" lon="6.10432">
        <ele>472.8</ele>
        <time>2024-09-29T11:06:34.000Z</time>
      </trkpt>
      <trkpt lat="43.5806" lon="6.10432">
        <ele>472.8</ele>
        <time>2024-09-29T11:06:38.000Z</time>
      </trkpt>
      <trkpt lat="43.5806" lon="6.10432">
        <ele>472.9</ele>
        <time>2024-09-29T11:06:39.000Z</time>
      </trkpt>
      <trkpt lat="43.5806" lon="6.10432">
        <ele>472.9</ele>
        <time>2024-09-29T11:06:40.000Z</time>
      </trkpt>
      <trkpt lat="43.5806" lon="6.10431">
        <ele>473</ele>
        <time>2024-09-29T11:06:50.000Z</time>
      </trkpt>
      <trkpt lat="43.58061" lon="6.10431">
        <ele>473</ele>
        <time>2024-09-29T11:06:51.000Z</time>
      </trkpt>
      <trkpt lat="43.58061" lon="6.1043">
        <ele>473.1</ele>
        <time>2024-09-29T11:06:52.000Z</time>
      </trkpt>
      <trkpt lat="43.58057" lon="6.10418">
        <ele>473.4</ele>
        <time>2024-09-29T11:07:03.000Z</time>
      </trkpt>
      <trkpt lat="43.58053" lon="6.1041">
        <ele>473.7</ele>
        <time>2024-09-29T11:07:13.000Z</time>
      </trkpt>
      <trkpt lat="43.58053" lon="6.1041">
        <ele>473.7</ele>
        <time>2024-09-29T11:07:14.000Z</time>
      </trkpt>
      <trkpt lat="43.58052" lon="6.1041">
        <ele>473.8</ele>
        <time>2024-09-29T11:07:18.000Z</time>
      </trkpt>
      <trkpt lat="43.58051" lon="6.1041">
        <ele>473.8</ele>
        <time>2024-09-29T11:07:19.000Z</time>
      </trkpt>
      <trkpt lat="43.58051" lon="6.1041">
        <ele>473.8</ele>
        <time>2024-09-29T11:07:20.000Z</time>
      </trkpt>
      <trkpt lat="43.5805" lon="6.10409">
        <ele>473.9</ele>
        <time>2024-09-29T11:07:23.000Z</time>
      </trkpt>
      <trkpt lat="43.58049" lon="6.10409">
        <ele>473.9</ele>
        <time>2024-09-29T11:07:24.000Z</time>
      </trkpt>
      <trkpt lat="43.58049" lon="6.10408">
        <ele>473.9</ele>
        <time>2024-09-29T11:07:25.000Z</time>
      </trkpt>
      <trkpt lat="43.58048" lon="6.10408">
        <ele>473.9</ele>
        <time>2024-09-29T11:07:26.000Z</time>
      </trkpt>
      <trkpt lat="43.58048" lon="6.10407">
        <ele>473.9</ele>
        <time>2024-09-29T11:07:27.000Z</time>
      </trkpt>
      <trkpt lat="43.58049" lon="6.10409">
        <ele>473.9</ele>
        <time>2024-09-29T11:07:43.000Z</time>
      </trkpt>
      <trkpt lat="43.58049" lon="6.10409">
        <ele>473.9</ele>
        <time>2024-09-29T11:07:44.000Z</time>
      </trkpt>
      <trkpt lat="43.58049" lon="6.10409">
        <ele>473.9</ele>
        <time>2024-09-29T11:07:45.000Z</time>
      </trkpt>
      <trkpt lat="43.5805" lon="6.10409">
        <ele>474</ele>
        <time>2024-09-29T11:07:46.000Z</time>
      </trkpt>
      <trkpt lat="43.5805" lon="6.1041">
        <ele>474</ele>
        <time>2024-09-29T11:07:47.000Z</time>
      </trkpt>
      <trkpt lat="43.58056" lon="6.10421">
        <ele>473.9</ele>
        <time>2024-09-29T11:07:58.000Z</time>
      </trkpt>
      <trkpt lat="43.58053" lon="6.10432">
        <ele>473.5</ele>
        <time>2024-09-29T11:08:16.000Z</time>
      </trkpt>
      <trkpt lat="43.58053" lon="6.10432">
        <ele>473.4</ele>
        <time>2024-09-29T11:08:17.000Z</time>
      </trkpt>
      <trkpt lat="43.58055" lon="6.10434">
        <ele>472.6</ele>
        <time>2024-09-29T11:08:28.000Z</time>
      </trkpt>
      <trkpt lat="43.58055" lon="6.10434">
        <ele>472.6</ele>
        <time>2024-09-29T11:08:29.000Z</time>
      </trkpt>
      <trkpt lat="43.58055" lon="6.10434">
        <ele>472.5</ele>
        <time>2024-09-29T11:08:30.000Z</time>
      </trkpt>
      <trkpt lat="43.58055" lon="6.10434">
        <ele>472.5</ele>
        <time>2024-09-29T11:08:31.000Z</time>
      </trkpt>
      <trkpt lat="43.58055" lon="6.10434">
        <ele>472.6</ele>
        <time>2024-09-29T11:08:32.000Z</time>
      </trkpt>
      <trkpt lat="43.58055" lon="6.10434">
        <ele>472.8</ele>
        <time>2024-09-29T11:09:10.000Z</time>
      </trkpt>
      <trkpt lat="43.58055" lon="6.10434">
        <ele>472.8</ele>
        <time>2024-09-29T11:09:11.000Z</time>
      </trkpt>
      <trkpt lat="43.58055" lon="6.10434">
        <ele>472.8</ele>
        <time>2024-09-29T11:09:12.000Z</time>
      </trkpt>
      <trkpt lat="43.58055" lon="6.10434">
        <ele>472.8</ele>
        <time>2024-09-29T11:09:13.000Z</time>
      </trkpt>
      <trkpt lat="43.58055" lon="6.10434">
        <ele>472.8</ele>
        <time>2024-09-29T11:09:14.000Z</time>
      </trkpt>
      <trkpt lat="43.58055" lon="6.10436">
        <ele>472.7</ele>
        <time>2024-09-29T11:09:28.000Z</time>
      </trkpt>
      <trkpt lat="43.58055" lon="6.10436">
        <ele>472.7</ele>
        <time>2024-09-29T11:09:29.000Z</time>
      </trkpt>
      <trkpt lat="43.58055" lon="6.10436">
        <ele>472.7</ele>
        <time>2024-09-29T11:09:30.000Z</time>
      </trkpt>
      <trkpt lat="43.58055" lon="6.10436">
        <ele>472.7</ele>
        <time>2024-09-29T11:09:31.000Z</time>
      </trkpt>
      <trkpt lat="43.58055" lon="6.10436">
        <ele>472.7</ele>
        <time>2024-09-29T11:09:32.000Z</time>
      </trkpt>
      <trkpt lat="43.58055" lon="6.10436">
        <ele>472.7</ele>
        <time>2024-09-29T11:09:36.000Z</time>
      </trkpt>
      <trkpt lat="43.58056" lon="6.10436">
        <ele>472.7</ele>
        <time>2024-09-29T11:09:37.000Z</time>
      </trkpt>
      <trkpt lat="43.58056" lon="6.10436">
        <ele>472.7</ele>
        <time>2024-09-29T11:09:41.000Z</time>
      </trkpt>
      <trkpt lat="43.58056" lon="6.10436">
        <ele>472.7</ele>
        <time>2024-09-29T11:09:42.000Z</time>
      </trkpt>
      <trkpt lat="43.58056" lon="6.10436">
        <ele>472.7</ele>
        <time>2024-09-29T11:09:48.000Z</time>
      </trkpt>
      <trkpt lat="43.58056" lon="6.10436">
        <ele>472.7</ele>
        <time>2024-09-29T11:09:49.000Z</time>
      </trkpt>
      <trkpt lat="43.58056" lon="6.10436">
        <ele>472.7</ele>
        <time>2024-09-29T11:09:50.000Z</time>
      </trkpt>
      <trkpt lat="43.58056" lon="6.10436">
        <ele>472.7</ele>
        <time>2024-09-29T11:09:51.000Z</time>
      </trkpt>
      <trkpt lat="43.58056" lon="6.10436">
        <ele>472.7</ele>
        <time>2024-09-29T11:09:52.000Z</time>
      </trkpt>
      <trkpt lat="43.58056" lon="6.10436">
        <ele>472.7</ele>
        <time>2024-09-29T11:09:58.000Z</time>
      </trkpt>
      <trkpt lat="43.58056" lon="6.10436">
        <ele>472.7</ele>
        <time>2024-09-29T11:09:59.000Z</time>
      </trkpt>
      <trkpt lat="43.58056" lon="6.10437">
        <ele>472.6</ele>
        <time>2024-09-29T11:10:05.000Z</time>
      </trkpt>
      <trkpt lat="43.58056" lon="6.10437">
        <ele>472.6</ele>
        <time>2024-09-29T11:10:06.000Z</time>
      </trkpt>
      <trkpt lat="43.58056" lon="6.10437">
        <ele>472.6</ele>
        <time>2024-09-29T11:10:07.000Z</time>
      </trkpt>
      <trkpt lat="43.58056" lon="6.10437">
        <ele>472.6</ele>
        <time>2024-09-29T11:10:16.000Z</time>
      </trkpt>
      <trkpt lat="43.58056" lon="6.10437">
        <ele>472.6</ele>
        <time>2024-09-29T11:10:17.000Z</time>
      </trkpt>
      <trkpt lat="43.58056" lon="6.10437">
        <ele>472.5</ele>
        <time>2024-09-29T11:10:21.000Z</time>
      </trkpt>
      <trkpt lat="43.58056" lon="6.10437">
        <ele>472.6</ele>
        <time>2024-09-29T11:10:22.000Z</time>
      </trkpt>
      <trkpt lat="43.58056" lon="6.10437">
        <ele>472.6</ele>
        <time>2024-09-29T11:10:23.000Z</time>
      </trkpt>
      <trkpt lat="43.58056" lon="6.10437">
        <ele>472.5</ele>
        <time>2024-09-29T11:10:50.000Z</time>
      </trkpt>
      <trkpt lat="43.58056" lon="6.10437">
        <ele>472.5</ele>
        <time>2024-09-29T11:10:51.000Z</time>
      </trkpt>
      <trkpt lat="43.58056" lon="6.10437">
        <ele>472.5</ele>
        <time>2024-09-29T11:10:52.000Z</time>
      </trkpt>
      <trkpt lat="43.58056" lon="6.10437">
        <ele>472.5</ele>
        <time>2024-09-29T11:10:53.000Z</time>
      </trkpt>
      <trkpt lat="43.58056" lon="6.10437">
        <ele>472.5</ele>
        <time>2024-09-29T11:10:54.000Z</time>
      </trkpt>
      <trkpt lat="43.58056" lon="6.10437">
        <ele>472.5</ele>
        <time>2024-09-29T11:10:55.000Z</time>
      </trkpt>
      <trkpt lat="43.58056" lon="6.10437">
        <ele>472.5</ele>
        <time>2024-09-29T11:11:04.000Z</time>
      </trkpt>
      <trkpt lat="43.58056" lon="6.10437">
        <ele>472.5</ele>
        <time>2024-09-29T11:11:05.000Z</time>
      </trkpt>
      <trkpt lat="43.58056" lon="6.10437">
        <ele>472.5</ele>
        <time>2024-09-29T11:11:06.000Z</time>
      </trkpt>
      <trkpt lat="43.58056" lon="6.10437">
        <ele>472.5</ele>
        <time>2024-09-29T11:11:07.000Z</time>
      </trkpt>
      <trkpt lat="43.58056" lon="6.10437">
        <ele>472.5</ele>
        <time>2024-09-29T11:11:14.000Z</time>
      </trkpt>
      <trkpt lat="43.58056" lon="6.10437">
        <ele>472.5</ele>
        <time>2024-09-29T11:11:15.000Z</time>
      </trkpt>
      <trkpt lat="43.58056" lon="6.10437">
        <ele>472.5</ele>
        <time>2024-09-29T11:11:16.000Z</time>
      </trkpt>
      <trkpt lat="43.58056" lon="6.10437">
        <ele>472.5</ele>
        <time>2024-09-29T11:11:17.000Z</time>
      </trkpt>
      <trkpt lat="43.58056" lon="6.10437">
        <ele>472.5</ele>
        <time>2024-09-29T11:11:21.000Z</time>
      </trkpt>
      <trkpt lat="43.58056" lon="6.10437">
        <ele>472.5</ele>
        <time>2024-09-29T11:11:22.000Z</time>
      </trkpt>
      <trkpt lat="43.58056" lon="6.10437">
        <ele>472.5</ele>
        <time>2024-09-29T11:11:23.000Z</time>
      </trkpt>
      <trkpt lat="43.58056" lon="6.10437">
        <ele>472.5</ele>
        <time>2024-09-29T11:11:24.000Z</time>
      </trkpt>
      <trkpt lat="43.58056" lon="6.10437">
        <ele>472.5</ele>
        <time>2024-09-29T11:11:25.000Z</time>
      </trkpt>
      <trkpt lat="43.58056" lon="6.10437">
        <ele>472.4</ele>
        <time>2024-09-29T11:11:30.000Z</time>
      </trkpt>
      <trkpt lat="43.58056" lon="6.10437">
        <ele>472.4</ele>
        <time>2024-09-29T11:11:31.000Z</time>
      </trkpt>
      <trkpt lat="43.58056" lon="6.10437">
        <ele>472.4</ele>
        <time>2024-09-29T11:11:32.000Z</time>
      </trkpt>
      <trkpt lat="43.58056" lon="6.10437">
        <ele>472.4</ele>
        <time>2024-09-29T11:11:35.000Z</time>
      </trkpt>
      <trkpt lat="43.58056" lon="6.10437">
        <ele>472.4</ele>
        <time>2024-09-29T11:11:36.000Z</time>
      </trkpt>
      <trkpt lat="43.58056" lon="6.10437">
        <ele>472.4</ele>
        <time>2024-09-29T11:11:37.000Z</time>
      </trkpt>
      <trkpt lat="43.58056" lon="6.10437">
        <ele>472.4</ele>
        <time>2024-09-29T11:11:40.000Z</time>
      </trkpt>
      <trkpt lat="43.58057" lon="6.10437">
        <ele>472.4</ele>
        <time>2024-09-29T11:11:41.000Z</time>
      </trkpt>
      <trkpt lat="43.58057" lon="6.10437">
        <ele>472.4</ele>
        <time>2024-09-29T11:11:42.000Z</time>
      </trkpt>
      <trkpt lat="43.58058" lon="6.10435">
        <ele>472.4</ele>
        <time>2024-09-29T11:11:50.000Z</time>
      </trkpt>
      <trkpt lat="43.58058" lon="6.10435">
        <ele>472.4</ele>
        <time>2024-09-29T11:11:51.000Z</time>
      </trkpt>
      <trkpt lat="43.58058" lon="6.10435">
        <ele>472.5</ele>
        <time>2024-09-29T11:11:52.000Z</time>
      </trkpt>
      <trkpt lat="43.58058" lon="6.10435">
        <ele>472.5</ele>
        <time>2024-09-29T11:11:53.000Z</time>
      </trkpt>
      <trkpt lat="43.58058" lon="6.10435">
        <ele>472.5</ele>
        <time>2024-09-29T11:11:54.000Z</time>
      </trkpt>
      <trkpt lat="43.58057" lon="6.10436">
        <ele>472.5</ele>
        <time>2024-09-29T11:11:55.000Z</time>
      </trkpt>
      <trkpt lat="43.58057" lon="6.10437">
        <ele>472.5</ele>
        <time>2024-09-29T11:12:03.000Z</time>
      </trkpt>
      <trkpt lat="43.58057" lon="6.10437">
        <ele>472.5</ele>
        <time>2024-09-29T11:12:04.000Z</time>
      </trkpt>
      <trkpt lat="43.58057" lon="6.10438">
        <ele>472.6</ele>
        <time>2024-09-29T11:12:43.000Z</time>
      </trkpt>
      <trkpt lat="43.58057" lon="6.10438">
        <ele>472.6</ele>
        <time>2024-09-29T11:12:44.000Z</time>
      </trkpt>
      <trkpt lat="43.58057" lon="6.10438">
        <ele>472.6</ele>
        <time>2024-09-29T11:12:45.000Z</time>
      </trkpt>
      <trkpt lat="43.58057" lon="6.10438">
        <ele>472.6</ele>
        <time>2024-09-29T11:12:46.000Z</time>
      </trkpt>
      <trkpt lat="43.58057" lon="6.10438">
        <ele>472.6</ele>
        <time>2024-09-29T11:12:47.000Z</time>
      </trkpt>
      <trkpt lat="43.58057" lon="6.10438">
        <ele>472.6</ele>
        <time>2024-09-29T11:12:48.000Z</time>
      </trkpt>
      <trkpt lat="43.58057" lon="6.10438">
        <ele>472.5</ele>
        <time>2024-09-29T11:13:40.000Z</time>
      </trkpt>
      <trkpt lat="43.58057" lon="6.10438">
        <ele>472.5</ele>
        <time>2024-09-29T11:13:41.000Z</time>
      </trkpt>
      <trkpt lat="43.58057" lon="6.10438">
        <ele>472.5</ele>
        <time>2024-09-29T11:13:42.000Z</time>
      </trkpt>
      <trkpt lat="43.58057" lon="6.10438">
        <ele>472.5</ele>
        <time>2024-09-29T11:13:43.000Z</time>
      </trkpt>
      <trkpt lat="43.58057" lon="6.10438">
        <ele>472.5</ele>
        <time>2024-09-29T11:13:44.000Z</time>
      </trkpt>
      <trkpt lat="43.58057" lon="6.10438">
        <ele>472.5</ele>
        <time>2024-09-29T11:13:45.000Z</time>
      </trkpt>
      <trkpt lat="43.58057" lon="6.10438">
        <ele>472.5</ele>
        <time>2024-09-29T11:14:04.000Z</time>
      </trkpt>
      <trkpt lat="43.58057" lon="6.10438">
        <ele>472.5</ele>
        <time>2024-09-29T11:14:05.000Z</time>
      </trkpt>
      <trkpt lat="43.58057" lon="6.10438">
        <ele>472.5</ele>
        <time>2024-09-29T11:14:08.000Z</time>
      </trkpt>
      <trkpt lat="43.58057" lon="6.10438">
        <ele>472.5</ele>
        <time>2024-09-29T11:14:09.000Z</time>
      </trkpt>
      <trkpt lat="43.58057" lon="6.10438">
        <ele>472.5</ele>
        <time>2024-09-29T11:14:10.000Z</time>
      </trkpt>
      <trkpt lat="43.58057" lon="6.10438">
        <ele>472.7</ele>
        <time>2024-09-29T11:15:23.000Z</time>
      </trkpt>
      <trkpt lat="43.58057" lon="6.10438">
        <ele>472.7</ele>
        <time>2024-09-29T11:15:24.000Z</time>
      </trkpt>
      <trkpt lat="43.58057" lon="6.10438">
        <ele>472.7</ele>
        <time>2024-09-29T11:15:25.000Z</time>
      </trkpt>
      <trkpt lat="43.58057" lon="6.10438">
        <ele>472.6</ele>
        <time>2024-09-29T11:15:26.000Z</time>
      </trkpt>
      <trkpt lat="43.58057" lon="6.10438">
        <ele>472.6</ele>
        <time>2024-09-29T11:15:27.000Z</time>
      </trkpt>
      <trkpt lat="43.58057" lon="6.10438">
        <ele>472.6</ele>
        <time>2024-09-29T11:15:28.000Z</time>
      </trkpt>
      <trkpt lat="43.58057" lon="6.10438">
        <ele>472.6</ele>
        <time>2024-09-29T11:15:29.000Z</time>
      </trkpt>
      <trkpt lat="43.58057" lon="6.10438">
        <ele>472.6</ele>
        <time>2024-09-29T11:15:33.000Z</time>
      </trkpt>
      <trkpt lat="43.58057" lon="6.10438">
        <ele>472.6</ele>
        <time>2024-09-29T11:15:34.000Z</time>
      </trkpt>
      <trkpt lat="43.58056" lon="6.10438">
        <ele>472.6</ele>
        <time>2024-09-29T11:15:38.000Z</time>
      </trkpt>
      <trkpt lat="43.58056" lon="6.10438">
        <ele>472.6</ele>
        <time>2024-09-29T11:15:39.000Z</time>
      </trkpt>
      <trkpt lat="43.58056" lon="6.10438">
        <ele>472.6</ele>
        <time>2024-09-29T11:15:49.000Z</time>
      </trkpt>
      <trkpt lat="43.58056" lon="6.10438">
        <ele>472.6</ele>
        <time>2024-09-29T11:15:50.000Z</time>
      </trkpt>
      <trkpt lat="43.58057" lon="6.10438">
        <ele>472.6</ele>
        <time>2024-09-29T11:15:56.000Z</time>
      </trkpt>
      <trkpt lat="43.58057" lon="6.10438">
        <ele>472.6</ele>
        <time>2024-09-29T11:15:57.000Z</time>
      </trkpt>
      <trkpt lat="43.58055" lon="6.10436">
        <ele>472.7</ele>
        <time>2024-09-29T11:16:13.000Z</time>
      </trkpt>
      <trkpt lat="43.58055" lon="6.10436">
        <ele>472.7</ele>
        <time>2024-09-29T11:16:14.000Z</time>
      </trkpt>
      <trkpt lat="43.58055" lon="6.10436">
        <ele>472.7</ele>
        <time>2024-09-29T11:16:15.000Z</time>
      </trkpt>
      <trkpt lat="43.58055" lon="6.10436">
        <ele>472.8</ele>
        <time>2024-09-29T11:16:25.000Z</time>
      </trkpt>
      <trkpt lat="43.58055" lon="6.10436">
        <ele>472.8</ele>
        <time>2024-09-29T11:16:26.000Z</time>
      </trkpt>
      <trkpt lat="43.58055" lon="6.10437">
        <ele>472.8</ele>
        <time>2024-09-29T11:16:27.000Z</time>
      </trkpt>
      <trkpt lat="43.58055" lon="6.10437">
        <ele>472.8</ele>
        <time>2024-09-29T11:16:31.000Z</time>
      </trkpt>
      <trkpt lat="43.58055" lon="6.10437">
        <ele>472.8</ele>
        <time>2024-09-29T11:16:32.000Z</time>
      </trkpt>
      <trkpt lat="43.58055" lon="6.10437">
        <ele>472.8</ele>
        <time>2024-09-29T11:16:36.000Z</time>
      </trkpt>
      <trkpt lat="43.58055" lon="6.10437">
        <ele>472.8</ele>
        <time>2024-09-29T11:16:37.000Z</time>
      </trkpt>
      <trkpt lat="43.58056" lon="6.10437">
        <ele>472.8</ele>
        <time>2024-09-29T11:16:41.000Z</time>
      </trkpt>
      <trkpt lat="43.58056" lon="6.10437">
        <ele>472.8</ele>
        <time>2024-09-29T11:16:42.000Z</time>
      </trkpt>
      <trkpt lat="43.58056" lon="6.10437">
        <ele>472.6</ele>
        <time>2024-09-29T11:17:01.000Z</time>
      </trkpt>
      <trkpt lat="43.58056" lon="6.10437">
        <ele>472.6</ele>
        <time>2024-09-29T11:17:02.000Z</time>
      </trkpt>
      <trkpt lat="43.58056" lon="6.10437">
        <ele>472.6</ele>
        <time>2024-09-29T11:17:03.000Z</time>
      </trkpt>
      <trkpt lat="43.58056" lon="6.10437">
        <ele>472.6</ele>
        <time>2024-09-29T11:17:04.000Z</time>
      </trkpt>
      <trkpt lat="43.58056" lon="6.10437">
        <ele>472.6</ele>
        <time>2024-09-29T11:17:05.000Z</time>
      </trkpt>
      <trkpt lat="43.58056" lon="6.10437">
        <ele>472.5</ele>
        <time>2024-09-29T11:17:08.000Z</time>
      </trkpt>
      <trkpt lat="43.58056" lon="6.10437">
        <ele>472.5</ele>
        <time>2024-09-29T11:17:09.000Z</time>
      </trkpt>
      <trkpt lat="43.58056" lon="6.10437">
        <ele>472.5</ele>
        <time>2024-09-29T11:17:10.000Z</time>
      </trkpt>
      <trkpt lat="43.58056" lon="6.10437">
        <ele>472.5</ele>
        <time>2024-09-29T11:17:11.000Z</time>
      </trkpt>
      <trkpt lat="43.58056" lon="6.10437">
        <ele>472.4</ele>
        <time>2024-09-29T11:17:12.000Z</time>
      </trkpt>
      <trkpt lat="43.58056" lon="6.10437">
        <ele>472.3</ele>
        <time>2024-09-29T11:17:15.000Z</time>
      </trkpt>
      <trkpt lat="43.58056" lon="6.10437">
        <ele>472.3</ele>
        <time>2024-09-29T11:17:16.000Z</time>
      </trkpt>
      <trkpt lat="43.58056" lon="6.10437">
        <ele>472.3</ele>
        <time>2024-09-29T11:17:17.000Z</time>
      </trkpt>
      <trkpt lat="43.58056" lon="6.10437">
        <ele>472.1</ele>
        <time>2024-09-29T11:17:21.000Z</time>
      </trkpt>
      <trkpt lat="43.58056" lon="6.10437">
        <ele>472</ele>
        <time>2024-09-29T11:17:22.000Z</time>
      </trkpt>
      <trkpt lat="43.58056" lon="6.10438">
        <ele>472</ele>
        <time>2024-09-29T11:17:23.000Z</time>
      </trkpt>
      <trkpt lat="43.58056" lon="6.10438">
        <ele>472</ele>
        <time>2024-09-29T11:17:34.000Z</time>
      </trkpt>
      <trkpt lat="43.58056" lon="6.10438">
        <ele>472.1</ele>
        <time>2024-09-29T11:17:35.000Z</time>
      </trkpt>
      <trkpt lat="43.58056" lon="6.10438">
        <ele>472.4</ele>
        <time>2024-09-29T11:17:39.000Z</time>
      </trkpt>
      <trkpt lat="43.58056" lon="6.10438">
        <ele>472.5</ele>
        <time>2024-09-29T11:17:40.000Z</time>
      </trkpt>
      <trkpt lat="43.58056" lon="6.10439">
        <ele>473.1</ele>
        <time>2024-09-29T11:17:54.000Z</time>
      </trkpt>
      <trkpt lat="43.58056" lon="6.10439">
        <ele>473.1</ele>
        <time>2024-09-29T11:17:55.000Z</time>
      </trkpt>
      <trkpt lat="43.58056" lon="6.10439">
        <ele>473</ele>
        <time>2024-09-29T11:17:58.000Z</time>
      </trkpt>
      <trkpt lat="43.58056" lon="6.10439">
        <ele>473</ele>
        <time>2024-09-29T11:17:59.000Z</time>
      </trkpt>
      <trkpt lat="43.58056" lon="6.10439">
        <ele>472.8</ele>
        <time>2024-09-29T11:18:15.000Z</time>
      </trkpt>
      <trkpt lat="43.58056" lon="6.10438">
        <ele>472.8</ele>
        <time>2024-09-29T11:18:16.000Z</time>
      </trkpt>
      <trkpt lat="43.58056" lon="6.10438">
        <ele>472.8</ele>
        <time>2024-09-29T11:18:17.000Z</time>
      </trkpt>
      <trkpt lat="43.58056" lon="6.10438">
        <ele>472.7</ele>
        <time>2024-09-29T11:18:18.000Z</time>
      </trkpt>
      <trkpt lat="43.58056" lon="6.10438">
        <ele>472.7</ele>
        <time>2024-09-29T11:18:19.000Z</time>
      </trkpt>
      <trkpt lat="43.58056" lon="6.10438">
        <ele>472.7</ele>
        <time>2024-09-29T11:18:20.000Z</time>
      </trkpt>
      <trkpt lat="43.58056" lon="6.10438">
        <ele>472.3</ele>
        <time>2024-09-29T11:18:30.000Z</time>
      </trkpt>
      <trkpt lat="43.58056" lon="6.10438">
        <ele>472.3</ele>
        <time>2024-09-29T11:18:31.000Z</time>
      </trkpt>
      <trkpt lat="43.58056" lon="6.10438">
        <ele>472.3</ele>
        <time>2024-09-29T11:18:32.000Z</time>
      </trkpt>
      <trkpt lat="43.58056" lon="6.10438">
        <ele>472.2</ele>
        <time>2024-09-29T11:18:33.000Z</time>
      </trkpt>
      <trkpt lat="43.58056" lon="6.10438">
        <ele>472.2</ele>
        <time>2024-09-29T11:18:34.000Z</time>
      </trkpt>
      <trkpt lat="43.58056" lon="6.10438">
        <ele>472.2</ele>
        <time>2024-09-29T11:19:48.000Z</time>
      </trkpt>
      <trkpt lat="43.58056" lon="6.10439">
        <ele>472.2</ele>
        <time>2024-09-29T11:19:49.000Z</time>
      </trkpt>
      <trkpt lat="43.58054" lon="6.10439">
        <ele>472.2</ele>
        <time>2024-09-29T11:20:00.000Z</time>
      </trkpt>
      <trkpt lat="43.58054" lon="6.10439">
        <ele>472.2</ele>
        <time>2024-09-29T11:20:01.000Z</time>
      </trkpt>
      <trkpt lat="43.58054" lon="6.10439">
        <ele>472.2</ele>
        <time>2024-09-29T11:20:02.000Z</time>
      </trkpt>
      <trkpt lat="43.58054" lon="6.10439">
        <ele>472.2</ele>
        <time>2024-09-29T11:20:16.000Z</time>
      </trkpt>
      <trkpt lat="43.58055" lon="6.1044">
        <ele>472.2</ele>
        <time>2024-09-29T11:20:17.000Z</time>
      </trkpt>
      <trkpt lat="43.58059" lon="6.10452">
        <ele>472.2</ele>
        <time>2024-09-29T11:20:29.000Z</time>
      </trkpt>
      <trkpt lat="43.58065" lon="6.10462">
        <ele>472.1</ele>
        <time>2024-09-29T11:20:40.000Z</time>
      </trkpt>
      <trkpt lat="43.58071" lon="6.10471">
        <ele>472.2</ele>
        <time>2024-09-29T11:20:51.000Z</time>
      </trkpt>
      <trkpt lat="43.58076" lon="6.10482">
        <ele>472.1</ele>
        <time>2024-09-29T11:21:02.000Z</time>
      </trkpt>
      <trkpt lat="43.58082" lon="6.10491">
        <ele>472.1</ele>
        <time>2024-09-29T11:21:17.000Z</time>
      </trkpt>
      <trkpt lat="43.58076" lon="6.10501">
        <ele>472</ele>
        <time>2024-09-29T11:21:39.000Z</time>
      </trkpt>
      <trkpt lat="43.58068" lon="6.10507">
        <ele>472</ele>
        <time>2024-09-29T11:21:49.000Z</time>
      </trkpt>
      <trkpt lat="43.58062" lon="6.10517">
        <ele>471.7</ele>
        <time>2024-09-29T11:22:02.000Z</time>
      </trkpt>
      <trkpt lat="43.58059" lon="6.10529">
        <ele>471.2</ele>
        <time>2024-09-29T11:22:14.000Z</time>
      </trkpt>
      <trkpt lat="43.58058" lon="6.10543">
        <ele>471.2</ele>
        <time>2024-09-29T11:22:25.000Z</time>
      </trkpt>
      <trkpt lat="43.58057" lon="6.10555">
        <ele>470.5</ele>
        <time>2024-09-29T11:22:40.000Z</time>
      </trkpt>
      <trkpt lat="43.58049" lon="6.10561">
        <ele>469.7</ele>
        <time>2024-09-29T11:22:58.000Z</time>
      </trkpt>
      <trkpt lat="43.58043" lon="6.1057">
        <ele>469.2</ele>
        <time>2024-09-29T11:23:12.000Z</time>
      </trkpt>
      <trkpt lat="43.58044" lon="6.10572">
        <ele>469.1</ele>
        <time>2024-09-29T11:23:18.000Z</time>
      </trkpt>
      <trkpt lat="43.58044" lon="6.10572">
        <ele>469</ele>
        <time>2024-09-29T11:23:19.000Z</time>
      </trkpt>
      <trkpt lat="43.58044" lon="6.10573">
        <ele>468.8</ele>
        <time>2024-09-29T11:23:23.000Z</time>
      </trkpt>
      <trkpt lat="43.58044" lon="6.10573">
        <ele>468.8</ele>
        <time>2024-09-29T11:23:24.000Z</time>
      </trkpt>
      <trkpt lat="43.58044" lon="6.10573">
        <ele>468.8</ele>
        <time>2024-09-29T11:23:25.000Z</time>
      </trkpt>
      <trkpt lat="43.58044" lon="6.10573">
        <ele>468.7</ele>
        <time>2024-09-29T11:23:29.000Z</time>
      </trkpt>
      <trkpt lat="43.58044" lon="6.10573">
        <ele>468.7</ele>
        <time>2024-09-29T11:23:30.000Z</time>
      </trkpt>
      <trkpt lat="43.58044" lon="6.10573">
        <ele>468.7</ele>
        <time>2024-09-29T11:23:31.000Z</time>
      </trkpt>
      <trkpt lat="43.58045" lon="6.10573">
        <ele>468.7</ele>
        <time>2024-09-29T11:23:32.000Z</time>
      </trkpt>
      <trkpt lat="43.58045" lon="6.10573">
        <ele>468.6</ele>
        <time>2024-09-29T11:23:36.000Z</time>
      </trkpt>
      <trkpt lat="43.58045" lon="6.10573">
        <ele>468.6</ele>
        <time>2024-09-29T11:23:37.000Z</time>
      </trkpt>
      <trkpt lat="43.58045" lon="6.10573">
        <ele>468.4</ele>
        <time>2024-09-29T11:23:45.000Z</time>
      </trkpt>
      <trkpt lat="43.58045" lon="6.10573">
        <ele>468.4</ele>
        <time>2024-09-29T11:23:46.000Z</time>
      </trkpt>
      <trkpt lat="43.58045" lon="6.10573">
        <ele>468.4</ele>
        <time>2024-09-29T11:23:47.000Z</time>
      </trkpt>
      <trkpt lat="43.58045" lon="6.10573">
        <ele>468.4</ele>
        <time>2024-09-29T11:23:48.000Z</time>
      </trkpt>
      <trkpt lat="43.58045" lon="6.10573">
        <ele>468.4</ele>
        <time>2024-09-29T11:23:49.000Z</time>
      </trkpt>
      <trkpt lat="43.58045" lon="6.10573">
        <ele>468.4</ele>
        <time>2024-09-29T11:23:50.000Z</time>
      </trkpt>
      <trkpt lat="43.58045" lon="6.10573">
        <ele>468.4</ele>
        <time>2024-09-29T11:23:51.000Z</time>
      </trkpt>
      <trkpt lat="43.58045" lon="6.10573">
        <ele>468.4</ele>
        <time>2024-09-29T11:23:52.000Z</time>
      </trkpt>
      <trkpt lat="43.58045" lon="6.10573">
        <ele>468.4</ele>
        <time>2024-09-29T11:23:53.000Z</time>
      </trkpt>
      <trkpt lat="43.58045" lon="6.10573">
        <ele>468.4</ele>
        <time>2024-09-29T11:23:54.000Z</time>
      </trkpt>
      <trkpt lat="43.58045" lon="6.10573">
        <ele>468.4</ele>
        <time>2024-09-29T11:23:55.000Z</time>
      </trkpt>
      <trkpt lat="43.58045" lon="6.10573">
        <ele>468.4</ele>
        <time>2024-09-29T11:24:08.000Z</time>
      </trkpt>
      <trkpt lat="43.58045" lon="6.10573">
        <ele>468.4</ele>
        <time>2024-09-29T11:24:09.000Z</time>
      </trkpt>
      <trkpt lat="43.58045" lon="6.10573">
        <ele>468.4</ele>
        <time>2024-09-29T11:24:10.000Z</time>
      </trkpt>
      <trkpt lat="43.58045" lon="6.10574">
        <ele>468.4</ele>
        <time>2024-09-29T11:24:23.000Z</time>
      </trkpt>
      <trkpt lat="43.58045" lon="6.10574">
        <ele>468.4</ele>
        <time>2024-09-29T11:24:24.000Z</time>
      </trkpt>
      <trkpt lat="43.58045" lon="6.10575">
        <ele>468.5</ele>
        <time>2024-09-29T11:24:44.000Z</time>
      </trkpt>
      <trkpt lat="43.58045" lon="6.10575">
        <ele>468.5</ele>
        <time>2024-09-29T11:24:45.000Z</time>
      </trkpt>
      <trkpt lat="43.58045" lon="6.10575">
        <ele>468.5</ele>
        <time>2024-09-29T11:24:46.000Z</time>
      </trkpt>
      <trkpt lat="43.58045" lon="6.10575">
        <ele>468.5</ele>
        <time>2024-09-29T11:24:47.000Z</time>
      </trkpt>
      <trkpt lat="43.58045" lon="6.10575">
        <ele>468.5</ele>
        <time>2024-09-29T11:24:48.000Z</time>
      </trkpt>
      <trkpt lat="43.58045" lon="6.10575">
        <ele>468.5</ele>
        <time>2024-09-29T11:24:49.000Z</time>
      </trkpt>
      <trkpt lat="43.58045" lon="6.10575">
        <ele>468.5</ele>
        <time>2024-09-29T11:24:50.000Z</time>
      </trkpt>
      <trkpt lat="43.58045" lon="6.10575">
        <ele>468.5</ele>
        <time>2024-09-29T11:24:53.000Z</time>
      </trkpt>
      <trkpt lat="43.58045" lon="6.10575">
        <ele>468.5</ele>
        <time>2024-09-29T11:24:54.000Z</time>
      </trkpt>
      <trkpt lat="43.58045" lon="6.10575">
        <ele>468.5</ele>
        <time>2024-09-29T11:24:55.000Z</time>
      </trkpt>
      <trkpt lat="43.58045" lon="6.10575">
        <ele>468.5</ele>
        <time>2024-09-29T11:24:56.000Z</time>
      </trkpt>
      <trkpt lat="43.58045" lon="6.10575">
        <ele>468.5</ele>
        <time>2024-09-29T11:24:57.000Z</time>
      </trkpt>
      <trkpt lat="43.58045" lon="6.10575">
        <ele>468.5</ele>
        <time>2024-09-29T11:24:58.000Z</time>
      </trkpt>
      <trkpt lat="43.58045" lon="6.10575">
        <ele>468.5</ele>
        <time>2024-09-29T11:24:59.000Z</time>
      </trkpt>
      <trkpt lat="43.58045" lon="6.10575">
        <ele>468.5</ele>
        <time>2024-09-29T11:25:00.000Z</time>
      </trkpt>
      <trkpt lat="43.58045" lon="6.10575">
        <ele>468.5</ele>
        <time>2024-09-29T11:25:01.000Z</time>
      </trkpt>
      <trkpt lat="43.58045" lon="6.10575">
        <ele>468.5</ele>
        <time>2024-09-29T11:25:02.000Z</time>
      </trkpt>
      <trkpt lat="43.58045" lon="6.10575">
        <ele>468.5</ele>
        <time>2024-09-29T11:25:05.000Z</time>
      </trkpt>
      <trkpt lat="43.58045" lon="6.10575">
        <ele>468.5</ele>
        <time>2024-09-29T11:25:06.000Z</time>
      </trkpt>
      <trkpt lat="43.58045" lon="6.10575">
        <ele>468.5</ele>
        <time>2024-09-29T11:25:07.000Z</time>
      </trkpt>
      <trkpt lat="43.58045" lon="6.10575">
        <ele>468.4</ele>
        <time>2024-09-29T11:25:14.000Z</time>
      </trkpt>
      <trkpt lat="43.58045" lon="6.10575">
        <ele>468.4</ele>
        <time>2024-09-29T11:25:15.000Z</time>
      </trkpt>
      <trkpt lat="43.58045" lon="6.10575">
        <ele>468.4</ele>
        <time>2024-09-29T11:25:16.000Z</time>
      </trkpt>
      <trkpt lat="43.58045" lon="6.10575">
        <ele>468.4</ele>
        <time>2024-09-29T11:25:17.000Z</time>
      </trkpt>
      <trkpt lat="43.58045" lon="6.10575">
        <ele>468.4</ele>
        <time>2024-09-29T11:25:23.000Z</time>
      </trkpt>
      <trkpt lat="43.58045" lon="6.10576">
        <ele>468.4</ele>
        <time>2024-09-29T11:25:24.000Z</time>
      </trkpt>
      <trkpt lat="43.58045" lon="6.10576">
        <ele>468.4</ele>
        <time>2024-09-29T11:25:25.000Z</time>
      </trkpt>
      <trkpt lat="43.58046" lon="6.10576">
        <ele>468.5</ele>
        <time>2024-09-29T11:25:31.000Z</time>
      </trkpt>
      <trkpt lat="43.58046" lon="6.10576">
        <ele>468.5</ele>
        <time>2024-09-29T11:25:32.000Z</time>
      </trkpt>
      <trkpt lat="43.58046" lon="6.10576">
        <ele>468.6</ele>
        <time>2024-09-29T11:25:40.000Z</time>
      </trkpt>
      <trkpt lat="43.58046" lon="6.10576">
        <ele>468.6</ele>
        <time>2024-09-29T11:25:41.000Z</time>
      </trkpt>
      <trkpt lat="43.58046" lon="6.10576">
        <ele>468.6</ele>
        <time>2024-09-29T11:25:42.000Z</time>
      </trkpt>
      <trkpt lat="43.58046" lon="6.10576">
        <ele>468.6</ele>
        <time>2024-09-29T11:25:43.000Z</time>
      </trkpt>
      <trkpt lat="43.58046" lon="6.10576">
        <ele>468.6</ele>
        <time>2024-09-29T11:25:44.000Z</time>
      </trkpt>
      <trkpt lat="43.58046" lon="6.10576">
        <ele>468.6</ele>
        <time>2024-09-29T11:25:45.000Z</time>
      </trkpt>
      <trkpt lat="43.58045" lon="6.10576">
        <ele>468.6</ele>
        <time>2024-09-29T11:25:48.000Z</time>
      </trkpt>
      <trkpt lat="43.58045" lon="6.10575">
        <ele>468.6</ele>
        <time>2024-09-29T11:25:49.000Z</time>
      </trkpt>
      <trkpt lat="43.58044" lon="6.10575">
        <ele>468.6</ele>
        <time>2024-09-29T11:25:50.000Z</time>
      </trkpt>
      <trkpt lat="43.58044" lon="6.10575">
        <ele>468.7</ele>
        <time>2024-09-29T11:25:54.000Z</time>
      </trkpt>
      <trkpt lat="43.58044" lon="6.10575">
        <ele>468.7</ele>
        <time>2024-09-29T11:25:55.000Z</time>
      </trkpt>
      <trkpt lat="43.58042" lon="6.10574">
        <ele>468.7</ele>
        <time>2024-09-29T11:26:13.000Z</time>
      </trkpt>
      <trkpt lat="43.58042" lon="6.10574">
        <ele>468.7</ele>
        <time>2024-09-29T11:26:14.000Z</time>
      </trkpt>
      <trkpt lat="43.58042" lon="6.10574">
        <ele>468.7</ele>
        <time>2024-09-29T11:26:15.000Z</time>
      </trkpt>
      <trkpt lat="43.58042" lon="6.10574">
        <ele>468.7</ele>
        <time>2024-09-29T11:26:16.000Z</time>
      </trkpt>
      <trkpt lat="43.58042" lon="6.10574">
        <ele>468.7</ele>
        <time>2024-09-29T11:26:17.000Z</time>
      </trkpt>
      <trkpt lat="43.58042" lon="6.10574">
        <ele>468.7</ele>
        <time>2024-09-29T11:26:33.000Z</time>
      </trkpt>
      <trkpt lat="43.58042" lon="6.10574">
        <ele>468.7</ele>
        <time>2024-09-29T11:26:34.000Z</time>
      </trkpt>
      <trkpt lat="43.58042" lon="6.10574">
        <ele>468.7</ele>
        <time>2024-09-29T11:26:35.000Z</time>
      </trkpt>
      <trkpt lat="43.58042" lon="6.10574">
        <ele>468.7</ele>
        <time>2024-09-29T11:26:36.000Z</time>
      </trkpt>
      <trkpt lat="43.58042" lon="6.10574">
        <ele>468.7</ele>
        <time>2024-09-29T11:26:37.000Z</time>
      </trkpt>
      <trkpt lat="43.58042" lon="6.10574">
        <ele>468.6</ele>
        <time>2024-09-29T11:26:53.000Z</time>
      </trkpt>
      <trkpt lat="43.58042" lon="6.10574">
        <ele>468.6</ele>
        <time>2024-09-29T11:26:54.000Z</time>
      </trkpt>
      <trkpt lat="43.58042" lon="6.10574">
        <ele>468.6</ele>
        <time>2024-09-29T11:26:55.000Z</time>
      </trkpt>
      <trkpt lat="43.58042" lon="6.10574">
        <ele>468.6</ele>
        <time>2024-09-29T11:26:56.000Z</time>
      </trkpt>
      <trkpt lat="43.58042" lon="6.10574">
        <ele>468.7</ele>
        <time>2024-09-29T11:26:57.000Z</time>
      </trkpt>
      <trkpt lat="43.58043" lon="6.10573">
        <ele>468.7</ele>
        <time>2024-09-29T11:27:34.000Z</time>
      </trkpt>
      <trkpt lat="43.58043" lon="6.10573">
        <ele>468.7</ele>
        <time>2024-09-29T11:27:35.000Z</time>
      </trkpt>
      <trkpt lat="43.58043" lon="6.10573">
        <ele>468.7</ele>
        <time>2024-09-29T11:27:36.000Z</time>
      </trkpt>
      <trkpt lat="43.58042" lon="6.10573">
        <ele>468.7</ele>
        <time>2024-09-29T11:27:37.000Z</time>
      </trkpt>
      <trkpt lat="43.58042" lon="6.10573">
        <ele>468.7</ele>
        <time>2024-09-29T11:29:01.000Z</time>
      </trkpt>
      <trkpt lat="43.58042" lon="6.10573">
        <ele>468.7</ele>
        <time>2024-09-29T11:29:02.000Z</time>
      </trkpt>
      <trkpt lat="43.58042" lon="6.10573">
        <ele>468.7</ele>
        <time>2024-09-29T11:29:03.000Z</time>
      </trkpt>
      <trkpt lat="43.58042" lon="6.10573">
        <ele>468.7</ele>
        <time>2024-09-29T11:29:04.000Z</time>
      </trkpt>
      <trkpt lat="43.58042" lon="6.10573">
        <ele>468.7</ele>
        <time>2024-09-29T11:29:05.000Z</time>
      </trkpt>
      <trkpt lat="43.58043" lon="6.10573">
        <ele>468.7</ele>
        <time>2024-09-29T11:29:11.000Z</time>
      </trkpt>
      <trkpt lat="43.58044" lon="6.10572">
        <ele>468.7</ele>
        <time>2024-09-29T11:29:12.000Z</time>
      </trkpt>
      <trkpt lat="43.58045" lon="6.10571">
        <ele>468.7</ele>
        <time>2024-09-29T11:29:13.000Z</time>
      </trkpt>
      <trkpt lat="43.58038" lon="6.10562">
        <ele>468.7</ele>
        <time>2024-09-29T11:29:26.000Z</time>
      </trkpt>
      <trkpt lat="43.58034" lon="6.10559">
        <ele>468.8</ele>
        <time>2024-09-29T11:29:41.000Z</time>
      </trkpt>
      <trkpt lat="43.58034" lon="6.1056">
        <ele>468.8</ele>
        <time>2024-09-29T11:29:42.000Z</time>
      </trkpt>
      <trkpt lat="43.58034" lon="6.1056">
        <ele>468.8</ele>
        <time>2024-09-29T11:29:43.000Z</time>
      </trkpt>
      <trkpt lat="43.58034" lon="6.1056">
        <ele>468.8</ele>
        <time>2024-09-29T11:29:44.000Z</time>
      </trkpt>
      <trkpt lat="43.58024" lon="6.10562">
        <ele>468.7</ele>
        <time>2024-09-29T11:29:57.000Z</time>
      </trkpt>
      <trkpt lat="43.58015" lon="6.10565">
        <ele>468.3</ele>
        <time>2024-09-29T11:30:10.000Z</time>
      </trkpt>
      <trkpt lat="43.58006" lon="6.10569">
        <ele>468</ele>
        <time>2024-09-29T11:30:21.000Z</time>
      </trkpt>
      <trkpt lat="43.57997" lon="6.1057">
        <ele>467.9</ele>
        <time>2024-09-29T11:30:32.000Z</time>
      </trkpt>
      <trkpt lat="43.57988" lon="6.10574">
        <ele>467.7</ele>
        <time>2024-09-29T11:30:43.000Z</time>
      </trkpt>
      <trkpt lat="43.57979" lon="6.10577">
        <ele>467.5</ele>
        <time>2024-09-29T11:30:54.000Z</time>
      </trkpt>
      <trkpt lat="43.5797" lon="6.1058">
        <ele>467.3</ele>
        <time>2024-09-29T11:31:05.000Z</time>
      </trkpt>
      <trkpt lat="43.5796" lon="6.10581">
        <ele>467.1</ele>
        <time>2024-09-29T11:31:15.000Z</time>
      </trkpt>
      <trkpt lat="43.57951" lon="6.10584">
        <ele>466.9</ele>
        <time>2024-09-29T11:31:26.000Z</time>
      </trkpt>
      <trkpt lat="43.57942" lon="6.10587">
        <ele>466.7</ele>
        <time>2024-09-29T11:31:37.000Z</time>
      </trkpt>
      <trkpt lat="43.57933" lon="6.10592">
        <ele>466.5</ele>
        <time>2024-09-29T11:31:49.000Z</time>
      </trkpt>
      <trkpt lat="43.57924" lon="6.10592">
        <ele>466.5</ele>
        <time>2024-09-29T11:31:59.000Z</time>
      </trkpt>
      <trkpt lat="43.57914" lon="6.10595">
        <ele>466.3</ele>
        <time>2024-09-29T11:32:10.000Z</time>
      </trkpt>
      <trkpt lat="43.57905" lon="6.10598">
        <ele>465.9</ele>
        <time>2024-09-29T11:32:20.000Z</time>
      </trkpt>
      <trkpt lat="43.57896" lon="6.10601">
        <ele>465.7</ele>
        <time>2024-09-29T11:32:31.000Z</time>
      </trkpt>
      <trkpt lat="43.57887" lon="6.10603">
        <ele>465.6</ele>
        <time>2024-09-29T11:32:42.000Z</time>
      </trkpt>
      <trkpt lat="43.57878" lon="6.10608">
        <ele>465.7</ele>
        <time>2024-09-29T11:32:53.000Z</time>
      </trkpt>
      <trkpt lat="43.57869" lon="6.10612">
        <ele>465.6</ele>
        <time>2024-09-29T11:33:03.000Z</time>
      </trkpt>
      <trkpt lat="43.57859" lon="6.10613">
        <ele>465.6</ele>
        <time>2024-09-29T11:33:12.000Z</time>
      </trkpt>
      <trkpt lat="43.57851" lon="6.10616">
        <ele>465.7</ele>
        <time>2024-09-29T11:33:22.000Z</time>
      </trkpt>
      <trkpt lat="43.57842" lon="6.10618">
        <ele>465.7</ele>
        <time>2024-09-29T11:33:32.000Z</time>
      </trkpt>
      <trkpt lat="43.57832" lon="6.10619">
        <ele>465.7</ele>
        <time>2024-09-29T11:33:43.000Z</time>
      </trkpt>
      <trkpt lat="43.57823" lon="6.10622">
        <ele>465.7</ele>
        <time>2024-09-29T11:33:52.000Z</time>
      </trkpt>
      <trkpt lat="43.57814" lon="6.10625">
        <ele>465.6</ele>
        <time>2024-09-29T11:34:02.000Z</time>
      </trkpt>
      <trkpt lat="43.57804" lon="6.10629">
        <ele>465.8</ele>
        <time>2024-09-29T11:34:11.000Z</time>
      </trkpt>
      <trkpt lat="43.57797" lon="6.10635">
        <ele>465.9</ele>
        <time>2024-09-29T11:34:21.000Z</time>
      </trkpt>
      <trkpt lat="43.57787" lon="6.10635">
        <ele>466</ele>
        <time>2024-09-29T11:34:31.000Z</time>
      </trkpt>
      <trkpt lat="43.57779" lon="6.10643">
        <ele>466</ele>
        <time>2024-09-29T11:34:46.000Z</time>
      </trkpt>
      <trkpt lat="43.5777" lon="6.10644">
        <ele>466</ele>
        <time>2024-09-29T11:34:55.000Z</time>
      </trkpt>
      <trkpt lat="43.57761" lon="6.10646">
        <ele>465.8</ele>
        <time>2024-09-29T11:35:10.000Z</time>
      </trkpt>
      <trkpt lat="43.57752" lon="6.10651">
        <ele>465.6</ele>
        <time>2024-09-29T11:35:21.000Z</time>
      </trkpt>
      <trkpt lat="43.57743" lon="6.10655">
        <ele>465.5</ele>
        <time>2024-09-29T11:35:30.000Z</time>
      </trkpt>
      <trkpt lat="43.57734" lon="6.10657">
        <ele>465.2</ele>
        <time>2024-09-29T11:35:44.000Z</time>
      </trkpt>
      <trkpt lat="43.57725" lon="6.10659">
        <ele>464.9</ele>
        <time>2024-09-29T11:35:55.000Z</time>
      </trkpt>
      <trkpt lat="43.57715" lon="6.10661">
        <ele>464.3</ele>
        <time>2024-09-29T11:36:08.000Z</time>
      </trkpt>
      <trkpt lat="43.57706" lon="6.10663">
        <ele>463.9</ele>
        <time>2024-09-29T11:36:18.000Z</time>
      </trkpt>
      <trkpt lat="43.57696" lon="6.10665">
        <ele>463.6</ele>
        <time>2024-09-29T11:36:28.000Z</time>
      </trkpt>
      <trkpt lat="43.57687" lon="6.10667">
        <ele>463.4</ele>
        <time>2024-09-29T11:36:39.000Z</time>
      </trkpt>
      <trkpt lat="43.57677" lon="6.10671">
        <ele>463.2</ele>
        <time>2024-09-29T11:36:51.000Z</time>
      </trkpt>
      <trkpt lat="43.57668" lon="6.10674">
        <ele>463.2</ele>
        <time>2024-09-29T11:36:59.000Z</time>
      </trkpt>
      <trkpt lat="43.57659" lon="6.10677">
        <ele>463.1</ele>
        <time>2024-09-29T11:37:08.000Z</time>
      </trkpt>
      <trkpt lat="43.5765" lon="6.1068">
        <ele>462.9</ele>
        <time>2024-09-29T11:37:18.000Z</time>
      </trkpt>
      <trkpt lat="43.57641" lon="6.10682">
        <ele>462.5</ele>
        <time>2024-09-29T11:37:28.000Z</time>
      </trkpt>
      <trkpt lat="43.57632" lon="6.10683">
        <ele>461.8</ele>
        <time>2024-09-29T11:37:40.000Z</time>
      </trkpt>
      <trkpt lat="43.57622" lon="6.10686">
        <ele>461.2</ele>
        <time>2024-09-29T11:37:57.000Z</time>
      </trkpt>
      <trkpt lat="43.57613" lon="6.10686">
        <ele>460.6</ele>
        <time>2024-09-29T11:38:07.000Z</time>
      </trkpt>
      <trkpt lat="43.57603" lon="6.10688">
        <ele>460.1</ele>
        <time>2024-09-29T11:38:19.000Z</time>
      </trkpt>
      <trkpt lat="43.57594" lon="6.10693">
        <ele>459.5</ele>
        <time>2024-09-29T11:38:28.000Z</time>
      </trkpt>
      <trkpt lat="43.57585" lon="6.107">
        <ele>459.2</ele>
        <time>2024-09-29T11:38:35.000Z</time>
      </trkpt>
      <trkpt lat="43.57577" lon="6.10706">
        <ele>458.8</ele>
        <time>2024-09-29T11:38:44.000Z</time>
      </trkpt>
      <trkpt lat="43.57569" lon="6.10713">
        <ele>458.3</ele>
        <time>2024-09-29T11:38:54.000Z</time>
      </trkpt>
      <trkpt lat="43.57561" lon="6.10718">
        <ele>457.8</ele>
        <time>2024-09-29T11:39:06.000Z</time>
      </trkpt>
      <trkpt lat="43.57553" lon="6.10725">
        <ele>457.2</ele>
        <time>2024-09-29T11:39:17.000Z</time>
      </trkpt>
      <trkpt lat="43.57544" lon="6.10725">
        <ele>456.5</ele>
        <time>2024-09-29T11:39:31.000Z</time>
      </trkpt>
      <trkpt lat="43.57538" lon="6.10724">
        <ele>455.5</ele>
        <time>2024-09-29T11:39:44.000Z</time>
      </trkpt>
      <trkpt lat="43.57538" lon="6.10724">
        <ele>455.5</ele>
        <time>2024-09-29T11:39:45.000Z</time>
      </trkpt>
      <trkpt lat="43.57538" lon="6.10725">
        <ele>455.4</ele>
        <time>2024-09-29T11:39:46.000Z</time>
      </trkpt>
      <trkpt lat="43.57538" lon="6.10725">
        <ele>455.3</ele>
        <time>2024-09-29T11:39:47.000Z</time>
      </trkpt>
      <trkpt lat="43.57538" lon="6.10725">
        <ele>455.2</ele>
        <time>2024-09-29T11:39:48.000Z</time>
      </trkpt>
      <trkpt lat="43.57538" lon="6.10725">
        <ele>455.2</ele>
        <time>2024-09-29T11:39:49.000Z</time>
      </trkpt>
      <trkpt lat="43.57538" lon="6.10725">
        <ele>455.1</ele>
        <time>2024-09-29T11:39:50.000Z</time>
      </trkpt>
      <trkpt lat="43.57538" lon="6.10725">
        <ele>455</ele>
        <time>2024-09-29T11:39:51.000Z</time>
      </trkpt>
      <trkpt lat="43.57537" lon="6.10725">
        <ele>455</ele>
        <time>2024-09-29T11:39:52.000Z</time>
      </trkpt>
      <trkpt lat="43.57528" lon="6.10723">
        <ele>454.4</ele>
        <time>2024-09-29T11:40:05.000Z</time>
      </trkpt>
      <trkpt lat="43.57518" lon="6.10723">
        <ele>453.2</ele>
        <time>2024-09-29T11:40:16.000Z</time>
      </trkpt>
      <trkpt lat="43.57509" lon="6.10725">
        <ele>452</ele>
        <time>2024-09-29T11:40:29.000Z</time>
      </trkpt>
      <trkpt lat="43.575" lon="6.10723">
        <ele>451.2</ele>
        <time>2024-09-29T11:40:44.000Z</time>
      </trkpt>
      <trkpt lat="43.5749" lon="6.10725">
        <ele>450.6</ele>
        <time>2024-09-29T11:40:56.000Z</time>
      </trkpt>
      <trkpt lat="43.5748" lon="6.10726">
        <ele>450.2</ele>
        <time>2024-09-29T11:41:08.000Z</time>
      </trkpt>
      <trkpt lat="43.57471" lon="6.10722">
        <ele>450.1</ele>
        <time>2024-09-29T11:41:19.000Z</time>
      </trkpt>
      <trkpt lat="43.57462" lon="6.10727">
        <ele>450.3</ele>
        <time>2024-09-29T11:41:30.000Z</time>
      </trkpt>
      <trkpt lat="43.57453" lon="6.10725">
        <ele>450.2</ele>
        <time>2024-09-29T11:41:42.000Z</time>
      </trkpt>
      <trkpt lat="43.57443" lon="6.10727">
        <ele>450</ele>
        <time>2024-09-29T11:41:52.000Z</time>
      </trkpt>
      <trkpt lat="43.57434" lon="6.1073">
        <ele>450.1</ele>
        <time>2024-09-29T11:42:01.000Z</time>
      </trkpt>
      <trkpt lat="43.57427" lon="6.10738">
        <ele>450.1</ele>
        <time>2024-09-29T11:42:11.000Z</time>
      </trkpt>
      <trkpt lat="43.57419" lon="6.10744">
        <ele>450.3</ele>
        <time>2024-09-29T11:42:22.000Z</time>
      </trkpt>
      <trkpt lat="43.57417" lon="6.10749">
        <ele>450.4</ele>
        <time>2024-09-29T11:42:30.000Z</time>
      </trkpt>
      <trkpt lat="43.57417" lon="6.1075">
        <ele>450.4</ele>
        <time>2024-09-29T11:42:31.000Z</time>
      </trkpt>
      <trkpt lat="43.57417" lon="6.10751">
        <ele>450.4</ele>
        <time>2024-09-29T11:42:32.000Z</time>
      </trkpt>
      <trkpt lat="43.57416" lon="6.10751">
        <ele>450.4</ele>
        <time>2024-09-29T11:42:33.000Z</time>
      </trkpt>
      <trkpt lat="43.57416" lon="6.10752">
        <ele>450.4</ele>
        <time>2024-09-29T11:42:34.000Z</time>
      </trkpt>
      <trkpt lat="43.57418" lon="6.10751">
        <ele>450.6</ele>
        <time>2024-09-29T11:42:40.000Z</time>
      </trkpt>
      <trkpt lat="43.57418" lon="6.10751">
        <ele>450.6</ele>
        <time>2024-09-29T11:42:41.000Z</time>
      </trkpt>
      <trkpt lat="43.57418" lon="6.10751">
        <ele>450.6</ele>
        <time>2024-09-29T11:42:42.000Z</time>
      </trkpt>
      <trkpt lat="43.57419" lon="6.10751">
        <ele>450.7</ele>
        <time>2024-09-29T11:42:46.000Z</time>
      </trkpt>
      <trkpt lat="43.5742" lon="6.10751">
        <ele>450.7</ele>
        <time>2024-09-29T11:42:47.000Z</time>
      </trkpt>
      <trkpt lat="43.5742" lon="6.10752">
        <ele>450.8</ele>
        <time>2024-09-29T11:42:53.000Z</time>
      </trkpt>
      <trkpt lat="43.5742" lon="6.10752">
        <ele>450.9</ele>
        <time>2024-09-29T11:42:54.000Z</time>
      </trkpt>
      <trkpt lat="43.57421" lon="6.10753">
        <ele>450.8</ele>
        <time>2024-09-29T11:43:08.000Z</time>
      </trkpt>
      <trkpt lat="43.57421" lon="6.10753">
        <ele>450.8</ele>
        <time>2024-09-29T11:43:09.000Z</time>
      </trkpt>
      <trkpt lat="43.57421" lon="6.10753">
        <ele>450.8</ele>
        <time>2024-09-29T11:43:10.000Z</time>
      </trkpt>
      <trkpt lat="43.57421" lon="6.10754">
        <ele>450.8</ele>
        <time>2024-09-29T11:43:11.000Z</time>
      </trkpt>
      <trkpt lat="43.5742" lon="6.10754">
        <ele>450.8</ele>
        <time>2024-09-29T11:43:12.000Z</time>
      </trkpt>
      <trkpt lat="43.5742" lon="6.10754">
        <ele>450.8</ele>
        <time>2024-09-29T11:43:13.000Z</time>
      </trkpt>
      <trkpt lat="43.5742" lon="6.10755">
        <ele>450.7</ele>
        <time>2024-09-29T11:43:31.000Z</time>
      </trkpt>
      <trkpt lat="43.57419" lon="6.10755">
        <ele>450.7</ele>
        <time>2024-09-29T11:43:32.000Z</time>
      </trkpt>
      <trkpt lat="43.5741" lon="6.10757">
        <ele>450.7</ele>
        <time>2024-09-29T11:43:44.000Z</time>
      </trkpt>
      <trkpt lat="43.57401" lon="6.10761">
        <ele>451.5</ele>
        <time>2024-09-29T11:43:57.000Z</time>
      </trkpt>
      <trkpt lat="43.57393" lon="6.10766">
        <ele>453</ele>
        <time>2024-09-29T11:44:15.000Z</time>
      </trkpt>
      <trkpt lat="43.57384" lon="6.10772">
        <ele>453.8</ele>
        <time>2024-09-29T11:44:29.000Z</time>
      </trkpt>
      <trkpt lat="43.57375" lon="6.10775">
        <ele>455.2</ele>
        <time>2024-09-29T11:44:47.000Z</time>
      </trkpt>
      <trkpt lat="43.57366" lon="6.10778">
        <ele>456.6</ele>
        <time>2024-09-29T11:45:03.000Z</time>
      </trkpt>
      <trkpt lat="43.57359" lon="6.10786">
        <ele>457.9</ele>
        <time>2024-09-29T11:45:16.000Z</time>
      </trkpt>
      <trkpt lat="43.5735" lon="6.10789">
        <ele>458.9</ele>
        <time>2024-09-29T11:45:31.000Z</time>
      </trkpt>
      <trkpt lat="43.57343" lon="6.10798">
        <ele>460.5</ele>
        <time>2024-09-29T11:45:50.000Z</time>
      </trkpt>
      <trkpt lat="43.57334" lon="6.10796">
        <ele>461.5</ele>
        <time>2024-09-29T11:46:02.000Z</time>
      </trkpt>
      <trkpt lat="43.57326" lon="6.10791">
        <ele>462.5</ele>
        <time>2024-09-29T11:46:18.000Z</time>
      </trkpt>
      <trkpt lat="43.57317" lon="6.10793">
        <ele>463.7</ele>
        <time>2024-09-29T11:46:32.000Z</time>
      </trkpt>
      <trkpt lat="43.57308" lon="6.10798">
        <ele>464.5</ele>
        <time>2024-09-29T11:46:47.000Z</time>
      </trkpt>
      <trkpt lat="43.57299" lon="6.10801">
        <ele>465.3</ele>
        <time>2024-09-29T11:47:01.000Z</time>
      </trkpt>
      <trkpt lat="43.5729" lon="6.10799">
        <ele>465.9</ele>
        <time>2024-09-29T11:47:12.000Z</time>
      </trkpt>
      <trkpt lat="43.57281" lon="6.108">
        <ele>466.6</ele>
        <time>2024-09-29T11:47:25.000Z</time>
      </trkpt>
      <trkpt lat="43.57272" lon="6.10804">
        <ele>467.3</ele>
        <time>2024-09-29T11:47:38.000Z</time>
      </trkpt>
      <trkpt lat="43.57263" lon="6.10808">
        <ele>468.1</ele>
        <time>2024-09-29T11:47:50.000Z</time>
      </trkpt>
      <trkpt lat="43.57254" lon="6.10807">
        <ele>468.5</ele>
        <time>2024-09-29T11:48:02.000Z</time>
      </trkpt>
      <trkpt lat="43.57245" lon="6.10806">
        <ele>469.1</ele>
        <time>2024-09-29T11:48:13.000Z</time>
      </trkpt>
      <trkpt lat="43.57235" lon="6.10804">
        <ele>469.7</ele>
        <time>2024-09-29T11:48:26.000Z</time>
      </trkpt>
      <trkpt lat="43.57227" lon="6.10809">
        <ele>470.1</ele>
        <time>2024-09-29T11:48:38.000Z</time>
      </trkpt>
      <trkpt lat="43.57217" lon="6.10812">
        <ele>470.1</ele>
        <time>2024-09-29T11:48:47.000Z</time>
      </trkpt>
      <trkpt lat="43.57209" lon="6.10817">
        <ele>470.1</ele>
        <time>2024-09-29T11:48:57.000Z</time>
      </trkpt>
      <trkpt lat="43.572" lon="6.10822">
        <ele>470.3</ele>
        <time>2024-09-29T11:49:08.000Z</time>
      </trkpt>
      <trkpt lat="43.57191" lon="6.10825">
        <ele>470.5</ele>
        <time>2024-09-29T11:49:19.000Z</time>
      </trkpt>
      <trkpt lat="43.57182" lon="6.10828">
        <ele>470.9</ele>
        <time>2024-09-29T11:49:33.000Z</time>
      </trkpt>
      <trkpt lat="43.57173" lon="6.10831">
        <ele>471.5</ele>
        <time>2024-09-29T11:49:47.000Z</time>
      </trkpt>
      <trkpt lat="43.57164" lon="6.10835">
        <ele>472.3</ele>
        <time>2024-09-29T11:50:00.000Z</time>
      </trkpt>
      <trkpt lat="43.57155" lon="6.10839">
        <ele>472.8</ele>
        <time>2024-09-29T11:50:10.000Z</time>
      </trkpt>
      <trkpt lat="43.57147" lon="6.10844">
        <ele>473.7</ele>
        <time>2024-09-29T11:50:22.000Z</time>
      </trkpt>
      <trkpt lat="43.57138" lon="6.10841">
        <ele>474.7</ele>
        <time>2024-09-29T11:50:38.000Z</time>
      </trkpt>
      <trkpt lat="43.57129" lon="6.10842">
        <ele>475.2</ele>
        <time>2024-09-29T11:50:48.000Z</time>
      </trkpt>
      <trkpt lat="43.57119" lon="6.10843">
        <ele>475.4</ele>
        <time>2024-09-29T11:50:58.000Z</time>
      </trkpt>
      <trkpt lat="43.5711" lon="6.10845">
        <ele>475.8</ele>
        <time>2024-09-29T11:51:09.000Z</time>
      </trkpt>
      <trkpt lat="43.57103" lon="6.10854">
        <ele>476.1</ele>
        <time>2024-09-29T11:51:23.000Z</time>
      </trkpt>
      <trkpt lat="43.57097" lon="6.10865">
        <ele>476.7</ele>
        <time>2024-09-29T11:51:35.000Z</time>
      </trkpt>
      <trkpt lat="43.57089" lon="6.10873">
        <ele>477.2</ele>
        <time>2024-09-29T11:51:47.000Z</time>
      </trkpt>
      <trkpt lat="43.5708" lon="6.10874">
        <ele>477.5</ele>
        <time>2024-09-29T11:51:58.000Z</time>
      </trkpt>
      <trkpt lat="43.57071" lon="6.10878">
        <ele>477.7</ele>
        <time>2024-09-29T11:52:07.000Z</time>
      </trkpt>
      <trkpt lat="43.57073" lon="6.10894">
        <ele>479.2</ele>
        <time>2024-09-29T12:12:00.000Z</time>
      </trkpt>
      <trkpt lat="43.57073" lon="6.10894">
        <ele>479.2</ele>
        <time>2024-09-29T12:12:01.000Z</time>
      </trkpt>
      <trkpt lat="43.57073" lon="6.10894">
        <ele>479.2</ele>
        <time>2024-09-29T12:12:02.000Z</time>
      </trkpt>
      <trkpt lat="43.57072" lon="6.10894">
        <ele>479</ele>
        <time>2024-09-29T12:12:11.000Z</time>
      </trkpt>
      <trkpt lat="43.57072" lon="6.10894">
        <ele>479.1</ele>
        <time>2024-09-29T12:12:12.000Z</time>
      </trkpt>
      <trkpt lat="43.57071" lon="6.10894">
        <ele>479.2</ele>
        <time>2024-09-29T12:12:13.000Z</time>
      </trkpt>
      <trkpt lat="43.57074" lon="6.10895">
        <ele>479.5</ele>
        <time>2024-09-29T12:12:31.000Z</time>
      </trkpt>
      <trkpt lat="43.57074" lon="6.10895">
        <ele>479.5</ele>
        <time>2024-09-29T12:12:32.000Z</time>
      </trkpt>
      <trkpt lat="43.57074" lon="6.10895">
        <ele>479.5</ele>
        <time>2024-09-29T12:12:33.000Z</time>
      </trkpt>
      <trkpt lat="43.57074" lon="6.10895">
        <ele>479.5</ele>
        <time>2024-09-29T12:12:34.000Z</time>
      </trkpt>
      <trkpt lat="43.57079" lon="6.10906">
        <ele>479.5</ele>
        <time>2024-09-29T12:12:55.000Z</time>
      </trkpt>
      <trkpt lat="43.57082" lon="6.10918">
        <ele>479.3</ele>
        <time>2024-09-29T12:13:03.000Z</time>
      </trkpt>
      <trkpt lat="43.57087" lon="6.1093">
        <ele>478.9</ele>
        <time>2024-09-29T12:13:14.000Z</time>
      </trkpt>
      <trkpt lat="43.57095" lon="6.10938">
        <ele>478.5</ele>
        <time>2024-09-29T12:13:29.000Z</time>
      </trkpt>
      <trkpt lat="43.57102" lon="6.10947">
        <ele>478.3</ele>
        <time>2024-09-29T12:13:36.000Z</time>
      </trkpt>
      <trkpt lat="43.57105" lon="6.1096">
        <ele>477.9</ele>
        <time>2024-09-29T12:13:48.000Z</time>
      </trkpt>
      <trkpt lat="43.57107" lon="6.10973">
        <ele>477.7</ele>
        <time>2024-09-29T12:14:00.000Z</time>
      </trkpt>
      <trkpt lat="43.57114" lon="6.10983">
        <ele>477.7</ele>
        <time>2024-09-29T12:14:10.000Z</time>
      </trkpt>
      <trkpt lat="43.57121" lon="6.10994">
        <ele>477.6</ele>
        <time>2024-09-29T12:14:19.000Z</time>
      </trkpt>
      <trkpt lat="43.57127" lon="6.11004">
        <ele>477.2</ele>
        <time>2024-09-29T12:14:29.000Z</time>
      </trkpt>
      <trkpt lat="43.57132" lon="6.11015">
        <ele>476.7</ele>
        <time>2024-09-29T12:14:40.000Z</time>
      </trkpt>
      <trkpt lat="43.57137" lon="6.11024">
        <ele>476.4</ele>
        <time>2024-09-29T12:14:52.000Z</time>
      </trkpt>
      <trkpt lat="43.5714" lon="6.11037">
        <ele>476.4</ele>
        <time>2024-09-29T12:15:03.000Z</time>
      </trkpt>
      <trkpt lat="43.57142" lon="6.1105">
        <ele>476.7</ele>
        <time>2024-09-29T12:15:14.000Z</time>
      </trkpt>
      <trkpt lat="43.57143" lon="6.11062">
        <ele>476.9</ele>
        <time>2024-09-29T12:15:28.000Z</time>
      </trkpt>
      <trkpt lat="43.57144" lon="6.11075">
        <ele>477.2</ele>
        <time>2024-09-29T12:15:40.000Z</time>
      </trkpt>
      <trkpt lat="43.57141" lon="6.11087">
        <ele>477.3</ele>
        <time>2024-09-29T12:15:52.000Z</time>
      </trkpt>
      <trkpt lat="43.57135" lon="6.11097">
        <ele>477.4</ele>
        <time>2024-09-29T12:16:03.000Z</time>
      </trkpt>
      <trkpt lat="43.57133" lon="6.1111">
        <ele>477.4</ele>
        <time>2024-09-29T12:16:12.000Z</time>
      </trkpt>
      <trkpt lat="43.57131" lon="6.11123">
        <ele>477.3</ele>
        <time>2024-09-29T12:16:24.000Z</time>
      </trkpt>
      <trkpt lat="43.5713" lon="6.11136">
        <ele>477.3</ele>
        <time>2024-09-29T12:16:36.000Z</time>
      </trkpt>
      <trkpt lat="43.57133" lon="6.11149">
        <ele>477.3</ele>
        <time>2024-09-29T12:16:46.000Z</time>
      </trkpt>
      <trkpt lat="43.57138" lon="6.1116">
        <ele>477.2</ele>
        <time>2024-09-29T12:16:55.000Z</time>
      </trkpt>
      <trkpt lat="43.57133" lon="6.11172">
        <ele>476.9</ele>
        <time>2024-09-29T12:17:05.000Z</time>
      </trkpt>
      <trkpt lat="43.57129" lon="6.11184">
        <ele>476.6</ele>
        <time>2024-09-29T12:17:14.000Z</time>
      </trkpt>
      <trkpt lat="43.57131" lon="6.11197">
        <ele>476.6</ele>
        <time>2024-09-29T12:17:23.000Z</time>
      </trkpt>
      <trkpt lat="43.57129" lon="6.1121">
        <ele>476.5</ele>
        <time>2024-09-29T12:17:32.000Z</time>
      </trkpt>
      <trkpt lat="43.57134" lon="6.11221">
        <ele>476.4</ele>
        <time>2024-09-29T12:17:40.000Z</time>
      </trkpt>
      <trkpt lat="43.57141" lon="6.11228">
        <ele>476.3</ele>
        <time>2024-09-29T12:17:48.000Z</time>
      </trkpt>
      <trkpt lat="43.57147" lon="6.11238">
        <ele>476.1</ele>
        <time>2024-09-29T12:18:03.000Z</time>
      </trkpt>
      <trkpt lat="43.57153" lon="6.11248">
        <ele>476</ele>
        <time>2024-09-29T12:18:12.000Z</time>
      </trkpt>
      <trkpt lat="43.57157" lon="6.1126">
        <ele>476</ele>
        <time>2024-09-29T12:18:23.000Z</time>
      </trkpt>
      <trkpt lat="43.57164" lon="6.11269">
        <ele>476.1</ele>
        <time>2024-09-29T12:18:32.000Z</time>
      </trkpt>
      <trkpt lat="43.5717" lon="6.11279">
        <ele>476.1</ele>
        <time>2024-09-29T12:18:42.000Z</time>
      </trkpt>
      <trkpt lat="43.57178" lon="6.11285">
        <ele>476</ele>
        <time>2024-09-29T12:18:51.000Z</time>
      </trkpt>
      <trkpt lat="43.57185" lon="6.11293">
        <ele>475.8</ele>
        <time>2024-09-29T12:19:00.000Z</time>
      </trkpt>
      <trkpt lat="43.57193" lon="6.11299">
        <ele>475.3</ele>
        <time>2024-09-29T12:19:12.000Z</time>
      </trkpt>
      <trkpt lat="43.57203" lon="6.11299">
        <ele>474.7</ele>
        <time>2024-09-29T12:19:23.000Z</time>
      </trkpt>
      <trkpt lat="43.57213" lon="6.11297">
        <ele>473.9</ele>
        <time>2024-09-29T12:19:34.000Z</time>
      </trkpt>
      <trkpt lat="43.57222" lon="6.11298">
        <ele>472.4</ele>
        <time>2024-09-29T12:19:49.000Z</time>
      </trkpt>
      <trkpt lat="43.57231" lon="6.11304">
        <ele>470.7</ele>
        <time>2024-09-29T12:20:02.000Z</time>
      </trkpt>
      <trkpt lat="43.5724" lon="6.11301">
        <ele>470.1</ele>
        <time>2024-09-29T12:20:11.000Z</time>
      </trkpt>
      <trkpt lat="43.57249" lon="6.11297">
        <ele>469.8</ele>
        <time>2024-09-29T12:20:20.000Z</time>
      </trkpt>
      <trkpt lat="43.57258" lon="6.113">
        <ele>468.5</ele>
        <time>2024-09-29T12:20:41.000Z</time>
      </trkpt>
      <trkpt lat="43.57262" lon="6.11299">
        <ele>468.1</ele>
        <time>2024-09-29T12:20:50.000Z</time>
      </trkpt>
      <trkpt lat="43.57262" lon="6.11298">
        <ele>468.1</ele>
        <time>2024-09-29T12:20:51.000Z</time>
      </trkpt>
      <trkpt lat="43.57262" lon="6.11298">
        <ele>468.1</ele>
        <time>2024-09-29T12:20:52.000Z</time>
      </trkpt>
      <trkpt lat="43.57262" lon="6.11298">
        <ele>467.9</ele>
        <time>2024-09-29T12:20:56.000Z</time>
      </trkpt>
      <trkpt lat="43.57263" lon="6.11298">
        <ele>467.9</ele>
        <time>2024-09-29T12:20:57.000Z</time>
      </trkpt>
      <trkpt lat="43.57263" lon="6.11298">
        <ele>467.9</ele>
        <time>2024-09-29T12:20:58.000Z</time>
      </trkpt>
      <trkpt lat="43.57272" lon="6.11296">
        <ele>467.7</ele>
        <time>2024-09-29T12:21:10.000Z</time>
      </trkpt>
      <trkpt lat="43.57282" lon="6.11295">
        <ele>467.4</ele>
        <time>2024-09-29T12:21:22.000Z</time>
      </trkpt>
      <trkpt lat="43.57291" lon="6.11292">
        <ele>467.1</ele>
        <time>2024-09-29T12:21:30.000Z</time>
      </trkpt>
      <trkpt lat="43.573" lon="6.11289">
        <ele>466.7</ele>
        <time>2024-09-29T12:21:38.000Z</time>
      </trkpt>
      <trkpt lat="43.57309" lon="6.11288">
        <ele>466.6</ele>
        <time>2024-09-29T12:21:45.000Z</time>
      </trkpt>
      <trkpt lat="43.57318" lon="6.11287">
        <ele>466.2</ele>
        <time>2024-09-29T12:21:57.000Z</time>
      </trkpt>
      <trkpt lat="43.57327" lon="6.11281">
        <ele>466</ele>
        <time>2024-09-29T12:22:09.000Z</time>
      </trkpt>
      <trkpt lat="43.57336" lon="6.11277">
        <ele>465.7</ele>
        <time>2024-09-29T12:22:16.000Z</time>
      </trkpt>
      <trkpt lat="43.57334" lon="6.11274">
        <ele>465.6</ele>
        <time>2024-09-29T12:22:21.000Z</time>
      </trkpt>
      <trkpt lat="43.57334" lon="6.11274">
        <ele>465.6</ele>
        <time>2024-09-29T12:22:22.000Z</time>
      </trkpt>
      <trkpt lat="43.57334" lon="6.11271">
        <ele>465.2</ele>
        <time>2024-09-29T12:22:33.000Z</time>
      </trkpt>
      <trkpt lat="43.57335" lon="6.11271">
        <ele>465.2</ele>
        <time>2024-09-29T12:22:34.000Z</time>
      </trkpt>
      <trkpt lat="43.57344" lon="6.1127">
        <ele>465.1</ele>
        <time>2024-09-29T12:22:41.000Z</time>
      </trkpt>
      <trkpt lat="43.57355" lon="6.11268">
        <ele>465</ele>
        <time>2024-09-29T12:22:55.000Z</time>
      </trkpt>
      <trkpt lat="43.57364" lon="6.11268">
        <ele>464.9</ele>
        <time>2024-09-29T12:23:04.000Z</time>
      </trkpt>
      <trkpt lat="43.57374" lon="6.11266">
        <ele>464.4</ele>
        <time>2024-09-29T12:23:14.000Z</time>
      </trkpt>
      <trkpt lat="43.57384" lon="6.11268">
        <ele>463.9</ele>
        <time>2024-09-29T12:23:25.000Z</time>
      </trkpt>
      <trkpt lat="43.57393" lon="6.11268">
        <ele>463.4</ele>
        <time>2024-09-29T12:23:36.000Z</time>
      </trkpt>
      <trkpt lat="43.57402" lon="6.11265">
        <ele>463</ele>
        <time>2024-09-29T12:23:42.000Z</time>
      </trkpt>
      <trkpt lat="43.57413" lon="6.11264">
        <ele>462.1</ele>
        <time>2024-09-29T12:23:52.000Z</time>
      </trkpt>
      <trkpt lat="43.57421" lon="6.11259">
        <ele>461.6</ele>
        <time>2024-09-29T12:23:58.000Z</time>
      </trkpt>
      <trkpt lat="43.57429" lon="6.11253">
        <ele>461.2</ele>
        <time>2024-09-29T12:24:06.000Z</time>
      </trkpt>
      <trkpt lat="43.57438" lon="6.1125">
        <ele>460.6</ele>
        <time>2024-09-29T12:24:18.000Z</time>
      </trkpt>
      <trkpt lat="43.57447" lon="6.11246">
        <ele>460.4</ele>
        <time>2024-09-29T12:24:25.000Z</time>
      </trkpt>
      <trkpt lat="43.57456" lon="6.11242">
        <ele>460.1</ele>
        <time>2024-09-29T12:24:34.000Z</time>
      </trkpt>
      <trkpt lat="43.57465" lon="6.11239">
        <ele>459.4</ele>
        <time>2024-09-29T12:24:52.000Z</time>
      </trkpt>
      <trkpt lat="43.57474" lon="6.11243">
        <ele>458.4</ele>
        <time>2024-09-29T12:25:05.000Z</time>
      </trkpt>
      <trkpt lat="43.57483" lon="6.11242">
        <ele>458</ele>
        <time>2024-09-29T12:25:14.000Z</time>
      </trkpt>
      <trkpt lat="43.57492" lon="6.11245">
        <ele>457.5</ele>
        <time>2024-09-29T12:25:28.000Z</time>
      </trkpt>
      <trkpt lat="43.57502" lon="6.11245">
        <ele>457.2</ele>
        <time>2024-09-29T12:25:37.000Z</time>
      </trkpt>
      <trkpt lat="43.57511" lon="6.11243">
        <ele>456.7</ele>
        <time>2024-09-29T12:25:50.000Z</time>
      </trkpt>
      <trkpt lat="43.57519" lon="6.11241">
        <ele>456</ele>
        <time>2024-09-29T12:26:08.000Z</time>
      </trkpt>
      <trkpt lat="43.57519" lon="6.11241">
        <ele>456</ele>
        <time>2024-09-29T12:26:09.000Z</time>
      </trkpt>
      <trkpt lat="43.57519" lon="6.11241">
        <ele>455.9</ele>
        <time>2024-09-29T12:26:15.000Z</time>
      </trkpt>
      <trkpt lat="43.57519" lon="6.11241">
        <ele>455.9</ele>
        <time>2024-09-29T12:26:16.000Z</time>
      </trkpt>
      <trkpt lat="43.57519" lon="6.11241">
        <ele>455.9</ele>
        <time>2024-09-29T12:26:17.000Z</time>
      </trkpt>
      <trkpt lat="43.57519" lon="6.1124">
        <ele>455.9</ele>
        <time>2024-09-29T12:26:18.000Z</time>
      </trkpt>
      <trkpt lat="43.57519" lon="6.11241">
        <ele>455.9</ele>
        <time>2024-09-29T12:26:19.000Z</time>
      </trkpt>
      <trkpt lat="43.57519" lon="6.1124">
        <ele>455.8</ele>
        <time>2024-09-29T12:26:20.000Z</time>
      </trkpt>
      <trkpt lat="43.5752" lon="6.1124">
        <ele>455.8</ele>
        <time>2024-09-29T12:26:23.000Z</time>
      </trkpt>
      <trkpt lat="43.5752" lon="6.1124">
        <ele>455.8</ele>
        <time>2024-09-29T12:26:24.000Z</time>
      </trkpt>
      <trkpt lat="43.57519" lon="6.1124">
        <ele>455.8</ele>
        <time>2024-09-29T12:26:25.000Z</time>
      </trkpt>
      <trkpt lat="43.57517" lon="6.11238">
        <ele>455.7</ele>
        <time>2024-09-29T12:26:33.000Z</time>
      </trkpt>
      <trkpt lat="43.57517" lon="6.11238">
        <ele>455.7</ele>
        <time>2024-09-29T12:26:34.000Z</time>
      </trkpt>
      <trkpt lat="43.57517" lon="6.11238">
        <ele>455.7</ele>
        <time>2024-09-29T12:26:35.000Z</time>
      </trkpt>
      <trkpt lat="43.57519" lon="6.11239">
        <ele>455.4</ele>
        <time>2024-09-29T12:27:43.000Z</time>
      </trkpt>
      <trkpt lat="43.57519" lon="6.11239">
        <ele>455.4</ele>
        <time>2024-09-29T12:27:44.000Z</time>
      </trkpt>
      <trkpt lat="43.57519" lon="6.11239">
        <ele>455.4</ele>
        <time>2024-09-29T12:27:45.000Z</time>
      </trkpt>
      <trkpt lat="43.57519" lon="6.11239">
        <ele>455.4</ele>
        <time>2024-09-29T12:27:46.000Z</time>
      </trkpt>
      <trkpt lat="43.57519" lon="6.11239">
        <ele>455.4</ele>
        <time>2024-09-29T12:27:47.000Z</time>
      </trkpt>
      <trkpt lat="43.57518" lon="6.11239">
        <ele>455.4</ele>
        <time>2024-09-29T12:27:53.000Z</time>
      </trkpt>
      <trkpt lat="43.57518" lon="6.11239">
        <ele>455.4</ele>
        <time>2024-09-29T12:27:54.000Z</time>
      </trkpt>
      <trkpt lat="43.57518" lon="6.11238">
        <ele>455.4</ele>
        <time>2024-09-29T12:27:58.000Z</time>
      </trkpt>
      <trkpt lat="43.57518" lon="6.11238">
        <ele>455.4</ele>
        <time>2024-09-29T12:27:59.000Z</time>
      </trkpt>
      <trkpt lat="43.57518" lon="6.11238">
        <ele>455.1</ele>
        <time>2024-09-29T12:28:16.000Z</time>
      </trkpt>
      <trkpt lat="43.57518" lon="6.11238">
        <ele>455.1</ele>
        <time>2024-09-29T12:28:17.000Z</time>
      </trkpt>
      <trkpt lat="43.57518" lon="6.11238">
        <ele>455</ele>
        <time>2024-09-29T12:28:18.000Z</time>
      </trkpt>
      <trkpt lat="43.57518" lon="6.11238">
        <ele>455</ele>
        <time>2024-09-29T12:28:19.000Z</time>
      </trkpt>
      <trkpt lat="43.57518" lon="6.11238">
        <ele>455</ele>
        <time>2024-09-29T12:28:20.000Z</time>
      </trkpt>
      <trkpt lat="43.57518" lon="6.11237">
        <ele>455</ele>
        <time>2024-09-29T12:28:30.000Z</time>
      </trkpt>
      <trkpt lat="43.57518" lon="6.11237">
        <ele>455</ele>
        <time>2024-09-29T12:28:31.000Z</time>
      </trkpt>
      <trkpt lat="43.57518" lon="6.11237">
        <ele>455</ele>
        <time>2024-09-29T12:28:32.000Z</time>
      </trkpt>
      <trkpt lat="43.57518" lon="6.11237">
        <ele>455</ele>
        <time>2024-09-29T12:28:35.000Z</time>
      </trkpt>
      <trkpt lat="43.57518" lon="6.11237">
        <ele>455</ele>
        <time>2024-09-29T12:28:36.000Z</time>
      </trkpt>
      <trkpt lat="43.57518" lon="6.11237">
        <ele>455</ele>
        <time>2024-09-29T12:28:37.000Z</time>
      </trkpt>
      <trkpt lat="43.57518" lon="6.11237">
        <ele>455</ele>
        <time>2024-09-29T12:28:49.000Z</time>
      </trkpt>
      <trkpt lat="43.57519" lon="6.11237">
        <ele>455</ele>
        <time>2024-09-29T12:28:50.000Z</time>
      </trkpt>
      <trkpt lat="43.57528" lon="6.11236">
        <ele>454.9</ele>
        <time>2024-09-29T12:29:04.000Z</time>
      </trkpt>
      <trkpt lat="43.57535" lon="6.11228">
        <ele>455</ele>
        <time>2024-09-29T12:29:15.000Z</time>
      </trkpt>
      <trkpt lat="43.57542" lon="6.11219">
        <ele>454.4</ele>
        <time>2024-09-29T12:29:32.000Z</time>
      </trkpt>
      <trkpt lat="43.5755" lon="6.11213">
        <ele>454</ele>
        <time>2024-09-29T12:29:40.000Z</time>
      </trkpt>
      <trkpt lat="43.57558" lon="6.11204">
        <ele>453.9</ele>
        <time>2024-09-29T12:29:49.000Z</time>
      </trkpt>
      <trkpt lat="43.57559" lon="6.11191">
        <ele>453.8</ele>
        <time>2024-09-29T12:30:01.000Z</time>
      </trkpt>
      <trkpt lat="43.57556" lon="6.11178">
        <ele>453.7</ele>
        <time>2024-09-29T12:30:10.000Z</time>
      </trkpt>
      <trkpt lat="43.57551" lon="6.11168">
        <ele>453.6</ele>
        <time>2024-09-29T12:30:20.000Z</time>
      </trkpt>
      <trkpt lat="43.57553" lon="6.11155">
        <ele>453.5</ele>
        <time>2024-09-29T12:30:31.000Z</time>
      </trkpt>
      <trkpt lat="43.57551" lon="6.11143">
        <ele>453.2</ele>
        <time>2024-09-29T12:30:45.000Z</time>
      </trkpt>
      <trkpt lat="43.5755" lon="6.1113">
        <ele>452.9</ele>
        <time>2024-09-29T12:30:55.000Z</time>
      </trkpt>
      <trkpt lat="43.5755" lon="6.11117">
        <ele>452.9</ele>
        <time>2024-09-29T12:31:06.000Z</time>
      </trkpt>
      <trkpt lat="43.57553" lon="6.11104">
        <ele>452.9</ele>
        <time>2024-09-29T12:31:16.000Z</time>
      </trkpt>
      <trkpt lat="43.57551" lon="6.11091">
        <ele>452.8</ele>
        <time>2024-09-29T12:31:26.000Z</time>
      </trkpt>
      <trkpt lat="43.57548" lon="6.11079">
        <ele>452.7</ele>
        <time>2024-09-29T12:31:38.000Z</time>
      </trkpt>
      <trkpt lat="43.57543" lon="6.11067">
        <ele>452.5</ele>
        <time>2024-09-29T12:31:56.000Z</time>
      </trkpt>
      <trkpt lat="43.5754" lon="6.11055">
        <ele>452.4</ele>
        <time>2024-09-29T12:32:07.000Z</time>
      </trkpt>
      <trkpt lat="43.5754" lon="6.11042">
        <ele>452.2</ele>
        <time>2024-09-29T12:32:20.000Z</time>
      </trkpt>
      <trkpt lat="43.57538" lon="6.11034">
        <ele>452</ele>
        <time>2024-09-29T12:32:35.000Z</time>
      </trkpt>
      <trkpt lat="43.57538" lon="6.11034">
        <ele>452</ele>
        <time>2024-09-29T12:32:36.000Z</time>
      </trkpt>
      <trkpt lat="43.57537" lon="6.11034">
        <ele>452</ele>
        <time>2024-09-29T12:32:37.000Z</time>
      </trkpt>
      <trkpt lat="43.57537" lon="6.11035">
        <ele>452</ele>
        <time>2024-09-29T12:32:38.000Z</time>
      </trkpt>
      <trkpt lat="43.57536" lon="6.11035">
        <ele>452</ele>
        <time>2024-09-29T12:32:39.000Z</time>
      </trkpt>
      <trkpt lat="43.57533" lon="6.11037">
        <ele>451.9</ele>
        <time>2024-09-29T12:32:48.000Z</time>
      </trkpt>
      <trkpt lat="43.57533" lon="6.11037">
        <ele>451.9</ele>
        <time>2024-09-29T12:32:49.000Z</time>
      </trkpt>
      <trkpt lat="43.57533" lon="6.11037">
        <ele>451.8</ele>
        <time>2024-09-29T12:32:56.000Z</time>
      </trkpt>
      <trkpt lat="43.57533" lon="6.11037">
        <ele>451.8</ele>
        <time>2024-09-29T12:32:57.000Z</time>
      </trkpt>
      <trkpt lat="43.57533" lon="6.11037">
        <ele>451.8</ele>
        <time>2024-09-29T12:32:58.000Z</time>
      </trkpt>
      <trkpt lat="43.57533" lon="6.11037">
        <ele>451.8</ele>
        <time>2024-09-29T12:32:59.000Z</time>
      </trkpt>
      <trkpt lat="43.57533" lon="6.11037">
        <ele>451.8</ele>
        <time>2024-09-29T12:33:00.000Z</time>
      </trkpt>
      <trkpt lat="43.57533" lon="6.11037">
        <ele>451.8</ele>
        <time>2024-09-29T12:33:01.000Z</time>
      </trkpt>
      <trkpt lat="43.57533" lon="6.11037">
        <ele>451.8</ele>
        <time>2024-09-29T12:33:02.000Z</time>
      </trkpt>
      <trkpt lat="43.57533" lon="6.11037">
        <ele>451.8</ele>
        <time>2024-09-29T12:33:03.000Z</time>
      </trkpt>
      <trkpt lat="43.57533" lon="6.11037">
        <ele>451.8</ele>
        <time>2024-09-29T12:33:04.000Z</time>
      </trkpt>
      <trkpt lat="43.57533" lon="6.11037">
        <ele>451.8</ele>
        <time>2024-09-29T12:33:05.000Z</time>
      </trkpt>
      <trkpt lat="43.57533" lon="6.11037">
        <ele>451.8</ele>
        <time>2024-09-29T12:33:06.000Z</time>
      </trkpt>
      <trkpt lat="43.57533" lon="6.11037">
        <ele>451.7</ele>
        <time>2024-09-29T12:33:07.000Z</time>
      </trkpt>
      <trkpt lat="43.57533" lon="6.11036">
        <ele>451.7</ele>
        <time>2024-09-29T12:33:08.000Z</time>
      </trkpt>
      <trkpt lat="43.57534" lon="6.11035">
        <ele>451.6</ele>
        <time>2024-09-29T12:33:18.000Z</time>
      </trkpt>
      <trkpt lat="43.57534" lon="6.11035">
        <ele>451.6</ele>
        <time>2024-09-29T12:33:19.000Z</time>
      </trkpt>
      <trkpt lat="43.57533" lon="6.11034">
        <ele>451.3</ele>
        <time>2024-09-29T12:33:38.000Z</time>
      </trkpt>
      <trkpt lat="43.57533" lon="6.11034">
        <ele>451.3</ele>
        <time>2024-09-29T12:33:39.000Z</time>
      </trkpt>
      <trkpt lat="43.57533" lon="6.11034">
        <ele>451.3</ele>
        <time>2024-09-29T12:33:40.000Z</time>
      </trkpt>
      <trkpt lat="43.57533" lon="6.11034">
        <ele>451.3</ele>
        <time>2024-09-29T12:33:41.000Z</time>
      </trkpt>
      <trkpt lat="43.57533" lon="6.11034">
        <ele>451.3</ele>
        <time>2024-09-29T12:33:42.000Z</time>
      </trkpt>
      <trkpt lat="43.57533" lon="6.11035">
        <ele>451.3</ele>
        <time>2024-09-29T12:33:50.000Z</time>
      </trkpt>
      <trkpt lat="43.57532" lon="6.11035">
        <ele>451.3</ele>
        <time>2024-09-29T12:33:51.000Z</time>
      </trkpt>
      <trkpt lat="43.57532" lon="6.11035">
        <ele>451.3</ele>
        <time>2024-09-29T12:33:52.000Z</time>
      </trkpt>
      <trkpt lat="43.57531" lon="6.11037">
        <ele>451.3</ele>
        <time>2024-09-29T12:34:18.000Z</time>
      </trkpt>
      <trkpt lat="43.57531" lon="6.11037">
        <ele>451.3</ele>
        <time>2024-09-29T12:34:19.000Z</time>
      </trkpt>
      <trkpt lat="43.57532" lon="6.11035">
        <ele>451.3</ele>
        <time>2024-09-29T12:34:36.000Z</time>
      </trkpt>
      <trkpt lat="43.57532" lon="6.11034">
        <ele>451.3</ele>
        <time>2024-09-29T12:34:37.000Z</time>
      </trkpt>
      <trkpt lat="43.57542" lon="6.1103">
        <ele>451.4</ele>
        <time>2024-09-29T12:34:49.000Z</time>
      </trkpt>
      <trkpt lat="43.57537" lon="6.11021">
        <ele>451.4</ele>
        <time>2024-09-29T12:35:03.000Z</time>
      </trkpt>
      <trkpt lat="43.57536" lon="6.11021">
        <ele>451.4</ele>
        <time>2024-09-29T12:35:04.000Z</time>
      </trkpt>
      <trkpt lat="43.57535" lon="6.1102">
        <ele>451.4</ele>
        <time>2024-09-29T12:35:05.000Z</time>
      </trkpt>
      <trkpt lat="43.57535" lon="6.11019">
        <ele>451.4</ele>
        <time>2024-09-29T12:35:06.000Z</time>
      </trkpt>
      <trkpt lat="43.57535" lon="6.11019">
        <ele>451.4</ele>
        <time>2024-09-29T12:35:07.000Z</time>
      </trkpt>
      <trkpt lat="43.57534" lon="6.11018">
        <ele>451.4</ele>
        <time>2024-09-29T12:35:14.000Z</time>
      </trkpt>
      <trkpt lat="43.57534" lon="6.11018">
        <ele>451.4</ele>
        <time>2024-09-29T12:35:15.000Z</time>
      </trkpt>
      <trkpt lat="43.57534" lon="6.1102">
        <ele>451.3</ele>
        <time>2024-09-29T12:35:19.000Z</time>
      </trkpt>
      <trkpt lat="43.57534" lon="6.11021">
        <ele>451.3</ele>
        <time>2024-09-29T12:35:20.000Z</time>
      </trkpt>
      <trkpt lat="43.57544" lon="6.11024">
        <ele>451.3</ele>
        <time>2024-09-29T12:35:36.000Z</time>
      </trkpt>
      <trkpt lat="43.57552" lon="6.11018">
        <ele>451.4</ele>
        <time>2024-09-29T12:35:44.000Z</time>
      </trkpt>
      <trkpt lat="43.5756" lon="6.11011">
        <ele>451.5</ele>
        <time>2024-09-29T12:35:51.000Z</time>
      </trkpt>
      <trkpt lat="43.57568" lon="6.11003">
        <ele>451.8</ele>
        <time>2024-09-29T12:36:02.000Z</time>
      </trkpt>
      <trkpt lat="43.57576" lon="6.10998">
        <ele>452.2</ele>
        <time>2024-09-29T12:36:10.000Z</time>
      </trkpt>
      <trkpt lat="43.57581" lon="6.10992">
        <ele>452.7</ele>
        <time>2024-09-29T12:36:21.000Z</time>
      </trkpt>
      <trkpt lat="43.57581" lon="6.10992">
        <ele>452.7</ele>
        <time>2024-09-29T12:36:22.000Z</time>
      </trkpt>
      <trkpt lat="43.57581" lon="6.10992">
        <ele>452.9</ele>
        <time>2024-09-29T12:36:23.000Z</time>
      </trkpt>
      <trkpt lat="43.57581" lon="6.10991">
        <ele>452.9</ele>
        <time>2024-09-29T12:36:24.000Z</time>
      </trkpt>
      <trkpt lat="43.5758" lon="6.1099">
        <ele>453</ele>
        <time>2024-09-29T12:36:25.000Z</time>
      </trkpt>
      <trkpt lat="43.5758" lon="6.1099">
        <ele>453.1</ele>
        <time>2024-09-29T12:36:28.000Z</time>
      </trkpt>
      <trkpt lat="43.5758" lon="6.1099">
        <ele>453.1</ele>
        <time>2024-09-29T12:36:29.000Z</time>
      </trkpt>
      <trkpt lat="43.5758" lon="6.1099">
        <ele>453.1</ele>
        <time>2024-09-29T12:36:30.000Z</time>
      </trkpt>
      <trkpt lat="43.57579" lon="6.10989">
        <ele>453.2</ele>
        <time>2024-09-29T12:36:31.000Z</time>
      </trkpt>
      <trkpt lat="43.57579" lon="6.10989">
        <ele>453.2</ele>
        <time>2024-09-29T12:36:32.000Z</time>
      </trkpt>
      <trkpt lat="43.57579" lon="6.10989">
        <ele>453.2</ele>
        <time>2024-09-29T12:36:33.000Z</time>
      </trkpt>
      <trkpt lat="43.57579" lon="6.10989">
        <ele>453.2</ele>
        <time>2024-09-29T12:36:34.000Z</time>
      </trkpt>
      <trkpt lat="43.57578" lon="6.10988">
        <ele>453.2</ele>
        <time>2024-09-29T12:36:35.000Z</time>
      </trkpt>
      <trkpt lat="43.57578" lon="6.10988">
        <ele>453.2</ele>
        <time>2024-09-29T12:36:36.000Z</time>
      </trkpt>
      <trkpt lat="43.57578" lon="6.10988">
        <ele>453.2</ele>
        <time>2024-09-29T12:36:37.000Z</time>
      </trkpt>
      <trkpt lat="43.57578" lon="6.10988">
        <ele>453.3</ele>
        <time>2024-09-29T12:36:38.000Z</time>
      </trkpt>
      <trkpt lat="43.57578" lon="6.10988">
        <ele>453.3</ele>
        <time>2024-09-29T12:36:39.000Z</time>
      </trkpt>
      <trkpt lat="43.57578" lon="6.10988">
        <ele>453.2</ele>
        <time>2024-09-29T12:36:43.000Z</time>
      </trkpt>
      <trkpt lat="43.57577" lon="6.10988">
        <ele>453.2</ele>
        <time>2024-09-29T12:36:44.000Z</time>
      </trkpt>
      <trkpt lat="43.57577" lon="6.10988">
        <ele>453.3</ele>
        <time>2024-09-29T12:36:48.000Z</time>
      </trkpt>
      <trkpt lat="43.57577" lon="6.10988">
        <ele>453.3</ele>
        <time>2024-09-29T12:36:49.000Z</time>
      </trkpt>
      <trkpt lat="43.57577" lon="6.10988">
        <ele>453.3</ele>
        <time>2024-09-29T12:36:50.000Z</time>
      </trkpt>
      <trkpt lat="43.57577" lon="6.10988">
        <ele>453.3</ele>
        <time>2024-09-29T12:36:54.000Z</time>
      </trkpt>
      <trkpt lat="43.57577" lon="6.10987">
        <ele>453.3</ele>
        <time>2024-09-29T12:36:55.000Z</time>
      </trkpt>
      <trkpt lat="43.57577" lon="6.10987">
        <ele>453.3</ele>
        <time>2024-09-29T12:36:56.000Z</time>
      </trkpt>
      <trkpt lat="43.57577" lon="6.10987">
        <ele>453.2</ele>
        <time>2024-09-29T12:36:57.000Z</time>
      </trkpt>
      <trkpt lat="43.57577" lon="6.10987">
        <ele>453.2</ele>
        <time>2024-09-29T12:36:58.000Z</time>
      </trkpt>
      <trkpt lat="43.57577" lon="6.10987">
        <ele>453.2</ele>
        <time>2024-09-29T12:36:59.000Z</time>
      </trkpt>
      <trkpt lat="43.57577" lon="6.10987">
        <ele>453.2</ele>
        <time>2024-09-29T12:37:08.000Z</time>
      </trkpt>
      <trkpt lat="43.57577" lon="6.10987">
        <ele>453.1</ele>
        <time>2024-09-29T12:37:09.000Z</time>
      </trkpt>
      <trkpt lat="43.57577" lon="6.10987">
        <ele>453</ele>
        <time>2024-09-29T12:37:28.000Z</time>
      </trkpt>
      <trkpt lat="43.57577" lon="6.10987">
        <ele>453</ele>
        <time>2024-09-29T12:37:29.000Z</time>
      </trkpt>
      <trkpt lat="43.57577" lon="6.10987">
        <ele>453</ele>
        <time>2024-09-29T12:37:30.000Z</time>
      </trkpt>
      <trkpt lat="43.57577" lon="6.10987">
        <ele>453</ele>
        <time>2024-09-29T12:37:31.000Z</time>
      </trkpt>
      <trkpt lat="43.57577" lon="6.10987">
        <ele>453</ele>
        <time>2024-09-29T12:37:32.000Z</time>
      </trkpt>
      <trkpt lat="43.57576" lon="6.10986">
        <ele>453</ele>
        <time>2024-09-29T12:38:11.000Z</time>
      </trkpt>
      <trkpt lat="43.57575" lon="6.10985">
        <ele>453</ele>
        <time>2024-09-29T12:38:12.000Z</time>
      </trkpt>
      <trkpt lat="43.57577" lon="6.10971">
        <ele>453</ele>
        <time>2024-09-29T12:38:27.000Z</time>
      </trkpt>
      <trkpt lat="43.57575" lon="6.10959">
        <ele>453</ele>
        <time>2024-09-29T12:38:37.000Z</time>
      </trkpt>
      <trkpt lat="43.57575" lon="6.10946">
        <ele>452.9</ele>
        <time>2024-09-29T12:38:50.000Z</time>
      </trkpt>
      <trkpt lat="43.57574" lon="6.10942">
        <ele>452.8</ele>
        <time>2024-09-29T12:38:58.000Z</time>
      </trkpt>
      <trkpt lat="43.57574" lon="6.10942">
        <ele>452.8</ele>
        <time>2024-09-29T12:38:59.000Z</time>
      </trkpt>
      <trkpt lat="43.57573" lon="6.10942">
        <ele>452.7</ele>
        <time>2024-09-29T12:39:06.000Z</time>
      </trkpt>
      <trkpt lat="43.57572" lon="6.10942">
        <ele>452.7</ele>
        <time>2024-09-29T12:39:07.000Z</time>
      </trkpt>
      <trkpt lat="43.57571" lon="6.10942">
        <ele>452.7</ele>
        <time>2024-09-29T12:39:08.000Z</time>
      </trkpt>
      <trkpt lat="43.5757" lon="6.10942">
        <ele>452.7</ele>
        <time>2024-09-29T12:39:09.000Z</time>
      </trkpt>
      <trkpt lat="43.57569" lon="6.10941">
        <ele>452.5</ele>
        <time>2024-09-29T12:39:23.000Z</time>
      </trkpt>
      <trkpt lat="43.57569" lon="6.10942">
        <ele>452.5</ele>
        <time>2024-09-29T12:39:24.000Z</time>
      </trkpt>
      <trkpt lat="43.57566" lon="6.10939">
        <ele>452.3</ele>
        <time>2024-09-29T12:39:35.000Z</time>
      </trkpt>
      <trkpt lat="43.57566" lon="6.10939">
        <ele>452.2</ele>
        <time>2024-09-29T12:39:36.000Z</time>
      </trkpt>
      <trkpt lat="43.57566" lon="6.10939">
        <ele>452.2</ele>
        <time>2024-09-29T12:39:37.000Z</time>
      </trkpt>
      <trkpt lat="43.57566" lon="6.10941">
        <ele>452.2</ele>
        <time>2024-09-29T12:40:46.000Z</time>
      </trkpt>
      <trkpt lat="43.57567" lon="6.10941">
        <ele>452.2</ele>
        <time>2024-09-29T12:40:47.000Z</time>
      </trkpt>
      <trkpt lat="43.57567" lon="6.10941">
        <ele>452.2</ele>
        <time>2024-09-29T12:40:53.000Z</time>
      </trkpt>
      <trkpt lat="43.57567" lon="6.10941">
        <ele>452.2</ele>
        <time>2024-09-29T12:40:54.000Z</time>
      </trkpt>
      <trkpt lat="43.57567" lon="6.10941">
        <ele>452.2</ele>
        <time>2024-09-29T12:40:55.000Z</time>
      </trkpt>
      <trkpt lat="43.57567" lon="6.10941">
        <ele>452.2</ele>
        <time>2024-09-29T12:40:56.000Z</time>
      </trkpt>
      <trkpt lat="43.57567" lon="6.10941">
        <ele>452.2</ele>
        <time>2024-09-29T12:40:57.000Z</time>
      </trkpt>
      <trkpt lat="43.57559" lon="6.10934">
        <ele>452.1</ele>
        <time>2024-09-29T12:41:10.000Z</time>
      </trkpt>
      <trkpt lat="43.5755" lon="6.10929">
        <ele>451.9</ele>
        <time>2024-09-29T12:41:20.000Z</time>
      </trkpt>
      <trkpt lat="43.57546" lon="6.10926">
        <ele>451.7</ele>
        <time>2024-09-29T12:41:30.000Z</time>
      </trkpt>
      <trkpt lat="43.57546" lon="6.10926">
        <ele>451.7</ele>
        <time>2024-09-29T12:41:31.000Z</time>
      </trkpt>
      <trkpt lat="43.57546" lon="6.10926">
        <ele>451.7</ele>
        <time>2024-09-29T12:41:32.000Z</time>
      </trkpt>
      <trkpt lat="43.57546" lon="6.10926">
        <ele>451.7</ele>
        <time>2024-09-29T12:41:33.000Z</time>
      </trkpt>
      <trkpt lat="43.57545" lon="6.10926">
        <ele>451.6</ele>
        <time>2024-09-29T12:41:34.000Z</time>
      </trkpt>
      <trkpt lat="43.57537" lon="6.10921">
        <ele>451.5</ele>
        <time>2024-09-29T12:41:44.000Z</time>
      </trkpt>
      <trkpt lat="43.57529" lon="6.10914">
        <ele>451.4</ele>
        <time>2024-09-29T12:41:56.000Z</time>
      </trkpt>
      <trkpt lat="43.57528" lon="6.10914">
        <ele>451.3</ele>
        <time>2024-09-29T12:42:01.000Z</time>
      </trkpt>
      <trkpt lat="43.57528" lon="6.10914">
        <ele>451.3</ele>
        <time>2024-09-29T12:42:02.000Z</time>
      </trkpt>
      <trkpt lat="43.57528" lon="6.10914">
        <ele>451.3</ele>
        <time>2024-09-29T12:42:03.000Z</time>
      </trkpt>
      <trkpt lat="43.57527" lon="6.10913">
        <ele>451.2</ele>
        <time>2024-09-29T12:42:11.000Z</time>
      </trkpt>
      <trkpt lat="43.57526" lon="6.10913">
        <ele>451.2</ele>
        <time>2024-09-29T12:42:12.000Z</time>
      </trkpt>
      <trkpt lat="43.57526" lon="6.10913">
        <ele>451.2</ele>
        <time>2024-09-29T12:42:13.000Z</time>
      </trkpt>
      <trkpt lat="43.57523" lon="6.10915">
        <ele>451.2</ele>
        <time>2024-09-29T12:42:19.000Z</time>
      </trkpt>
      <trkpt lat="43.57523" lon="6.10915">
        <ele>451.2</ele>
        <time>2024-09-29T12:42:20.000Z</time>
      </trkpt>
      <trkpt lat="43.57525" lon="6.10917">
        <ele>450.9</ele>
        <time>2024-09-29T12:42:40.000Z</time>
      </trkpt>
      <trkpt lat="43.57524" lon="6.10917">
        <ele>450.9</ele>
        <time>2024-09-29T12:42:41.000Z</time>
      </trkpt>
      <trkpt lat="43.57524" lon="6.10917">
        <ele>450.9</ele>
        <time>2024-09-29T12:42:42.000Z</time>
      </trkpt>
      <trkpt lat="43.57525" lon="6.10917">
        <ele>450.9</ele>
        <time>2024-09-29T12:42:48.000Z</time>
      </trkpt>
      <trkpt lat="43.57525" lon="6.10917">
        <ele>450.9</ele>
        <time>2024-09-29T12:42:49.000Z</time>
      </trkpt>
      <trkpt lat="43.57525" lon="6.10917">
        <ele>450.9</ele>
        <time>2024-09-29T12:42:53.000Z</time>
      </trkpt>
      <trkpt lat="43.57524" lon="6.10917">
        <ele>450.9</ele>
        <time>2024-09-29T12:42:54.000Z</time>
      </trkpt>
      <trkpt lat="43.57515" lon="6.10922">
        <ele>451.1</ele>
        <time>2024-09-29T12:43:11.000Z</time>
      </trkpt>
      <trkpt lat="43.57512" lon="6.10925">
        <ele>451.1</ele>
        <time>2024-09-29T12:43:20.000Z</time>
      </trkpt>
      <trkpt lat="43.57512" lon="6.10925">
        <ele>451.1</ele>
        <time>2024-09-29T12:43:21.000Z</time>
      </trkpt>
      <trkpt lat="43.57512" lon="6.10925">
        <ele>451.1</ele>
        <time>2024-09-29T12:43:22.000Z</time>
      </trkpt>
      <trkpt lat="43.57511" lon="6.10926">
        <ele>451.1</ele>
        <time>2024-09-29T12:43:23.000Z</time>
      </trkpt>
      <trkpt lat="43.57511" lon="6.10926">
        <ele>451.1</ele>
        <time>2024-09-29T12:43:24.000Z</time>
      </trkpt>
      <trkpt lat="43.57502" lon="6.10928">
        <ele>451.2</ele>
        <time>2024-09-29T12:43:34.000Z</time>
      </trkpt>
      <trkpt lat="43.57494" lon="6.10929">
        <ele>451.2</ele>
        <time>2024-09-29T12:43:50.000Z</time>
      </trkpt>
      <trkpt lat="43.57494" lon="6.10929">
        <ele>451.2</ele>
        <time>2024-09-29T12:43:51.000Z</time>
      </trkpt>
      <trkpt lat="43.57494" lon="6.10929">
        <ele>451.2</ele>
        <time>2024-09-29T12:43:52.000Z</time>
      </trkpt>
      <trkpt lat="43.57494" lon="6.10929">
        <ele>451.2</ele>
        <time>2024-09-29T12:43:53.000Z</time>
      </trkpt>
      <trkpt lat="43.57494" lon="6.10929">
        <ele>451.2</ele>
        <time>2024-09-29T12:43:54.000Z</time>
      </trkpt>
      <trkpt lat="43.57494" lon="6.10929">
        <ele>451.2</ele>
        <time>2024-09-29T12:43:55.000Z</time>
      </trkpt>
      <trkpt lat="43.57494" lon="6.10929">
        <ele>451.2</ele>
        <time>2024-09-29T12:43:56.000Z</time>
      </trkpt>
      <trkpt lat="43.57494" lon="6.10929">
        <ele>451.2</ele>
        <time>2024-09-29T12:43:57.000Z</time>
      </trkpt>
      <trkpt lat="43.57494" lon="6.1093">
        <ele>451.2</ele>
        <time>2024-09-29T12:44:03.000Z</time>
      </trkpt>
      <trkpt lat="43.57494" lon="6.10931">
        <ele>451.2</ele>
        <time>2024-09-29T12:44:04.000Z</time>
      </trkpt>
      <trkpt lat="43.57494" lon="6.10931">
        <ele>451.2</ele>
        <time>2024-09-29T12:44:08.000Z</time>
      </trkpt>
      <trkpt lat="43.57494" lon="6.10931">
        <ele>451.2</ele>
        <time>2024-09-29T12:44:09.000Z</time>
      </trkpt>
      <trkpt lat="43.57494" lon="6.10931">
        <ele>451.2</ele>
        <time>2024-09-29T12:44:10.000Z</time>
      </trkpt>
      <trkpt lat="43.57495" lon="6.10931">
        <ele>451.2</ele>
        <time>2024-09-29T12:44:11.000Z</time>
      </trkpt>
      <trkpt lat="43.57495" lon="6.10932">
        <ele>451.2</ele>
        <time>2024-09-29T12:44:12.000Z</time>
      </trkpt>
      <trkpt lat="43.57495" lon="6.10935">
        <ele>451.3</ele>
        <time>2024-09-29T12:44:16.000Z</time>
      </trkpt>
      <trkpt lat="43.57495" lon="6.10935">
        <ele>451.3</ele>
        <time>2024-09-29T12:44:17.000Z</time>
      </trkpt>
      <trkpt lat="43.57495" lon="6.10936">
        <ele>451.3</ele>
        <time>2024-09-29T12:44:38.000Z</time>
      </trkpt>
      <trkpt lat="43.57495" lon="6.10936">
        <ele>451.3</ele>
        <time>2024-09-29T12:44:39.000Z</time>
      </trkpt>
      <trkpt lat="43.57495" lon="6.10936">
        <ele>451.3</ele>
        <time>2024-09-29T12:44:40.000Z</time>
      </trkpt>
      <trkpt lat="43.57495" lon="6.10936">
        <ele>451.3</ele>
        <time>2024-09-29T12:44:41.000Z</time>
      </trkpt>
      <trkpt lat="43.57495" lon="6.10936">
        <ele>451.3</ele>
        <time>2024-09-29T12:44:42.000Z</time>
      </trkpt>
      <trkpt lat="43.57494" lon="6.10936">
        <ele>451.3</ele>
        <time>2024-09-29T12:44:48.000Z</time>
      </trkpt>
      <trkpt lat="43.57494" lon="6.10935">
        <ele>451.3</ele>
        <time>2024-09-29T12:44:49.000Z</time>
      </trkpt>
      <trkpt lat="43.57494" lon="6.10935">
        <ele>451.3</ele>
        <time>2024-09-29T12:44:50.000Z</time>
      </trkpt>
      <trkpt lat="43.57493" lon="6.10936">
        <ele>451.3</ele>
        <time>2024-09-29T12:44:56.000Z</time>
      </trkpt>
      <trkpt lat="43.57493" lon="6.10936">
        <ele>451.3</ele>
        <time>2024-09-29T12:44:57.000Z</time>
      </trkpt>
      <trkpt lat="43.57493" lon="6.10936">
        <ele>451.3</ele>
        <time>2024-09-29T12:45:05.000Z</time>
      </trkpt>
      <trkpt lat="43.57493" lon="6.10936">
        <ele>451.3</ele>
        <time>2024-09-29T12:45:06.000Z</time>
      </trkpt>
      <trkpt lat="43.57493" lon="6.10936">
        <ele>451.3</ele>
        <time>2024-09-29T12:45:07.000Z</time>
      </trkpt>
      <trkpt lat="43.57494" lon="6.10938">
        <ele>451.3</ele>
        <time>2024-09-29T12:45:11.000Z</time>
      </trkpt>
      <trkpt lat="43.57494" lon="6.10938">
        <ele>451.3</ele>
        <time>2024-09-29T12:45:12.000Z</time>
      </trkpt>
      <trkpt lat="43.57494" lon="6.10938">
        <ele>451.3</ele>
        <time>2024-09-29T12:45:13.000Z</time>
      </trkpt>
      <trkpt lat="43.57494" lon="6.10939">
        <ele>451.3</ele>
        <time>2024-09-29T12:45:25.000Z</time>
      </trkpt>
      <trkpt lat="43.57493" lon="6.1094">
        <ele>451.3</ele>
        <time>2024-09-29T12:45:26.000Z</time>
      </trkpt>
      <trkpt lat="43.57494" lon="6.1094">
        <ele>451.3</ele>
        <time>2024-09-29T12:45:27.000Z</time>
      </trkpt>
      <trkpt lat="43.57495" lon="6.10941">
        <ele>451.3</ele>
        <time>2024-09-29T12:45:30.000Z</time>
      </trkpt>
      <trkpt lat="43.57495" lon="6.10941">
        <ele>451.3</ele>
        <time>2024-09-29T12:45:31.000Z</time>
      </trkpt>
      <trkpt lat="43.57495" lon="6.1094">
        <ele>451.3</ele>
        <time>2024-09-29T12:45:32.000Z</time>
      </trkpt>
      <trkpt lat="43.57495" lon="6.1094">
        <ele>451.3</ele>
        <time>2024-09-29T12:45:33.000Z</time>
      </trkpt>
      <trkpt lat="43.57495" lon="6.1094">
        <ele>451.3</ele>
        <time>2024-09-29T12:45:34.000Z</time>
      </trkpt>
      <trkpt lat="43.57495" lon="6.1094">
        <ele>451.3</ele>
        <time>2024-09-29T12:45:35.000Z</time>
      </trkpt>
      <trkpt lat="43.57495" lon="6.1094">
        <ele>451.3</ele>
        <time>2024-09-29T12:45:36.000Z</time>
      </trkpt>
      <trkpt lat="43.57495" lon="6.1094">
        <ele>451.3</ele>
        <time>2024-09-29T12:45:37.000Z</time>
      </trkpt>
      <trkpt lat="43.57495" lon="6.1094">
        <ele>451.3</ele>
        <time>2024-09-29T12:45:44.000Z</time>
      </trkpt>
      <trkpt lat="43.57495" lon="6.1094">
        <ele>451.3</ele>
        <time>2024-09-29T12:45:45.000Z</time>
      </trkpt>
      <trkpt lat="43.57495" lon="6.1094">
        <ele>451.3</ele>
        <time>2024-09-29T12:45:46.000Z</time>
      </trkpt>
      <trkpt lat="43.57494" lon="6.10941">
        <ele>451.3</ele>
        <time>2024-09-29T12:45:47.000Z</time>
      </trkpt>
      <trkpt lat="43.57494" lon="6.10941">
        <ele>451.3</ele>
        <time>2024-09-29T12:45:48.000Z</time>
      </trkpt>
      <trkpt lat="43.57494" lon="6.10941">
        <ele>451.3</ele>
        <time>2024-09-29T12:45:49.000Z</time>
      </trkpt>
      <trkpt lat="43.57494" lon="6.10941">
        <ele>451.3</ele>
        <time>2024-09-29T12:45:50.000Z</time>
      </trkpt>
      <trkpt lat="43.57494" lon="6.10941">
        <ele>451.3</ele>
        <time>2024-09-29T12:45:53.000Z</time>
      </trkpt>
      <trkpt lat="43.57494" lon="6.10941">
        <ele>451.3</ele>
        <time>2024-09-29T12:45:54.000Z</time>
      </trkpt>
      <trkpt lat="43.57494" lon="6.10941">
        <ele>451.3</ele>
        <time>2024-09-29T12:45:55.000Z</time>
      </trkpt>
      <trkpt lat="43.57495" lon="6.10941">
        <ele>451.3</ele>
        <time>2024-09-29T12:45:59.000Z</time>
      </trkpt>
      <trkpt lat="43.57495" lon="6.10941">
        <ele>451.3</ele>
        <time>2024-09-29T12:46:00.000Z</time>
      </trkpt>
      <trkpt lat="43.57495" lon="6.10942">
        <ele>451.3</ele>
        <time>2024-09-29T12:46:04.000Z</time>
      </trkpt>
      <trkpt lat="43.57495" lon="6.10942">
        <ele>451.3</ele>
        <time>2024-09-29T12:46:05.000Z</time>
      </trkpt>
      <trkpt lat="43.57495" lon="6.10941">
        <ele>451.3</ele>
        <time>2024-09-29T12:46:20.000Z</time>
      </trkpt>
      <trkpt lat="43.57495" lon="6.10941">
        <ele>451.3</ele>
        <time>2024-09-29T12:46:21.000Z</time>
      </trkpt>
      <trkpt lat="43.57495" lon="6.10941">
        <ele>451.3</ele>
        <time>2024-09-29T12:46:22.000Z</time>
      </trkpt>
      <trkpt lat="43.57495" lon="6.10941">
        <ele>451.3</ele>
        <time>2024-09-29T12:46:23.000Z</time>
      </trkpt>
      <trkpt lat="43.57495" lon="6.10941">
        <ele>451.3</ele>
        <time>2024-09-29T12:46:24.000Z</time>
      </trkpt>
      <trkpt lat="43.57495" lon="6.10942">
        <ele>451.1</ele>
        <time>2024-09-29T12:46:38.000Z</time>
      </trkpt>
      <trkpt lat="43.57495" lon="6.10942">
        <ele>451.1</ele>
        <time>2024-09-29T12:46:39.000Z</time>
      </trkpt>
      <trkpt lat="43.57495" lon="6.10942">
        <ele>451.1</ele>
        <time>2024-09-29T12:46:40.000Z</time>
      </trkpt>
      <trkpt lat="43.57495" lon="6.10942">
        <ele>451.1</ele>
        <time>2024-09-29T12:46:41.000Z</time>
      </trkpt>
      <trkpt lat="43.57495" lon="6.10942">
        <ele>451.1</ele>
        <time>2024-09-29T12:46:42.000Z</time>
      </trkpt>
      <trkpt lat="43.57495" lon="6.10942">
        <ele>451.1</ele>
        <time>2024-09-29T12:46:43.000Z</time>
      </trkpt>
      <trkpt lat="43.57494" lon="6.10942">
        <ele>451</ele>
        <time>2024-09-29T12:46:44.000Z</time>
      </trkpt>
      <trkpt lat="43.57494" lon="6.10942">
        <ele>451</ele>
        <time>2024-09-29T12:46:45.000Z</time>
      </trkpt>
      <trkpt lat="43.57494" lon="6.10942">
        <ele>451</ele>
        <time>2024-09-29T12:46:46.000Z</time>
      </trkpt>
      <trkpt lat="43.57494" lon="6.10942">
        <ele>451</ele>
        <time>2024-09-29T12:46:47.000Z</time>
      </trkpt>
      <trkpt lat="43.57495" lon="6.10942">
        <ele>450.9</ele>
        <time>2024-09-29T12:47:01.000Z</time>
      </trkpt>
      <trkpt lat="43.57495" lon="6.10942">
        <ele>450.9</ele>
        <time>2024-09-29T12:47:02.000Z</time>
      </trkpt>
      <trkpt lat="43.57495" lon="6.10942">
        <ele>450.9</ele>
        <time>2024-09-29T12:47:03.000Z</time>
      </trkpt>
      <trkpt lat="43.57495" lon="6.10942">
        <ele>450.9</ele>
        <time>2024-09-29T12:47:04.000Z</time>
      </trkpt>
      <trkpt lat="43.57495" lon="6.10942">
        <ele>450.9</ele>
        <time>2024-09-29T12:47:05.000Z</time>
      </trkpt>
      <trkpt lat="43.57494" lon="6.10942">
        <ele>450.9</ele>
        <time>2024-09-29T12:47:20.000Z</time>
      </trkpt>
      <trkpt lat="43.57494" lon="6.10942">
        <ele>450.9</ele>
        <time>2024-09-29T12:47:21.000Z</time>
      </trkpt>
      <trkpt lat="43.57494" lon="6.10941">
        <ele>450.9</ele>
        <time>2024-09-29T12:47:22.000Z</time>
      </trkpt>
      <trkpt lat="43.57494" lon="6.10942">
        <ele>450.9</ele>
        <time>2024-09-29T12:47:31.000Z</time>
      </trkpt>
      <trkpt lat="43.57494" lon="6.10942">
        <ele>450.9</ele>
        <time>2024-09-29T12:47:32.000Z</time>
      </trkpt>
      <trkpt lat="43.57494" lon="6.10942">
        <ele>450.9</ele>
        <time>2024-09-29T12:47:33.000Z</time>
      </trkpt>
      <trkpt lat="43.57494" lon="6.10941">
        <ele>450.9</ele>
        <time>2024-09-29T12:47:43.000Z</time>
      </trkpt>
      <trkpt lat="43.57494" lon="6.10941">
        <ele>450.9</ele>
        <time>2024-09-29T12:47:44.000Z</time>
      </trkpt>
      <trkpt lat="43.57494" lon="6.10941">
        <ele>450.9</ele>
        <time>2024-09-29T12:47:45.000Z</time>
      </trkpt>
      <trkpt lat="43.57494" lon="6.1094">
        <ele>450.9</ele>
        <time>2024-09-29T12:47:46.000Z</time>
      </trkpt>
      <trkpt lat="43.57494" lon="6.1094">
        <ele>450.9</ele>
        <time>2024-09-29T12:47:47.000Z</time>
      </trkpt>
      <trkpt lat="43.57492" lon="6.1094">
        <ele>450.8</ele>
        <time>2024-09-29T12:48:16.000Z</time>
      </trkpt>
      <trkpt lat="43.57493" lon="6.1094">
        <ele>450.8</ele>
        <time>2024-09-29T12:48:17.000Z</time>
      </trkpt>
      <trkpt lat="43.57493" lon="6.1094">
        <ele>450.8</ele>
        <time>2024-09-29T12:48:18.000Z</time>
      </trkpt>
      <trkpt lat="43.57493" lon="6.1094">
        <ele>450.8</ele>
        <time>2024-09-29T12:48:21.000Z</time>
      </trkpt>
      <trkpt lat="43.57493" lon="6.10941">
        <ele>450.8</ele>
        <time>2024-09-29T12:48:22.000Z</time>
      </trkpt>
      <trkpt lat="43.57493" lon="6.10941">
        <ele>450.8</ele>
        <time>2024-09-29T12:48:23.000Z</time>
      </trkpt>
      <trkpt lat="43.57493" lon="6.10942">
        <ele>450.9</ele>
        <time>2024-09-29T12:48:30.000Z</time>
      </trkpt>
      <trkpt lat="43.57493" lon="6.10941">
        <ele>450.9</ele>
        <time>2024-09-29T12:48:31.000Z</time>
      </trkpt>
      <trkpt lat="43.57492" lon="6.10941">
        <ele>450.9</ele>
        <time>2024-09-29T12:48:32.000Z</time>
      </trkpt>
      <trkpt lat="43.57486" lon="6.10932">
        <ele>451</ele>
        <time>2024-09-29T12:48:45.000Z</time>
      </trkpt>
      <trkpt lat="43.57479" lon="6.10923">
        <ele>451.1</ele>
        <time>2024-09-29T12:49:00.000Z</time>
      </trkpt>
      <trkpt lat="43.57472" lon="6.10915">
        <ele>451.1</ele>
        <time>2024-09-29T12:49:12.000Z</time>
      </trkpt>
      <trkpt lat="43.57463" lon="6.10909">
        <ele>451.1</ele>
        <time>2024-09-29T12:49:38.000Z</time>
      </trkpt>
      <trkpt lat="43.57456" lon="6.10901">
        <ele>451.1</ele>
        <time>2024-09-29T12:49:55.000Z</time>
      </trkpt>
      <trkpt lat="43.57448" lon="6.10895">
        <ele>451.2</ele>
        <time>2024-09-29T12:50:08.000Z</time>
      </trkpt>
      <trkpt lat="43.57444" lon="6.10884">
        <ele>451.2</ele>
        <time>2024-09-29T12:50:22.000Z</time>
      </trkpt>
      <trkpt lat="43.57443" lon="6.10871">
        <ele>451.2</ele>
        <time>2024-09-29T12:50:34.000Z</time>
      </trkpt>
      <trkpt lat="43.57443" lon="6.10858">
        <ele>451.3</ele>
        <time>2024-09-29T12:50:45.000Z</time>
      </trkpt>
      <trkpt lat="43.57437" lon="6.10848">
        <ele>451.5</ele>
        <time>2024-09-29T12:50:56.000Z</time>
      </trkpt>
      <trkpt lat="43.57431" lon="6.1084">
        <ele>452.3</ele>
        <time>2024-09-29T12:51:26.000Z</time>
      </trkpt>
      <trkpt lat="43.57431" lon="6.1084">
        <ele>452.3</ele>
        <time>2024-09-29T12:51:27.000Z</time>
      </trkpt>
      <trkpt lat="43.5743" lon="6.10838">
        <ele>452.2</ele>
        <time>2024-09-29T12:51:35.000Z</time>
      </trkpt>
      <trkpt lat="43.5743" lon="6.10838">
        <ele>452.2</ele>
        <time>2024-09-29T12:51:36.000Z</time>
      </trkpt>
      <trkpt lat="43.5743" lon="6.10838">
        <ele>452.2</ele>
        <time>2024-09-29T12:51:37.000Z</time>
      </trkpt>
      <trkpt lat="43.57431" lon="6.10839">
        <ele>452.3</ele>
        <time>2024-09-29T12:51:46.000Z</time>
      </trkpt>
      <trkpt lat="43.57431" lon="6.10839">
        <ele>452.3</ele>
        <time>2024-09-29T12:51:47.000Z</time>
      </trkpt>
      <trkpt lat="43.57431" lon="6.10839">
        <ele>452.3</ele>
        <time>2024-09-29T12:51:48.000Z</time>
      </trkpt>
      <trkpt lat="43.57432" lon="6.10839">
        <ele>451.9</ele>
        <time>2024-09-29T12:52:11.000Z</time>
      </trkpt>
      <trkpt lat="43.57432" lon="6.10839">
        <ele>451.9</ele>
        <time>2024-09-29T12:52:12.000Z</time>
      </trkpt>
      <trkpt lat="43.57432" lon="6.10837">
        <ele>451.9</ele>
        <time>2024-09-29T12:52:18.000Z</time>
      </trkpt>
      <trkpt lat="43.57432" lon="6.10837">
        <ele>452</ele>
        <time>2024-09-29T12:52:19.000Z</time>
      </trkpt>
      <trkpt lat="43.57432" lon="6.10837">
        <ele>452</ele>
        <time>2024-09-29T12:52:20.000Z</time>
      </trkpt>
      <trkpt lat="43.57432" lon="6.10837">
        <ele>452</ele>
        <time>2024-09-29T12:52:21.000Z</time>
      </trkpt>
      <trkpt lat="43.57432" lon="6.10837">
        <ele>452</ele>
        <time>2024-09-29T12:52:22.000Z</time>
      </trkpt>
      <trkpt lat="43.57432" lon="6.10837">
        <ele>452</ele>
        <time>2024-09-29T12:52:23.000Z</time>
      </trkpt>
      <trkpt lat="43.57432" lon="6.10837">
        <ele>452</ele>
        <time>2024-09-29T12:52:24.000Z</time>
      </trkpt>
      <trkpt lat="43.57432" lon="6.10837">
        <ele>452</ele>
        <time>2024-09-29T12:52:25.000Z</time>
      </trkpt>
      <trkpt lat="43.57432" lon="6.10837">
        <ele>452</ele>
        <time>2024-09-29T12:52:31.000Z</time>
      </trkpt>
      <trkpt lat="43.57432" lon="6.10837">
        <ele>452</ele>
        <time>2024-09-29T12:52:32.000Z</time>
      </trkpt>
      <trkpt lat="43.57432" lon="6.10837">
        <ele>452</ele>
        <time>2024-09-29T12:52:33.000Z</time>
      </trkpt>
      <trkpt lat="43.57432" lon="6.10837">
        <ele>452</ele>
        <time>2024-09-29T12:52:34.000Z</time>
      </trkpt>
      <trkpt lat="43.57432" lon="6.10837">
        <ele>452</ele>
        <time>2024-09-29T12:52:35.000Z</time>
      </trkpt>
      <trkpt lat="43.57433" lon="6.10835">
        <ele>452</ele>
        <time>2024-09-29T12:52:43.000Z</time>
      </trkpt>
      <trkpt lat="43.57433" lon="6.10835">
        <ele>452</ele>
        <time>2024-09-29T12:52:44.000Z</time>
      </trkpt>
      <trkpt lat="43.57433" lon="6.10835">
        <ele>452</ele>
        <time>2024-09-29T12:52:45.000Z</time>
      </trkpt>
      <trkpt lat="43.57433" lon="6.10835">
        <ele>452</ele>
        <time>2024-09-29T12:52:46.000Z</time>
      </trkpt>
      <trkpt lat="43.57433" lon="6.10835">
        <ele>452</ele>
        <time>2024-09-29T12:52:47.000Z</time>
      </trkpt>
      <trkpt lat="43.57433" lon="6.10834">
        <ele>452</ele>
        <time>2024-09-29T12:52:48.000Z</time>
      </trkpt>
      <trkpt lat="43.57432" lon="6.10834">
        <ele>452</ele>
        <time>2024-09-29T12:52:49.000Z</time>
      </trkpt>
      <trkpt lat="43.57434" lon="6.1083">
        <ele>452</ele>
        <time>2024-09-29T12:53:00.000Z</time>
      </trkpt>
      <trkpt lat="43.57434" lon="6.1083">
        <ele>452</ele>
        <time>2024-09-29T12:53:01.000Z</time>
      </trkpt>
      <trkpt lat="43.57434" lon="6.1083">
        <ele>452</ele>
        <time>2024-09-29T12:53:02.000Z</time>
      </trkpt>
      <trkpt lat="43.57434" lon="6.1083">
        <ele>452</ele>
        <time>2024-09-29T12:53:03.000Z</time>
      </trkpt>
      <trkpt lat="43.57434" lon="6.1083">
        <ele>452</ele>
        <time>2024-09-29T12:53:04.000Z</time>
      </trkpt>
      <trkpt lat="43.57434" lon="6.1083">
        <ele>452</ele>
        <time>2024-09-29T12:53:08.000Z</time>
      </trkpt>
      <trkpt lat="43.57434" lon="6.1083">
        <ele>452</ele>
        <time>2024-09-29T12:53:09.000Z</time>
      </trkpt>
      <trkpt lat="43.57434" lon="6.1083">
        <ele>452</ele>
        <time>2024-09-29T12:53:10.000Z</time>
      </trkpt>
      <trkpt lat="43.57434" lon="6.10828">
        <ele>452</ele>
        <time>2024-09-29T12:53:18.000Z</time>
      </trkpt>
      <trkpt lat="43.57435" lon="6.10827">
        <ele>452</ele>
        <time>2024-09-29T12:53:19.000Z</time>
      </trkpt>
      <trkpt lat="43.57432" lon="6.10815">
        <ele>452.1</ele>
        <time>2024-09-29T12:53:36.000Z</time>
      </trkpt>
      <trkpt lat="43.57431" lon="6.10802">
        <ele>452.3</ele>
        <time>2024-09-29T12:53:50.000Z</time>
      </trkpt>
      <trkpt lat="43.57433" lon="6.1079">
        <ele>452.5</ele>
        <time>2024-09-29T12:54:00.000Z</time>
      </trkpt>
      <trkpt lat="43.57431" lon="6.10776">
        <ele>452.7</ele>
        <time>2024-09-29T12:54:12.000Z</time>
      </trkpt>
      <trkpt lat="43.57429" lon="6.10763">
        <ele>452.8</ele>
        <time>2024-09-29T12:54:22.000Z</time>
      </trkpt>
      <trkpt lat="43.57433" lon="6.10752">
        <ele>452.9</ele>
        <time>2024-09-29T12:54:39.000Z</time>
      </trkpt>
      <trkpt lat="43.57441" lon="6.10744">
        <ele>452.8</ele>
        <time>2024-09-29T12:54:51.000Z</time>
      </trkpt>
      <trkpt lat="43.5745" lon="6.10741">
        <ele>452.7</ele>
        <time>2024-09-29T12:55:04.000Z</time>
      </trkpt>
      <trkpt lat="43.57459" lon="6.10741">
        <ele>452.6</ele>
        <time>2024-09-29T12:55:16.000Z</time>
      </trkpt>
      <trkpt lat="43.57469" lon="6.1074">
        <ele>452.5</ele>
        <time>2024-09-29T12:55:28.000Z</time>
      </trkpt>
      <trkpt lat="43.57478" lon="6.10741">
        <ele>452.4</ele>
        <time>2024-09-29T12:55:44.000Z</time>
      </trkpt>
      <trkpt lat="43.57488" lon="6.10742">
        <ele>452.4</ele>
        <time>2024-09-29T12:55:54.000Z</time>
      </trkpt>
      <trkpt lat="43.57497" lon="6.10743">
        <ele>452.5</ele>
        <time>2024-09-29T12:56:03.000Z</time>
      </trkpt>
      <trkpt lat="43.57506" lon="6.10742">
        <ele>452.8</ele>
        <time>2024-09-29T12:56:17.000Z</time>
      </trkpt>
      <trkpt lat="43.57516" lon="6.10742">
        <ele>453.3</ele>
        <time>2024-09-29T12:56:29.000Z</time>
      </trkpt>
      <trkpt lat="43.57525" lon="6.10738">
        <ele>454.3</ele>
        <time>2024-09-29T12:56:44.000Z</time>
      </trkpt>
      <trkpt lat="43.57534" lon="6.10738">
        <ele>456.1</ele>
        <time>2024-09-29T12:56:59.000Z</time>
      </trkpt>
      <trkpt lat="43.57544" lon="6.10738">
        <ele>457.1</ele>
        <time>2024-09-29T12:57:12.000Z</time>
      </trkpt>
      <trkpt lat="43.57553" lon="6.10741">
        <ele>458</ele>
        <time>2024-09-29T12:57:26.000Z</time>
      </trkpt>
      <trkpt lat="43.57562" lon="6.10736">
        <ele>458.3</ele>
        <time>2024-09-29T12:57:35.000Z</time>
      </trkpt>
      <trkpt lat="43.5757" lon="6.10729">
        <ele>459.1</ele>
        <time>2024-09-29T12:57:51.000Z</time>
      </trkpt>
      <trkpt lat="43.57571" lon="6.10727">
        <ele>459.3</ele>
        <time>2024-09-29T12:57:56.000Z</time>
      </trkpt>
      <trkpt lat="43.57571" lon="6.10727">
        <ele>459.4</ele>
        <time>2024-09-29T12:57:57.000Z</time>
      </trkpt>
      <trkpt lat="43.57574" lon="6.10725">
        <ele>459.5</ele>
        <time>2024-09-29T12:58:04.000Z</time>
      </trkpt>
      <trkpt lat="43.57574" lon="6.10724">
        <ele>459.5</ele>
        <time>2024-09-29T12:58:05.000Z</time>
      </trkpt>
      <trkpt lat="43.57583" lon="6.10719">
        <ele>459.6</ele>
        <time>2024-09-29T12:58:18.000Z</time>
      </trkpt>
      <trkpt lat="43.5759" lon="6.10712">
        <ele>459.9</ele>
        <time>2024-09-29T12:58:29.000Z</time>
      </trkpt>
      <trkpt lat="43.57598" lon="6.10705">
        <ele>460.4</ele>
        <time>2024-09-29T12:58:39.000Z</time>
      </trkpt>
      <trkpt lat="43.57607" lon="6.10706">
        <ele>461.4</ele>
        <time>2024-09-29T12:59:01.000Z</time>
      </trkpt>
      <trkpt lat="43.57617" lon="6.10705">
        <ele>462</ele>
        <time>2024-09-29T12:59:15.000Z</time>
      </trkpt>
      <trkpt lat="43.57626" lon="6.10701">
        <ele>462.4</ele>
        <time>2024-09-29T12:59:28.000Z</time>
      </trkpt>
      <trkpt lat="43.57635" lon="6.107">
        <ele>462.9</ele>
        <time>2024-09-29T12:59:41.000Z</time>
      </trkpt>
      <trkpt lat="43.57644" lon="6.10699">
        <ele>463.2</ele>
        <time>2024-09-29T12:59:52.000Z</time>
      </trkpt>
      <trkpt lat="43.57654" lon="6.10695">
        <ele>463.9</ele>
        <time>2024-09-29T13:00:05.000Z</time>
      </trkpt>
      <trkpt lat="43.57663" lon="6.10694">
        <ele>464.2</ele>
        <time>2024-09-29T13:00:16.000Z</time>
      </trkpt>
      <trkpt lat="43.57672" lon="6.1069">
        <ele>464.7</ele>
        <time>2024-09-29T13:00:26.000Z</time>
      </trkpt>
      <trkpt lat="43.57681" lon="6.10687">
        <ele>464.9</ele>
        <time>2024-09-29T13:00:36.000Z</time>
      </trkpt>
      <trkpt lat="43.5769" lon="6.10682">
        <ele>465.1</ele>
        <time>2024-09-29T13:00:50.000Z</time>
      </trkpt>
      <trkpt lat="43.57699" lon="6.1068">
        <ele>465.4</ele>
        <time>2024-09-29T13:01:04.000Z</time>
      </trkpt>
      <trkpt lat="43.57708" lon="6.10674">
        <ele>465.6</ele>
        <time>2024-09-29T13:01:14.000Z</time>
      </trkpt>
      <trkpt lat="43.57716" lon="6.10668">
        <ele>465.9</ele>
        <time>2024-09-29T13:01:24.000Z</time>
      </trkpt>
      <trkpt lat="43.57726" lon="6.10665">
        <ele>466</ele>
        <time>2024-09-29T13:01:34.000Z</time>
      </trkpt>
      <trkpt lat="43.57735" lon="6.10664">
        <ele>466.4</ele>
        <time>2024-09-29T13:01:50.000Z</time>
      </trkpt>
      <trkpt lat="43.57743" lon="6.10659">
        <ele>466.8</ele>
        <time>2024-09-29T13:02:03.000Z</time>
      </trkpt>
      <trkpt lat="43.57752" lon="6.10659">
        <ele>467.1</ele>
        <time>2024-09-29T13:02:17.000Z</time>
      </trkpt>
      <trkpt lat="43.57761" lon="6.10655">
        <ele>467.4</ele>
        <time>2024-09-29T13:02:29.000Z</time>
      </trkpt>
      <trkpt lat="43.57771" lon="6.10653">
        <ele>467.8</ele>
        <time>2024-09-29T13:02:43.000Z</time>
      </trkpt>
      <trkpt lat="43.5778" lon="6.10649">
        <ele>467.9</ele>
        <time>2024-09-29T13:02:52.000Z</time>
      </trkpt>
      <trkpt lat="43.57782" lon="6.10648">
        <ele>468.1</ele>
        <time>2024-09-29T13:03:03.000Z</time>
      </trkpt>
      <trkpt lat="43.57782" lon="6.10648">
        <ele>468.1</ele>
        <time>2024-09-29T13:03:04.000Z</time>
      </trkpt>
      <trkpt lat="43.57782" lon="6.10648">
        <ele>468.1</ele>
        <time>2024-09-29T13:03:05.000Z</time>
      </trkpt>
      <trkpt lat="43.57782" lon="6.10647">
        <ele>468.2</ele>
        <time>2024-09-29T13:03:11.000Z</time>
      </trkpt>
      <trkpt lat="43.57782" lon="6.10647">
        <ele>468.2</ele>
        <time>2024-09-29T13:03:12.000Z</time>
      </trkpt>
      <trkpt lat="43.57782" lon="6.10647">
        <ele>468.2</ele>
        <time>2024-09-29T13:03:13.000Z</time>
      </trkpt>
      <trkpt lat="43.57782" lon="6.10647">
        <ele>468.2</ele>
        <time>2024-09-29T13:03:14.000Z</time>
      </trkpt>
      <trkpt lat="43.57784" lon="6.10646">
        <ele>468.2</ele>
        <time>2024-09-29T13:03:18.000Z</time>
      </trkpt>
      <trkpt lat="43.57784" lon="6.10645">
        <ele>468.2</ele>
        <time>2024-09-29T13:03:19.000Z</time>
      </trkpt>
      <trkpt lat="43.57785" lon="6.10644">
        <ele>468.2</ele>
        <time>2024-09-29T13:03:20.000Z</time>
      </trkpt>
      <trkpt lat="43.57785" lon="6.10644">
        <ele>468.3</ele>
        <time>2024-09-29T13:03:24.000Z</time>
      </trkpt>
      <trkpt lat="43.57785" lon="6.10644">
        <ele>468.3</ele>
        <time>2024-09-29T13:03:25.000Z</time>
      </trkpt>
      <trkpt lat="43.57785" lon="6.10643">
        <ele>468.3</ele>
        <time>2024-09-29T13:03:50.000Z</time>
      </trkpt>
      <trkpt lat="43.57785" lon="6.10643">
        <ele>468.3</ele>
        <time>2024-09-29T13:03:51.000Z</time>
      </trkpt>
      <trkpt lat="43.57785" lon="6.10643">
        <ele>468.4</ele>
        <time>2024-09-29T13:03:52.000Z</time>
      </trkpt>
      <trkpt lat="43.57785" lon="6.10643">
        <ele>468.4</ele>
        <time>2024-09-29T13:03:53.000Z</time>
      </trkpt>
      <trkpt lat="43.57785" lon="6.10643">
        <ele>468.4</ele>
        <time>2024-09-29T13:03:54.000Z</time>
      </trkpt>
      <trkpt lat="43.57785" lon="6.10643">
        <ele>468.4</ele>
        <time>2024-09-29T13:03:55.000Z</time>
      </trkpt>
      <trkpt lat="43.57785" lon="6.10642">
        <ele>468.4</ele>
        <time>2024-09-29T13:04:26.000Z</time>
      </trkpt>
      <trkpt lat="43.57785" lon="6.10642">
        <ele>468.4</ele>
        <time>2024-09-29T13:04:27.000Z</time>
      </trkpt>
      <trkpt lat="43.57785" lon="6.10642">
        <ele>468.4</ele>
        <time>2024-09-29T13:04:30.000Z</time>
      </trkpt>
      <trkpt lat="43.57785" lon="6.10642">
        <ele>468.4</ele>
        <time>2024-09-29T13:04:31.000Z</time>
      </trkpt>
      <trkpt lat="43.57785" lon="6.10642">
        <ele>468.4</ele>
        <time>2024-09-29T13:04:32.000Z</time>
      </trkpt>
      <trkpt lat="43.57786" lon="6.10642">
        <ele>468.4</ele>
        <time>2024-09-29T13:04:45.000Z</time>
      </trkpt>
      <trkpt lat="43.57786" lon="6.10642">
        <ele>468.4</ele>
        <time>2024-09-29T13:04:46.000Z</time>
      </trkpt>
      <trkpt lat="43.57786" lon="6.10642">
        <ele>468.4</ele>
        <time>2024-09-29T13:04:47.000Z</time>
      </trkpt>
      <trkpt lat="43.57786" lon="6.10642">
        <ele>468.5</ele>
        <time>2024-09-29T13:04:51.000Z</time>
      </trkpt>
      <trkpt lat="43.57786" lon="6.10642">
        <ele>468.5</ele>
        <time>2024-09-29T13:04:52.000Z</time>
      </trkpt>
      <trkpt lat="43.57786" lon="6.10642">
        <ele>468.5</ele>
        <time>2024-09-29T13:04:53.000Z</time>
      </trkpt>
      <trkpt lat="43.57786" lon="6.10642">
        <ele>468.5</ele>
        <time>2024-09-29T13:05:01.000Z</time>
      </trkpt>
      <trkpt lat="43.57786" lon="6.10642">
        <ele>468.5</ele>
        <time>2024-09-29T13:05:02.000Z</time>
      </trkpt>
      <trkpt lat="43.57786" lon="6.10642">
        <ele>468.5</ele>
        <time>2024-09-29T13:05:03.000Z</time>
      </trkpt>
      <trkpt lat="43.57785" lon="6.10642">
        <ele>468.6</ele>
        <time>2024-09-29T13:05:08.000Z</time>
      </trkpt>
      <trkpt lat="43.57785" lon="6.10642">
        <ele>468.6</ele>
        <time>2024-09-29T13:05:09.000Z</time>
      </trkpt>
      <trkpt lat="43.57785" lon="6.10641">
        <ele>468.6</ele>
        <time>2024-09-29T13:05:18.000Z</time>
      </trkpt>
      <trkpt lat="43.57785" lon="6.10641">
        <ele>468.6</ele>
        <time>2024-09-29T13:05:19.000Z</time>
      </trkpt>
      <trkpt lat="43.57785" lon="6.10641">
        <ele>468.6</ele>
        <time>2024-09-29T13:05:20.000Z</time>
      </trkpt>
      <trkpt lat="43.57785" lon="6.10641">
        <ele>468.6</ele>
        <time>2024-09-29T13:05:21.000Z</time>
      </trkpt>
      <trkpt lat="43.57785" lon="6.10641">
        <ele>468.6</ele>
        <time>2024-09-29T13:05:22.000Z</time>
      </trkpt>
      <trkpt lat="43.57785" lon="6.10641">
        <ele>468.6</ele>
        <time>2024-09-29T13:05:40.000Z</time>
      </trkpt>
      <trkpt lat="43.57785" lon="6.10641">
        <ele>468.6</ele>
        <time>2024-09-29T13:05:41.000Z</time>
      </trkpt>
      <trkpt lat="43.57785" lon="6.10641">
        <ele>468.6</ele>
        <time>2024-09-29T13:05:42.000Z</time>
      </trkpt>
      <trkpt lat="43.57785" lon="6.10641">
        <ele>468.6</ele>
        <time>2024-09-29T13:05:43.000Z</time>
      </trkpt>
      <trkpt lat="43.57785" lon="6.10641">
        <ele>468.6</ele>
        <time>2024-09-29T13:05:44.000Z</time>
      </trkpt>
      <trkpt lat="43.57786" lon="6.10641">
        <ele>468.6</ele>
        <time>2024-09-29T13:05:45.000Z</time>
      </trkpt>
      <trkpt lat="43.57786" lon="6.1064">
        <ele>468.6</ele>
        <time>2024-09-29T13:05:46.000Z</time>
      </trkpt>
      <trkpt lat="43.57787" lon="6.1064">
        <ele>468.6</ele>
        <time>2024-09-29T13:05:47.000Z</time>
      </trkpt>
      <trkpt lat="43.57796" lon="6.10642">
        <ele>468.5</ele>
        <time>2024-09-29T13:05:59.000Z</time>
      </trkpt>
      <trkpt lat="43.57806" lon="6.10643">
        <ele>468.6</ele>
        <time>2024-09-29T13:06:11.000Z</time>
      </trkpt>
      <trkpt lat="43.57815" lon="6.10643">
        <ele>468.6</ele>
        <time>2024-09-29T13:06:22.000Z</time>
      </trkpt>
      <trkpt lat="43.57825" lon="6.10642">
        <ele>468.7</ele>
        <time>2024-09-29T13:06:32.000Z</time>
      </trkpt>
      <trkpt lat="43.57834" lon="6.10638">
        <ele>468.8</ele>
        <time>2024-09-29T13:06:42.000Z</time>
      </trkpt>
      <trkpt lat="43.57843" lon="6.10635">
        <ele>468.9</ele>
        <time>2024-09-29T13:06:52.000Z</time>
      </trkpt>
      <trkpt lat="43.57853" lon="6.10633">
        <ele>469</ele>
        <time>2024-09-29T13:07:02.000Z</time>
      </trkpt>
      <trkpt lat="43.57863" lon="6.1063">
        <ele>469.1</ele>
        <time>2024-09-29T13:07:11.000Z</time>
      </trkpt>
      <trkpt lat="43.57873" lon="6.10627">
        <ele>469.2</ele>
        <time>2024-09-29T13:07:20.000Z</time>
      </trkpt>
      <trkpt lat="43.57881" lon="6.10621">
        <ele>469.3</ele>
        <time>2024-09-29T13:07:29.000Z</time>
      </trkpt>
      <trkpt lat="43.5789" lon="6.10618">
        <ele>469.4</ele>
        <time>2024-09-29T13:07:38.000Z</time>
      </trkpt>
      <trkpt lat="43.57899" lon="6.10616">
        <ele>469.5</ele>
        <time>2024-09-29T13:07:48.000Z</time>
      </trkpt>
      <trkpt lat="43.57909" lon="6.10613">
        <ele>469.5</ele>
        <time>2024-09-29T13:08:00.000Z</time>
      </trkpt>
      <trkpt lat="43.57917" lon="6.10609">
        <ele>469.5</ele>
        <time>2024-09-29T13:08:08.000Z</time>
      </trkpt>
      <trkpt lat="43.57927" lon="6.10605">
        <ele>469.6</ele>
        <time>2024-09-29T13:08:19.000Z</time>
      </trkpt>
      <trkpt lat="43.57935" lon="6.106">
        <ele>469.8</ele>
        <time>2024-09-29T13:08:27.000Z</time>
      </trkpt>
      <trkpt lat="43.57944" lon="6.10595">
        <ele>470.2</ele>
        <time>2024-09-29T13:08:36.000Z</time>
      </trkpt>
      <trkpt lat="43.57953" lon="6.10593">
        <ele>470.2</ele>
        <time>2024-09-29T13:08:45.000Z</time>
      </trkpt>
      <trkpt lat="43.57962" lon="6.10589">
        <ele>470.3</ele>
        <time>2024-09-29T13:08:54.000Z</time>
      </trkpt>
      <trkpt lat="43.57971" lon="6.10587">
        <ele>470.4</ele>
        <time>2024-09-29T13:09:04.000Z</time>
      </trkpt>
      <trkpt lat="43.57981" lon="6.10583">
        <ele>470.5</ele>
        <time>2024-09-29T13:09:15.000Z</time>
      </trkpt>
      <trkpt lat="43.5799" lon="6.10582">
        <ele>470.6</ele>
        <time>2024-09-29T13:09:26.000Z</time>
      </trkpt>
      <trkpt lat="43.57999" lon="6.1058">
        <ele>470.9</ele>
        <time>2024-09-29T13:09:36.000Z</time>
      </trkpt>
      <trkpt lat="43.58009" lon="6.10577">
        <ele>471</ele>
        <time>2024-09-29T13:09:45.000Z</time>
      </trkpt>
      <trkpt lat="43.58017" lon="6.10574">
        <ele>471.2</ele>
        <time>2024-09-29T13:09:58.000Z</time>
      </trkpt>
      <trkpt lat="43.58025" lon="6.10582">
        <ele>471.4</ele>
        <time>2024-09-29T13:10:09.000Z</time>
      </trkpt>
      <trkpt lat="43.58035" lon="6.10583">
        <ele>471.6</ele>
        <time>2024-09-29T13:10:20.000Z</time>
      </trkpt>
      <trkpt lat="43.58044" lon="6.10579">
        <ele>472</ele>
        <time>2024-09-29T13:10:31.000Z</time>
      </trkpt>
      <trkpt lat="43.58049" lon="6.10574">
        <ele>472.5</ele>
        <time>2024-09-29T13:10:48.000Z</time>
      </trkpt>
    </trkseg>
  </trk>
</gpx>